<?xml version="1.0" encoding="UTF-8" standalone="no" ?>
<gpx xmlns="http://www.topografix.com/GPX/1/1" xmlns:xsi="http://www.w3.org/2001/XMLSchema-instance" xsi:schemaLocation="http://www.topografix.com/GPX/1/1 http://www.topografix.com/GPX/1/1/gpx.xsd" version="1.1" creator="VisuGPX - https://www.visugpx.com">
  <metadata>
    <name>GT VTT de l\'Ardèche</name>
    <desc><![CDATA[200kms en 4j
niveau facile
parfois de bonnes descentes
paysages     ]]></desc>
  </metadata>
  <trk>
    <name><![CDATA[11-JUIL-14 16:54:32]]></name>
    <trkseg>
      <trkpt lat="45.05303" lon="4.39492">
        <ele>1096</ele>
        <time>2014-07-11T09:54:06Z</time>
      </trkpt>
      <trkpt lat="45.05302" lon="4.39508">
        <ele>1096</ele>
        <time>2014-07-11T09:54:15Z</time>
      </trkpt>
      <trkpt lat="45.05304" lon="4.39506">
        <ele>1096</ele>
        <time>2014-07-11T09:54:18Z</time>
      </trkpt>
      <trkpt lat="45.05304" lon="4.39505">
        <ele>1096</ele>
        <time>2014-07-11T09:54:20Z</time>
      </trkpt>
      <trkpt lat="45.05304" lon="4.39504">
        <ele>1096</ele>
        <time>2014-07-11T09:54:21Z</time>
      </trkpt>
      <trkpt lat="45.05303" lon="4.39504">
        <ele>1096</ele>
        <time>2014-07-11T09:54:23Z</time>
      </trkpt>
      <trkpt lat="45.05303" lon="4.39504">
        <ele>1096</ele>
        <time>2014-07-11T09:54:25Z</time>
      </trkpt>
      <trkpt lat="45.05303" lon="4.39504">
        <ele>1096</ele>
        <time>2014-07-11T09:54:27Z</time>
      </trkpt>
      <trkpt lat="45.05303" lon="4.39504">
        <ele>1096</ele>
        <time>2014-07-11T09:54:29Z</time>
      </trkpt>
      <trkpt lat="45.05304" lon="4.39505">
        <ele>1096</ele>
        <time>2014-07-11T09:54:31Z</time>
      </trkpt>
      <trkpt lat="45.05304" lon="4.39505">
        <ele>1096</ele>
        <time>2014-07-11T09:54:33Z</time>
      </trkpt>
      <trkpt lat="45.05305" lon="4.39505">
        <ele>1096</ele>
        <time>2014-07-11T09:54:35Z</time>
      </trkpt>
      <trkpt lat="45.05306" lon="4.39505">
        <ele>1096</ele>
        <time>2014-07-11T09:54:36Z</time>
      </trkpt>
      <trkpt lat="45.05307" lon="4.39505">
        <ele>1096</ele>
        <time>2014-07-11T09:54:39Z</time>
      </trkpt>
      <trkpt lat="45.05307" lon="4.39505">
        <ele>1096</ele>
        <time>2014-07-11T09:54:42Z</time>
      </trkpt>
      <trkpt lat="45.05307" lon="4.39506">
        <ele>1096</ele>
        <time>2014-07-11T09:54:45Z</time>
      </trkpt>
      <trkpt lat="45.05306" lon="4.39506">
        <ele>1096</ele>
        <time>2014-07-11T09:54:51Z</time>
      </trkpt>
      <trkpt lat="45.05306" lon="4.39506">
        <ele>1096</ele>
        <time>2014-07-11T09:54:59Z</time>
      </trkpt>
      <trkpt lat="45.05306" lon="4.39506">
        <ele>1096</ele>
        <time>2014-07-11T09:55:07Z</time>
      </trkpt>
      <trkpt lat="45.05306" lon="4.39507">
        <ele>1096</ele>
        <time>2014-07-11T09:55:20Z</time>
      </trkpt>
      <trkpt lat="45.05308" lon="4.39506">
        <ele>1096</ele>
        <time>2014-07-11T09:56:16Z</time>
      </trkpt>
      <trkpt lat="45.05307" lon="4.3951">
        <ele>1096</ele>
        <time>2014-07-11T09:56:49Z</time>
      </trkpt>
      <trkpt lat="45.05311" lon="4.3951">
        <ele>1096</ele>
        <time>2014-07-11T10:00:35Z</time>
      </trkpt>
      <trkpt lat="45.05307" lon="4.39507">
        <ele>1096</ele>
        <time>2014-07-11T10:03:37Z</time>
      </trkpt>
      <trkpt lat="45.0531" lon="4.3951">
        <ele>1096</ele>
        <time>2014-07-11T10:05:50Z</time>
      </trkpt>
      <trkpt lat="45.05308" lon="4.39509">
        <ele>1096</ele>
        <time>2014-07-11T10:08:23Z</time>
      </trkpt>
      <trkpt lat="45.05307" lon="4.39506">
        <ele>1096</ele>
        <time>2014-07-11T10:12:04Z</time>
      </trkpt>
      <trkpt lat="45.05312" lon="4.39509">
        <ele>1096</ele>
        <time>2014-07-11T10:14:34Z</time>
      </trkpt>
      <trkpt lat="45.05308" lon="4.39507">
        <ele>1096</ele>
        <time>2014-07-11T10:16:58Z</time>
      </trkpt>
      <trkpt lat="45.0531" lon="4.39506">
        <ele>1096</ele>
        <time>2014-07-11T10:19:02Z</time>
      </trkpt>
      <trkpt lat="45.05309" lon="4.39504">
        <ele>1096</ele>
        <time>2014-07-11T10:20:41Z</time>
      </trkpt>
      <trkpt lat="45.0531" lon="4.39506">
        <ele>1096</ele>
        <time>2014-07-11T10:21:58Z</time>
      </trkpt>
      <trkpt lat="45.05307" lon="4.39512">
        <ele>1096</ele>
        <time>2014-07-11T10:22:16Z</time>
      </trkpt>
      <trkpt lat="45.05307" lon="4.39513">
        <ele>1096</ele>
        <time>2014-07-11T10:23:03Z</time>
      </trkpt>
      <trkpt lat="45.05307" lon="4.39507">
        <ele>1096</ele>
        <time>2014-07-11T10:23:43Z</time>
      </trkpt>
      <trkpt lat="45.05306" lon="4.39506">
        <ele>1096</ele>
        <time>2014-07-11T10:24:31Z</time>
      </trkpt>
      <trkpt lat="45.05315" lon="4.3955">
        <ele>1096</ele>
        <time>2014-07-11T10:24:51Z</time>
      </trkpt>
      <trkpt lat="45.0533" lon="4.39604">
        <ele>1096</ele>
        <time>2014-07-11T10:25:17Z</time>
      </trkpt>
      <trkpt lat="45.0533" lon="4.39607">
        <ele>1096</ele>
        <time>2014-07-11T10:25:18Z</time>
      </trkpt>
      <trkpt lat="45.0535" lon="4.39681">
        <ele>1100</ele>
        <time>2014-07-11T10:25:35Z</time>
      </trkpt>
      <trkpt lat="45.05368" lon="4.39745">
        <ele>1102</ele>
        <time>2014-07-11T10:25:48Z</time>
      </trkpt>
      <trkpt lat="45.05378" lon="4.39765">
        <ele>1102</ele>
        <time>2014-07-11T10:25:52Z</time>
      </trkpt>
      <trkpt lat="45.05417" lon="4.39846">
        <ele>1103</ele>
        <time>2014-07-11T10:26:07Z</time>
      </trkpt>
      <trkpt lat="45.05423" lon="4.39857">
        <ele>1103</ele>
        <time>2014-07-11T10:26:09Z</time>
      </trkpt>
      <trkpt lat="45.05426" lon="4.39862">
        <ele>1102</ele>
        <time>2014-07-11T10:26:10Z</time>
      </trkpt>
      <trkpt lat="45.05431" lon="4.39873">
        <ele>1102</ele>
        <time>2014-07-11T10:26:12Z</time>
      </trkpt>
      <trkpt lat="45.05448" lon="4.39909">
        <ele>1101</ele>
        <time>2014-07-11T10:26:19Z</time>
      </trkpt>
      <trkpt lat="45.0546" lon="4.40009">
        <ele>1094</ele>
        <time>2014-07-11T10:26:36Z</time>
      </trkpt>
      <trkpt lat="45.05468" lon="4.40086">
        <ele>1095</ele>
        <time>2014-07-11T10:26:56Z</time>
      </trkpt>
      <trkpt lat="45.05522" lon="4.40125">
        <ele>1095</ele>
        <time>2014-07-11T10:27:17Z</time>
      </trkpt>
      <trkpt lat="45.05525" lon="4.40127">
        <ele>1095</ele>
        <time>2014-07-11T10:27:29Z</time>
      </trkpt>
      <trkpt lat="45.05526" lon="4.40128">
        <ele>1095</ele>
        <time>2014-07-11T10:27:43Z</time>
      </trkpt>
      <trkpt lat="45.05503" lon="4.4011">
        <ele>1096</ele>
        <time>2014-07-11T10:28:06Z</time>
      </trkpt>
      <trkpt lat="45.055" lon="4.40109">
        <ele>1096</ele>
        <time>2014-07-11T10:28:32Z</time>
      </trkpt>
      <trkpt lat="45.0547" lon="4.40076">
        <ele>1095</ele>
        <time>2014-07-11T10:29:25Z</time>
      </trkpt>
      <trkpt lat="45.05451" lon="4.39911">
        <ele>1101</ele>
        <time>2014-07-11T10:29:53Z</time>
      </trkpt>
      <trkpt lat="45.05431" lon="4.39869">
        <ele>1102</ele>
        <time>2014-07-11T10:30:02Z</time>
      </trkpt>
      <trkpt lat="45.05404" lon="4.39816">
        <ele>1103</ele>
        <time>2014-07-11T10:30:13Z</time>
      </trkpt>
      <trkpt lat="45.05373" lon="4.39747">
        <ele>1102</ele>
        <time>2014-07-11T10:30:27Z</time>
      </trkpt>
      <trkpt lat="45.05357" lon="4.39703">
        <ele>1101</ele>
        <time>2014-07-11T10:30:35Z</time>
      </trkpt>
      <trkpt lat="45.05349" lon="4.39678">
        <ele>1100</ele>
        <time>2014-07-11T10:30:39Z</time>
      </trkpt>
      <trkpt lat="45.05347" lon="4.39672">
        <ele>1100</ele>
        <time>2014-07-11T10:30:40Z</time>
      </trkpt>
      <trkpt lat="45.0532" lon="4.39611">
        <ele>1095</ele>
        <time>2014-07-11T10:31:05Z</time>
      </trkpt>
      <trkpt lat="45.05313" lon="4.39606">
        <ele>1095</ele>
        <time>2014-07-11T10:31:21Z</time>
      </trkpt>
      <trkpt lat="45.05261" lon="4.39569">
        <ele>1092</ele>
        <time>2014-07-11T10:31:38Z</time>
      </trkpt>
      <trkpt lat="45.05242" lon="4.39553">
        <ele>1088</ele>
        <time>2014-07-11T10:31:42Z</time>
      </trkpt>
      <trkpt lat="45.05215" lon="4.3953">
        <ele>1087</ele>
        <time>2014-07-11T10:31:48Z</time>
      </trkpt>
      <trkpt lat="45.05192" lon="4.39538">
        <ele>1085</ele>
        <time>2014-07-11T10:31:53Z</time>
      </trkpt>
      <trkpt lat="45.05161" lon="4.3957">
        <ele>1080</ele>
        <time>2014-07-11T10:31:59Z</time>
      </trkpt>
      <trkpt lat="45.05147" lon="4.39579">
        <ele>1080</ele>
        <time>2014-07-11T10:32:01Z</time>
      </trkpt>
      <trkpt lat="45.05114" lon="4.39595">
        <ele>1079</ele>
        <time>2014-07-11T10:32:06Z</time>
      </trkpt>
      <trkpt lat="45.05099" lon="4.39606">
        <ele>1079</ele>
        <time>2014-07-11T10:32:09Z</time>
      </trkpt>
      <trkpt lat="45.05085" lon="4.3962">
        <ele>1079</ele>
        <time>2014-07-11T10:32:12Z</time>
      </trkpt>
      <trkpt lat="45.0508" lon="4.39624">
        <ele>1078</ele>
        <time>2014-07-11T10:32:13Z</time>
      </trkpt>
      <trkpt lat="45.05007" lon="4.39683">
        <ele>1081</ele>
        <time>2014-07-11T10:32:31Z</time>
      </trkpt>
      <trkpt lat="45.04974" lon="4.39677">
        <ele>1083</ele>
        <time>2014-07-11T10:32:38Z</time>
      </trkpt>
      <trkpt lat="45.04963" lon="4.39666">
        <ele>1083</ele>
        <time>2014-07-11T10:32:41Z</time>
      </trkpt>
      <trkpt lat="45.04954" lon="4.39646">
        <ele>1083</ele>
        <time>2014-07-11T10:32:45Z</time>
      </trkpt>
      <trkpt lat="45.04947" lon="4.39592">
        <ele>1084</ele>
        <time>2014-07-11T10:32:58Z</time>
      </trkpt>
      <trkpt lat="45.04925" lon="4.39569">
        <ele>1085</ele>
        <time>2014-07-11T10:33:06Z</time>
      </trkpt>
      <trkpt lat="45.04892" lon="4.39536">
        <ele>1091</ele>
        <time>2014-07-11T10:33:24Z</time>
      </trkpt>
      <trkpt lat="45.04879" lon="4.39525">
        <ele>1091</ele>
        <time>2014-07-11T10:33:28Z</time>
      </trkpt>
      <trkpt lat="45.04844" lon="4.39526">
        <ele>1093</ele>
        <time>2014-07-11T10:33:40Z</time>
      </trkpt>
      <trkpt lat="45.04843" lon="4.39541">
        <ele>1093</ele>
        <time>2014-07-11T10:33:52Z</time>
      </trkpt>
      <trkpt lat="45.04812" lon="4.39514">
        <ele>1095</ele>
        <time>2014-07-11T10:34:04Z</time>
      </trkpt>
      <trkpt lat="45.04788" lon="4.39511">
        <ele>1095</ele>
        <time>2014-07-11T10:34:09Z</time>
      </trkpt>
      <trkpt lat="45.0476" lon="4.39512">
        <ele>1094</ele>
        <time>2014-07-11T10:34:15Z</time>
      </trkpt>
      <trkpt lat="45.04722" lon="4.39514">
        <ele>1093</ele>
        <time>2014-07-11T10:34:23Z</time>
      </trkpt>
      <trkpt lat="45.04685" lon="4.39436">
        <ele>1084</ele>
        <time>2014-07-11T10:34:41Z</time>
      </trkpt>
      <trkpt lat="45.04682" lon="4.39352">
        <ele>1075</ele>
        <time>2014-07-11T10:34:53Z</time>
      </trkpt>
      <trkpt lat="45.04684" lon="4.39189">
        <ele>1072</ele>
        <time>2014-07-11T10:35:18Z</time>
      </trkpt>
      <trkpt lat="45.04689" lon="4.39132">
        <ele>1077</ele>
        <time>2014-07-11T10:35:31Z</time>
      </trkpt>
      <trkpt lat="45.04732" lon="4.39082">
        <ele>1083</ele>
        <time>2014-07-11T10:35:49Z</time>
      </trkpt>
      <trkpt lat="45.04748" lon="4.39069">
        <ele>1082</ele>
        <time>2014-07-11T10:35:54Z</time>
      </trkpt>
      <trkpt lat="45.04752" lon="4.39065">
        <ele>1080</ele>
        <time>2014-07-11T10:35:55Z</time>
      </trkpt>
      <trkpt lat="45.04763" lon="4.38993">
        <ele>1083</ele>
        <time>2014-07-11T10:36:10Z</time>
      </trkpt>
      <trkpt lat="45.04748" lon="4.38896">
        <ele>1090</ele>
        <time>2014-07-11T10:36:34Z</time>
      </trkpt>
      <trkpt lat="45.04726" lon="4.38767">
        <ele>1094</ele>
        <time>2014-07-11T10:37:14Z</time>
      </trkpt>
      <trkpt lat="45.04669" lon="4.38633">
        <ele>1090</ele>
        <time>2014-07-11T10:37:53Z</time>
      </trkpt>
      <trkpt lat="45.04658" lon="4.38594">
        <ele>1091</ele>
        <time>2014-07-11T10:38:03Z</time>
      </trkpt>
      <trkpt lat="45.04657" lon="4.38556">
        <ele>1091</ele>
        <time>2014-07-11T10:38:12Z</time>
      </trkpt>
      <trkpt lat="45.04656" lon="4.38496">
        <ele>1092</ele>
        <time>2014-07-11T10:38:25Z</time>
      </trkpt>
      <trkpt lat="45.04621" lon="4.38432">
        <ele>1097</ele>
        <time>2014-07-11T10:38:47Z</time>
      </trkpt>
      <trkpt lat="45.04591" lon="4.38362">
        <ele>1103</ele>
        <time>2014-07-11T10:39:07Z</time>
      </trkpt>
      <trkpt lat="45.04584" lon="4.38344">
        <ele>1102</ele>
        <time>2014-07-11T10:39:13Z</time>
      </trkpt>
      <trkpt lat="45.04584" lon="4.38338">
        <ele>1102</ele>
        <time>2014-07-11T10:39:15Z</time>
      </trkpt>
      <trkpt lat="45.04595" lon="4.38318">
        <ele>1105</ele>
        <time>2014-07-11T10:39:24Z</time>
      </trkpt>
      <trkpt lat="45.04599" lon="4.38302">
        <ele>1106</ele>
        <time>2014-07-11T10:39:30Z</time>
      </trkpt>
      <trkpt lat="45.04591" lon="4.38172">
        <ele>1103</ele>
        <time>2014-07-11T10:40:05Z</time>
      </trkpt>
      <trkpt lat="45.04622" lon="4.38167">
        <ele>1102</ele>
        <time>2014-07-11T10:40:21Z</time>
      </trkpt>
      <trkpt lat="45.04686" lon="4.38145">
        <ele>1105</ele>
        <time>2014-07-11T10:40:38Z</time>
      </trkpt>
      <trkpt lat="45.04775" lon="4.38117">
        <ele>1104</ele>
        <time>2014-07-11T10:41:01Z</time>
      </trkpt>
      <trkpt lat="45.04859" lon="4.38093">
        <ele>1102</ele>
        <time>2014-07-11T10:41:21Z</time>
      </trkpt>
      <trkpt lat="45.05138" lon="4.37984">
        <ele>1107</ele>
        <time>2014-07-11T10:42:36Z</time>
      </trkpt>
      <trkpt lat="45.05155" lon="4.37977">
        <ele>1107</ele>
        <time>2014-07-11T10:43:00Z</time>
      </trkpt>
      <trkpt lat="45.05156" lon="4.3797">
        <ele>1107</ele>
        <time>2014-07-11T10:43:18Z</time>
      </trkpt>
      <trkpt lat="45.05133" lon="4.37988">
        <ele>1107</ele>
        <time>2014-07-11T10:43:32Z</time>
      </trkpt>
      <trkpt lat="45.0509" lon="4.38009">
        <ele>1106</ele>
        <time>2014-07-11T10:43:46Z</time>
      </trkpt>
      <trkpt lat="45.04939" lon="4.38067">
        <ele>1105</ele>
        <time>2014-07-11T10:44:30Z</time>
      </trkpt>
      <trkpt lat="45.0465" lon="4.38155">
        <ele>1103</ele>
        <time>2014-07-11T10:45:40Z</time>
      </trkpt>
      <trkpt lat="45.04582" lon="4.38169">
        <ele>1102</ele>
        <time>2014-07-11T10:45:54Z</time>
      </trkpt>
      <trkpt lat="45.04437" lon="4.38156">
        <ele>1103</ele>
        <time>2014-07-11T10:46:22Z</time>
      </trkpt>
      <trkpt lat="45.04343" lon="4.38163">
        <ele>1104</ele>
        <time>2014-07-11T10:46:41Z</time>
      </trkpt>
      <trkpt lat="45.04332" lon="4.38163">
        <ele>1104</ele>
        <time>2014-07-11T10:46:43Z</time>
      </trkpt>
      <trkpt lat="45.04221" lon="4.38176">
        <ele>1103</ele>
        <time>2014-07-11T10:47:06Z</time>
      </trkpt>
      <trkpt lat="45.04212" lon="4.38172">
        <ele>1102</ele>
        <time>2014-07-11T10:47:09Z</time>
      </trkpt>
      <trkpt lat="45.04163" lon="4.38104">
        <ele>1104</ele>
        <time>2014-07-11T10:47:27Z</time>
      </trkpt>
      <trkpt lat="45.0407" lon="4.37989">
        <ele>1110</ele>
        <time>2014-07-11T10:48:05Z</time>
      </trkpt>
      <trkpt lat="45.04037" lon="4.37933">
        <ele>1111</ele>
        <time>2014-07-11T10:48:21Z</time>
      </trkpt>
      <trkpt lat="45.03968" lon="4.37797">
        <ele>1104</ele>
        <time>2014-07-11T10:48:41Z</time>
      </trkpt>
      <trkpt lat="45.03946" lon="4.37748">
        <ele>1100</ele>
        <time>2014-07-11T10:48:46Z</time>
      </trkpt>
      <trkpt lat="45.03939" lon="4.37712">
        <ele>1100</ele>
        <time>2014-07-11T10:48:51Z</time>
      </trkpt>
      <trkpt lat="45.0392" lon="4.37621">
        <ele>1099</ele>
        <time>2014-07-11T10:49:12Z</time>
      </trkpt>
      <trkpt lat="45.03915" lon="4.37608">
        <ele>1095</ele>
        <time>2014-07-11T10:49:17Z</time>
      </trkpt>
      <trkpt lat="45.03882" lon="4.37588">
        <ele>1094</ele>
        <time>2014-07-11T10:49:29Z</time>
      </trkpt>
      <trkpt lat="45.03834" lon="4.37558">
        <ele>1094</ele>
        <time>2014-07-11T10:49:44Z</time>
      </trkpt>
      <trkpt lat="45.03773" lon="4.37573">
        <ele>1090</ele>
        <time>2014-07-11T10:50:08Z</time>
      </trkpt>
      <trkpt lat="45.03655" lon="4.37631">
        <ele>1080</ele>
        <time>2014-07-11T10:50:40Z</time>
      </trkpt>
      <trkpt lat="45.03638" lon="4.37639">
        <ele>1080</ele>
        <time>2014-07-11T10:50:44Z</time>
      </trkpt>
      <trkpt lat="45.03522" lon="4.37731">
        <ele>1075</ele>
        <time>2014-07-11T10:51:13Z</time>
      </trkpt>
      <trkpt lat="45.03432" lon="4.3776">
        <ele>1081</ele>
        <time>2014-07-11T10:51:41Z</time>
      </trkpt>
      <trkpt lat="45.03398" lon="4.37759">
        <ele>1080</ele>
        <time>2014-07-11T10:51:54Z</time>
      </trkpt>
      <trkpt lat="45.03353" lon="4.37757">
        <ele>1078</ele>
        <time>2014-07-11T10:52:07Z</time>
      </trkpt>
      <trkpt lat="45.03271" lon="4.37796">
        <ele>1071</ele>
        <time>2014-07-11T10:52:26Z</time>
      </trkpt>
      <trkpt lat="45.03141" lon="4.37785">
        <ele>1064</ele>
        <time>2014-07-11T10:52:50Z</time>
      </trkpt>
      <trkpt lat="45.0311" lon="4.3778">
        <ele>1063</ele>
        <time>2014-07-11T10:52:54Z</time>
      </trkpt>
      <trkpt lat="45.03091" lon="4.37742">
        <ele>1062</ele>
        <time>2014-07-11T10:53:00Z</time>
      </trkpt>
      <trkpt lat="45.03091" lon="4.37735">
        <ele>1063</ele>
        <time>2014-07-11T10:53:01Z</time>
      </trkpt>
      <trkpt lat="45.03093" lon="4.3771">
        <ele>1063</ele>
        <time>2014-07-11T10:53:05Z</time>
      </trkpt>
      <trkpt lat="45.03093" lon="4.37696">
        <ele>1062</ele>
        <time>2014-07-11T10:53:17Z</time>
      </trkpt>
      <trkpt lat="45.03053" lon="4.37735">
        <ele>1060</ele>
        <time>2014-07-11T10:53:36Z</time>
      </trkpt>
      <trkpt lat="45.03019" lon="4.37745">
        <ele>1060</ele>
        <time>2014-07-11T10:53:47Z</time>
      </trkpt>
      <trkpt lat="45.02989" lon="4.37696">
        <ele>1058</ele>
        <time>2014-07-11T10:53:57Z</time>
      </trkpt>
      <trkpt lat="45.02971" lon="4.37678">
        <ele>1058</ele>
        <time>2014-07-11T10:54:02Z</time>
      </trkpt>
      <trkpt lat="45.02829" lon="4.37543">
        <ele>1060</ele>
        <time>2014-07-11T10:54:46Z</time>
      </trkpt>
      <trkpt lat="45.02763" lon="4.37486">
        <ele>1061</ele>
        <time>2014-07-11T10:55:05Z</time>
      </trkpt>
      <trkpt lat="45.02758" lon="4.37483">
        <ele>1061</ele>
        <time>2014-07-11T10:55:06Z</time>
      </trkpt>
      <trkpt lat="45.02716" lon="4.37456">
        <ele>1055</ele>
        <time>2014-07-11T10:55:14Z</time>
      </trkpt>
      <trkpt lat="45.0266" lon="4.37393">
        <ele>1047</ele>
        <time>2014-07-11T10:55:25Z</time>
      </trkpt>
      <trkpt lat="45.02656" lon="4.37384">
        <ele>1047</ele>
        <time>2014-07-11T10:55:26Z</time>
      </trkpt>
      <trkpt lat="45.02656" lon="4.37332">
        <ele>1046</ele>
        <time>2014-07-11T10:55:31Z</time>
      </trkpt>
      <trkpt lat="45.02657" lon="4.37323">
        <ele>1045</ele>
        <time>2014-07-11T10:55:32Z</time>
      </trkpt>
      <trkpt lat="45.02658" lon="4.37305">
        <ele>1044</ele>
        <time>2014-07-11T10:55:34Z</time>
      </trkpt>
      <trkpt lat="45.02649" lon="4.37252">
        <ele>1043</ele>
        <time>2014-07-11T10:55:41Z</time>
      </trkpt>
      <trkpt lat="45.02593" lon="4.37166">
        <ele>1043</ele>
        <time>2014-07-11T10:55:58Z</time>
      </trkpt>
      <trkpt lat="45.02589" lon="4.37162">
        <ele>1043</ele>
        <time>2014-07-11T10:55:59Z</time>
      </trkpt>
      <trkpt lat="45.02586" lon="4.37158">
        <ele>1043</ele>
        <time>2014-07-11T10:56:00Z</time>
      </trkpt>
      <trkpt lat="45.02433" lon="4.36979">
        <ele>1049</ele>
        <time>2014-07-11T10:56:48Z</time>
      </trkpt>
      <trkpt lat="45.02349" lon="4.3688">
        <ele>1041</ele>
        <time>2014-07-11T10:57:12Z</time>
      </trkpt>
      <trkpt lat="45.02331" lon="4.36858">
        <ele>1039</ele>
        <time>2014-07-11T10:57:17Z</time>
      </trkpt>
      <trkpt lat="45.02211" lon="4.36694">
        <ele>1034</ele>
        <time>2014-07-11T10:57:51Z</time>
      </trkpt>
      <trkpt lat="45.02199" lon="4.3668">
        <ele>1033</ele>
        <time>2014-07-11T10:57:55Z</time>
      </trkpt>
      <trkpt lat="45.02188" lon="4.36603">
        <ele>1031</ele>
        <time>2014-07-11T10:58:07Z</time>
      </trkpt>
      <trkpt lat="45.02181" lon="4.36562">
        <ele>1030</ele>
        <time>2014-07-11T10:58:13Z</time>
      </trkpt>
      <trkpt lat="45.02137" lon="4.36356">
        <ele>1029</ele>
        <time>2014-07-11T10:58:47Z</time>
      </trkpt>
      <trkpt lat="45.02118" lon="4.36332">
        <ele>1030</ele>
        <time>2014-07-11T10:58:54Z</time>
      </trkpt>
      <trkpt lat="45.01993" lon="4.36286">
        <ele>1034</ele>
        <time>2014-07-11T10:59:25Z</time>
      </trkpt>
      <trkpt lat="45.01953" lon="4.36288">
        <ele>1034</ele>
        <time>2014-07-11T10:59:34Z</time>
      </trkpt>
      <trkpt lat="45.01925" lon="4.36291">
        <ele>1034</ele>
        <time>2014-07-11T10:59:40Z</time>
      </trkpt>
      <trkpt lat="45.01888" lon="4.36304">
        <ele>1033</ele>
        <time>2014-07-11T10:59:47Z</time>
      </trkpt>
      <trkpt lat="45.01851" lon="4.36286">
        <ele>1033</ele>
        <time>2014-07-11T10:59:55Z</time>
      </trkpt>
      <trkpt lat="45.01797" lon="4.36267">
        <ele>1035</ele>
        <time>2014-07-11T11:00:09Z</time>
      </trkpt>
      <trkpt lat="45.01795" lon="4.36244">
        <ele>1033</ele>
        <time>2014-07-11T11:00:13Z</time>
      </trkpt>
      <trkpt lat="45.01794" lon="4.3623">
        <ele>1033</ele>
        <time>2014-07-11T11:00:15Z</time>
      </trkpt>
      <trkpt lat="45.01795" lon="4.36223">
        <ele>1033</ele>
        <time>2014-07-11T11:00:16Z</time>
      </trkpt>
      <trkpt lat="45.01789" lon="4.36163">
        <ele>1031</ele>
        <time>2014-07-11T11:00:23Z</time>
      </trkpt>
      <trkpt lat="45.01781" lon="4.36121">
        <ele>1030</ele>
        <time>2014-07-11T11:00:27Z</time>
      </trkpt>
      <trkpt lat="45.01762" lon="4.3605">
        <ele>1029</ele>
        <time>2014-07-11T11:00:34Z</time>
      </trkpt>
      <trkpt lat="45.01733" lon="4.3597">
        <ele>1028</ele>
        <time>2014-07-11T11:00:47Z</time>
      </trkpt>
      <trkpt lat="45.01719" lon="4.35919">
        <ele>1028</ele>
        <time>2014-07-11T11:00:58Z</time>
      </trkpt>
      <trkpt lat="45.01662" lon="4.35755">
        <ele>1028</ele>
        <time>2014-07-11T11:01:27Z</time>
      </trkpt>
      <trkpt lat="45.01627" lon="4.35695">
        <ele>1025</ele>
        <time>2014-07-11T11:01:40Z</time>
      </trkpt>
      <trkpt lat="45.01634" lon="4.35687">
        <ele>1025</ele>
        <time>2014-07-11T11:01:44Z</time>
      </trkpt>
      <trkpt lat="45.01709" lon="4.35665">
        <ele>1030</ele>
        <time>2014-07-11T11:02:07Z</time>
      </trkpt>
      <trkpt lat="45.0181" lon="4.35609">
        <ele>1034</ele>
        <time>2014-07-11T11:02:39Z</time>
      </trkpt>
      <trkpt lat="45.01856" lon="4.35584">
        <ele>1036</ele>
        <time>2014-07-11T11:02:54Z</time>
      </trkpt>
      <trkpt lat="45.01912" lon="4.35557">
        <ele>1037</ele>
        <time>2014-07-11T11:03:11Z</time>
      </trkpt>
      <trkpt lat="45.01929" lon="4.35545">
        <ele>1035</ele>
        <time>2014-07-11T11:03:16Z</time>
      </trkpt>
      <trkpt lat="45.01901" lon="4.35479">
        <ele>1039</ele>
        <time>2014-07-11T11:03:31Z</time>
      </trkpt>
      <trkpt lat="45.01881" lon="4.35438">
        <ele>1040</ele>
        <time>2014-07-11T11:03:41Z</time>
      </trkpt>
      <trkpt lat="45.01847" lon="4.35343">
        <ele>1040</ele>
        <time>2014-07-11T11:03:55Z</time>
      </trkpt>
      <trkpt lat="45.01805" lon="4.35269">
        <ele>1034</ele>
        <time>2014-07-11T11:04:04Z</time>
      </trkpt>
      <trkpt lat="45.01748" lon="4.35174">
        <ele>1028</ele>
        <time>2014-07-11T11:04:18Z</time>
      </trkpt>
      <trkpt lat="45.01703" lon="4.35075">
        <ele>1028</ele>
        <time>2014-07-11T11:04:34Z</time>
      </trkpt>
      <trkpt lat="45.01633" lon="4.34902">
        <ele>1019</ele>
        <time>2014-07-11T11:04:58Z</time>
      </trkpt>
      <trkpt lat="45.01618" lon="4.34865">
        <ele>1018</ele>
        <time>2014-07-11T11:05:01Z</time>
      </trkpt>
      <trkpt lat="45.01608" lon="4.34837">
        <ele>1016</ele>
        <time>2014-07-11T11:05:03Z</time>
      </trkpt>
      <trkpt lat="45.01598" lon="4.34812">
        <ele>1015</ele>
        <time>2014-07-11T11:05:05Z</time>
      </trkpt>
      <trkpt lat="45.01585" lon="4.34784">
        <ele>1015</ele>
        <time>2014-07-11T11:05:08Z</time>
      </trkpt>
      <trkpt lat="45.01575" lon="4.34773">
        <ele>1016</ele>
        <time>2014-07-11T11:05:10Z</time>
      </trkpt>
      <trkpt lat="45.01562" lon="4.34705">
        <ele>1021</ele>
        <time>2014-07-11T11:05:24Z</time>
      </trkpt>
      <trkpt lat="45.01544" lon="4.34665">
        <ele>1026</ele>
        <time>2014-07-11T11:05:36Z</time>
      </trkpt>
      <trkpt lat="45.01536" lon="4.34603">
        <ele>1029</ele>
        <time>2014-07-11T11:05:53Z</time>
      </trkpt>
      <trkpt lat="45.01546" lon="4.34548">
        <ele>1032</ele>
        <time>2014-07-11T11:06:12Z</time>
      </trkpt>
      <trkpt lat="45.01541" lon="4.34467">
        <ele>1035</ele>
        <time>2014-07-11T11:06:36Z</time>
      </trkpt>
      <trkpt lat="45.0151" lon="4.3438">
        <ele>1038</ele>
        <time>2014-07-11T11:07:03Z</time>
      </trkpt>
      <trkpt lat="45.01476" lon="4.3429">
        <ele>1042</ele>
        <time>2014-07-11T11:07:29Z</time>
      </trkpt>
      <trkpt lat="45.01424" lon="4.34107">
        <ele>1046</ele>
        <time>2014-07-11T11:08:09Z</time>
      </trkpt>
      <trkpt lat="45.01412" lon="4.34064">
        <ele>1046</ele>
        <time>2014-07-11T11:08:17Z</time>
      </trkpt>
      <trkpt lat="45.01322" lon="4.33943">
        <ele>1043</ele>
        <time>2014-07-11T11:08:42Z</time>
      </trkpt>
      <trkpt lat="45.01271" lon="4.33855">
        <ele>1044</ele>
        <time>2014-07-11T11:09:00Z</time>
      </trkpt>
      <trkpt lat="45.01264" lon="4.33837">
        <ele>1043</ele>
        <time>2014-07-11T11:09:03Z</time>
      </trkpt>
      <trkpt lat="45.01263" lon="4.33831">
        <ele>1044</ele>
        <time>2014-07-11T11:09:04Z</time>
      </trkpt>
      <trkpt lat="45.01237" lon="4.33729">
        <ele>1042</ele>
        <time>2014-07-11T11:09:21Z</time>
      </trkpt>
      <trkpt lat="45.012" lon="4.33575">
        <ele>1042</ele>
        <time>2014-07-11T11:09:48Z</time>
      </trkpt>
      <trkpt lat="45.01151" lon="4.33476">
        <ele>1048</ele>
        <time>2014-07-11T11:10:15Z</time>
      </trkpt>
      <trkpt lat="45.01142" lon="4.33414">
        <ele>1053</ele>
        <time>2014-07-11T11:10:39Z</time>
      </trkpt>
      <trkpt lat="45.01118" lon="4.33365">
        <ele>1056</ele>
        <time>2014-07-11T11:11:04Z</time>
      </trkpt>
      <trkpt lat="45.01106" lon="4.33321">
        <ele>1062</ele>
        <time>2014-07-11T11:11:30Z</time>
      </trkpt>
      <trkpt lat="45.01094" lon="4.33292">
        <ele>1063</ele>
        <time>2014-07-11T11:12:03Z</time>
      </trkpt>
      <trkpt lat="45.01089" lon="4.33283">
        <ele>1064</ele>
        <time>2014-07-11T11:13:41Z</time>
      </trkpt>
      <trkpt lat="45.01079" lon="4.33257">
        <ele>1070</ele>
        <time>2014-07-11T11:14:15Z</time>
      </trkpt>
      <trkpt lat="45.01029" lon="4.33236">
        <ele>1075</ele>
        <time>2014-07-11T11:14:50Z</time>
      </trkpt>
      <trkpt lat="45.0098" lon="4.33216">
        <ele>1080</ele>
        <time>2014-07-11T11:15:16Z</time>
      </trkpt>
      <trkpt lat="45.00956" lon="4.33191">
        <ele>1081</ele>
        <time>2014-07-11T11:15:33Z</time>
      </trkpt>
      <trkpt lat="45.00945" lon="4.33184">
        <ele>1082</ele>
        <time>2014-07-11T11:15:39Z</time>
      </trkpt>
      <trkpt lat="45.00875" lon="4.33097">
        <ele>1083</ele>
        <time>2014-07-11T11:16:18Z</time>
      </trkpt>
      <trkpt lat="45.00876" lon="4.33104">
        <ele>1083</ele>
        <time>2014-07-11T11:16:40Z</time>
      </trkpt>
      <trkpt lat="45.00878" lon="4.33105">
        <ele>1083</ele>
        <time>2014-07-11T11:18:00Z</time>
      </trkpt>
      <trkpt lat="45.00857" lon="4.33069">
        <ele>1083</ele>
        <time>2014-07-11T11:18:28Z</time>
      </trkpt>
      <trkpt lat="45.00779" lon="4.32943">
        <ele>1082</ele>
        <time>2014-07-11T11:19:05Z</time>
      </trkpt>
      <trkpt lat="45.00748" lon="4.32872">
        <ele>1077</ele>
        <time>2014-07-11T11:19:19Z</time>
      </trkpt>
      <trkpt lat="45.00739" lon="4.32848">
        <ele>1077</ele>
        <time>2014-07-11T11:19:23Z</time>
      </trkpt>
      <trkpt lat="45.00696" lon="4.32709">
        <ele>1077</ele>
        <time>2014-07-11T11:19:46Z</time>
      </trkpt>
      <trkpt lat="45.00666" lon="4.32611">
        <ele>1078</ele>
        <time>2014-07-11T11:20:12Z</time>
      </trkpt>
      <trkpt lat="45.00617" lon="4.32502">
        <ele>1081</ele>
        <time>2014-07-11T11:20:39Z</time>
      </trkpt>
      <trkpt lat="45.00547" lon="4.32365">
        <ele>1082</ele>
        <time>2014-07-11T11:21:14Z</time>
      </trkpt>
      <trkpt lat="45.00472" lon="4.32223">
        <ele>1083</ele>
        <time>2014-07-11T11:21:51Z</time>
      </trkpt>
      <trkpt lat="45.00379" lon="4.3204">
        <ele>1084</ele>
        <time>2014-07-11T11:22:39Z</time>
      </trkpt>
      <trkpt lat="45.00302" lon="4.31881">
        <ele>1089</ele>
        <time>2014-07-11T11:23:17Z</time>
      </trkpt>
      <trkpt lat="45.00205" lon="4.31666">
        <ele>1092</ele>
        <time>2014-07-11T11:24:00Z</time>
      </trkpt>
      <trkpt lat="45.00155" lon="4.31487">
        <ele>1095</ele>
        <time>2014-07-11T11:24:34Z</time>
      </trkpt>
      <trkpt lat="45.00139" lon="4.31377">
        <ele>1096</ele>
        <time>2014-07-11T11:24:52Z</time>
      </trkpt>
      <trkpt lat="45.00092" lon="4.31149">
        <ele>1098</ele>
        <time>2014-07-11T11:25:26Z</time>
      </trkpt>
      <trkpt lat="45.00066" lon="4.31031">
        <ele>1097</ele>
        <time>2014-07-11T11:25:45Z</time>
      </trkpt>
      <trkpt lat="45.00016" lon="4.30815">
        <ele>1098</ele>
        <time>2014-07-11T11:26:23Z</time>
      </trkpt>
      <trkpt lat="44.99952" lon="4.30711">
        <ele>1099</ele>
        <time>2014-07-11T11:26:44Z</time>
      </trkpt>
      <trkpt lat="44.99886" lon="4.30565">
        <ele>1105</ele>
        <time>2014-07-11T11:27:17Z</time>
      </trkpt>
      <trkpt lat="44.99862" lon="4.30477">
        <ele>1108</ele>
        <time>2014-07-11T11:27:38Z</time>
      </trkpt>
      <trkpt lat="44.99807" lon="4.30439">
        <ele>1112</ele>
        <time>2014-07-11T11:27:57Z</time>
      </trkpt>
      <trkpt lat="44.99777" lon="4.30414">
        <ele>1114</ele>
        <time>2014-07-11T11:28:09Z</time>
      </trkpt>
      <trkpt lat="44.99758" lon="4.30357">
        <ele>1116</ele>
        <time>2014-07-11T11:28:25Z</time>
      </trkpt>
      <trkpt lat="44.99726" lon="4.30261">
        <ele>1126</ele>
        <time>2014-07-11T11:28:54Z</time>
      </trkpt>
      <trkpt lat="44.99697" lon="4.30183">
        <ele>1129</ele>
        <time>2014-07-11T11:29:19Z</time>
      </trkpt>
      <trkpt lat="44.99692" lon="4.30084">
        <ele>1129</ele>
        <time>2014-07-11T11:29:45Z</time>
      </trkpt>
      <trkpt lat="44.9969" lon="4.29956">
        <ele>1126</ele>
        <time>2014-07-11T11:30:06Z</time>
      </trkpt>
      <trkpt lat="44.99684" lon="4.299">
        <ele>1123</ele>
        <time>2014-07-11T11:30:12Z</time>
      </trkpt>
      <trkpt lat="44.99666" lon="4.29869">
        <ele>1126</ele>
        <time>2014-07-11T11:30:16Z</time>
      </trkpt>
      <trkpt lat="44.99647" lon="4.29846">
        <ele>1126</ele>
        <time>2014-07-11T11:30:21Z</time>
      </trkpt>
      <trkpt lat="44.99613" lon="4.29767">
        <ele>1123</ele>
        <time>2014-07-11T11:30:35Z</time>
      </trkpt>
      <trkpt lat="44.9958" lon="4.29727">
        <ele>1123</ele>
        <time>2014-07-11T11:30:45Z</time>
      </trkpt>
      <trkpt lat="44.99548" lon="4.29787">
        <ele>1128</ele>
        <time>2014-07-11T11:31:01Z</time>
      </trkpt>
      <trkpt lat="44.9954" lon="4.2982">
        <ele>1130</ele>
        <time>2014-07-11T11:31:10Z</time>
      </trkpt>
      <trkpt lat="44.99527" lon="4.29872">
        <ele>1134</ele>
        <time>2014-07-11T11:31:22Z</time>
      </trkpt>
      <trkpt lat="44.99516" lon="4.29904">
        <ele>1136</ele>
        <time>2014-07-11T11:31:31Z</time>
      </trkpt>
      <trkpt lat="44.9951" lon="4.29897">
        <ele>1136</ele>
        <time>2014-07-11T11:31:36Z</time>
      </trkpt>
      <trkpt lat="44.99509" lon="4.29892">
        <ele>1135</ele>
        <time>2014-07-11T11:31:37Z</time>
      </trkpt>
      <trkpt lat="44.99454" lon="4.29806">
        <ele>1130</ele>
        <time>2014-07-11T11:32:00Z</time>
      </trkpt>
      <trkpt lat="44.99394" lon="4.29812">
        <ele>1128</ele>
        <time>2014-07-11T11:32:14Z</time>
      </trkpt>
      <trkpt lat="44.99352" lon="4.2974">
        <ele>1122</ele>
        <time>2014-07-11T11:32:28Z</time>
      </trkpt>
      <trkpt lat="44.99308" lon="4.29653">
        <ele>1119</ele>
        <time>2014-07-11T11:32:46Z</time>
      </trkpt>
      <trkpt lat="44.99172" lon="4.29443">
        <ele>1116</ele>
        <time>2014-07-11T11:33:35Z</time>
      </trkpt>
      <trkpt lat="44.9913" lon="4.29395">
        <ele>1117</ele>
        <time>2014-07-11T11:33:49Z</time>
      </trkpt>
      <trkpt lat="44.99082" lon="4.29348">
        <ele>1119</ele>
        <time>2014-07-11T11:34:04Z</time>
      </trkpt>
      <trkpt lat="44.98993" lon="4.29265">
        <ele>1125</ele>
        <time>2014-07-11T11:34:32Z</time>
      </trkpt>
      <trkpt lat="44.98923" lon="4.2916">
        <ele>1129</ele>
        <time>2014-07-11T11:35:01Z</time>
      </trkpt>
      <trkpt lat="44.98891" lon="4.29109">
        <ele>1129</ele>
        <time>2014-07-11T11:35:15Z</time>
      </trkpt>
      <trkpt lat="44.98851" lon="4.29054">
        <ele>1130</ele>
        <time>2014-07-11T11:35:30Z</time>
      </trkpt>
      <trkpt lat="44.98761" lon="4.28915">
        <ele>1128</ele>
        <time>2014-07-11T11:36:15Z</time>
      </trkpt>
      <trkpt lat="44.98658" lon="4.28759">
        <ele>1129</ele>
        <time>2014-07-11T11:37:05Z</time>
      </trkpt>
      <trkpt lat="44.98576" lon="4.28613">
        <ele>1130</ele>
        <time>2014-07-11T11:37:43Z</time>
      </trkpt>
      <trkpt lat="44.98552" lon="4.28576">
        <ele>1129</ele>
        <time>2014-07-11T11:38:00Z</time>
      </trkpt>
      <trkpt lat="44.98517" lon="4.28536">
        <ele>1129</ele>
        <time>2014-07-11T11:38:25Z</time>
      </trkpt>
      <trkpt lat="44.98497" lon="4.28427">
        <ele>1132</ele>
        <time>2014-07-11T11:38:58Z</time>
      </trkpt>
      <trkpt lat="44.98482" lon="4.28401">
        <ele>1131</ele>
        <time>2014-07-11T11:39:25Z</time>
      </trkpt>
      <trkpt lat="44.98443" lon="4.28318">
        <ele>1128</ele>
        <time>2014-07-11T11:40:12Z</time>
      </trkpt>
      <trkpt lat="44.98405" lon="4.28249">
        <ele>1127</ele>
        <time>2014-07-11T11:40:25Z</time>
      </trkpt>
      <trkpt lat="44.9836" lon="4.28159">
        <ele>1126</ele>
        <time>2014-07-11T11:40:51Z</time>
      </trkpt>
      <trkpt lat="44.98315" lon="4.28054">
        <ele>1131</ele>
        <time>2014-07-11T11:41:19Z</time>
      </trkpt>
      <trkpt lat="44.98296" lon="4.27974">
        <ele>1133</ele>
        <time>2014-07-11T11:41:39Z</time>
      </trkpt>
      <trkpt lat="44.98307" lon="4.27868">
        <ele>1137</ele>
        <time>2014-07-11T11:42:07Z</time>
      </trkpt>
      <trkpt lat="44.98318" lon="4.27775">
        <ele>1140</ele>
        <time>2014-07-11T11:42:34Z</time>
      </trkpt>
      <trkpt lat="44.9832" lon="4.27773">
        <ele>1140</ele>
        <time>2014-07-11T11:42:35Z</time>
      </trkpt>
      <trkpt lat="44.98322" lon="4.27764">
        <ele>1140</ele>
        <time>2014-07-11T11:42:38Z</time>
      </trkpt>
      <trkpt lat="44.98343" lon="4.27598">
        <ele>1136</ele>
        <time>2014-07-11T11:43:22Z</time>
      </trkpt>
      <trkpt lat="44.98343" lon="4.27487">
        <ele>1136</ele>
        <time>2014-07-11T11:43:43Z</time>
      </trkpt>
      <trkpt lat="44.98349" lon="4.27465">
        <ele>1135</ele>
        <time>2014-07-11T11:43:47Z</time>
      </trkpt>
      <trkpt lat="44.98431" lon="4.27337">
        <ele>1136</ele>
        <time>2014-07-11T11:44:18Z</time>
      </trkpt>
      <trkpt lat="44.9854" lon="4.27208">
        <ele>1135</ele>
        <time>2014-07-11T11:45:02Z</time>
      </trkpt>
      <trkpt lat="44.98615" lon="4.2709">
        <ele>1135</ele>
        <time>2014-07-11T11:45:31Z</time>
      </trkpt>
      <trkpt lat="44.98635" lon="4.27052">
        <ele>1136</ele>
        <time>2014-07-11T11:45:39Z</time>
      </trkpt>
      <trkpt lat="44.9864" lon="4.27043">
        <ele>1136</ele>
        <time>2014-07-11T11:45:41Z</time>
      </trkpt>
      <trkpt lat="44.98681" lon="4.27">
        <ele>1135</ele>
        <time>2014-07-11T11:45:55Z</time>
      </trkpt>
      <trkpt lat="44.98727" lon="4.26888">
        <ele>1135</ele>
        <time>2014-07-11T11:46:21Z</time>
      </trkpt>
      <trkpt lat="44.9877" lon="4.26761">
        <ele>1134</ele>
        <time>2014-07-11T11:46:54Z</time>
      </trkpt>
      <trkpt lat="44.98784" lon="4.26591">
        <ele>1137</ele>
        <time>2014-07-11T11:47:28Z</time>
      </trkpt>
      <trkpt lat="44.98769" lon="4.26438">
        <ele>1137</ele>
        <time>2014-07-11T11:48:01Z</time>
      </trkpt>
      <trkpt lat="44.98752" lon="4.26317">
        <ele>1136</ele>
        <time>2014-07-11T11:48:27Z</time>
      </trkpt>
      <trkpt lat="44.98736" lon="4.26284">
        <ele>1138</ele>
        <time>2014-07-11T11:48:41Z</time>
      </trkpt>
      <trkpt lat="44.98727" lon="4.26282">
        <ele>1138</ele>
        <time>2014-07-11T11:48:53Z</time>
      </trkpt>
      <trkpt lat="44.98728" lon="4.2628">
        <ele>1138</ele>
        <time>2014-07-11T11:49:28Z</time>
      </trkpt>
      <trkpt lat="44.98726" lon="4.26277">
        <ele>1138</ele>
        <time>2014-07-11T11:50:59Z</time>
      </trkpt>
      <trkpt lat="44.98715" lon="4.26219">
        <ele>1134</ele>
        <time>2014-07-11T11:51:16Z</time>
      </trkpt>
      <trkpt lat="44.98713" lon="4.26211">
        <ele>1134</ele>
        <time>2014-07-11T11:51:17Z</time>
      </trkpt>
      <trkpt lat="44.98714" lon="4.26174">
        <ele>1133</ele>
        <time>2014-07-11T11:51:21Z</time>
      </trkpt>
      <trkpt lat="44.9872" lon="4.26135">
        <ele>1128</ele>
        <time>2014-07-11T11:51:25Z</time>
      </trkpt>
      <trkpt lat="44.98727" lon="4.26084">
        <ele>1126</ele>
        <time>2014-07-11T11:51:30Z</time>
      </trkpt>
      <trkpt lat="44.98736" lon="4.26032">
        <ele>1122</ele>
        <time>2014-07-11T11:51:35Z</time>
      </trkpt>
      <trkpt lat="44.98745" lon="4.25983">
        <ele>1119</ele>
        <time>2014-07-11T11:51:40Z</time>
      </trkpt>
      <trkpt lat="44.98747" lon="4.25976">
        <ele>1119</ele>
        <time>2014-07-11T11:51:41Z</time>
      </trkpt>
      <trkpt lat="44.98747" lon="4.25939">
        <ele>1118</ele>
        <time>2014-07-11T11:51:49Z</time>
      </trkpt>
      <trkpt lat="44.98735" lon="4.25873">
        <ele>1116</ele>
        <time>2014-07-11T11:51:58Z</time>
      </trkpt>
      <trkpt lat="44.98768" lon="4.25743">
        <ele>1111</ele>
        <time>2014-07-11T11:52:16Z</time>
      </trkpt>
      <trkpt lat="44.98782" lon="4.25701">
        <ele>1112</ele>
        <time>2014-07-11T11:52:23Z</time>
      </trkpt>
      <trkpt lat="44.98785" lon="4.2562">
        <ele>1115</ele>
        <time>2014-07-11T11:52:38Z</time>
      </trkpt>
      <trkpt lat="44.98784" lon="4.25505">
        <ele>1119</ele>
        <time>2014-07-11T11:53:05Z</time>
      </trkpt>
      <trkpt lat="44.98789" lon="4.25409">
        <ele>1127</ele>
        <time>2014-07-11T11:53:30Z</time>
      </trkpt>
      <trkpt lat="44.98808" lon="4.2533">
        <ele>1131</ele>
        <time>2014-07-11T11:53:53Z</time>
      </trkpt>
      <trkpt lat="44.98823" lon="4.25282">
        <ele>1133</ele>
        <time>2014-07-11T11:54:06Z</time>
      </trkpt>
      <trkpt lat="44.98841" lon="4.25222">
        <ele>1135</ele>
        <time>2014-07-11T11:54:23Z</time>
      </trkpt>
      <trkpt lat="44.98866" lon="4.25181">
        <ele>1136</ele>
        <time>2014-07-11T11:54:38Z</time>
      </trkpt>
      <trkpt lat="44.98878" lon="4.25151">
        <ele>1139</ele>
        <time>2014-07-11T11:54:47Z</time>
      </trkpt>
      <trkpt lat="44.98892" lon="4.25106">
        <ele>1140</ele>
        <time>2014-07-11T11:55:01Z</time>
      </trkpt>
      <trkpt lat="44.98847" lon="4.25062">
        <ele>1142</ele>
        <time>2014-07-11T11:55:26Z</time>
      </trkpt>
      <trkpt lat="44.9884" lon="4.24983">
        <ele>1146</ele>
        <time>2014-07-11T11:55:52Z</time>
      </trkpt>
      <trkpt lat="44.98833" lon="4.24875">
        <ele>1151</ele>
        <time>2014-07-11T11:56:23Z</time>
      </trkpt>
      <trkpt lat="44.98829" lon="4.24779">
        <ele>1154</ele>
        <time>2014-07-11T11:56:51Z</time>
      </trkpt>
      <trkpt lat="44.98832" lon="4.24633">
        <ele>1157</ele>
        <time>2014-07-11T11:57:31Z</time>
      </trkpt>
      <trkpt lat="44.98814" lon="4.24581">
        <ele>1157</ele>
        <time>2014-07-11T11:58:03Z</time>
      </trkpt>
      <trkpt lat="44.98808" lon="4.24548">
        <ele>1157</ele>
        <time>2014-07-11T11:58:15Z</time>
      </trkpt>
      <trkpt lat="44.98796" lon="4.24503">
        <ele>1156</ele>
        <time>2014-07-11T11:58:22Z</time>
      </trkpt>
      <trkpt lat="44.98789" lon="4.24475">
        <ele>1153</ele>
        <time>2014-07-11T11:58:27Z</time>
      </trkpt>
      <trkpt lat="44.98785" lon="4.24409">
        <ele>1148</ele>
        <time>2014-07-11T11:58:36Z</time>
      </trkpt>
      <trkpt lat="44.98782" lon="4.24374">
        <ele>1147</ele>
        <time>2014-07-11T11:58:40Z</time>
      </trkpt>
      <trkpt lat="44.98787" lon="4.24292">
        <ele>1138</ele>
        <time>2014-07-11T11:58:49Z</time>
      </trkpt>
      <trkpt lat="44.98797" lon="4.24256">
        <ele>1134</ele>
        <time>2014-07-11T11:58:54Z</time>
      </trkpt>
      <trkpt lat="44.98794" lon="4.24214">
        <ele>1125</ele>
        <time>2014-07-11T11:58:59Z</time>
      </trkpt>
      <trkpt lat="44.98791" lon="4.24172">
        <ele>1122</ele>
        <time>2014-07-11T11:59:04Z</time>
      </trkpt>
      <trkpt lat="44.9878" lon="4.24125">
        <ele>1113</ele>
        <time>2014-07-11T11:59:09Z</time>
      </trkpt>
      <trkpt lat="44.98767" lon="4.24093">
        <ele>1111</ele>
        <time>2014-07-11T11:59:13Z</time>
      </trkpt>
      <trkpt lat="44.98761" lon="4.24073">
        <ele>1106</ele>
        <time>2014-07-11T11:59:16Z</time>
      </trkpt>
      <trkpt lat="44.98753" lon="4.24046">
        <ele>1102</ele>
        <time>2014-07-11T11:59:20Z</time>
      </trkpt>
      <trkpt lat="44.98753" lon="4.2401">
        <ele>1100</ele>
        <time>2014-07-11T11:59:24Z</time>
      </trkpt>
      <trkpt lat="44.98758" lon="4.23979">
        <ele>1095</ele>
        <time>2014-07-11T11:59:28Z</time>
      </trkpt>
      <trkpt lat="44.98759" lon="4.23969">
        <ele>1094</ele>
        <time>2014-07-11T11:59:30Z</time>
      </trkpt>
      <trkpt lat="44.98762" lon="4.23932">
        <ele>1093</ele>
        <time>2014-07-11T11:59:54Z</time>
      </trkpt>
      <trkpt lat="44.98763" lon="4.2391">
        <ele>1091</ele>
        <time>2014-07-11T12:00:10Z</time>
      </trkpt>
      <trkpt lat="44.98769" lon="4.2387">
        <ele>1088</ele>
        <time>2014-07-11T12:00:15Z</time>
      </trkpt>
      <trkpt lat="44.98772" lon="4.2385">
        <ele>1088</ele>
        <time>2014-07-11T12:00:17Z</time>
      </trkpt>
      <trkpt lat="44.98773" lon="4.23829">
        <ele>1086</ele>
        <time>2014-07-11T12:00:19Z</time>
      </trkpt>
      <trkpt lat="44.98783" lon="4.23771">
        <ele>1085</ele>
        <time>2014-07-11T12:00:26Z</time>
      </trkpt>
      <trkpt lat="44.98784" lon="4.23685">
        <ele>1086</ele>
        <time>2014-07-11T12:00:43Z</time>
      </trkpt>
      <trkpt lat="44.98786" lon="4.23566">
        <ele>1090</ele>
        <time>2014-07-11T12:01:11Z</time>
      </trkpt>
      <trkpt lat="44.98793" lon="4.23455">
        <ele>1094</ele>
        <time>2014-07-11T12:01:37Z</time>
      </trkpt>
      <trkpt lat="44.9878" lon="4.23446">
        <ele>1094</ele>
        <time>2014-07-11T12:01:43Z</time>
      </trkpt>
      <trkpt lat="44.98743" lon="4.23425">
        <ele>1098</ele>
        <time>2014-07-11T12:02:01Z</time>
      </trkpt>
      <trkpt lat="44.98732" lon="4.23365">
        <ele>1102</ele>
        <time>2014-07-11T12:02:21Z</time>
      </trkpt>
      <trkpt lat="44.98716" lon="4.23279">
        <ele>1107</ele>
        <time>2014-07-11T12:02:48Z</time>
      </trkpt>
      <trkpt lat="44.9871" lon="4.23241">
        <ele>1111</ele>
        <time>2014-07-11T12:03:01Z</time>
      </trkpt>
      <trkpt lat="44.98709" lon="4.23203">
        <ele>1112</ele>
        <time>2014-07-11T12:03:13Z</time>
      </trkpt>
      <trkpt lat="44.98702" lon="4.23138">
        <ele>1119</ele>
        <time>2014-07-11T12:03:38Z</time>
      </trkpt>
      <trkpt lat="44.98701" lon="4.23077">
        <ele>1129</ele>
        <time>2014-07-11T12:04:03Z</time>
      </trkpt>
      <trkpt lat="44.98696" lon="4.23036">
        <ele>1131</ele>
        <time>2014-07-11T12:04:23Z</time>
      </trkpt>
      <trkpt lat="44.98697" lon="4.23026">
        <ele>1132</ele>
        <time>2014-07-11T12:04:28Z</time>
      </trkpt>
      <trkpt lat="44.98709" lon="4.23014">
        <ele>1133</ele>
        <time>2014-07-11T12:04:38Z</time>
      </trkpt>
      <trkpt lat="44.98711" lon="4.23012">
        <ele>1133</ele>
        <time>2014-07-11T12:04:40Z</time>
      </trkpt>
      <trkpt lat="44.987" lon="4.2297">
        <ele>1144</ele>
        <time>2014-07-11T12:05:07Z</time>
      </trkpt>
      <trkpt lat="44.98685" lon="4.22948">
        <ele>1147</ele>
        <time>2014-07-11T12:05:22Z</time>
      </trkpt>
      <trkpt lat="44.98678" lon="4.22912">
        <ele>1157</ele>
        <time>2014-07-11T12:05:41Z</time>
      </trkpt>
      <trkpt lat="44.98672" lon="4.2289">
        <ele>1160</ele>
        <time>2014-07-11T12:05:53Z</time>
      </trkpt>
      <trkpt lat="44.98667" lon="4.22868">
        <ele>1163</ele>
        <time>2014-07-11T12:06:04Z</time>
      </trkpt>
      <trkpt lat="44.98664" lon="4.22856">
        <ele>1160</ele>
        <time>2014-07-11T12:06:10Z</time>
      </trkpt>
      <trkpt lat="44.9866" lon="4.22841">
        <ele>1163</ele>
        <time>2014-07-11T12:06:18Z</time>
      </trkpt>
      <trkpt lat="44.98649" lon="4.22814">
        <ele>1168</ele>
        <time>2014-07-11T12:06:32Z</time>
      </trkpt>
      <trkpt lat="44.98633" lon="4.22785">
        <ele>1170</ele>
        <time>2014-07-11T12:06:48Z</time>
      </trkpt>
      <trkpt lat="44.98629" lon="4.22755">
        <ele>1172</ele>
        <time>2014-07-11T12:07:02Z</time>
      </trkpt>
      <trkpt lat="44.98634" lon="4.22724">
        <ele>1178</ele>
        <time>2014-07-11T12:07:15Z</time>
      </trkpt>
      <trkpt lat="44.98641" lon="4.22679">
        <ele>1179</ele>
        <time>2014-07-11T12:07:32Z</time>
      </trkpt>
      <trkpt lat="44.9864" lon="4.22669">
        <ele>1179</ele>
        <time>2014-07-11T12:07:40Z</time>
      </trkpt>
      <trkpt lat="44.98634" lon="4.22633">
        <ele>1180</ele>
        <time>2014-07-11T12:07:56Z</time>
      </trkpt>
      <trkpt lat="44.98625" lon="4.22602">
        <ele>1180</ele>
        <time>2014-07-11T12:08:10Z</time>
      </trkpt>
      <trkpt lat="44.98626" lon="4.226">
        <ele>1180</ele>
        <time>2014-07-11T12:08:11Z</time>
      </trkpt>
      <trkpt lat="44.98627" lon="4.22599">
        <ele>1180</ele>
        <time>2014-07-11T12:08:12Z</time>
      </trkpt>
      <trkpt lat="44.98626" lon="4.22606">
        <ele>1180</ele>
        <time>2014-07-11T12:08:21Z</time>
      </trkpt>
      <trkpt lat="44.98631" lon="4.22604">
        <ele>1180</ele>
        <time>2014-07-11T12:08:29Z</time>
      </trkpt>
      <trkpt lat="44.98604" lon="4.22598">
        <ele>1181</ele>
        <time>2014-07-11T12:08:50Z</time>
      </trkpt>
      <trkpt lat="44.98605" lon="4.22598">
        <ele>1181</ele>
        <time>2014-07-11T12:09:44Z</time>
      </trkpt>
      <trkpt lat="44.98603" lon="4.22601">
        <ele>1181</ele>
        <time>2014-07-11T12:11:57Z</time>
      </trkpt>
      <trkpt lat="44.98603" lon="4.22601">
        <ele>1181</ele>
        <time>2014-07-11T12:11:58Z</time>
      </trkpt>
      <trkpt lat="44.98523" lon="4.22621">
        <ele>1182</ele>
        <time>2014-07-11T12:12:30Z</time>
      </trkpt>
      <trkpt lat="44.98505" lon="4.22627">
        <ele>1183</ele>
        <time>2014-07-11T12:12:39Z</time>
      </trkpt>
      <trkpt lat="44.98503" lon="4.22626">
        <ele>1183</ele>
        <time>2014-07-11T12:12:40Z</time>
      </trkpt>
      <trkpt lat="44.98476" lon="4.22595">
        <ele>1185</ele>
        <time>2014-07-11T12:12:56Z</time>
      </trkpt>
      <trkpt lat="44.98423" lon="4.22545">
        <ele>1181</ele>
        <time>2014-07-11T12:13:17Z</time>
      </trkpt>
      <trkpt lat="44.98399" lon="4.22515">
        <ele>1183</ele>
        <time>2014-07-11T12:13:23Z</time>
      </trkpt>
      <trkpt lat="44.98377" lon="4.22492">
        <ele>1177</ele>
        <time>2014-07-11T12:13:27Z</time>
      </trkpt>
      <trkpt lat="44.98323" lon="4.22441">
        <ele>1181</ele>
        <time>2014-07-11T12:13:36Z</time>
      </trkpt>
      <trkpt lat="44.98291" lon="4.22384">
        <ele>1175</ele>
        <time>2014-07-11T12:13:46Z</time>
      </trkpt>
      <trkpt lat="44.98256" lon="4.22326">
        <ele>1173</ele>
        <time>2014-07-11T12:14:03Z</time>
      </trkpt>
      <trkpt lat="44.98173" lon="4.22202">
        <ele>1165</ele>
        <time>2014-07-11T12:14:34Z</time>
      </trkpt>
      <trkpt lat="44.98149" lon="4.22174">
        <ele>1170</ele>
        <time>2014-07-11T12:14:44Z</time>
      </trkpt>
      <trkpt lat="44.98133" lon="4.2216">
        <ele>1160</ele>
        <time>2014-07-11T12:14:48Z</time>
      </trkpt>
      <trkpt lat="44.98103" lon="4.22135">
        <ele>1159</ele>
        <time>2014-07-11T12:14:54Z</time>
      </trkpt>
      <trkpt lat="44.98071" lon="4.2211">
        <ele>1159</ele>
        <time>2014-07-11T12:14:59Z</time>
      </trkpt>
      <trkpt lat="44.98042" lon="4.22093">
        <ele>1159</ele>
        <time>2014-07-11T12:15:03Z</time>
      </trkpt>
      <trkpt lat="44.98036" lon="4.22091">
        <ele>1159</ele>
        <time>2014-07-11T12:15:04Z</time>
      </trkpt>
      <trkpt lat="44.98019" lon="4.22085">
        <ele>1157</ele>
        <time>2014-07-11T12:15:07Z</time>
      </trkpt>
      <trkpt lat="44.98001" lon="4.22079">
        <ele>1151</ele>
        <time>2014-07-11T12:15:10Z</time>
      </trkpt>
      <trkpt lat="44.97982" lon="4.22072">
        <ele>1146</ele>
        <time>2014-07-11T12:15:13Z</time>
      </trkpt>
      <trkpt lat="44.97972" lon="4.22067">
        <ele>1144</ele>
        <time>2014-07-11T12:15:15Z</time>
      </trkpt>
      <trkpt lat="44.97952" lon="4.22052">
        <ele>1142</ele>
        <time>2014-07-11T12:15:19Z</time>
      </trkpt>
      <trkpt lat="44.97947" lon="4.22049">
        <ele>1141</ele>
        <time>2014-07-11T12:15:20Z</time>
      </trkpt>
      <trkpt lat="44.9793" lon="4.22046">
        <ele>1140</ele>
        <time>2014-07-11T12:15:23Z</time>
      </trkpt>
      <trkpt lat="44.97917" lon="4.22035">
        <ele>1139</ele>
        <time>2014-07-11T12:15:27Z</time>
      </trkpt>
      <trkpt lat="44.97912" lon="4.22027">
        <ele>1135</ele>
        <time>2014-07-11T12:15:29Z</time>
      </trkpt>
      <trkpt lat="44.97891" lon="4.22011">
        <ele>1134</ele>
        <time>2014-07-11T12:15:34Z</time>
      </trkpt>
      <trkpt lat="44.97886" lon="4.22009">
        <ele>1134</ele>
        <time>2014-07-11T12:15:35Z</time>
      </trkpt>
      <trkpt lat="44.97843" lon="4.21992">
        <ele>1127</ele>
        <time>2014-07-11T12:15:43Z</time>
      </trkpt>
      <trkpt lat="44.97838" lon="4.21989">
        <ele>1127</ele>
        <time>2014-07-11T12:15:44Z</time>
      </trkpt>
      <trkpt lat="44.97781" lon="4.2196">
        <ele>1126</ele>
        <time>2014-07-11T12:16:00Z</time>
      </trkpt>
      <trkpt lat="44.97772" lon="4.2196">
        <ele>1126</ele>
        <time>2014-07-11T12:16:05Z</time>
      </trkpt>
      <trkpt lat="44.97733" lon="4.21937">
        <ele>1129</ele>
        <time>2014-07-11T12:16:25Z</time>
      </trkpt>
      <trkpt lat="44.97637" lon="4.21844">
        <ele>1126</ele>
        <time>2014-07-11T12:16:58Z</time>
      </trkpt>
      <trkpt lat="44.9763" lon="4.21833">
        <ele>1123</ele>
        <time>2014-07-11T12:17:00Z</time>
      </trkpt>
      <trkpt lat="44.97583" lon="4.21791">
        <ele>1125</ele>
        <time>2014-07-11T12:17:08Z</time>
      </trkpt>
      <trkpt lat="44.97579" lon="4.21784">
        <ele>1125</ele>
        <time>2014-07-11T12:17:09Z</time>
      </trkpt>
      <trkpt lat="44.97571" lon="4.2177">
        <ele>1125</ele>
        <time>2014-07-11T12:17:11Z</time>
      </trkpt>
      <trkpt lat="44.97535" lon="4.2175">
        <ele>1126</ele>
        <time>2014-07-11T12:17:19Z</time>
      </trkpt>
      <trkpt lat="44.97497" lon="4.21744">
        <ele>1128</ele>
        <time>2014-07-11T12:17:30Z</time>
      </trkpt>
      <trkpt lat="44.97461" lon="4.21705">
        <ele>1132</ele>
        <time>2014-07-11T12:17:43Z</time>
      </trkpt>
      <trkpt lat="44.97434" lon="4.21673">
        <ele>1134</ele>
        <time>2014-07-11T12:17:55Z</time>
      </trkpt>
      <trkpt lat="44.97371" lon="4.21589">
        <ele>1140</ele>
        <time>2014-07-11T12:18:28Z</time>
      </trkpt>
      <trkpt lat="44.97324" lon="4.21524">
        <ele>1145</ele>
        <time>2014-07-11T12:18:53Z</time>
      </trkpt>
      <trkpt lat="44.97286" lon="4.21501">
        <ele>1146</ele>
        <time>2014-07-11T12:19:08Z</time>
      </trkpt>
      <trkpt lat="44.97264" lon="4.21488">
        <ele>1149</ele>
        <time>2014-07-11T12:19:20Z</time>
      </trkpt>
      <trkpt lat="44.97216" lon="4.21473">
        <ele>1153</ele>
        <time>2014-07-11T12:19:41Z</time>
      </trkpt>
      <trkpt lat="44.97157" lon="4.21424">
        <ele>1159</ele>
        <time>2014-07-11T12:20:12Z</time>
      </trkpt>
      <trkpt lat="44.97145" lon="4.2141">
        <ele>1162</ele>
        <time>2014-07-11T12:20:27Z</time>
      </trkpt>
      <trkpt lat="44.97165" lon="4.21442">
        <ele>1158</ele>
        <time>2014-07-11T12:20:37Z</time>
      </trkpt>
      <trkpt lat="44.97167" lon="4.21444">
        <ele>1156</ele>
        <time>2014-07-11T12:20:39Z</time>
      </trkpt>
      <trkpt lat="44.97168" lon="4.21443">
        <ele>1156</ele>
        <time>2014-07-11T12:20:41Z</time>
      </trkpt>
      <trkpt lat="44.97137" lon="4.21399">
        <ele>1163</ele>
        <time>2014-07-11T12:21:00Z</time>
      </trkpt>
      <trkpt lat="44.97136" lon="4.21397">
        <ele>1163</ele>
        <time>2014-07-11T12:21:01Z</time>
      </trkpt>
      <trkpt lat="44.97098" lon="4.21312">
        <ele>1168</ele>
        <time>2014-07-11T12:21:32Z</time>
      </trkpt>
      <trkpt lat="44.96961" lon="4.21182">
        <ele>1164</ele>
        <time>2014-07-11T12:22:24Z</time>
      </trkpt>
      <trkpt lat="44.96945" lon="4.21132">
        <ele>1166</ele>
        <time>2014-07-11T12:22:35Z</time>
      </trkpt>
      <trkpt lat="44.9686" lon="4.21084">
        <ele>1166</ele>
        <time>2014-07-11T12:23:02Z</time>
      </trkpt>
      <trkpt lat="44.96792" lon="4.21144">
        <ele>1167</ele>
        <time>2014-07-11T12:23:25Z</time>
      </trkpt>
      <trkpt lat="44.9665" lon="4.21272">
        <ele>1173</ele>
        <time>2014-07-11T12:24:13Z</time>
      </trkpt>
      <trkpt lat="44.9655" lon="4.2135">
        <ele>1177</ele>
        <time>2014-07-11T12:24:47Z</time>
      </trkpt>
      <trkpt lat="44.96459" lon="4.21438">
        <ele>1181</ele>
        <time>2014-07-11T12:25:20Z</time>
      </trkpt>
      <trkpt lat="44.96397" lon="4.21489">
        <ele>1188</ele>
        <time>2014-07-11T12:25:38Z</time>
      </trkpt>
      <trkpt lat="44.96379" lon="4.21488">
        <ele>1190</ele>
        <time>2014-07-11T12:25:42Z</time>
      </trkpt>
      <trkpt lat="44.96363" lon="4.21482">
        <ele>1192</ele>
        <time>2014-07-11T12:25:47Z</time>
      </trkpt>
      <trkpt lat="44.96347" lon="4.21486">
        <ele>1193</ele>
        <time>2014-07-11T12:25:54Z</time>
      </trkpt>
      <trkpt lat="44.96317" lon="4.21512">
        <ele>1197</ele>
        <time>2014-07-11T12:26:14Z</time>
      </trkpt>
      <trkpt lat="44.96277" lon="4.21551">
        <ele>1200</ele>
        <time>2014-07-11T12:26:41Z</time>
      </trkpt>
      <trkpt lat="44.9624" lon="4.21578">
        <ele>1207</ele>
        <time>2014-07-11T12:27:06Z</time>
      </trkpt>
      <trkpt lat="44.96213" lon="4.21582">
        <ele>1211</ele>
        <time>2014-07-11T12:27:21Z</time>
      </trkpt>
      <trkpt lat="44.96189" lon="4.21581">
        <ele>1213</ele>
        <time>2014-07-11T12:27:35Z</time>
      </trkpt>
      <trkpt lat="44.96136" lon="4.21577">
        <ele>1220</ele>
        <time>2014-07-11T12:28:08Z</time>
      </trkpt>
      <trkpt lat="44.96129" lon="4.21575">
        <ele>1221</ele>
        <time>2014-07-11T12:28:12Z</time>
      </trkpt>
      <trkpt lat="44.96128" lon="4.21574">
        <ele>1221</ele>
        <time>2014-07-11T12:28:13Z</time>
      </trkpt>
      <trkpt lat="44.96118" lon="4.21551">
        <ele>1222</ele>
        <time>2014-07-11T12:28:24Z</time>
      </trkpt>
      <trkpt lat="44.96115" lon="4.21521">
        <ele>1224</ele>
        <time>2014-07-11T12:28:37Z</time>
      </trkpt>
      <trkpt lat="44.96111" lon="4.21468">
        <ele>1231</ele>
        <time>2014-07-11T12:29:00Z</time>
      </trkpt>
      <trkpt lat="44.9611" lon="4.21463">
        <ele>1231</ele>
        <time>2014-07-11T12:29:02Z</time>
      </trkpt>
      <trkpt lat="44.96103" lon="4.21396">
        <ele>1237</ele>
        <time>2014-07-11T12:29:29Z</time>
      </trkpt>
      <trkpt lat="44.96097" lon="4.21345">
        <ele>1240</ele>
        <time>2014-07-11T12:29:46Z</time>
      </trkpt>
      <trkpt lat="44.96069" lon="4.21359">
        <ele>1247</ele>
        <time>2014-07-11T12:30:06Z</time>
      </trkpt>
      <trkpt lat="44.95976" lon="4.21465">
        <ele>1252</ele>
        <time>2014-07-11T12:31:12Z</time>
      </trkpt>
      <trkpt lat="44.95964" lon="4.21478">
        <ele>1252</ele>
        <time>2014-07-11T12:31:19Z</time>
      </trkpt>
      <trkpt lat="44.95943" lon="4.21504">
        <ele>1246</ele>
        <time>2014-07-11T12:31:35Z</time>
      </trkpt>
      <trkpt lat="44.95876" lon="4.2158">
        <ele>1256</ele>
        <time>2014-07-11T12:32:09Z</time>
      </trkpt>
      <trkpt lat="44.95787" lon="4.2173">
        <ele>1251</ele>
        <time>2014-07-11T12:32:54Z</time>
      </trkpt>
      <trkpt lat="44.95765" lon="4.21766">
        <ele>1249</ele>
        <time>2014-07-11T12:33:07Z</time>
      </trkpt>
      <trkpt lat="44.95722" lon="4.21831">
        <ele>1259</ele>
        <time>2014-07-11T12:33:33Z</time>
      </trkpt>
      <trkpt lat="44.95659" lon="4.21899">
        <ele>1265</ele>
        <time>2014-07-11T12:34:14Z</time>
      </trkpt>
      <trkpt lat="44.95637" lon="4.21932">
        <ele>1261</ele>
        <time>2014-07-11T12:34:32Z</time>
      </trkpt>
      <trkpt lat="44.9559" lon="4.22021">
        <ele>1258</ele>
        <time>2014-07-11T12:34:56Z</time>
      </trkpt>
      <trkpt lat="44.95593" lon="4.22059">
        <ele>1258</ele>
        <time>2014-07-11T12:35:04Z</time>
      </trkpt>
      <trkpt lat="44.95645" lon="4.22117">
        <ele>1255</ele>
        <time>2014-07-11T12:35:21Z</time>
      </trkpt>
      <trkpt lat="44.95664" lon="4.22212">
        <ele>1262</ele>
        <time>2014-07-11T12:35:42Z</time>
      </trkpt>
      <trkpt lat="44.95662" lon="4.22233">
        <ele>1262</ele>
        <time>2014-07-11T12:35:47Z</time>
      </trkpt>
      <trkpt lat="44.95657" lon="4.22293">
        <ele>1265</ele>
        <time>2014-07-11T12:36:04Z</time>
      </trkpt>
      <trkpt lat="44.95626" lon="4.22316">
        <ele>1267</ele>
        <time>2014-07-11T12:36:21Z</time>
      </trkpt>
      <trkpt lat="44.95612" lon="4.22318">
        <ele>1268</ele>
        <time>2014-07-11T12:36:26Z</time>
      </trkpt>
      <trkpt lat="44.95552" lon="4.22307">
        <ele>1275</ele>
        <time>2014-07-11T12:36:54Z</time>
      </trkpt>
      <trkpt lat="44.9551" lon="4.22287">
        <ele>1277</ele>
        <time>2014-07-11T12:37:18Z</time>
      </trkpt>
      <trkpt lat="44.95502" lon="4.22287">
        <ele>1277</ele>
        <time>2014-07-11T12:37:22Z</time>
      </trkpt>
      <trkpt lat="44.95468" lon="4.22271">
        <ele>1280</ele>
        <time>2014-07-11T12:37:40Z</time>
      </trkpt>
      <trkpt lat="44.95438" lon="4.22219">
        <ele>1285</ele>
        <time>2014-07-11T12:38:07Z</time>
      </trkpt>
      <trkpt lat="44.95408" lon="4.22178">
        <ele>1289</ele>
        <time>2014-07-11T12:38:30Z</time>
      </trkpt>
      <trkpt lat="44.95392" lon="4.22151">
        <ele>1291</ele>
        <time>2014-07-11T12:38:41Z</time>
      </trkpt>
      <trkpt lat="44.95369" lon="4.22049">
        <ele>1296</ele>
        <time>2014-07-11T12:39:19Z</time>
      </trkpt>
      <trkpt lat="44.95348" lon="4.22044">
        <ele>1296</ele>
        <time>2014-07-11T12:39:31Z</time>
      </trkpt>
      <trkpt lat="44.95346" lon="4.22043">
        <ele>1296</ele>
        <time>2014-07-11T12:39:32Z</time>
      </trkpt>
      <trkpt lat="44.95327" lon="4.2205">
        <ele>1300</ele>
        <time>2014-07-11T12:39:45Z</time>
      </trkpt>
      <trkpt lat="44.95303" lon="4.2206">
        <ele>1301</ele>
        <time>2014-07-11T12:39:57Z</time>
      </trkpt>
      <trkpt lat="44.95272" lon="4.22031">
        <ele>1303</ele>
        <time>2014-07-11T12:40:14Z</time>
      </trkpt>
      <trkpt lat="44.95249" lon="4.22011">
        <ele>1307</ele>
        <time>2014-07-11T12:40:28Z</time>
      </trkpt>
      <trkpt lat="44.95232" lon="4.21989">
        <ele>1310</ele>
        <time>2014-07-11T12:40:42Z</time>
      </trkpt>
      <trkpt lat="44.95198" lon="4.21943">
        <ele>1313</ele>
        <time>2014-07-11T12:41:08Z</time>
      </trkpt>
      <trkpt lat="44.95164" lon="4.21895">
        <ele>1321</ele>
        <time>2014-07-11T12:41:33Z</time>
      </trkpt>
      <trkpt lat="44.95119" lon="4.21837">
        <ele>1325</ele>
        <time>2014-07-11T12:42:05Z</time>
      </trkpt>
      <trkpt lat="44.95096" lon="4.21819">
        <ele>1328</ele>
        <time>2014-07-11T12:42:19Z</time>
      </trkpt>
      <trkpt lat="44.95061" lon="4.21759">
        <ele>1333</ele>
        <time>2014-07-11T12:42:48Z</time>
      </trkpt>
      <trkpt lat="44.9504" lon="4.21738">
        <ele>1337</ele>
        <time>2014-07-11T12:43:03Z</time>
      </trkpt>
      <trkpt lat="44.94997" lon="4.217">
        <ele>1343</ele>
        <time>2014-07-11T12:43:29Z</time>
      </trkpt>
      <trkpt lat="44.94967" lon="4.21688">
        <ele>1343</ele>
        <time>2014-07-11T12:43:55Z</time>
      </trkpt>
      <trkpt lat="44.94966" lon="4.21688">
        <ele>1343</ele>
        <time>2014-07-11T12:44:46Z</time>
      </trkpt>
      <trkpt lat="44.94961" lon="4.21674">
        <ele>1344</ele>
        <time>2014-07-11T12:45:00Z</time>
      </trkpt>
      <trkpt lat="44.94938" lon="4.21609">
        <ele>1346</ele>
        <time>2014-07-11T12:45:28Z</time>
      </trkpt>
      <trkpt lat="44.94912" lon="4.21529">
        <ele>1352</ele>
        <time>2014-07-11T12:45:59Z</time>
      </trkpt>
      <trkpt lat="44.94892" lon="4.21473">
        <ele>1358</ele>
        <time>2014-07-11T12:46:25Z</time>
      </trkpt>
      <trkpt lat="44.94882" lon="4.21444">
        <ele>1359</ele>
        <time>2014-07-11T12:46:38Z</time>
      </trkpt>
      <trkpt lat="44.9486" lon="4.2138">
        <ele>1364</ele>
        <time>2014-07-11T12:47:06Z</time>
      </trkpt>
      <trkpt lat="44.9484" lon="4.21284">
        <ele>1368</ele>
        <time>2014-07-11T12:47:38Z</time>
      </trkpt>
      <trkpt lat="44.9483" lon="4.21251">
        <ele>1368</ele>
        <time>2014-07-11T12:47:52Z</time>
      </trkpt>
      <trkpt lat="44.94815" lon="4.21222">
        <ele>1366</ele>
        <time>2014-07-11T12:48:03Z</time>
      </trkpt>
      <trkpt lat="44.94814" lon="4.21223">
        <ele>1366</ele>
        <time>2014-07-11T12:48:04Z</time>
      </trkpt>
      <trkpt lat="44.94801" lon="4.21243">
        <ele>1367</ele>
        <time>2014-07-11T12:48:39Z</time>
      </trkpt>
      <trkpt lat="44.94802" lon="4.21246">
        <ele>1367</ele>
        <time>2014-07-11T12:50:09Z</time>
      </trkpt>
      <trkpt lat="44.94819" lon="4.21223">
        <ele>1366</ele>
        <time>2014-07-11T12:50:19Z</time>
      </trkpt>
      <trkpt lat="44.94833" lon="4.21262">
        <ele>1368</ele>
        <time>2014-07-11T12:50:35Z</time>
      </trkpt>
      <trkpt lat="44.94845" lon="4.21313">
        <ele>1367</ele>
        <time>2014-07-11T12:51:39Z</time>
      </trkpt>
      <trkpt lat="44.94849" lon="4.21316">
        <ele>1367</ele>
        <time>2014-07-11T12:54:14Z</time>
      </trkpt>
      <trkpt lat="44.94846" lon="4.2131">
        <ele>1367</ele>
        <time>2014-07-11T12:54:45Z</time>
      </trkpt>
      <trkpt lat="44.94817" lon="4.21224">
        <ele>1366</ele>
        <time>2014-07-11T12:55:12Z</time>
      </trkpt>
      <trkpt lat="44.9481" lon="4.2123">
        <ele>1366</ele>
        <time>2014-07-11T12:55:16Z</time>
      </trkpt>
      <trkpt lat="44.94802" lon="4.21246">
        <ele>1367</ele>
        <time>2014-07-11T12:55:22Z</time>
      </trkpt>
      <trkpt lat="44.94719" lon="4.21222">
        <ele>1367</ele>
        <time>2014-07-11T12:55:50Z</time>
      </trkpt>
      <trkpt lat="44.94584" lon="4.21212">
        <ele>1367</ele>
        <time>2014-07-11T12:56:25Z</time>
      </trkpt>
      <trkpt lat="44.94504" lon="4.2117">
        <ele>1371</ele>
        <time>2014-07-11T12:56:46Z</time>
      </trkpt>
      <trkpt lat="44.945" lon="4.21167">
        <ele>1371</ele>
        <time>2014-07-11T12:56:47Z</time>
      </trkpt>
      <trkpt lat="44.94443" lon="4.21116">
        <ele>1371</ele>
        <time>2014-07-11T12:57:03Z</time>
      </trkpt>
      <trkpt lat="44.94306" lon="4.20975">
        <ele>1372</ele>
        <time>2014-07-11T12:57:45Z</time>
      </trkpt>
      <trkpt lat="44.94264" lon="4.20918">
        <ele>1372</ele>
        <time>2014-07-11T12:57:58Z</time>
      </trkpt>
      <trkpt lat="44.9421" lon="4.20844">
        <ele>1369</ele>
        <time>2014-07-11T12:58:14Z</time>
      </trkpt>
      <trkpt lat="44.94142" lon="4.20767">
        <ele>1362</ele>
        <time>2014-07-11T12:58:29Z</time>
      </trkpt>
      <trkpt lat="44.94136" lon="4.20761">
        <ele>1361</ele>
        <time>2014-07-11T12:58:30Z</time>
      </trkpt>
      <trkpt lat="44.94112" lon="4.2073">
        <ele>1358</ele>
        <time>2014-07-11T12:58:34Z</time>
      </trkpt>
      <trkpt lat="44.94104" lon="4.20709">
        <ele>1357</ele>
        <time>2014-07-11T12:58:36Z</time>
      </trkpt>
      <trkpt lat="44.94081" lon="4.20633">
        <ele>1348</ele>
        <time>2014-07-11T12:58:43Z</time>
      </trkpt>
      <trkpt lat="44.94065" lon="4.20586">
        <ele>1347</ele>
        <time>2014-07-11T12:58:48Z</time>
      </trkpt>
      <trkpt lat="44.94054" lon="4.20556">
        <ele>1342</ele>
        <time>2014-07-11T12:58:51Z</time>
      </trkpt>
      <trkpt lat="44.94043" lon="4.20526">
        <ele>1340</ele>
        <time>2014-07-11T12:58:54Z</time>
      </trkpt>
      <trkpt lat="44.9403" lon="4.20495">
        <ele>1335</ele>
        <time>2014-07-11T12:58:57Z</time>
      </trkpt>
      <trkpt lat="44.9402" lon="4.20475">
        <ele>1334</ele>
        <time>2014-07-11T12:58:59Z</time>
      </trkpt>
      <trkpt lat="44.94003" lon="4.20451">
        <ele>1333</ele>
        <time>2014-07-11T12:59:02Z</time>
      </trkpt>
      <trkpt lat="44.9399" lon="4.20443">
        <ele>1329</ele>
        <time>2014-07-11T12:59:04Z</time>
      </trkpt>
      <trkpt lat="44.9387" lon="4.20396">
        <ele>1324</ele>
        <time>2014-07-11T12:59:29Z</time>
      </trkpt>
      <trkpt lat="44.93792" lon="4.20412">
        <ele>1329</ele>
        <time>2014-07-11T12:59:55Z</time>
      </trkpt>
      <trkpt lat="44.93785" lon="4.20415">
        <ele>1330</ele>
        <time>2014-07-11T13:00:01Z</time>
      </trkpt>
      <trkpt lat="44.93729" lon="4.20417">
        <ele>1335</ele>
        <time>2014-07-11T13:00:27Z</time>
      </trkpt>
      <trkpt lat="44.93722" lon="4.20415">
        <ele>1338</ele>
        <time>2014-07-11T13:00:31Z</time>
      </trkpt>
      <trkpt lat="44.93701" lon="4.204">
        <ele>1341</ele>
        <time>2014-07-11T13:00:43Z</time>
      </trkpt>
      <trkpt lat="44.937" lon="4.20398">
        <ele>1341</ele>
        <time>2014-07-11T13:00:44Z</time>
      </trkpt>
      <trkpt lat="44.9369" lon="4.20383">
        <ele>1341</ele>
        <time>2014-07-11T13:00:52Z</time>
      </trkpt>
      <trkpt lat="44.93684" lon="4.20366">
        <ele>1342</ele>
        <time>2014-07-11T13:00:59Z</time>
      </trkpt>
      <trkpt lat="44.93676" lon="4.20291">
        <ele>1344</ele>
        <time>2014-07-11T13:01:29Z</time>
      </trkpt>
      <trkpt lat="44.93676" lon="4.20288">
        <ele>1344</ele>
        <time>2014-07-11T13:01:30Z</time>
      </trkpt>
      <trkpt lat="44.93655" lon="4.20194">
        <ele>1350</ele>
        <time>2014-07-11T13:02:01Z</time>
      </trkpt>
      <trkpt lat="44.9362" lon="4.20065">
        <ele>1347</ele>
        <time>2014-07-11T13:02:32Z</time>
      </trkpt>
      <trkpt lat="44.93612" lon="4.19972">
        <ele>1349</ele>
        <time>2014-07-11T13:02:49Z</time>
      </trkpt>
      <trkpt lat="44.93614" lon="4.1993">
        <ele>1350</ele>
        <time>2014-07-11T13:02:59Z</time>
      </trkpt>
      <trkpt lat="44.93614" lon="4.19866">
        <ele>1354</ele>
        <time>2014-07-11T13:03:18Z</time>
      </trkpt>
      <trkpt lat="44.93601" lon="4.1976">
        <ele>1359</ele>
        <time>2014-07-11T13:03:48Z</time>
      </trkpt>
      <trkpt lat="44.93589" lon="4.19729">
        <ele>1363</ele>
        <time>2014-07-11T13:04:00Z</time>
      </trkpt>
      <trkpt lat="44.93577" lon="4.19708">
        <ele>1367</ele>
        <time>2014-07-11T13:04:11Z</time>
      </trkpt>
      <trkpt lat="44.93552" lon="4.19647">
        <ele>1373</ele>
        <time>2014-07-11T13:04:38Z</time>
      </trkpt>
      <trkpt lat="44.93527" lon="4.19561">
        <ele>1378</ele>
        <time>2014-07-11T13:05:10Z</time>
      </trkpt>
      <trkpt lat="44.93514" lon="4.1949">
        <ele>1383</ele>
        <time>2014-07-11T13:05:34Z</time>
      </trkpt>
      <trkpt lat="44.93494" lon="4.1938">
        <ele>1389</ele>
        <time>2014-07-11T13:06:06Z</time>
      </trkpt>
      <trkpt lat="44.93464" lon="4.19298">
        <ele>1392</ele>
        <time>2014-07-11T13:06:34Z</time>
      </trkpt>
      <trkpt lat="44.93405" lon="4.19157">
        <ele>1400</ele>
        <time>2014-07-11T13:07:21Z</time>
      </trkpt>
      <trkpt lat="44.93387" lon="4.19115">
        <ele>1403</ele>
        <time>2014-07-11T13:07:37Z</time>
      </trkpt>
      <trkpt lat="44.93367" lon="4.19084">
        <ele>1404</ele>
        <time>2014-07-11T13:07:50Z</time>
      </trkpt>
      <trkpt lat="44.93365" lon="4.19082">
        <ele>1406</ele>
        <time>2014-07-11T13:07:51Z</time>
      </trkpt>
      <trkpt lat="44.93334" lon="4.19088">
        <ele>1408</ele>
        <time>2014-07-11T13:08:06Z</time>
      </trkpt>
      <trkpt lat="44.93301" lon="4.19108">
        <ele>1412</ele>
        <time>2014-07-11T13:08:22Z</time>
      </trkpt>
      <trkpt lat="44.93241" lon="4.19145">
        <ele>1418</ele>
        <time>2014-07-11T13:08:51Z</time>
      </trkpt>
      <trkpt lat="44.93195" lon="4.19111">
        <ele>1421</ele>
        <time>2014-07-11T13:09:18Z</time>
      </trkpt>
      <trkpt lat="44.93184" lon="4.19087">
        <ele>1423</ele>
        <time>2014-07-11T13:09:29Z</time>
      </trkpt>
      <trkpt lat="44.93189" lon="4.19102">
        <ele>1422</ele>
        <time>2014-07-11T13:09:40Z</time>
      </trkpt>
      <trkpt lat="44.9319" lon="4.19101">
        <ele>1422</ele>
        <time>2014-07-11T13:09:41Z</time>
      </trkpt>
      <trkpt lat="44.93172" lon="4.1905">
        <ele>1425</ele>
        <time>2014-07-11T13:10:01Z</time>
      </trkpt>
      <trkpt lat="44.93158" lon="4.19014">
        <ele>1432</ele>
        <time>2014-07-11T13:10:14Z</time>
      </trkpt>
      <trkpt lat="44.9311" lon="4.19013">
        <ele>1436</ele>
        <time>2014-07-11T13:10:39Z</time>
      </trkpt>
      <trkpt lat="44.93077" lon="4.19047">
        <ele>1442</ele>
        <time>2014-07-11T13:10:56Z</time>
      </trkpt>
      <trkpt lat="44.93018" lon="4.19106">
        <ele>1442</ele>
        <time>2014-07-11T13:11:23Z</time>
      </trkpt>
      <trkpt lat="44.92986" lon="4.19134">
        <ele>1446</ele>
        <time>2014-07-11T13:11:37Z</time>
      </trkpt>
      <trkpt lat="44.92958" lon="4.19114">
        <ele>1448</ele>
        <time>2014-07-11T13:11:49Z</time>
      </trkpt>
      <trkpt lat="44.92945" lon="4.19061">
        <ele>1453</ele>
        <time>2014-07-11T13:12:07Z</time>
      </trkpt>
      <trkpt lat="44.92941" lon="4.19047">
        <ele>1453</ele>
        <time>2014-07-11T13:12:12Z</time>
      </trkpt>
      <trkpt lat="44.92935" lon="4.19028">
        <ele>1454</ele>
        <time>2014-07-11T13:12:21Z</time>
      </trkpt>
      <trkpt lat="44.92927" lon="4.19016">
        <ele>1455</ele>
        <time>2014-07-11T13:12:27Z</time>
      </trkpt>
      <trkpt lat="44.92854" lon="4.19049">
        <ele>1459</ele>
        <time>2014-07-11T13:12:56Z</time>
      </trkpt>
      <trkpt lat="44.92813" lon="4.19073">
        <ele>1463</ele>
        <time>2014-07-11T13:13:11Z</time>
      </trkpt>
      <trkpt lat="44.9278" lon="4.19083">
        <ele>1465</ele>
        <time>2014-07-11T13:13:24Z</time>
      </trkpt>
      <trkpt lat="44.92677" lon="4.19106">
        <ele>1466</ele>
        <time>2014-07-11T13:14:05Z</time>
      </trkpt>
      <trkpt lat="44.92644" lon="4.19124">
        <ele>1469</ele>
        <time>2014-07-11T13:14:19Z</time>
      </trkpt>
      <trkpt lat="44.92636" lon="4.19135">
        <ele>1469</ele>
        <time>2014-07-11T13:14:21Z</time>
      </trkpt>
      <trkpt lat="44.92593" lon="4.19162">
        <ele>1468</ele>
        <time>2014-07-11T13:14:34Z</time>
      </trkpt>
      <trkpt lat="44.9259" lon="4.19186">
        <ele>1463</ele>
        <time>2014-07-11T13:14:49Z</time>
      </trkpt>
      <trkpt lat="44.92556" lon="4.19293">
        <ele>1466</ele>
        <time>2014-07-11T13:15:29Z</time>
      </trkpt>
      <trkpt lat="44.9254" lon="4.19326">
        <ele>1467</ele>
        <time>2014-07-11T13:15:38Z</time>
      </trkpt>
      <trkpt lat="44.92542" lon="4.19348">
        <ele>1465</ele>
        <time>2014-07-11T13:15:59Z</time>
      </trkpt>
      <trkpt lat="44.92543" lon="4.19345">
        <ele>1465</ele>
        <time>2014-07-11T13:17:19Z</time>
      </trkpt>
      <trkpt lat="44.92544" lon="4.19348">
        <ele>1465</ele>
        <time>2014-07-11T13:19:23Z</time>
      </trkpt>
      <trkpt lat="44.92545" lon="4.19348">
        <ele>1465</ele>
        <time>2014-07-11T13:19:26Z</time>
      </trkpt>
      <trkpt lat="44.92562" lon="4.19353">
        <ele>1463</ele>
        <time>2014-07-11T13:19:36Z</time>
      </trkpt>
      <trkpt lat="44.92549" lon="4.19374">
        <ele>1465</ele>
        <time>2014-07-11T13:19:53Z</time>
      </trkpt>
      <trkpt lat="44.92538" lon="4.19391">
        <ele>1466</ele>
        <time>2014-07-11T13:20:19Z</time>
      </trkpt>
      <trkpt lat="44.92537" lon="4.19392">
        <ele>1466</ele>
        <time>2014-07-11T13:20:20Z</time>
      </trkpt>
      <trkpt lat="44.92516" lon="4.19411">
        <ele>1470</ele>
        <time>2014-07-11T13:20:48Z</time>
      </trkpt>
      <trkpt lat="44.92491" lon="4.19419">
        <ele>1478</ele>
        <time>2014-07-11T13:21:22Z</time>
      </trkpt>
      <trkpt lat="44.92488" lon="4.19419">
        <ele>1478</ele>
        <time>2014-07-11T13:21:27Z</time>
      </trkpt>
      <trkpt lat="44.92451" lon="4.19439">
        <ele>1484</ele>
        <time>2014-07-11T13:21:55Z</time>
      </trkpt>
      <trkpt lat="44.92427" lon="4.19451">
        <ele>1485</ele>
        <time>2014-07-11T13:22:14Z</time>
      </trkpt>
      <trkpt lat="44.9241" lon="4.19461">
        <ele>1490</ele>
        <time>2014-07-11T13:22:35Z</time>
      </trkpt>
      <trkpt lat="44.92382" lon="4.19487">
        <ele>1490</ele>
        <time>2014-07-11T13:22:58Z</time>
      </trkpt>
      <trkpt lat="44.92381" lon="4.19487">
        <ele>1490</ele>
        <time>2014-07-11T13:22:59Z</time>
      </trkpt>
      <trkpt lat="44.92341" lon="4.19531">
        <ele>1494</ele>
        <time>2014-07-11T13:23:28Z</time>
      </trkpt>
      <trkpt lat="44.92344" lon="4.19538">
        <ele>1494</ele>
        <time>2014-07-11T13:23:34Z</time>
      </trkpt>
      <trkpt lat="44.92326" lon="4.19596">
        <ele>1497</ele>
        <time>2014-07-11T13:24:05Z</time>
      </trkpt>
      <trkpt lat="44.92327" lon="4.19612">
        <ele>1498</ele>
        <time>2014-07-11T13:24:12Z</time>
      </trkpt>
      <trkpt lat="44.92325" lon="4.19626">
        <ele>1499</ele>
        <time>2014-07-11T13:24:19Z</time>
      </trkpt>
      <trkpt lat="44.92325" lon="4.19627">
        <ele>1499</ele>
        <time>2014-07-11T13:24:20Z</time>
      </trkpt>
      <trkpt lat="44.92301" lon="4.19666">
        <ele>1500</ele>
        <time>2014-07-11T13:24:41Z</time>
      </trkpt>
      <trkpt lat="44.92312" lon="4.19687">
        <ele>1503</ele>
        <time>2014-07-11T13:25:09Z</time>
      </trkpt>
      <trkpt lat="44.92315" lon="4.19688">
        <ele>1503</ele>
        <time>2014-07-11T13:26:49Z</time>
      </trkpt>
      <trkpt lat="44.92334" lon="4.19734">
        <ele>1505</ele>
        <time>2014-07-11T13:27:36Z</time>
      </trkpt>
      <trkpt lat="44.92335" lon="4.19741">
        <ele>1505</ele>
        <time>2014-07-11T13:27:38Z</time>
      </trkpt>
      <trkpt lat="44.92296" lon="4.1977">
        <ele>1506</ele>
        <time>2014-07-11T13:27:58Z</time>
      </trkpt>
      <trkpt lat="44.92256" lon="4.19819">
        <ele>1508</ele>
        <time>2014-07-11T13:28:21Z</time>
      </trkpt>
      <trkpt lat="44.922" lon="4.19848">
        <ele>1515</ele>
        <time>2014-07-11T13:28:49Z</time>
      </trkpt>
      <trkpt lat="44.92172" lon="4.1984">
        <ele>1516</ele>
        <time>2014-07-11T13:29:03Z</time>
      </trkpt>
      <trkpt lat="44.9213" lon="4.1987">
        <ele>1523</ele>
        <time>2014-07-11T13:29:30Z</time>
      </trkpt>
      <trkpt lat="44.92109" lon="4.19886">
        <ele>1524</ele>
        <time>2014-07-11T13:29:46Z</time>
      </trkpt>
      <trkpt lat="44.92081" lon="4.19907">
        <ele>1530</ele>
        <time>2014-07-11T13:30:07Z</time>
      </trkpt>
      <trkpt lat="44.92063" lon="4.1992">
        <ele>1531</ele>
        <time>2014-07-11T13:30:21Z</time>
      </trkpt>
      <trkpt lat="44.92054" lon="4.19921">
        <ele>1532</ele>
        <time>2014-07-11T13:30:28Z</time>
      </trkpt>
      <trkpt lat="44.92033" lon="4.19884">
        <ele>1534</ele>
        <time>2014-07-11T13:30:50Z</time>
      </trkpt>
      <trkpt lat="44.92025" lon="4.19788">
        <ele>1539</ele>
        <time>2014-07-11T13:31:28Z</time>
      </trkpt>
      <trkpt lat="44.9202" lon="4.19713">
        <ele>1546</ele>
        <time>2014-07-11T13:32:01Z</time>
      </trkpt>
      <trkpt lat="44.92053" lon="4.19616">
        <ele>1550</ele>
        <time>2014-07-11T13:32:38Z</time>
      </trkpt>
      <trkpt lat="44.92056" lon="4.19519">
        <ele>1554</ele>
        <time>2014-07-11T13:33:04Z</time>
      </trkpt>
      <trkpt lat="44.92" lon="4.19257">
        <ele>1560</ele>
        <time>2014-07-11T13:34:03Z</time>
      </trkpt>
      <trkpt lat="44.91953" lon="4.1907">
        <ele>1552</ele>
        <time>2014-07-11T13:34:39Z</time>
      </trkpt>
      <trkpt lat="44.91935" lon="4.19005">
        <ele>1554</ele>
        <time>2014-07-11T13:34:51Z</time>
      </trkpt>
      <trkpt lat="44.91904" lon="4.18894">
        <ele>1562</ele>
        <time>2014-07-11T13:35:10Z</time>
      </trkpt>
      <trkpt lat="44.91902" lon="4.18887">
        <ele>1562</ele>
        <time>2014-07-11T13:35:11Z</time>
      </trkpt>
      <trkpt lat="44.91901" lon="4.18881">
        <ele>1562</ele>
        <time>2014-07-11T13:35:12Z</time>
      </trkpt>
      <trkpt lat="44.91889" lon="4.1884">
        <ele>1562</ele>
        <time>2014-07-11T13:35:19Z</time>
      </trkpt>
      <trkpt lat="44.91859" lon="4.18755">
        <ele>1562</ele>
        <time>2014-07-11T13:35:35Z</time>
      </trkpt>
      <trkpt lat="44.91857" lon="4.18751">
        <ele>1562</ele>
        <time>2014-07-11T13:35:36Z</time>
      </trkpt>
      <trkpt lat="44.91785" lon="4.18636">
        <ele>1566</ele>
        <time>2014-07-11T13:36:00Z</time>
      </trkpt>
      <trkpt lat="44.91753" lon="4.18553">
        <ele>1562</ele>
        <time>2014-07-11T13:36:30Z</time>
      </trkpt>
      <trkpt lat="44.91723" lon="4.18481">
        <ele>1569</ele>
        <time>2014-07-11T13:36:58Z</time>
      </trkpt>
      <trkpt lat="44.91673" lon="4.18359">
        <ele>1569</ele>
        <time>2014-07-11T13:37:45Z</time>
      </trkpt>
      <trkpt lat="44.91673" lon="4.18351">
        <ele>1569</ele>
        <time>2014-07-11T13:38:27Z</time>
      </trkpt>
      <trkpt lat="44.91669" lon="4.18357">
        <ele>1569</ele>
        <time>2014-07-11T13:40:03Z</time>
      </trkpt>
      <trkpt lat="44.91653" lon="4.18308">
        <ele>1576</ele>
        <time>2014-07-11T13:41:54Z</time>
      </trkpt>
      <trkpt lat="44.91611" lon="4.1816">
        <ele>1575</ele>
        <time>2014-07-11T13:42:34Z</time>
      </trkpt>
      <trkpt lat="44.91584" lon="4.1799">
        <ele>1573</ele>
        <time>2014-07-11T13:43:12Z</time>
      </trkpt>
      <trkpt lat="44.9159" lon="4.17899">
        <ele>1569</ele>
        <time>2014-07-11T13:43:31Z</time>
      </trkpt>
      <trkpt lat="44.91587" lon="4.17895">
        <ele>1568</ele>
        <time>2014-07-11T13:43:33Z</time>
      </trkpt>
      <trkpt lat="44.91547" lon="4.17923">
        <ele>1576</ele>
        <time>2014-07-11T13:43:57Z</time>
      </trkpt>
      <trkpt lat="44.91504" lon="4.17979">
        <ele>1580</ele>
        <time>2014-07-11T13:44:27Z</time>
      </trkpt>
      <trkpt lat="44.91479" lon="4.18019">
        <ele>1584</ele>
        <time>2014-07-11T13:44:44Z</time>
      </trkpt>
      <trkpt lat="44.91437" lon="4.18095">
        <ele>1588</ele>
        <time>2014-07-11T13:45:15Z</time>
      </trkpt>
      <trkpt lat="44.91377" lon="4.18206">
        <ele>1597</ele>
        <time>2014-07-11T13:45:58Z</time>
      </trkpt>
      <trkpt lat="44.91367" lon="4.18223">
        <ele>1598</ele>
        <time>2014-07-11T13:46:05Z</time>
      </trkpt>
      <trkpt lat="44.9133" lon="4.1825">
        <ele>1601</ele>
        <time>2014-07-11T13:46:30Z</time>
      </trkpt>
      <trkpt lat="44.91327" lon="4.18252">
        <ele>1602</ele>
        <time>2014-07-11T13:46:32Z</time>
      </trkpt>
      <trkpt lat="44.91287" lon="4.1828">
        <ele>1604</ele>
        <time>2014-07-11T13:47:15Z</time>
      </trkpt>
      <trkpt lat="44.91289" lon="4.18279">
        <ele>1604</ele>
        <time>2014-07-11T13:47:48Z</time>
      </trkpt>
      <trkpt lat="44.91309" lon="4.18263">
        <ele>1603</ele>
        <time>2014-07-11T13:48:03Z</time>
      </trkpt>
      <trkpt lat="44.91351" lon="4.18228">
        <ele>1598</ele>
        <time>2014-07-11T13:48:51Z</time>
      </trkpt>
      <trkpt lat="44.91359" lon="4.18226">
        <ele>1598</ele>
        <time>2014-07-11T13:48:56Z</time>
      </trkpt>
      <trkpt lat="44.91363" lon="4.1821">
        <ele>1597</ele>
        <time>2014-07-11T13:49:11Z</time>
      </trkpt>
      <trkpt lat="44.91346" lon="4.18184">
        <ele>1595</ele>
        <time>2014-07-11T13:49:25Z</time>
      </trkpt>
      <trkpt lat="44.91304" lon="4.18128">
        <ele>1588</ele>
        <time>2014-07-11T13:49:37Z</time>
      </trkpt>
      <trkpt lat="44.91273" lon="4.18114">
        <ele>1587</ele>
        <time>2014-07-11T13:49:44Z</time>
      </trkpt>
      <trkpt lat="44.91268" lon="4.18116">
        <ele>1587</ele>
        <time>2014-07-11T13:49:45Z</time>
      </trkpt>
      <trkpt lat="44.91205" lon="4.18171">
        <ele>1594</ele>
        <time>2014-07-11T13:50:07Z</time>
      </trkpt>
      <trkpt lat="44.91135" lon="4.18239">
        <ele>1595</ele>
        <time>2014-07-11T13:50:34Z</time>
      </trkpt>
      <trkpt lat="44.91065" lon="4.18286">
        <ele>1600</ele>
        <time>2014-07-11T13:51:10Z</time>
      </trkpt>
      <trkpt lat="44.91028" lon="4.18319">
        <ele>1601</ele>
        <time>2014-07-11T13:51:33Z</time>
      </trkpt>
      <trkpt lat="44.91006" lon="4.18329">
        <ele>1601</ele>
        <time>2014-07-11T13:51:47Z</time>
      </trkpt>
      <trkpt lat="44.9094" lon="4.18346">
        <ele>1601</ele>
        <time>2014-07-11T13:52:20Z</time>
      </trkpt>
      <trkpt lat="44.90917" lon="4.18365">
        <ele>1597</ele>
        <time>2014-07-11T13:52:33Z</time>
      </trkpt>
      <trkpt lat="44.90893" lon="4.18386">
        <ele>1597</ele>
        <time>2014-07-11T13:52:46Z</time>
      </trkpt>
      <trkpt lat="44.9085" lon="4.18447">
        <ele>1603</ele>
        <time>2014-07-11T13:53:13Z</time>
      </trkpt>
      <trkpt lat="44.90839" lon="4.18454">
        <ele>1603</ele>
        <time>2014-07-11T13:53:40Z</time>
      </trkpt>
      <trkpt lat="44.90842" lon="4.18461">
        <ele>1604</ele>
        <time>2014-07-11T13:55:22Z</time>
      </trkpt>
      <trkpt lat="44.90839" lon="4.18459">
        <ele>1604</ele>
        <time>2014-07-11T13:57:47Z</time>
      </trkpt>
      <trkpt lat="44.90841" lon="4.18453">
        <ele>1603</ele>
        <time>2014-07-11T13:59:51Z</time>
      </trkpt>
      <trkpt lat="44.90839" lon="4.18453">
        <ele>1603</ele>
        <time>2014-07-11T14:00:09Z</time>
      </trkpt>
      <trkpt lat="44.90829" lon="4.18456">
        <ele>1599</ele>
        <time>2014-07-11T14:00:14Z</time>
      </trkpt>
      <trkpt lat="44.90793" lon="4.18463">
        <ele>1598</ele>
        <time>2014-07-11T14:00:24Z</time>
      </trkpt>
      <trkpt lat="44.90775" lon="4.18466">
        <ele>1597</ele>
        <time>2014-07-11T14:00:28Z</time>
      </trkpt>
      <trkpt lat="44.9074" lon="4.18472">
        <ele>1592</ele>
        <time>2014-07-11T14:00:35Z</time>
      </trkpt>
      <trkpt lat="44.90673" lon="4.18489">
        <ele>1589</ele>
        <time>2014-07-11T14:00:49Z</time>
      </trkpt>
      <trkpt lat="44.90651" lon="4.18493">
        <ele>1585</ele>
        <time>2014-07-11T14:00:53Z</time>
      </trkpt>
      <trkpt lat="44.90592" lon="4.18489">
        <ele>1580</ele>
        <time>2014-07-11T14:01:03Z</time>
      </trkpt>
      <trkpt lat="44.90562" lon="4.185">
        <ele>1573</ele>
        <time>2014-07-11T14:01:07Z</time>
      </trkpt>
      <trkpt lat="44.90508" lon="4.18521">
        <ele>1574</ele>
        <time>2014-07-11T14:01:15Z</time>
      </trkpt>
      <trkpt lat="44.90471" lon="4.18538">
        <ele>1568</ele>
        <time>2014-07-11T14:01:20Z</time>
      </trkpt>
      <trkpt lat="44.90425" lon="4.18548">
        <ele>1566</ele>
        <time>2014-07-11T14:01:26Z</time>
      </trkpt>
      <trkpt lat="44.90383" lon="4.18554">
        <ele>1557</ele>
        <time>2014-07-11T14:01:32Z</time>
      </trkpt>
      <trkpt lat="44.90367" lon="4.18557">
        <ele>1556</ele>
        <time>2014-07-11T14:01:34Z</time>
      </trkpt>
      <trkpt lat="44.90333" lon="4.18552">
        <ele>1554</ele>
        <time>2014-07-11T14:01:38Z</time>
      </trkpt>
      <trkpt lat="44.90311" lon="4.18544">
        <ele>1547</ele>
        <time>2014-07-11T14:01:41Z</time>
      </trkpt>
      <trkpt lat="44.90278" lon="4.18525">
        <ele>1544</ele>
        <time>2014-07-11T14:01:51Z</time>
      </trkpt>
      <trkpt lat="44.9024" lon="4.18525">
        <ele>1538</ele>
        <time>2014-07-11T14:01:57Z</time>
      </trkpt>
      <trkpt lat="44.90211" lon="4.18515">
        <ele>1536</ele>
        <time>2014-07-11T14:02:01Z</time>
      </trkpt>
      <trkpt lat="44.90161" lon="4.18496">
        <ele>1530</ele>
        <time>2014-07-11T14:02:08Z</time>
      </trkpt>
      <trkpt lat="44.90137" lon="4.1849">
        <ele>1527</ele>
        <time>2014-07-11T14:02:12Z</time>
      </trkpt>
      <trkpt lat="44.90102" lon="4.18479">
        <ele>1525</ele>
        <time>2014-07-11T14:02:17Z</time>
      </trkpt>
      <trkpt lat="44.9008" lon="4.1847">
        <ele>1520</ele>
        <time>2014-07-11T14:02:20Z</time>
      </trkpt>
      <trkpt lat="44.90073" lon="4.18468">
        <ele>1519</ele>
        <time>2014-07-11T14:02:21Z</time>
      </trkpt>
      <trkpt lat="44.9005" lon="4.18455">
        <ele>1518</ele>
        <time>2014-07-11T14:02:25Z</time>
      </trkpt>
      <trkpt lat="44.90034" lon="4.18458">
        <ele>1517</ele>
        <time>2014-07-11T14:02:28Z</time>
      </trkpt>
      <trkpt lat="44.89992" lon="4.18491">
        <ele>1514</ele>
        <time>2014-07-11T14:02:49Z</time>
      </trkpt>
      <trkpt lat="44.89974" lon="4.18504">
        <ele>1513</ele>
        <time>2014-07-11T14:02:58Z</time>
      </trkpt>
      <trkpt lat="44.89916" lon="4.18497">
        <ele>1514</ele>
        <time>2014-07-11T14:03:25Z</time>
      </trkpt>
      <trkpt lat="44.89912" lon="4.18494">
        <ele>1515</ele>
        <time>2014-07-11T14:03:27Z</time>
      </trkpt>
      <trkpt lat="44.89878" lon="4.18473">
        <ele>1516</ele>
        <time>2014-07-11T14:03:40Z</time>
      </trkpt>
      <trkpt lat="44.89828" lon="4.18457">
        <ele>1523</ele>
        <time>2014-07-11T14:04:01Z</time>
      </trkpt>
      <trkpt lat="44.89801" lon="4.18443">
        <ele>1523</ele>
        <time>2014-07-11T14:04:16Z</time>
      </trkpt>
      <trkpt lat="44.89779" lon="4.1844">
        <ele>1525</ele>
        <time>2014-07-11T14:04:28Z</time>
      </trkpt>
      <trkpt lat="44.89773" lon="4.18438">
        <ele>1525</ele>
        <time>2014-07-11T14:04:32Z</time>
      </trkpt>
      <trkpt lat="44.89714" lon="4.18417">
        <ele>1531</ele>
        <time>2014-07-11T14:05:07Z</time>
      </trkpt>
      <trkpt lat="44.89674" lon="4.18406">
        <ele>1535</ele>
        <time>2014-07-11T14:05:32Z</time>
      </trkpt>
      <trkpt lat="44.89641" lon="4.18396">
        <ele>1540</ele>
        <time>2014-07-11T14:05:49Z</time>
      </trkpt>
      <trkpt lat="44.89624" lon="4.18388">
        <ele>1541</ele>
        <time>2014-07-11T14:05:58Z</time>
      </trkpt>
      <trkpt lat="44.89576" lon="4.18393">
        <ele>1545</ele>
        <time>2014-07-11T14:06:22Z</time>
      </trkpt>
      <trkpt lat="44.89557" lon="4.18374">
        <ele>1548</ele>
        <time>2014-07-11T14:06:35Z</time>
      </trkpt>
      <trkpt lat="44.89538" lon="4.18358">
        <ele>1550</ele>
        <time>2014-07-11T14:06:50Z</time>
      </trkpt>
      <trkpt lat="44.89513" lon="4.18368">
        <ele>1550</ele>
        <time>2014-07-11T14:07:05Z</time>
      </trkpt>
      <trkpt lat="44.89473" lon="4.18379">
        <ele>1553</ele>
        <time>2014-07-11T14:07:30Z</time>
      </trkpt>
      <trkpt lat="44.89448" lon="4.18376">
        <ele>1555</ele>
        <time>2014-07-11T14:07:46Z</time>
      </trkpt>
      <trkpt lat="44.89444" lon="4.18369">
        <ele>1556</ele>
        <time>2014-07-11T14:07:50Z</time>
      </trkpt>
      <trkpt lat="44.89414" lon="4.18352">
        <ele>1565</ele>
        <time>2014-07-11T14:08:12Z</time>
      </trkpt>
      <trkpt lat="44.89385" lon="4.1836">
        <ele>1564</ele>
        <time>2014-07-11T14:08:32Z</time>
      </trkpt>
      <trkpt lat="44.89378" lon="4.18365">
        <ele>1564</ele>
        <time>2014-07-11T14:09:05Z</time>
      </trkpt>
      <trkpt lat="44.89376" lon="4.18366">
        <ele>1564</ele>
        <time>2014-07-11T14:09:32Z</time>
      </trkpt>
      <trkpt lat="44.89376" lon="4.18364">
        <ele>1564</ele>
        <time>2014-07-11T14:10:08Z</time>
      </trkpt>
      <trkpt lat="44.89373" lon="4.18353">
        <ele>1565</ele>
        <time>2014-07-11T14:10:16Z</time>
      </trkpt>
      <trkpt lat="44.89364" lon="4.18318">
        <ele>1572</ele>
        <time>2014-07-11T14:10:40Z</time>
      </trkpt>
      <trkpt lat="44.89336" lon="4.18267">
        <ele>1574</ele>
        <time>2014-07-11T14:11:02Z</time>
      </trkpt>
      <trkpt lat="44.89331" lon="4.18258">
        <ele>1575</ele>
        <time>2014-07-11T14:11:07Z</time>
      </trkpt>
      <trkpt lat="44.89262" lon="4.18206">
        <ele>1577</ele>
        <time>2014-07-11T14:11:32Z</time>
      </trkpt>
      <trkpt lat="44.8922" lon="4.18178">
        <ele>1573</ele>
        <time>2014-07-11T14:11:46Z</time>
      </trkpt>
      <trkpt lat="44.8915" lon="4.18127">
        <ele>1571</ele>
        <time>2014-07-11T14:12:02Z</time>
      </trkpt>
      <trkpt lat="44.89025" lon="4.18041">
        <ele>1566</ele>
        <time>2014-07-11T14:12:31Z</time>
      </trkpt>
      <trkpt lat="44.89012" lon="4.1803">
        <ele>1566</ele>
        <time>2014-07-11T14:12:34Z</time>
      </trkpt>
      <trkpt lat="44.8896" lon="4.18003">
        <ele>1559</ele>
        <time>2014-07-11T14:12:44Z</time>
      </trkpt>
      <trkpt lat="44.88898" lon="4.17974">
        <ele>1554</ele>
        <time>2014-07-11T14:12:54Z</time>
      </trkpt>
      <trkpt lat="44.88863" lon="4.17959">
        <ele>1553</ele>
        <time>2014-07-11T14:12:59Z</time>
      </trkpt>
      <trkpt lat="44.88834" lon="4.17944">
        <ele>1552</ele>
        <time>2014-07-11T14:13:03Z</time>
      </trkpt>
      <trkpt lat="44.88815" lon="4.17934">
        <ele>1546</ele>
        <time>2014-07-11T14:13:06Z</time>
      </trkpt>
      <trkpt lat="44.88773" lon="4.17912">
        <ele>1544</ele>
        <time>2014-07-11T14:13:16Z</time>
      </trkpt>
      <trkpt lat="44.88751" lon="4.17903">
        <ele>1542</ele>
        <time>2014-07-11T14:13:21Z</time>
      </trkpt>
      <trkpt lat="44.88725" lon="4.17891">
        <ele>1536</ele>
        <time>2014-07-11T14:13:27Z</time>
      </trkpt>
      <trkpt lat="44.8867" lon="4.17858">
        <ele>1532</ele>
        <time>2014-07-11T14:13:44Z</time>
      </trkpt>
      <trkpt lat="44.88644" lon="4.17849">
        <ele>1527</ele>
        <time>2014-07-11T14:13:53Z</time>
      </trkpt>
      <trkpt lat="44.88637" lon="4.17861">
        <ele>1526</ele>
        <time>2014-07-11T14:13:57Z</time>
      </trkpt>
      <trkpt lat="44.88656" lon="4.17956">
        <ele>1524</ele>
        <time>2014-07-11T14:14:19Z</time>
      </trkpt>
      <trkpt lat="44.88672" lon="4.18033">
        <ele>1527</ele>
        <time>2014-07-11T14:14:34Z</time>
      </trkpt>
      <trkpt lat="44.88683" lon="4.18096">
        <ele>1524</ele>
        <time>2014-07-11T14:14:50Z</time>
      </trkpt>
      <trkpt lat="44.88662" lon="4.18118">
        <ele>1518</ele>
        <time>2014-07-11T14:14:58Z</time>
      </trkpt>
      <trkpt lat="44.88639" lon="4.18117">
        <ele>1517</ele>
        <time>2014-07-11T14:15:03Z</time>
      </trkpt>
      <trkpt lat="44.88634" lon="4.18118">
        <ele>1517</ele>
        <time>2014-07-11T14:15:04Z</time>
      </trkpt>
      <trkpt lat="44.88595" lon="4.18143">
        <ele>1514</ele>
        <time>2014-07-11T14:15:13Z</time>
      </trkpt>
      <trkpt lat="44.88575" lon="4.18154">
        <ele>1511</ele>
        <time>2014-07-11T14:15:17Z</time>
      </trkpt>
      <trkpt lat="44.8857" lon="4.18157">
        <ele>1511</ele>
        <time>2014-07-11T14:15:18Z</time>
      </trkpt>
      <trkpt lat="44.8854" lon="4.18196">
        <ele>1503</ele>
        <time>2014-07-11T14:15:29Z</time>
      </trkpt>
      <trkpt lat="44.88533" lon="4.18199">
        <ele>1503</ele>
        <time>2014-07-11T14:15:31Z</time>
      </trkpt>
      <trkpt lat="44.88524" lon="4.18203">
        <ele>1502</ele>
        <time>2014-07-11T14:15:33Z</time>
      </trkpt>
      <trkpt lat="44.88496" lon="4.18222">
        <ele>1496</ele>
        <time>2014-07-11T14:15:38Z</time>
      </trkpt>
      <trkpt lat="44.88473" lon="4.18228">
        <ele>1496</ele>
        <time>2014-07-11T14:15:41Z</time>
      </trkpt>
      <trkpt lat="44.88441" lon="4.18232">
        <ele>1494</ele>
        <time>2014-07-11T14:15:45Z</time>
      </trkpt>
      <trkpt lat="44.88433" lon="4.18233">
        <ele>1494</ele>
        <time>2014-07-11T14:15:46Z</time>
      </trkpt>
      <trkpt lat="44.88401" lon="4.18228">
        <ele>1490</ele>
        <time>2014-07-11T14:15:50Z</time>
      </trkpt>
      <trkpt lat="44.88332" lon="4.18206">
        <ele>1480</ele>
        <time>2014-07-11T14:15:58Z</time>
      </trkpt>
      <trkpt lat="44.88324" lon="4.18204">
        <ele>1480</ele>
        <time>2014-07-11T14:15:59Z</time>
      </trkpt>
      <trkpt lat="44.8827" lon="4.18177">
        <ele>1476</ele>
        <time>2014-07-11T14:16:05Z</time>
      </trkpt>
      <trkpt lat="44.88237" lon="4.18154">
        <ele>1473</ele>
        <time>2014-07-11T14:16:09Z</time>
      </trkpt>
      <trkpt lat="44.88207" lon="4.18129">
        <ele>1470</ele>
        <time>2014-07-11T14:16:13Z</time>
      </trkpt>
      <trkpt lat="44.88163" lon="4.18086">
        <ele>1467</ele>
        <time>2014-07-11T14:16:19Z</time>
      </trkpt>
      <trkpt lat="44.88124" lon="4.18055">
        <ele>1467</ele>
        <time>2014-07-11T14:16:24Z</time>
      </trkpt>
      <trkpt lat="44.88091" lon="4.18031">
        <ele>1466</ele>
        <time>2014-07-11T14:16:28Z</time>
      </trkpt>
      <trkpt lat="44.88014" lon="4.1798">
        <ele>1460</ele>
        <time>2014-07-11T14:16:37Z</time>
      </trkpt>
      <trkpt lat="44.8796" lon="4.17974">
        <ele>1454</ele>
        <time>2014-07-11T14:16:43Z</time>
      </trkpt>
      <trkpt lat="44.8795" lon="4.17976">
        <ele>1454</ele>
        <time>2014-07-11T14:16:44Z</time>
      </trkpt>
      <trkpt lat="44.8793" lon="4.17973">
        <ele>1453</ele>
        <time>2014-07-11T14:16:46Z</time>
      </trkpt>
      <trkpt lat="44.879" lon="4.17967">
        <ele>1446</ele>
        <time>2014-07-11T14:16:49Z</time>
      </trkpt>
      <trkpt lat="44.8788" lon="4.17961">
        <ele>1445</ele>
        <time>2014-07-11T14:16:51Z</time>
      </trkpt>
      <trkpt lat="44.87824" lon="4.17938">
        <ele>1434</ele>
        <time>2014-07-11T14:16:57Z</time>
      </trkpt>
      <trkpt lat="44.87814" lon="4.17964">
        <ele>1431</ele>
        <time>2014-07-11T14:17:02Z</time>
      </trkpt>
      <trkpt lat="44.87817" lon="4.17973">
        <ele>1431</ele>
        <time>2014-07-11T14:17:03Z</time>
      </trkpt>
      <trkpt lat="44.87835" lon="4.18012">
        <ele>1434</ele>
        <time>2014-07-11T14:17:07Z</time>
      </trkpt>
      <trkpt lat="44.87844" lon="4.18032">
        <ele>1434</ele>
        <time>2014-07-11T14:17:09Z</time>
      </trkpt>
      <trkpt lat="44.8786" lon="4.18079">
        <ele>1431</ele>
        <time>2014-07-11T14:17:13Z</time>
      </trkpt>
      <trkpt lat="44.87886" lon="4.18138">
        <ele>1424</ele>
        <time>2014-07-11T14:17:18Z</time>
      </trkpt>
      <trkpt lat="44.87909" lon="4.18201">
        <ele>1414</ele>
        <time>2014-07-11T14:17:23Z</time>
      </trkpt>
      <trkpt lat="44.87918" lon="4.18226">
        <ele>1415</ele>
        <time>2014-07-11T14:17:25Z</time>
      </trkpt>
      <trkpt lat="44.87933" lon="4.18252">
        <ele>1404</ele>
        <time>2014-07-11T14:17:28Z</time>
      </trkpt>
      <trkpt lat="44.87924" lon="4.18265">
        <ele>1404</ele>
        <time>2014-07-11T14:17:33Z</time>
      </trkpt>
      <trkpt lat="44.87914" lon="4.18257">
        <ele>1407</ele>
        <time>2014-07-11T14:17:35Z</time>
      </trkpt>
      <trkpt lat="44.87904" lon="4.18248">
        <ele>1410</ele>
        <time>2014-07-11T14:17:37Z</time>
      </trkpt>
      <trkpt lat="44.87889" lon="4.18227">
        <ele>1410</ele>
        <time>2014-07-11T14:17:40Z</time>
      </trkpt>
      <trkpt lat="44.87875" lon="4.1824">
        <ele>1409</ele>
        <time>2014-07-11T14:17:45Z</time>
      </trkpt>
      <trkpt lat="44.87878" lon="4.18248">
        <ele>1409</ele>
        <time>2014-07-11T14:17:46Z</time>
      </trkpt>
      <trkpt lat="44.87882" lon="4.18257">
        <ele>1401</ele>
        <time>2014-07-11T14:17:47Z</time>
      </trkpt>
      <trkpt lat="44.87886" lon="4.18266">
        <ele>1401</ele>
        <time>2014-07-11T14:17:48Z</time>
      </trkpt>
      <trkpt lat="44.87878" lon="4.1829">
        <ele>1398</ele>
        <time>2014-07-11T14:17:54Z</time>
      </trkpt>
      <trkpt lat="44.87872" lon="4.18285">
        <ele>1398</ele>
        <time>2014-07-11T14:17:55Z</time>
      </trkpt>
      <trkpt lat="44.8786" lon="4.18277">
        <ele>1398</ele>
        <time>2014-07-11T14:17:57Z</time>
      </trkpt>
      <trkpt lat="44.87842" lon="4.18288">
        <ele>1397</ele>
        <time>2014-07-11T14:18:02Z</time>
      </trkpt>
      <trkpt lat="44.8781" lon="4.18383">
        <ele>1386</ele>
        <time>2014-07-11T14:18:25Z</time>
      </trkpt>
      <trkpt lat="44.87776" lon="4.18411">
        <ele>1385</ele>
        <time>2014-07-11T14:18:48Z</time>
      </trkpt>
      <trkpt lat="44.87773" lon="4.18412">
        <ele>1385</ele>
        <time>2014-07-11T14:19:52Z</time>
      </trkpt>
      <trkpt lat="44.87773" lon="4.18412">
        <ele>1385</ele>
        <time>2014-07-11T14:23:27Z</time>
      </trkpt>
      <trkpt lat="44.87775" lon="4.18412">
        <ele>1385</ele>
        <time>2014-07-11T14:26:28Z</time>
      </trkpt>
      <trkpt lat="44.8777" lon="4.1842">
        <ele>1382</ele>
        <time>2014-07-11T14:28:13Z</time>
      </trkpt>
      <trkpt lat="44.87723" lon="4.18462">
        <ele>1384</ele>
        <time>2014-07-11T14:28:39Z</time>
      </trkpt>
      <trkpt lat="44.87688" lon="4.18484">
        <ele>1385</ele>
        <time>2014-07-11T14:28:53Z</time>
      </trkpt>
      <trkpt lat="44.87649" lon="4.18514">
        <ele>1393</ele>
        <time>2014-07-11T14:29:16Z</time>
      </trkpt>
      <trkpt lat="44.87619" lon="4.18538">
        <ele>1396</ele>
        <time>2014-07-11T14:29:34Z</time>
      </trkpt>
      <trkpt lat="44.87597" lon="4.18563">
        <ele>1398</ele>
        <time>2014-07-11T14:30:02Z</time>
      </trkpt>
      <trkpt lat="44.87565" lon="4.18587">
        <ele>1408</ele>
        <time>2014-07-11T14:30:37Z</time>
      </trkpt>
      <trkpt lat="44.87533" lon="4.18602">
        <ele>1412</ele>
        <time>2014-07-11T14:30:58Z</time>
      </trkpt>
      <trkpt lat="44.87498" lon="4.18597">
        <ele>1417</ele>
        <time>2014-07-11T14:31:22Z</time>
      </trkpt>
      <trkpt lat="44.87469" lon="4.18605">
        <ele>1420</ele>
        <time>2014-07-11T14:31:43Z</time>
      </trkpt>
      <trkpt lat="44.8745" lon="4.18608">
        <ele>1421</ele>
        <time>2014-07-11T14:32:08Z</time>
      </trkpt>
      <trkpt lat="44.87449" lon="4.18609">
        <ele>1421</ele>
        <time>2014-07-11T14:32:09Z</time>
      </trkpt>
      <trkpt lat="44.87438" lon="4.18618">
        <ele>1423</ele>
        <time>2014-07-11T14:32:29Z</time>
      </trkpt>
      <trkpt lat="44.87405" lon="4.18615">
        <ele>1426</ele>
        <time>2014-07-11T14:32:52Z</time>
      </trkpt>
      <trkpt lat="44.87403" lon="4.18614">
        <ele>1426</ele>
        <time>2014-07-11T14:32:53Z</time>
      </trkpt>
      <trkpt lat="44.87368" lon="4.18632">
        <ele>1428</ele>
        <time>2014-07-11T14:33:13Z</time>
      </trkpt>
      <trkpt lat="44.87358" lon="4.18645">
        <ele>1430</ele>
        <time>2014-07-11T14:33:20Z</time>
      </trkpt>
      <trkpt lat="44.87341" lon="4.18667">
        <ele>1438</ele>
        <time>2014-07-11T14:33:38Z</time>
      </trkpt>
      <trkpt lat="44.87301" lon="4.18705">
        <ele>1442</ele>
        <time>2014-07-11T14:34:10Z</time>
      </trkpt>
      <trkpt lat="44.87293" lon="4.18728">
        <ele>1444</ele>
        <time>2014-07-11T14:34:23Z</time>
      </trkpt>
      <trkpt lat="44.87241" lon="4.1875">
        <ele>1446</ele>
        <time>2014-07-11T14:35:02Z</time>
      </trkpt>
      <trkpt lat="44.87192" lon="4.18745">
        <ele>1445</ele>
        <time>2014-07-11T14:35:35Z</time>
      </trkpt>
      <trkpt lat="44.87164" lon="4.18741">
        <ele>1449</ele>
        <time>2014-07-11T14:35:51Z</time>
      </trkpt>
      <trkpt lat="44.87132" lon="4.18729">
        <ele>1450</ele>
        <time>2014-07-11T14:36:08Z</time>
      </trkpt>
      <trkpt lat="44.87086" lon="4.1871">
        <ele>1452</ele>
        <time>2014-07-11T14:36:30Z</time>
      </trkpt>
      <trkpt lat="44.87029" lon="4.18667">
        <ele>1454</ele>
        <time>2014-07-11T14:37:07Z</time>
      </trkpt>
      <trkpt lat="44.8696" lon="4.18633">
        <ele>1457</ele>
        <time>2014-07-11T14:37:37Z</time>
      </trkpt>
      <trkpt lat="44.8693" lon="4.18627">
        <ele>1457</ele>
        <time>2014-07-11T14:38:19Z</time>
      </trkpt>
      <trkpt lat="44.86868" lon="4.18651">
        <ele>1458</ele>
        <time>2014-07-11T14:38:45Z</time>
      </trkpt>
      <trkpt lat="44.8683" lon="4.18665">
        <ele>1461</ele>
        <time>2014-07-11T14:38:57Z</time>
      </trkpt>
      <trkpt lat="44.86755" lon="4.18645">
        <ele>1459</ele>
        <time>2014-07-11T14:39:24Z</time>
      </trkpt>
      <trkpt lat="44.86687" lon="4.18616">
        <ele>1462</ele>
        <time>2014-07-11T14:39:50Z</time>
      </trkpt>
      <trkpt lat="44.86635" lon="4.18579">
        <ele>1466</ele>
        <time>2014-07-11T14:40:17Z</time>
      </trkpt>
      <trkpt lat="44.86598" lon="4.18531">
        <ele>1467</ele>
        <time>2014-07-11T14:40:45Z</time>
      </trkpt>
      <trkpt lat="44.86597" lon="4.1853">
        <ele>1467</ele>
        <time>2014-07-11T14:40:46Z</time>
      </trkpt>
      <trkpt lat="44.86581" lon="4.18512">
        <ele>1470</ele>
        <time>2014-07-11T14:40:58Z</time>
      </trkpt>
      <trkpt lat="44.86487" lon="4.1843">
        <ele>1469</ele>
        <time>2014-07-11T14:41:52Z</time>
      </trkpt>
      <trkpt lat="44.86407" lon="4.18388">
        <ele>1466</ele>
        <time>2014-07-11T14:42:18Z</time>
      </trkpt>
      <trkpt lat="44.86337" lon="4.18356">
        <ele>1465</ele>
        <time>2014-07-11T14:42:39Z</time>
      </trkpt>
      <trkpt lat="44.86232" lon="4.18312">
        <ele>1467</ele>
        <time>2014-07-11T14:43:14Z</time>
      </trkpt>
      <trkpt lat="44.86146" lon="4.18242">
        <ele>1469</ele>
        <time>2014-07-11T14:43:54Z</time>
      </trkpt>
      <trkpt lat="44.86125" lon="4.1822">
        <ele>1470</ele>
        <time>2014-07-11T14:44:28Z</time>
      </trkpt>
      <trkpt lat="44.861" lon="4.18208">
        <ele>1470</ele>
        <time>2014-07-11T14:44:40Z</time>
      </trkpt>
      <trkpt lat="44.85961" lon="4.18186">
        <ele>1472</ele>
        <time>2014-07-11T14:45:40Z</time>
      </trkpt>
      <trkpt lat="44.8593" lon="4.18193">
        <ele>1472</ele>
        <time>2014-07-11T14:45:54Z</time>
      </trkpt>
      <trkpt lat="44.85843" lon="4.18195">
        <ele>1471</ele>
        <time>2014-07-11T14:46:19Z</time>
      </trkpt>
      <trkpt lat="44.858" lon="4.18234">
        <ele>1466</ele>
        <time>2014-07-11T14:46:30Z</time>
      </trkpt>
      <trkpt lat="44.85767" lon="4.18243">
        <ele>1463</ele>
        <time>2014-07-11T14:46:37Z</time>
      </trkpt>
      <trkpt lat="44.85763" lon="4.1824">
        <ele>1463</ele>
        <time>2014-07-11T14:46:38Z</time>
      </trkpt>
      <trkpt lat="44.85722" lon="4.18204">
        <ele>1459</ele>
        <time>2014-07-11T14:46:47Z</time>
      </trkpt>
      <trkpt lat="44.85676" lon="4.18172">
        <ele>1460</ele>
        <time>2014-07-11T14:46:57Z</time>
      </trkpt>
      <trkpt lat="44.8567" lon="4.1821">
        <ele>1458</ele>
        <time>2014-07-11T14:47:04Z</time>
      </trkpt>
      <trkpt lat="44.85634" lon="4.18283">
        <ele>1450</ele>
        <time>2014-07-11T14:47:20Z</time>
      </trkpt>
      <trkpt lat="44.856" lon="4.18278">
        <ele>1450</ele>
        <time>2014-07-11T14:47:26Z</time>
      </trkpt>
      <trkpt lat="44.8559" lon="4.18355">
        <ele>1445</ele>
        <time>2014-07-11T14:47:41Z</time>
      </trkpt>
      <trkpt lat="44.85588" lon="4.18384">
        <ele>1443</ele>
        <time>2014-07-11T14:47:45Z</time>
      </trkpt>
      <trkpt lat="44.85539" lon="4.18454">
        <ele>1436</ele>
        <time>2014-07-11T14:48:00Z</time>
      </trkpt>
      <trkpt lat="44.85491" lon="4.18486">
        <ele>1433</ele>
        <time>2014-07-11T14:48:10Z</time>
      </trkpt>
      <trkpt lat="44.85458" lon="4.18498">
        <ele>1432</ele>
        <time>2014-07-11T14:48:16Z</time>
      </trkpt>
      <trkpt lat="44.85444" lon="4.18507">
        <ele>1425</ele>
        <time>2014-07-11T14:48:19Z</time>
      </trkpt>
      <trkpt lat="44.85408" lon="4.1853">
        <ele>1422</ele>
        <time>2014-07-11T14:48:26Z</time>
      </trkpt>
      <trkpt lat="44.85364" lon="4.18532">
        <ele>1421</ele>
        <time>2014-07-11T14:48:34Z</time>
      </trkpt>
      <trkpt lat="44.85325" lon="4.18536">
        <ele>1418</ele>
        <time>2014-07-11T14:48:43Z</time>
      </trkpt>
      <trkpt lat="44.85335" lon="4.18552">
        <ele>1419</ele>
        <time>2014-07-11T14:48:47Z</time>
      </trkpt>
      <trkpt lat="44.8541" lon="4.18629">
        <ele>1411</ele>
        <time>2014-07-11T14:49:03Z</time>
      </trkpt>
      <trkpt lat="44.85422" lon="4.18645">
        <ele>1412</ele>
        <time>2014-07-11T14:49:06Z</time>
      </trkpt>
      <trkpt lat="44.85464" lon="4.18706">
        <ele>1405</ele>
        <time>2014-07-11T14:49:16Z</time>
      </trkpt>
      <trkpt lat="44.85507" lon="4.18763">
        <ele>1401</ele>
        <time>2014-07-11T14:49:25Z</time>
      </trkpt>
      <trkpt lat="44.85519" lon="4.18778">
        <ele>1400</ele>
        <time>2014-07-11T14:49:28Z</time>
      </trkpt>
      <trkpt lat="44.85537" lon="4.18796">
        <ele>1400</ele>
        <time>2014-07-11T14:49:32Z</time>
      </trkpt>
      <trkpt lat="44.85516" lon="4.18842">
        <ele>1393</ele>
        <time>2014-07-11T14:49:46Z</time>
      </trkpt>
      <trkpt lat="44.8548" lon="4.18853">
        <ele>1388</ele>
        <time>2014-07-11T14:49:52Z</time>
      </trkpt>
      <trkpt lat="44.85404" lon="4.18878">
        <ele>1383</ele>
        <time>2014-07-11T14:50:02Z</time>
      </trkpt>
      <trkpt lat="44.85363" lon="4.18891">
        <ele>1381</ele>
        <time>2014-07-11T14:50:07Z</time>
      </trkpt>
      <trkpt lat="44.85312" lon="4.189">
        <ele>1376</ele>
        <time>2014-07-11T14:50:13Z</time>
      </trkpt>
      <trkpt lat="44.85269" lon="4.18911">
        <ele>1373</ele>
        <time>2014-07-11T14:50:18Z</time>
      </trkpt>
      <trkpt lat="44.85211" lon="4.18921">
        <ele>1364</ele>
        <time>2014-07-11T14:50:25Z</time>
      </trkpt>
      <trkpt lat="44.85186" lon="4.18928">
        <ele>1363</ele>
        <time>2014-07-11T14:50:28Z</time>
      </trkpt>
      <trkpt lat="44.85148" lon="4.18945">
        <ele>1360</ele>
        <time>2014-07-11T14:50:33Z</time>
      </trkpt>
      <trkpt lat="44.85106" lon="4.18964">
        <ele>1359</ele>
        <time>2014-07-11T14:50:42Z</time>
      </trkpt>
      <trkpt lat="44.85096" lon="4.1895">
        <ele>1359</ele>
        <time>2014-07-11T14:50:51Z</time>
      </trkpt>
      <trkpt lat="44.85106" lon="4.18936">
        <ele>1360</ele>
        <time>2014-07-11T14:51:01Z</time>
      </trkpt>
      <trkpt lat="44.85112" lon="4.18922">
        <ele>1360</ele>
        <time>2014-07-11T14:51:08Z</time>
      </trkpt>
      <trkpt lat="44.85122" lon="4.18879">
        <ele>1365</ele>
        <time>2014-07-11T14:51:38Z</time>
      </trkpt>
      <trkpt lat="44.85124" lon="4.1888">
        <ele>1365</ele>
        <time>2014-07-11T14:52:23Z</time>
      </trkpt>
      <trkpt lat="44.85125" lon="4.18887">
        <ele>1365</ele>
        <time>2014-07-11T14:53:45Z</time>
      </trkpt>
      <trkpt lat="44.85124" lon="4.18888">
        <ele>1365</ele>
        <time>2014-07-11T14:54:22Z</time>
      </trkpt>
    </trkseg>
  </trk>
  <trk>
    <name><![CDATA[12-JUIL-14 19:14:57]]></name>
    <trkseg>
      <trkpt lat="44.85118" lon="4.18898">
        <ele>1364</ele>
        <time>2014-07-12T07:21:40Z</time>
      </trkpt>
      <trkpt lat="44.85117" lon="4.18896">
        <ele>1364</ele>
        <time>2014-07-12T07:21:52Z</time>
      </trkpt>
      <trkpt lat="44.85092" lon="4.18953">
        <ele>1359</ele>
        <time>2014-07-12T07:22:13Z</time>
      </trkpt>
      <trkpt lat="44.85088" lon="4.1896">
        <ele>1359</ele>
        <time>2014-07-12T07:22:37Z</time>
      </trkpt>
      <trkpt lat="44.85034" lon="4.18942">
        <ele>1356</ele>
        <time>2014-07-12T07:22:54Z</time>
      </trkpt>
      <trkpt lat="44.84896" lon="4.18889">
        <ele>1352</ele>
        <time>2014-07-12T07:23:27Z</time>
      </trkpt>
      <trkpt lat="44.84753" lon="4.18847">
        <ele>1349</ele>
        <time>2014-07-12T07:23:54Z</time>
      </trkpt>
      <trkpt lat="44.84696" lon="4.18845">
        <ele>1347</ele>
        <time>2014-07-12T07:24:05Z</time>
      </trkpt>
      <trkpt lat="44.84651" lon="4.1885">
        <ele>1346</ele>
        <time>2014-07-12T07:24:13Z</time>
      </trkpt>
      <trkpt lat="44.84628" lon="4.18857">
        <ele>1345</ele>
        <time>2014-07-12T07:24:18Z</time>
      </trkpt>
      <trkpt lat="44.84542" lon="4.18883">
        <ele>1344</ele>
        <time>2014-07-12T07:24:33Z</time>
      </trkpt>
      <trkpt lat="44.8444" lon="4.18918">
        <ele>1340</ele>
        <time>2014-07-12T07:24:49Z</time>
      </trkpt>
      <trkpt lat="44.8431" lon="4.19016">
        <ele>1332</ele>
        <time>2014-07-12T07:25:14Z</time>
      </trkpt>
      <trkpt lat="44.84305" lon="4.19018">
        <ele>1332</ele>
        <time>2014-07-12T07:25:15Z</time>
      </trkpt>
      <trkpt lat="44.84294" lon="4.19021">
        <ele>1332</ele>
        <time>2014-07-12T07:25:17Z</time>
      </trkpt>
      <trkpt lat="44.84277" lon="4.19023">
        <ele>1333</ele>
        <time>2014-07-12T07:25:20Z</time>
      </trkpt>
      <trkpt lat="44.84249" lon="4.19061">
        <ele>1335</ele>
        <time>2014-07-12T07:25:27Z</time>
      </trkpt>
      <trkpt lat="44.84245" lon="4.19077">
        <ele>1332</ele>
        <time>2014-07-12T07:25:29Z</time>
      </trkpt>
      <trkpt lat="44.8423" lon="4.19183">
        <ele>1327</ele>
        <time>2014-07-12T07:25:41Z</time>
      </trkpt>
      <trkpt lat="44.84211" lon="4.19263">
        <ele>1323</ele>
        <time>2014-07-12T07:25:50Z</time>
      </trkpt>
      <trkpt lat="44.84203" lon="4.19278">
        <ele>1323</ele>
        <time>2014-07-12T07:25:52Z</time>
      </trkpt>
      <trkpt lat="44.84159" lon="4.19341">
        <ele>1321</ele>
        <time>2014-07-12T07:26:01Z</time>
      </trkpt>
      <trkpt lat="44.84153" lon="4.19345">
        <ele>1321</ele>
        <time>2014-07-12T07:26:02Z</time>
      </trkpt>
      <trkpt lat="44.84136" lon="4.19357">
        <ele>1320</ele>
        <time>2014-07-12T07:26:05Z</time>
      </trkpt>
      <trkpt lat="44.84088" lon="4.1943">
        <ele>1315</ele>
        <time>2014-07-12T07:26:17Z</time>
      </trkpt>
      <trkpt lat="44.84043" lon="4.19503">
        <ele>1312</ele>
        <time>2014-07-12T07:26:27Z</time>
      </trkpt>
      <trkpt lat="44.84" lon="4.19544">
        <ele>1311</ele>
        <time>2014-07-12T07:26:34Z</time>
      </trkpt>
      <trkpt lat="44.8397" lon="4.19567">
        <ele>1310</ele>
        <time>2014-07-12T07:26:39Z</time>
      </trkpt>
      <trkpt lat="44.83925" lon="4.19566">
        <ele>1309</ele>
        <time>2014-07-12T07:26:45Z</time>
      </trkpt>
      <trkpt lat="44.83909" lon="4.19558">
        <ele>1309</ele>
        <time>2014-07-12T07:26:47Z</time>
      </trkpt>
      <trkpt lat="44.83876" lon="4.19565">
        <ele>1309</ele>
        <time>2014-07-12T07:26:51Z</time>
      </trkpt>
      <trkpt lat="44.83818" lon="4.19564">
        <ele>1308</ele>
        <time>2014-07-12T07:26:58Z</time>
      </trkpt>
      <trkpt lat="44.83787" lon="4.19598">
        <ele>1300</ele>
        <time>2014-07-12T07:27:03Z</time>
      </trkpt>
      <trkpt lat="44.83776" lon="4.19616">
        <ele>1299</ele>
        <time>2014-07-12T07:27:05Z</time>
      </trkpt>
      <trkpt lat="44.83705" lon="4.19688">
        <ele>1290</ele>
        <time>2014-07-12T07:27:15Z</time>
      </trkpt>
      <trkpt lat="44.83677" lon="4.19706">
        <ele>1289</ele>
        <time>2014-07-12T07:27:18Z</time>
      </trkpt>
      <trkpt lat="44.83613" lon="4.19733">
        <ele>1286</ele>
        <time>2014-07-12T07:27:24Z</time>
      </trkpt>
      <trkpt lat="44.83572" lon="4.19761">
        <ele>1278</ele>
        <time>2014-07-12T07:27:28Z</time>
      </trkpt>
      <trkpt lat="44.83507" lon="4.19767">
        <ele>1276</ele>
        <time>2014-07-12T07:27:34Z</time>
      </trkpt>
      <trkpt lat="44.83453" lon="4.19735">
        <ele>1276</ele>
        <time>2014-07-12T07:27:40Z</time>
      </trkpt>
      <trkpt lat="44.83445" lon="4.19729">
        <ele>1276</ele>
        <time>2014-07-12T07:27:41Z</time>
      </trkpt>
      <trkpt lat="44.83406" lon="4.19726">
        <ele>1269</ele>
        <time>2014-07-12T07:27:45Z</time>
      </trkpt>
      <trkpt lat="44.83395" lon="4.19729">
        <ele>1269</ele>
        <time>2014-07-12T07:27:46Z</time>
      </trkpt>
      <trkpt lat="44.83363" lon="4.19729">
        <ele>1267</ele>
        <time>2014-07-12T07:27:49Z</time>
      </trkpt>
      <trkpt lat="44.83307" lon="4.19741">
        <ele>1259</ele>
        <time>2014-07-12T07:27:54Z</time>
      </trkpt>
      <trkpt lat="44.83298" lon="4.19748">
        <ele>1258</ele>
        <time>2014-07-12T07:27:55Z</time>
      </trkpt>
      <trkpt lat="44.83289" lon="4.19754">
        <ele>1254</ele>
        <time>2014-07-12T07:27:56Z</time>
      </trkpt>
      <trkpt lat="44.83255" lon="4.1975">
        <ele>1251</ele>
        <time>2014-07-12T07:28:00Z</time>
      </trkpt>
      <trkpt lat="44.83228" lon="4.19739">
        <ele>1251</ele>
        <time>2014-07-12T07:28:03Z</time>
      </trkpt>
      <trkpt lat="44.83193" lon="4.19741">
        <ele>1250</ele>
        <time>2014-07-12T07:28:07Z</time>
      </trkpt>
      <trkpt lat="44.83177" lon="4.19744">
        <ele>1249</ele>
        <time>2014-07-12T07:28:09Z</time>
      </trkpt>
      <trkpt lat="44.83145" lon="4.19734">
        <ele>1246</ele>
        <time>2014-07-12T07:28:13Z</time>
      </trkpt>
      <trkpt lat="44.83139" lon="4.19729">
        <ele>1246</ele>
        <time>2014-07-12T07:28:14Z</time>
      </trkpt>
      <trkpt lat="44.83134" lon="4.19725">
        <ele>1246</ele>
        <time>2014-07-12T07:28:15Z</time>
      </trkpt>
      <trkpt lat="44.83132" lon="4.19739">
        <ele>1246</ele>
        <time>2014-07-12T07:28:20Z</time>
      </trkpt>
      <trkpt lat="44.83137" lon="4.19745">
        <ele>1246</ele>
        <time>2014-07-12T07:28:22Z</time>
      </trkpt>
      <trkpt lat="44.83148" lon="4.19757">
        <ele>1247</ele>
        <time>2014-07-12T07:28:26Z</time>
      </trkpt>
      <trkpt lat="44.83168" lon="4.19874">
        <ele>1248</ele>
        <time>2014-07-12T07:28:52Z</time>
      </trkpt>
      <trkpt lat="44.83203" lon="4.19922">
        <ele>1250</ele>
        <time>2014-07-12T07:29:07Z</time>
      </trkpt>
      <trkpt lat="44.83255" lon="4.19916">
        <ele>1252</ele>
        <time>2014-07-12T07:29:21Z</time>
      </trkpt>
      <trkpt lat="44.83282" lon="4.19922">
        <ele>1256</ele>
        <time>2014-07-12T07:29:34Z</time>
      </trkpt>
      <trkpt lat="44.83361" lon="4.1995">
        <ele>1262</ele>
        <time>2014-07-12T07:30:05Z</time>
      </trkpt>
      <trkpt lat="44.83427" lon="4.19967">
        <ele>1265</ele>
        <time>2014-07-12T07:30:31Z</time>
      </trkpt>
      <trkpt lat="44.83429" lon="4.19968">
        <ele>1265</ele>
        <time>2014-07-12T07:30:32Z</time>
      </trkpt>
      <trkpt lat="44.835" lon="4.19983">
        <ele>1268</ele>
        <time>2014-07-12T07:31:03Z</time>
      </trkpt>
      <trkpt lat="44.83567" lon="4.2">
        <ele>1272</ele>
        <time>2014-07-12T07:31:32Z</time>
      </trkpt>
      <trkpt lat="44.83605" lon="4.20012">
        <ele>1278</ele>
        <time>2014-07-12T07:31:48Z</time>
      </trkpt>
      <trkpt lat="44.83633" lon="4.20086">
        <ele>1284</ele>
        <time>2014-07-12T07:32:16Z</time>
      </trkpt>
      <trkpt lat="44.8363" lon="4.20141">
        <ele>1285</ele>
        <time>2014-07-12T07:32:32Z</time>
      </trkpt>
      <trkpt lat="44.83621" lon="4.20199">
        <ele>1288</ele>
        <time>2014-07-12T07:32:49Z</time>
      </trkpt>
      <trkpt lat="44.83612" lon="4.20293">
        <ele>1291</ele>
        <time>2014-07-12T07:33:16Z</time>
      </trkpt>
      <trkpt lat="44.83616" lon="4.2036">
        <ele>1293</ele>
        <time>2014-07-12T07:33:35Z</time>
      </trkpt>
      <trkpt lat="44.83636" lon="4.2041">
        <ele>1294</ele>
        <time>2014-07-12T07:33:52Z</time>
      </trkpt>
      <trkpt lat="44.83652" lon="4.20446">
        <ele>1297</ele>
        <time>2014-07-12T07:34:07Z</time>
      </trkpt>
      <trkpt lat="44.83671" lon="4.20489">
        <ele>1302</ele>
        <time>2014-07-12T07:34:23Z</time>
      </trkpt>
      <trkpt lat="44.83691" lon="4.20589">
        <ele>1309</ele>
        <time>2014-07-12T07:34:55Z</time>
      </trkpt>
      <trkpt lat="44.83697" lon="4.20707">
        <ele>1316</ele>
        <time>2014-07-12T07:35:31Z</time>
      </trkpt>
      <trkpt lat="44.83698" lon="4.2079">
        <ele>1320</ele>
        <time>2014-07-12T07:35:55Z</time>
      </trkpt>
      <trkpt lat="44.83703" lon="4.20834">
        <ele>1320</ele>
        <time>2014-07-12T07:36:09Z</time>
      </trkpt>
      <trkpt lat="44.8373" lon="4.20857">
        <ele>1322</ele>
        <time>2014-07-12T07:36:24Z</time>
      </trkpt>
      <trkpt lat="44.83768" lon="4.20887">
        <ele>1329</ele>
        <time>2014-07-12T07:36:43Z</time>
      </trkpt>
      <trkpt lat="44.83828" lon="4.20917">
        <ele>1333</ele>
        <time>2014-07-12T07:37:14Z</time>
      </trkpt>
      <trkpt lat="44.83891" lon="4.20932">
        <ele>1340</ele>
        <time>2014-07-12T07:37:43Z</time>
      </trkpt>
      <trkpt lat="44.83927" lon="4.20946">
        <ele>1347</ele>
        <time>2014-07-12T07:38:00Z</time>
      </trkpt>
      <trkpt lat="44.83984" lon="4.20981">
        <ele>1349</ele>
        <time>2014-07-12T07:38:29Z</time>
      </trkpt>
      <trkpt lat="44.84043" lon="4.21053">
        <ele>1355</ele>
        <time>2014-07-12T07:39:05Z</time>
      </trkpt>
      <trkpt lat="44.84054" lon="4.21099">
        <ele>1356</ele>
        <time>2014-07-12T07:39:22Z</time>
      </trkpt>
      <trkpt lat="44.84049" lon="4.21061">
        <ele>1356</ele>
        <time>2014-07-12T07:39:33Z</time>
      </trkpt>
      <trkpt lat="44.84047" lon="4.21055">
        <ele>1356</ele>
        <time>2014-07-12T07:39:34Z</time>
      </trkpt>
      <trkpt lat="44.83984" lon="4.2098">
        <ele>1349</ele>
        <time>2014-07-12T07:39:46Z</time>
      </trkpt>
      <trkpt lat="44.83977" lon="4.20973">
        <ele>1349</ele>
        <time>2014-07-12T07:39:47Z</time>
      </trkpt>
      <trkpt lat="44.83954" lon="4.20954">
        <ele>1348</ele>
        <time>2014-07-12T07:39:50Z</time>
      </trkpt>
      <trkpt lat="44.83915" lon="4.20937">
        <ele>1341</ele>
        <time>2014-07-12T07:39:54Z</time>
      </trkpt>
      <trkpt lat="44.8386" lon="4.20919">
        <ele>1337</ele>
        <time>2014-07-12T07:39:59Z</time>
      </trkpt>
      <trkpt lat="44.83824" lon="4.20912">
        <ele>1333</ele>
        <time>2014-07-12T07:40:02Z</time>
      </trkpt>
      <trkpt lat="44.83791" lon="4.209">
        <ele>1330</ele>
        <time>2014-07-12T07:40:05Z</time>
      </trkpt>
      <trkpt lat="44.8377" lon="4.20884">
        <ele>1329</ele>
        <time>2014-07-12T07:40:07Z</time>
      </trkpt>
      <trkpt lat="44.8373" lon="4.20853">
        <ele>1322</ele>
        <time>2014-07-12T07:40:11Z</time>
      </trkpt>
      <trkpt lat="44.83712" lon="4.2084">
        <ele>1321</ele>
        <time>2014-07-12T07:40:13Z</time>
      </trkpt>
      <trkpt lat="44.837" lon="4.20799">
        <ele>1321</ele>
        <time>2014-07-12T07:40:17Z</time>
      </trkpt>
      <trkpt lat="44.83701" lon="4.20787">
        <ele>1320</ele>
        <time>2014-07-12T07:40:18Z</time>
      </trkpt>
      <trkpt lat="44.837" lon="4.20721">
        <ele>1317</ele>
        <time>2014-07-12T07:40:23Z</time>
      </trkpt>
      <trkpt lat="44.83699" lon="4.20679">
        <ele>1315</ele>
        <time>2014-07-12T07:40:26Z</time>
      </trkpt>
      <trkpt lat="44.83695" lon="4.20575">
        <ele>1307</ele>
        <time>2014-07-12T07:40:33Z</time>
      </trkpt>
      <trkpt lat="44.83689" lon="4.20537">
        <ele>1306</ele>
        <time>2014-07-12T07:40:36Z</time>
      </trkpt>
      <trkpt lat="44.83677" lon="4.20492">
        <ele>1302</ele>
        <time>2014-07-12T07:40:43Z</time>
      </trkpt>
      <trkpt lat="44.83677" lon="4.20504">
        <ele>1303</ele>
        <time>2014-07-12T07:40:48Z</time>
      </trkpt>
      <trkpt lat="44.83689" lon="4.20557">
        <ele>1307</ele>
        <time>2014-07-12T07:41:00Z</time>
      </trkpt>
      <trkpt lat="44.83693" lon="4.20615">
        <ele>1310</ele>
        <time>2014-07-12T07:41:15Z</time>
      </trkpt>
      <trkpt lat="44.83698" lon="4.20731">
        <ele>1317</ele>
        <time>2014-07-12T07:41:45Z</time>
      </trkpt>
      <trkpt lat="44.83709" lon="4.20842">
        <ele>1320</ele>
        <time>2014-07-12T07:42:14Z</time>
      </trkpt>
      <trkpt lat="44.83747" lon="4.20869">
        <ele>1322</ele>
        <time>2014-07-12T07:42:29Z</time>
      </trkpt>
      <trkpt lat="44.83815" lon="4.20915">
        <ele>1332</ele>
        <time>2014-07-12T07:42:54Z</time>
      </trkpt>
      <trkpt lat="44.83853" lon="4.20923">
        <ele>1336</ele>
        <time>2014-07-12T07:43:07Z</time>
      </trkpt>
      <trkpt lat="44.83894" lon="4.20934">
        <ele>1340</ele>
        <time>2014-07-12T07:43:21Z</time>
      </trkpt>
      <trkpt lat="44.83965" lon="4.20968">
        <ele>1348</ele>
        <time>2014-07-12T07:43:46Z</time>
      </trkpt>
      <trkpt lat="44.8404" lon="4.21049">
        <ele>1355</ele>
        <time>2014-07-12T07:44:19Z</time>
      </trkpt>
      <trkpt lat="44.84048" lon="4.21184">
        <ele>1358</ele>
        <time>2014-07-12T07:44:53Z</time>
      </trkpt>
      <trkpt lat="44.84043" lon="4.21262">
        <ele>1362</ele>
        <time>2014-07-12T07:45:09Z</time>
      </trkpt>
      <trkpt lat="44.84054" lon="4.21328">
        <ele>1365</ele>
        <time>2014-07-12T07:45:23Z</time>
      </trkpt>
      <trkpt lat="44.8405" lon="4.21423">
        <ele>1373</ele>
        <time>2014-07-12T07:45:45Z</time>
      </trkpt>
      <trkpt lat="44.84061" lon="4.21528">
        <ele>1379</ele>
        <time>2014-07-12T07:46:11Z</time>
      </trkpt>
      <trkpt lat="44.84057" lon="4.21583">
        <ele>1383</ele>
        <time>2014-07-12T07:46:24Z</time>
      </trkpt>
      <trkpt lat="44.84054" lon="4.21659">
        <ele>1384</ele>
        <time>2014-07-12T07:46:42Z</time>
      </trkpt>
      <trkpt lat="44.84051" lon="4.21792">
        <ele>1391</ele>
        <time>2014-07-12T07:47:12Z</time>
      </trkpt>
      <trkpt lat="44.84058" lon="4.21901">
        <ele>1394</ele>
        <time>2014-07-12T07:47:38Z</time>
      </trkpt>
      <trkpt lat="44.8408" lon="4.22005">
        <ele>1399</ele>
        <time>2014-07-12T07:48:04Z</time>
      </trkpt>
      <trkpt lat="44.84088" lon="4.22126">
        <ele>1411</ele>
        <time>2014-07-12T07:48:31Z</time>
      </trkpt>
      <trkpt lat="44.8409" lon="4.22186">
        <ele>1412</ele>
        <time>2014-07-12T07:48:44Z</time>
      </trkpt>
      <trkpt lat="44.84103" lon="4.22233">
        <ele>1414</ele>
        <time>2014-07-12T07:48:56Z</time>
      </trkpt>
      <trkpt lat="44.84114" lon="4.22253">
        <ele>1414</ele>
        <time>2014-07-12T07:49:19Z</time>
      </trkpt>
      <trkpt lat="44.84113" lon="4.22252">
        <ele>1414</ele>
        <time>2014-07-12T07:51:02Z</time>
      </trkpt>
      <trkpt lat="44.84115" lon="4.2225">
        <ele>1414</ele>
        <time>2014-07-12T07:53:22Z</time>
      </trkpt>
      <trkpt lat="44.84103" lon="4.22333">
        <ele>1414</ele>
        <time>2014-07-12T07:54:23Z</time>
      </trkpt>
      <trkpt lat="44.84088" lon="4.22408">
        <ele>1413</ele>
        <time>2014-07-12T07:54:40Z</time>
      </trkpt>
      <trkpt lat="44.84048" lon="4.22484">
        <ele>1414</ele>
        <time>2014-07-12T07:54:58Z</time>
      </trkpt>
      <trkpt lat="44.84004" lon="4.22567">
        <ele>1417</ele>
        <time>2014-07-12T07:55:15Z</time>
      </trkpt>
      <trkpt lat="44.83959" lon="4.22646">
        <ele>1415</ele>
        <time>2014-07-12T07:55:28Z</time>
      </trkpt>
      <trkpt lat="44.83954" lon="4.22651">
        <ele>1415</ele>
        <time>2014-07-12T07:55:29Z</time>
      </trkpt>
      <trkpt lat="44.83826" lon="4.22676">
        <ele>1412</ele>
        <time>2014-07-12T07:55:49Z</time>
      </trkpt>
      <trkpt lat="44.83742" lon="4.22666">
        <ele>1410</ele>
        <time>2014-07-12T07:56:02Z</time>
      </trkpt>
      <trkpt lat="44.83654" lon="4.22653">
        <ele>1414</ele>
        <time>2014-07-12T07:56:20Z</time>
      </trkpt>
      <trkpt lat="44.83543" lon="4.22639">
        <ele>1420</ele>
        <time>2014-07-12T07:56:48Z</time>
      </trkpt>
      <trkpt lat="44.83499" lon="4.22631">
        <ele>1429</ele>
        <time>2014-07-12T07:57:01Z</time>
      </trkpt>
      <trkpt lat="44.83412" lon="4.22567">
        <ele>1433</ele>
        <time>2014-07-12T07:57:31Z</time>
      </trkpt>
      <trkpt lat="44.83346" lon="4.22538">
        <ele>1434</ele>
        <time>2014-07-12T07:58:02Z</time>
      </trkpt>
      <trkpt lat="44.83263" lon="4.22548">
        <ele>1441</ele>
        <time>2014-07-12T07:58:35Z</time>
      </trkpt>
      <trkpt lat="44.83225" lon="4.22557">
        <ele>1444</ele>
        <time>2014-07-12T07:58:50Z</time>
      </trkpt>
      <trkpt lat="44.83116" lon="4.2259">
        <ele>1450</ele>
        <time>2014-07-12T07:59:27Z</time>
      </trkpt>
      <trkpt lat="44.83003" lon="4.22664">
        <ele>1451</ele>
        <time>2014-07-12T08:00:03Z</time>
      </trkpt>
      <trkpt lat="44.82844" lon="4.22787">
        <ele>1447</ele>
        <time>2014-07-12T08:00:37Z</time>
      </trkpt>
      <trkpt lat="44.82771" lon="4.22842">
        <ele>1444</ele>
        <time>2014-07-12T08:00:48Z</time>
      </trkpt>
      <trkpt lat="44.82694" lon="4.22876">
        <ele>1440</ele>
        <time>2014-07-12T08:00:57Z</time>
      </trkpt>
      <trkpt lat="44.82633" lon="4.22893">
        <ele>1436</ele>
        <time>2014-07-12T08:01:03Z</time>
      </trkpt>
      <trkpt lat="44.82506" lon="4.22926">
        <ele>1431</ele>
        <time>2014-07-12T08:01:14Z</time>
      </trkpt>
      <trkpt lat="44.82438" lon="4.22947">
        <ele>1428</ele>
        <time>2014-07-12T08:01:21Z</time>
      </trkpt>
      <trkpt lat="44.82428" lon="4.22936">
        <ele>1428</ele>
        <time>2014-07-12T08:01:26Z</time>
      </trkpt>
      <trkpt lat="44.82386" lon="4.22854">
        <ele>1428</ele>
        <time>2014-07-12T08:01:57Z</time>
      </trkpt>
      <trkpt lat="44.82352" lon="4.22834">
        <ele>1428</ele>
        <time>2014-07-12T08:02:10Z</time>
      </trkpt>
      <trkpt lat="44.82282" lon="4.22793">
        <ele>1430</ele>
        <time>2014-07-12T08:02:45Z</time>
      </trkpt>
      <trkpt lat="44.82198" lon="4.22753">
        <ele>1432</ele>
        <time>2014-07-12T08:03:27Z</time>
      </trkpt>
      <trkpt lat="44.82136" lon="4.22731">
        <ele>1438</ele>
        <time>2014-07-12T08:03:55Z</time>
      </trkpt>
      <trkpt lat="44.82095" lon="4.22722">
        <ele>1438</ele>
        <time>2014-07-12T08:04:28Z</time>
      </trkpt>
      <trkpt lat="44.82042" lon="4.22704">
        <ele>1440</ele>
        <time>2014-07-12T08:05:18Z</time>
      </trkpt>
      <trkpt lat="44.81949" lon="4.22679">
        <ele>1441</ele>
        <time>2014-07-12T08:05:58Z</time>
      </trkpt>
      <trkpt lat="44.81843" lon="4.22628">
        <ele>1443</ele>
        <time>2014-07-12T08:06:42Z</time>
      </trkpt>
      <trkpt lat="44.81773" lon="4.22607">
        <ele>1439</ele>
        <time>2014-07-12T08:07:02Z</time>
      </trkpt>
      <trkpt lat="44.81741" lon="4.22598">
        <ele>1436</ele>
        <time>2014-07-12T08:07:10Z</time>
      </trkpt>
      <trkpt lat="44.81681" lon="4.22562">
        <ele>1438</ele>
        <time>2014-07-12T08:07:27Z</time>
      </trkpt>
      <trkpt lat="44.81594" lon="4.22463">
        <ele>1438</ele>
        <time>2014-07-12T08:08:08Z</time>
      </trkpt>
      <trkpt lat="44.81556" lon="4.2242">
        <ele>1430</ele>
        <time>2014-07-12T08:08:20Z</time>
      </trkpt>
      <trkpt lat="44.81524" lon="4.2238">
        <ele>1434</ele>
        <time>2014-07-12T08:08:30Z</time>
      </trkpt>
      <trkpt lat="44.81504" lon="4.2237">
        <ele>1434</ele>
        <time>2014-07-12T08:09:03Z</time>
      </trkpt>
      <trkpt lat="44.81505" lon="4.22365">
        <ele>1434</ele>
        <time>2014-07-12T08:11:27Z</time>
      </trkpt>
      <trkpt lat="44.81505" lon="4.22366">
        <ele>1434</ele>
        <time>2014-07-12T08:12:29Z</time>
      </trkpt>
      <trkpt lat="44.8147" lon="4.22367">
        <ele>1425</ele>
        <time>2014-07-12T08:12:41Z</time>
      </trkpt>
      <trkpt lat="44.81444" lon="4.2236">
        <ele>1423</ele>
        <time>2014-07-12T08:12:47Z</time>
      </trkpt>
      <trkpt lat="44.8142" lon="4.22353">
        <ele>1423</ele>
        <time>2014-07-12T08:12:53Z</time>
      </trkpt>
      <trkpt lat="44.81398" lon="4.22346">
        <ele>1416</ele>
        <time>2014-07-12T08:13:00Z</time>
      </trkpt>
      <trkpt lat="44.81385" lon="4.22339">
        <ele>1415</ele>
        <time>2014-07-12T08:13:04Z</time>
      </trkpt>
      <trkpt lat="44.81341" lon="4.22318">
        <ele>1413</ele>
        <time>2014-07-12T08:13:12Z</time>
      </trkpt>
      <trkpt lat="44.81318" lon="4.22306">
        <ele>1406</ele>
        <time>2014-07-12T08:13:19Z</time>
      </trkpt>
      <trkpt lat="44.81294" lon="4.22298">
        <ele>1404</ele>
        <time>2014-07-12T08:13:27Z</time>
      </trkpt>
      <trkpt lat="44.8127" lon="4.223">
        <ele>1402</ele>
        <time>2014-07-12T08:13:36Z</time>
      </trkpt>
      <trkpt lat="44.81231" lon="4.22298">
        <ele>1391</ele>
        <time>2014-07-12T08:13:45Z</time>
      </trkpt>
      <trkpt lat="44.81215" lon="4.22296">
        <ele>1389</ele>
        <time>2014-07-12T08:13:49Z</time>
      </trkpt>
      <trkpt lat="44.81204" lon="4.223">
        <ele>1388</ele>
        <time>2014-07-12T08:13:54Z</time>
      </trkpt>
      <trkpt lat="44.81185" lon="4.22307">
        <ele>1385</ele>
        <time>2014-07-12T08:14:04Z</time>
      </trkpt>
      <trkpt lat="44.81176" lon="4.22312">
        <ele>1384</ele>
        <time>2014-07-12T08:14:08Z</time>
      </trkpt>
      <trkpt lat="44.8115" lon="4.22315">
        <ele>1374</ele>
        <time>2014-07-12T08:14:24Z</time>
      </trkpt>
      <trkpt lat="44.81136" lon="4.22309">
        <ele>1373</ele>
        <time>2014-07-12T08:14:39Z</time>
      </trkpt>
      <trkpt lat="44.8113" lon="4.22319">
        <ele>1372</ele>
        <time>2014-07-12T08:15:22Z</time>
      </trkpt>
      <trkpt lat="44.8113" lon="4.22318">
        <ele>1372</ele>
        <time>2014-07-12T08:17:36Z</time>
      </trkpt>
      <trkpt lat="44.81107" lon="4.22326">
        <ele>1369</ele>
        <time>2014-07-12T08:17:45Z</time>
      </trkpt>
      <trkpt lat="44.81088" lon="4.2234">
        <ele>1363</ele>
        <time>2014-07-12T08:17:59Z</time>
      </trkpt>
      <trkpt lat="44.81062" lon="4.22356">
        <ele>1356</ele>
        <time>2014-07-12T08:18:07Z</time>
      </trkpt>
      <trkpt lat="44.81059" lon="4.22372">
        <ele>1355</ele>
        <time>2014-07-12T08:18:11Z</time>
      </trkpt>
      <trkpt lat="44.81059" lon="4.22375">
        <ele>1355</ele>
        <time>2014-07-12T08:18:12Z</time>
      </trkpt>
      <trkpt lat="44.81056" lon="4.22386">
        <ele>1354</ele>
        <time>2014-07-12T08:18:45Z</time>
      </trkpt>
      <trkpt lat="44.81054" lon="4.22386">
        <ele>1354</ele>
        <time>2014-07-12T08:18:50Z</time>
      </trkpt>
      <trkpt lat="44.81035" lon="4.22404">
        <ele>1352</ele>
        <time>2014-07-12T08:18:57Z</time>
      </trkpt>
      <trkpt lat="44.81032" lon="4.22417">
        <ele>1347</ele>
        <time>2014-07-12T08:18:59Z</time>
      </trkpt>
      <trkpt lat="44.81031" lon="4.22422">
        <ele>1347</ele>
        <time>2014-07-12T08:19:00Z</time>
      </trkpt>
      <trkpt lat="44.81018" lon="4.22454">
        <ele>1345</ele>
        <time>2014-07-12T08:19:05Z</time>
      </trkpt>
      <trkpt lat="44.81008" lon="4.22477">
        <ele>1342</ele>
        <time>2014-07-12T08:19:10Z</time>
      </trkpt>
      <trkpt lat="44.80992" lon="4.22492">
        <ele>1336</ele>
        <time>2014-07-12T08:19:13Z</time>
      </trkpt>
      <trkpt lat="44.80985" lon="4.22497">
        <ele>1336</ele>
        <time>2014-07-12T08:19:14Z</time>
      </trkpt>
      <trkpt lat="44.80976" lon="4.2252">
        <ele>1330</ele>
        <time>2014-07-12T08:19:17Z</time>
      </trkpt>
      <trkpt lat="44.80969" lon="4.22554">
        <ele>1328</ele>
        <time>2014-07-12T08:19:20Z</time>
      </trkpt>
      <trkpt lat="44.80947" lon="4.22577">
        <ele>1325</ele>
        <time>2014-07-12T08:19:24Z</time>
      </trkpt>
      <trkpt lat="44.80921" lon="4.22589">
        <ele>1319</ele>
        <time>2014-07-12T08:19:28Z</time>
      </trkpt>
      <trkpt lat="44.80905" lon="4.22605">
        <ele>1313</ele>
        <time>2014-07-12T08:19:33Z</time>
      </trkpt>
      <trkpt lat="44.80882" lon="4.22609">
        <ele>1312</ele>
        <time>2014-07-12T08:19:42Z</time>
      </trkpt>
      <trkpt lat="44.80869" lon="4.22623">
        <ele>1311</ele>
        <time>2014-07-12T08:19:45Z</time>
      </trkpt>
      <trkpt lat="44.80844" lon="4.2264">
        <ele>1309</ele>
        <time>2014-07-12T08:19:49Z</time>
      </trkpt>
      <trkpt lat="44.80813" lon="4.22663">
        <ele>1303</ele>
        <time>2014-07-12T08:19:53Z</time>
      </trkpt>
      <trkpt lat="44.80779" lon="4.22686">
        <ele>1299</ele>
        <time>2014-07-12T08:19:57Z</time>
      </trkpt>
      <trkpt lat="44.80749" lon="4.22706">
        <ele>1293</ele>
        <time>2014-07-12T08:20:01Z</time>
      </trkpt>
      <trkpt lat="44.80727" lon="4.22708">
        <ele>1292</ele>
        <time>2014-07-12T08:20:06Z</time>
      </trkpt>
      <trkpt lat="44.80691" lon="4.22728">
        <ele>1289</ele>
        <time>2014-07-12T08:20:14Z</time>
      </trkpt>
      <trkpt lat="44.80661" lon="4.2274">
        <ele>1283</ele>
        <time>2014-07-12T08:20:19Z</time>
      </trkpt>
      <trkpt lat="44.80616" lon="4.22753">
        <ele>1279</ele>
        <time>2014-07-12T08:20:25Z</time>
      </trkpt>
      <trkpt lat="44.80587" lon="4.22768">
        <ele>1277</ele>
        <time>2014-07-12T08:20:29Z</time>
      </trkpt>
      <trkpt lat="44.80543" lon="4.2277">
        <ele>1272</ele>
        <time>2014-07-12T08:20:44Z</time>
      </trkpt>
      <trkpt lat="44.80538" lon="4.2277">
        <ele>1272</ele>
        <time>2014-07-12T08:20:56Z</time>
      </trkpt>
      <trkpt lat="44.8049" lon="4.22769">
        <ele>1266</ele>
        <time>2014-07-12T08:21:34Z</time>
      </trkpt>
      <trkpt lat="44.80449" lon="4.22757">
        <ele>1264</ele>
        <time>2014-07-12T08:21:54Z</time>
      </trkpt>
      <trkpt lat="44.80395" lon="4.2274">
        <ele>1262</ele>
        <time>2014-07-12T08:22:17Z</time>
      </trkpt>
      <trkpt lat="44.80362" lon="4.22735">
        <ele>1261</ele>
        <time>2014-07-12T08:22:59Z</time>
      </trkpt>
      <trkpt lat="44.80271" lon="4.22715">
        <ele>1259</ele>
        <time>2014-07-12T08:23:29Z</time>
      </trkpt>
      <trkpt lat="44.8024" lon="4.22709">
        <ele>1257</ele>
        <time>2014-07-12T08:23:37Z</time>
      </trkpt>
      <trkpt lat="44.8021" lon="4.227">
        <ele>1256</ele>
        <time>2014-07-12T08:23:42Z</time>
      </trkpt>
      <trkpt lat="44.80188" lon="4.22694">
        <ele>1255</ele>
        <time>2014-07-12T08:23:45Z</time>
      </trkpt>
      <trkpt lat="44.80101" lon="4.22656">
        <ele>1251</ele>
        <time>2014-07-12T08:24:01Z</time>
      </trkpt>
      <trkpt lat="44.80047" lon="4.22661">
        <ele>1247</ele>
        <time>2014-07-12T08:24:10Z</time>
      </trkpt>
      <trkpt lat="44.80033" lon="4.22663">
        <ele>1246</ele>
        <time>2014-07-12T08:24:12Z</time>
      </trkpt>
      <trkpt lat="44.80018" lon="4.22658">
        <ele>1245</ele>
        <time>2014-07-12T08:24:16Z</time>
      </trkpt>
      <trkpt lat="44.79959" lon="4.2257">
        <ele>1242</ele>
        <time>2014-07-12T08:24:39Z</time>
      </trkpt>
      <trkpt lat="44.79936" lon="4.22515">
        <ele>1242</ele>
        <time>2014-07-12T08:24:53Z</time>
      </trkpt>
      <trkpt lat="44.79904" lon="4.22444">
        <ele>1239</ele>
        <time>2014-07-12T08:25:08Z</time>
      </trkpt>
      <trkpt lat="44.79797" lon="4.22308">
        <ele>1239</ele>
        <time>2014-07-12T08:25:40Z</time>
      </trkpt>
      <trkpt lat="44.79745" lon="4.22259">
        <ele>1239</ele>
        <time>2014-07-12T08:25:55Z</time>
      </trkpt>
      <trkpt lat="44.79665" lon="4.22227">
        <ele>1234</ele>
        <time>2014-07-12T08:26:19Z</time>
      </trkpt>
      <trkpt lat="44.7965" lon="4.22202">
        <ele>1234</ele>
        <time>2014-07-12T08:26:26Z</time>
      </trkpt>
      <trkpt lat="44.79643" lon="4.22192">
        <ele>1234</ele>
        <time>2014-07-12T08:26:28Z</time>
      </trkpt>
      <trkpt lat="44.7964" lon="4.22189">
        <ele>1234</ele>
        <time>2014-07-12T08:26:29Z</time>
      </trkpt>
      <trkpt lat="44.79611" lon="4.22145">
        <ele>1236</ele>
        <time>2014-07-12T08:26:48Z</time>
      </trkpt>
      <trkpt lat="44.79607" lon="4.22146">
        <ele>1236</ele>
        <time>2014-07-12T08:26:56Z</time>
      </trkpt>
      <trkpt lat="44.79595" lon="4.2214">
        <ele>1236</ele>
        <time>2014-07-12T08:27:15Z</time>
      </trkpt>
      <trkpt lat="44.79587" lon="4.22125">
        <ele>1237</ele>
        <time>2014-07-12T08:27:38Z</time>
      </trkpt>
      <trkpt lat="44.79574" lon="4.22111">
        <ele>1242</ele>
        <time>2014-07-12T08:28:00Z</time>
      </trkpt>
      <trkpt lat="44.79572" lon="4.2211">
        <ele>1242</ele>
        <time>2014-07-12T08:28:02Z</time>
      </trkpt>
      <trkpt lat="44.7956" lon="4.22102">
        <ele>1242</ele>
        <time>2014-07-12T08:28:18Z</time>
      </trkpt>
      <trkpt lat="44.7954" lon="4.22093">
        <ele>1244</ele>
        <time>2014-07-12T08:28:40Z</time>
      </trkpt>
      <trkpt lat="44.79532" lon="4.22089">
        <ele>1245</ele>
        <time>2014-07-12T08:29:41Z</time>
      </trkpt>
      <trkpt lat="44.79481" lon="4.22067">
        <ele>1252</ele>
        <time>2014-07-12T08:30:08Z</time>
      </trkpt>
      <trkpt lat="44.79445" lon="4.22048">
        <ele>1253</ele>
        <time>2014-07-12T08:30:19Z</time>
      </trkpt>
      <trkpt lat="44.79382" lon="4.22006">
        <ele>1257</ele>
        <time>2014-07-12T08:30:44Z</time>
      </trkpt>
      <trkpt lat="44.79357" lon="4.22003">
        <ele>1257</ele>
        <time>2014-07-12T08:30:53Z</time>
      </trkpt>
      <trkpt lat="44.79325" lon="4.22022">
        <ele>1257</ele>
        <time>2014-07-12T08:31:04Z</time>
      </trkpt>
      <trkpt lat="44.79292" lon="4.22004">
        <ele>1256</ele>
        <time>2014-07-12T08:31:17Z</time>
      </trkpt>
      <trkpt lat="44.7929" lon="4.22003">
        <ele>1256</ele>
        <time>2014-07-12T08:31:47Z</time>
      </trkpt>
      <trkpt lat="44.79261" lon="4.21987">
        <ele>1253</ele>
        <time>2014-07-12T08:32:26Z</time>
      </trkpt>
      <trkpt lat="44.79229" lon="4.21958">
        <ele>1249</ele>
        <time>2014-07-12T08:32:32Z</time>
      </trkpt>
      <trkpt lat="44.79211" lon="4.21946">
        <ele>1248</ele>
        <time>2014-07-12T08:32:36Z</time>
      </trkpt>
      <trkpt lat="44.7919" lon="4.21933">
        <ele>1247</ele>
        <time>2014-07-12T08:32:41Z</time>
      </trkpt>
      <trkpt lat="44.79177" lon="4.21912">
        <ele>1245</ele>
        <time>2014-07-12T08:32:45Z</time>
      </trkpt>
      <trkpt lat="44.79167" lon="4.21912">
        <ele>1245</ele>
        <time>2014-07-12T08:32:49Z</time>
      </trkpt>
      <trkpt lat="44.79118" lon="4.21976">
        <ele>1246</ele>
        <time>2014-07-12T08:33:10Z</time>
      </trkpt>
      <trkpt lat="44.7909" lon="4.22008">
        <ele>1247</ele>
        <time>2014-07-12T08:33:24Z</time>
      </trkpt>
      <trkpt lat="44.79071" lon="4.2204">
        <ele>1247</ele>
        <time>2014-07-12T08:33:36Z</time>
      </trkpt>
      <trkpt lat="44.79032" lon="4.22042">
        <ele>1248</ele>
        <time>2014-07-12T08:33:56Z</time>
      </trkpt>
      <trkpt lat="44.78995" lon="4.22049">
        <ele>1248</ele>
        <time>2014-07-12T08:34:11Z</time>
      </trkpt>
      <trkpt lat="44.78941" lon="4.22056">
        <ele>1249</ele>
        <time>2014-07-12T08:34:52Z</time>
      </trkpt>
      <trkpt lat="44.78935" lon="4.22056">
        <ele>1249</ele>
        <time>2014-07-12T08:37:00Z</time>
      </trkpt>
      <trkpt lat="44.78942" lon="4.22063">
        <ele>1249</ele>
        <time>2014-07-12T08:39:03Z</time>
      </trkpt>
      <trkpt lat="44.78893" lon="4.22053">
        <ele>1247</ele>
        <time>2014-07-12T08:40:35Z</time>
      </trkpt>
      <trkpt lat="44.78818" lon="4.22012">
        <ele>1243</ele>
        <time>2014-07-12T08:40:52Z</time>
      </trkpt>
      <trkpt lat="44.7875" lon="4.21925">
        <ele>1245</ele>
        <time>2014-07-12T08:41:25Z</time>
      </trkpt>
      <trkpt lat="44.78674" lon="4.21891">
        <ele>1247</ele>
        <time>2014-07-12T08:41:53Z</time>
      </trkpt>
      <trkpt lat="44.78627" lon="4.21887">
        <ele>1249</ele>
        <time>2014-07-12T08:42:19Z</time>
      </trkpt>
      <trkpt lat="44.78639" lon="4.21918">
        <ele>1247</ele>
        <time>2014-07-12T08:42:38Z</time>
      </trkpt>
      <trkpt lat="44.78651" lon="4.21925">
        <ele>1247</ele>
        <time>2014-07-12T08:42:41Z</time>
      </trkpt>
      <trkpt lat="44.7868" lon="4.21942">
        <ele>1245</ele>
        <time>2014-07-12T08:42:47Z</time>
      </trkpt>
      <trkpt lat="44.78684" lon="4.21944">
        <ele>1245</ele>
        <time>2014-07-12T08:42:48Z</time>
      </trkpt>
      <trkpt lat="44.78705" lon="4.21978">
        <ele>1244</ele>
        <time>2014-07-12T08:42:56Z</time>
      </trkpt>
      <trkpt lat="44.78711" lon="4.21989">
        <ele>1244</ele>
        <time>2014-07-12T08:42:58Z</time>
      </trkpt>
      <trkpt lat="44.78731" lon="4.22018">
        <ele>1241</ele>
        <time>2014-07-12T08:43:03Z</time>
      </trkpt>
      <trkpt lat="44.78735" lon="4.22024">
        <ele>1240</ele>
        <time>2014-07-12T08:43:04Z</time>
      </trkpt>
      <trkpt lat="44.78784" lon="4.22115">
        <ele>1238</ele>
        <time>2014-07-12T08:43:24Z</time>
      </trkpt>
      <trkpt lat="44.78814" lon="4.22168">
        <ele>1234</ele>
        <time>2014-07-12T08:43:47Z</time>
      </trkpt>
      <trkpt lat="44.78834" lon="4.22204">
        <ele>1236</ele>
        <time>2014-07-12T08:43:59Z</time>
      </trkpt>
      <trkpt lat="44.78861" lon="4.22228">
        <ele>1234</ele>
        <time>2014-07-12T08:44:05Z</time>
      </trkpt>
      <trkpt lat="44.78876" lon="4.22238">
        <ele>1234</ele>
        <time>2014-07-12T08:44:08Z</time>
      </trkpt>
      <trkpt lat="44.78892" lon="4.22252">
        <ele>1225</ele>
        <time>2014-07-12T08:44:11Z</time>
      </trkpt>
      <trkpt lat="44.78913" lon="4.22269">
        <ele>1225</ele>
        <time>2014-07-12T08:44:15Z</time>
      </trkpt>
      <trkpt lat="44.78966" lon="4.22309">
        <ele>1224</ele>
        <time>2014-07-12T08:44:26Z</time>
      </trkpt>
      <trkpt lat="44.7898" lon="4.2232">
        <ele>1224</ele>
        <time>2014-07-12T08:44:29Z</time>
      </trkpt>
      <trkpt lat="44.79012" lon="4.22412">
        <ele>1220</ele>
        <time>2014-07-12T08:44:47Z</time>
      </trkpt>
      <trkpt lat="44.78982" lon="4.22455">
        <ele>1220</ele>
        <time>2014-07-12T08:45:06Z</time>
      </trkpt>
      <trkpt lat="44.78978" lon="4.22497">
        <ele>1223</ele>
        <time>2014-07-12T08:45:23Z</time>
      </trkpt>
      <trkpt lat="44.7899" lon="4.22513">
        <ele>1227</ele>
        <time>2014-07-12T08:45:33Z</time>
      </trkpt>
      <trkpt lat="44.79007" lon="4.22523">
        <ele>1231</ele>
        <time>2014-07-12T08:45:56Z</time>
      </trkpt>
      <trkpt lat="44.79001" lon="4.22528">
        <ele>1231</ele>
        <time>2014-07-12T08:46:50Z</time>
      </trkpt>
      <trkpt lat="44.78999" lon="4.2253">
        <ele>1227</ele>
        <time>2014-07-12T08:47:09Z</time>
      </trkpt>
      <trkpt lat="44.78992" lon="4.22572">
        <ele>1229</ele>
        <time>2014-07-12T08:47:20Z</time>
      </trkpt>
      <trkpt lat="44.79006" lon="4.22655">
        <ele>1232</ele>
        <time>2014-07-12T08:47:33Z</time>
      </trkpt>
      <trkpt lat="44.79006" lon="4.22661">
        <ele>1231</ele>
        <time>2014-07-12T08:47:34Z</time>
      </trkpt>
      <trkpt lat="44.79009" lon="4.22706">
        <ele>1233</ele>
        <time>2014-07-12T08:47:40Z</time>
      </trkpt>
      <trkpt lat="44.78997" lon="4.22762">
        <ele>1228</ele>
        <time>2014-07-12T08:47:46Z</time>
      </trkpt>
      <trkpt lat="44.78962" lon="4.22842">
        <ele>1226</ele>
        <time>2014-07-12T08:47:58Z</time>
      </trkpt>
      <trkpt lat="44.78929" lon="4.2282">
        <ele>1226</ele>
        <time>2014-07-12T08:48:07Z</time>
      </trkpt>
      <trkpt lat="44.78928" lon="4.22817">
        <ele>1226</ele>
        <time>2014-07-12T08:48:08Z</time>
      </trkpt>
      <trkpt lat="44.78958" lon="4.22846">
        <ele>1226</ele>
        <time>2014-07-12T08:48:23Z</time>
      </trkpt>
      <trkpt lat="44.78948" lon="4.22862">
        <ele>1226</ele>
        <time>2014-07-12T08:48:31Z</time>
      </trkpt>
      <trkpt lat="44.7891" lon="4.22891">
        <ele>1229</ele>
        <time>2014-07-12T08:48:50Z</time>
      </trkpt>
      <trkpt lat="44.78875" lon="4.22899">
        <ele>1232</ele>
        <time>2014-07-12T08:49:05Z</time>
      </trkpt>
      <trkpt lat="44.78849" lon="4.22936">
        <ele>1232</ele>
        <time>2014-07-12T08:49:27Z</time>
      </trkpt>
      <trkpt lat="44.78833" lon="4.2295">
        <ele>1238</ele>
        <time>2014-07-12T08:49:58Z</time>
      </trkpt>
      <trkpt lat="44.7881" lon="4.22961">
        <ele>1239</ele>
        <time>2014-07-12T08:50:26Z</time>
      </trkpt>
      <trkpt lat="44.78795" lon="4.22964">
        <ele>1239</ele>
        <time>2014-07-12T08:50:43Z</time>
      </trkpt>
      <trkpt lat="44.78763" lon="4.2299">
        <ele>1242</ele>
        <time>2014-07-12T08:51:22Z</time>
      </trkpt>
      <trkpt lat="44.78725" lon="4.22992">
        <ele>1246</ele>
        <time>2014-07-12T08:51:46Z</time>
      </trkpt>
      <trkpt lat="44.78695" lon="4.22977">
        <ele>1247</ele>
        <time>2014-07-12T08:52:00Z</time>
      </trkpt>
      <trkpt lat="44.78653" lon="4.22955">
        <ele>1249</ele>
        <time>2014-07-12T08:52:17Z</time>
      </trkpt>
      <trkpt lat="44.78607" lon="4.22963">
        <ele>1250</ele>
        <time>2014-07-12T08:52:37Z</time>
      </trkpt>
      <trkpt lat="44.78604" lon="4.22965">
        <ele>1250</ele>
        <time>2014-07-12T08:52:39Z</time>
      </trkpt>
      <trkpt lat="44.78544" lon="4.22967">
        <ele>1256</ele>
        <time>2014-07-12T08:53:17Z</time>
      </trkpt>
      <trkpt lat="44.7851" lon="4.2297">
        <ele>1258</ele>
        <time>2014-07-12T08:53:42Z</time>
      </trkpt>
      <trkpt lat="44.78511" lon="4.2297">
        <ele>1258</ele>
        <time>2014-07-12T08:53:45Z</time>
      </trkpt>
      <trkpt lat="44.78511" lon="4.2297">
        <ele>1258</ele>
        <time>2014-07-12T08:53:46Z</time>
      </trkpt>
      <trkpt lat="44.78508" lon="4.22966">
        <ele>1258</ele>
        <time>2014-07-12T08:53:54Z</time>
      </trkpt>
      <trkpt lat="44.78473" lon="4.22948">
        <ele>1266</ele>
        <time>2014-07-12T08:54:21Z</time>
      </trkpt>
      <trkpt lat="44.78431" lon="4.22951">
        <ele>1267</ele>
        <time>2014-07-12T08:54:46Z</time>
      </trkpt>
      <trkpt lat="44.7837" lon="4.2295">
        <ele>1273</ele>
        <time>2014-07-12T08:55:17Z</time>
      </trkpt>
      <trkpt lat="44.78356" lon="4.22953">
        <ele>1273</ele>
        <time>2014-07-12T08:55:23Z</time>
      </trkpt>
      <trkpt lat="44.78259" lon="4.22978">
        <ele>1278</ele>
        <time>2014-07-12T08:55:59Z</time>
      </trkpt>
      <trkpt lat="44.78201" lon="4.22993">
        <ele>1280</ele>
        <time>2014-07-12T08:56:25Z</time>
      </trkpt>
      <trkpt lat="44.78147" lon="4.2298">
        <ele>1281</ele>
        <time>2014-07-12T08:56:53Z</time>
      </trkpt>
      <trkpt lat="44.7807" lon="4.22992">
        <ele>1280</ele>
        <time>2014-07-12T08:57:25Z</time>
      </trkpt>
      <trkpt lat="44.78039" lon="4.23001">
        <ele>1283</ele>
        <time>2014-07-12T08:57:34Z</time>
      </trkpt>
      <trkpt lat="44.77988" lon="4.23026">
        <ele>1281</ele>
        <time>2014-07-12T08:57:47Z</time>
      </trkpt>
      <trkpt lat="44.77936" lon="4.23054">
        <ele>1281</ele>
        <time>2014-07-12T08:57:58Z</time>
      </trkpt>
      <trkpt lat="44.77849" lon="4.2308">
        <ele>1280</ele>
        <time>2014-07-12T08:58:20Z</time>
      </trkpt>
      <trkpt lat="44.7776" lon="4.23057">
        <ele>1280</ele>
        <time>2014-07-12T08:58:45Z</time>
      </trkpt>
      <trkpt lat="44.77701" lon="4.23014">
        <ele>1283</ele>
        <time>2014-07-12T08:59:07Z</time>
      </trkpt>
      <trkpt lat="44.77682" lon="4.22984">
        <ele>1285</ele>
        <time>2014-07-12T08:59:17Z</time>
      </trkpt>
      <trkpt lat="44.77646" lon="4.22915">
        <ele>1288</ele>
        <time>2014-07-12T08:59:46Z</time>
      </trkpt>
      <trkpt lat="44.77633" lon="4.22891">
        <ele>1288</ele>
        <time>2014-07-12T09:00:16Z</time>
      </trkpt>
      <trkpt lat="44.77634" lon="4.22891">
        <ele>1288</ele>
        <time>2014-07-12T09:02:48Z</time>
      </trkpt>
      <trkpt lat="44.77623" lon="4.22885">
        <ele>1288</ele>
        <time>2014-07-12T09:04:43Z</time>
      </trkpt>
      <trkpt lat="44.77614" lon="4.22873">
        <ele>1287</ele>
        <time>2014-07-12T09:04:47Z</time>
      </trkpt>
      <trkpt lat="44.77568" lon="4.22838">
        <ele>1281</ele>
        <time>2014-07-12T09:04:57Z</time>
      </trkpt>
      <trkpt lat="44.7754" lon="4.22831">
        <ele>1274</ele>
        <time>2014-07-12T09:05:02Z</time>
      </trkpt>
      <trkpt lat="44.77535" lon="4.22829">
        <ele>1274</ele>
        <time>2014-07-12T09:05:03Z</time>
      </trkpt>
      <trkpt lat="44.77515" lon="4.22834">
        <ele>1275</ele>
        <time>2014-07-12T09:05:07Z</time>
      </trkpt>
      <trkpt lat="44.77482" lon="4.22846">
        <ele>1270</ele>
        <time>2014-07-12T09:05:13Z</time>
      </trkpt>
      <trkpt lat="44.77437" lon="4.22836">
        <ele>1267</ele>
        <time>2014-07-12T09:05:20Z</time>
      </trkpt>
      <trkpt lat="44.77361" lon="4.2278">
        <ele>1264</ele>
        <time>2014-07-12T09:05:41Z</time>
      </trkpt>
      <trkpt lat="44.77348" lon="4.22764">
        <ele>1264</ele>
        <time>2014-07-12T09:05:58Z</time>
      </trkpt>
      <trkpt lat="44.77348" lon="4.22764">
        <ele>1264</ele>
        <time>2014-07-12T09:07:29Z</time>
      </trkpt>
      <trkpt lat="44.77318" lon="4.22707">
        <ele>1264</ele>
        <time>2014-07-12T09:09:04Z</time>
      </trkpt>
      <trkpt lat="44.77305" lon="4.22669">
        <ele>1264</ele>
        <time>2014-07-12T09:09:16Z</time>
      </trkpt>
      <trkpt lat="44.7725" lon="4.22607">
        <ele>1265</ele>
        <time>2014-07-12T09:09:42Z</time>
      </trkpt>
      <trkpt lat="44.7722" lon="4.22535">
        <ele>1267</ele>
        <time>2014-07-12T09:10:05Z</time>
      </trkpt>
      <trkpt lat="44.77225" lon="4.22496">
        <ele>1272</ele>
        <time>2014-07-12T09:10:17Z</time>
      </trkpt>
      <trkpt lat="44.77226" lon="4.22484">
        <ele>1272</ele>
        <time>2014-07-12T09:10:20Z</time>
      </trkpt>
      <trkpt lat="44.77234" lon="4.22423">
        <ele>1273</ele>
        <time>2014-07-12T09:10:38Z</time>
      </trkpt>
      <trkpt lat="44.77241" lon="4.22345">
        <ele>1278</ele>
        <time>2014-07-12T09:11:03Z</time>
      </trkpt>
      <trkpt lat="44.77243" lon="4.22307">
        <ele>1278</ele>
        <time>2014-07-12T09:11:20Z</time>
      </trkpt>
      <trkpt lat="44.77244" lon="4.22305">
        <ele>1278</ele>
        <time>2014-07-12T09:11:21Z</time>
      </trkpt>
      <trkpt lat="44.77246" lon="4.22232">
        <ele>1277</ele>
        <time>2014-07-12T09:11:44Z</time>
      </trkpt>
      <trkpt lat="44.77243" lon="4.22203">
        <ele>1276</ele>
        <time>2014-07-12T09:11:59Z</time>
      </trkpt>
      <trkpt lat="44.77236" lon="4.22136">
        <ele>1273</ele>
        <time>2014-07-12T09:12:21Z</time>
      </trkpt>
      <trkpt lat="44.77235" lon="4.22106">
        <ele>1271</ele>
        <time>2014-07-12T09:12:26Z</time>
      </trkpt>
      <trkpt lat="44.77235" lon="4.22034">
        <ele>1268</ele>
        <time>2014-07-12T09:12:37Z</time>
      </trkpt>
      <trkpt lat="44.77233" lon="4.22021">
        <ele>1268</ele>
        <time>2014-07-12T09:12:39Z</time>
      </trkpt>
      <trkpt lat="44.77235" lon="4.21864">
        <ele>1265</ele>
        <time>2014-07-12T09:13:05Z</time>
      </trkpt>
      <trkpt lat="44.77219" lon="4.21804">
        <ele>1262</ele>
        <time>2014-07-12T09:13:19Z</time>
      </trkpt>
      <trkpt lat="44.77212" lon="4.21778">
        <ele>1261</ele>
        <time>2014-07-12T09:13:24Z</time>
      </trkpt>
      <trkpt lat="44.7716" lon="4.21683">
        <ele>1258</ele>
        <time>2014-07-12T09:13:45Z</time>
      </trkpt>
      <trkpt lat="44.77156" lon="4.21668">
        <ele>1258</ele>
        <time>2014-07-12T09:13:48Z</time>
      </trkpt>
      <trkpt lat="44.77155" lon="4.21637">
        <ele>1258</ele>
        <time>2014-07-12T09:13:54Z</time>
      </trkpt>
      <trkpt lat="44.77133" lon="4.21565">
        <ele>1257</ele>
        <time>2014-07-12T09:14:09Z</time>
      </trkpt>
      <trkpt lat="44.77129" lon="4.21541">
        <ele>1257</ele>
        <time>2014-07-12T09:14:16Z</time>
      </trkpt>
      <trkpt lat="44.77129" lon="4.21539">
        <ele>1257</ele>
        <time>2014-07-12T09:14:25Z</time>
      </trkpt>
      <trkpt lat="44.7713" lon="4.21534">
        <ele>1257</ele>
        <time>2014-07-12T09:15:00Z</time>
      </trkpt>
      <trkpt lat="44.77074" lon="4.21473">
        <ele>1251</ele>
        <time>2014-07-12T09:15:15Z</time>
      </trkpt>
      <trkpt lat="44.77049" lon="4.21446">
        <ele>1249</ele>
        <time>2014-07-12T09:15:19Z</time>
      </trkpt>
      <trkpt lat="44.77007" lon="4.21436">
        <ele>1247</ele>
        <time>2014-07-12T09:15:24Z</time>
      </trkpt>
      <trkpt lat="44.76967" lon="4.21446">
        <ele>1242</ele>
        <time>2014-07-12T09:15:28Z</time>
      </trkpt>
      <trkpt lat="44.76937" lon="4.21466">
        <ele>1241</ele>
        <time>2014-07-12T09:15:31Z</time>
      </trkpt>
      <trkpt lat="44.7691" lon="4.21494">
        <ele>1238</ele>
        <time>2014-07-12T09:15:34Z</time>
      </trkpt>
      <trkpt lat="44.7687" lon="4.21513">
        <ele>1238</ele>
        <time>2014-07-12T09:15:38Z</time>
      </trkpt>
      <trkpt lat="44.76831" lon="4.2152">
        <ele>1235</ele>
        <time>2014-07-12T09:15:42Z</time>
      </trkpt>
      <trkpt lat="44.76821" lon="4.21519">
        <ele>1235</ele>
        <time>2014-07-12T09:15:43Z</time>
      </trkpt>
      <trkpt lat="44.76789" lon="4.21513">
        <ele>1236</ele>
        <time>2014-07-12T09:15:47Z</time>
      </trkpt>
      <trkpt lat="44.76771" lon="4.21503">
        <ele>1236</ele>
        <time>2014-07-12T09:15:52Z</time>
      </trkpt>
      <trkpt lat="44.76768" lon="4.21501">
        <ele>1236</ele>
        <time>2014-07-12T09:15:53Z</time>
      </trkpt>
      <trkpt lat="44.76714" lon="4.21451">
        <ele>1236</ele>
        <time>2014-07-12T09:16:12Z</time>
      </trkpt>
      <trkpt lat="44.76681" lon="4.21424">
        <ele>1238</ele>
        <time>2014-07-12T09:16:25Z</time>
      </trkpt>
      <trkpt lat="44.76607" lon="4.21357">
        <ele>1237</ele>
        <time>2014-07-12T09:16:52Z</time>
      </trkpt>
      <trkpt lat="44.76565" lon="4.2131">
        <ele>1233</ele>
        <time>2014-07-12T09:17:02Z</time>
      </trkpt>
      <trkpt lat="44.76561" lon="4.21303">
        <ele>1233</ele>
        <time>2014-07-12T09:17:03Z</time>
      </trkpt>
      <trkpt lat="44.76532" lon="4.21252">
        <ele>1232</ele>
        <time>2014-07-12T09:17:10Z</time>
      </trkpt>
      <trkpt lat="44.76526" lon="4.21239">
        <ele>1230</ele>
        <time>2014-07-12T09:17:12Z</time>
      </trkpt>
      <trkpt lat="44.76502" lon="4.21226">
        <ele>1230</ele>
        <time>2014-07-12T09:17:17Z</time>
      </trkpt>
      <trkpt lat="44.76482" lon="4.21182">
        <ele>1230</ele>
        <time>2014-07-12T09:17:26Z</time>
      </trkpt>
      <trkpt lat="44.76495" lon="4.21105">
        <ele>1235</ele>
        <time>2014-07-12T09:17:43Z</time>
      </trkpt>
      <trkpt lat="44.76542" lon="4.2101">
        <ele>1236</ele>
        <time>2014-07-12T09:18:10Z</time>
      </trkpt>
      <trkpt lat="44.76556" lon="4.20905">
        <ele>1241</ele>
        <time>2014-07-12T09:18:35Z</time>
      </trkpt>
      <trkpt lat="44.76555" lon="4.20829">
        <ele>1242</ele>
        <time>2014-07-12T09:18:50Z</time>
      </trkpt>
      <trkpt lat="44.7653" lon="4.20672">
        <ele>1245</ele>
        <time>2014-07-12T09:19:22Z</time>
      </trkpt>
      <trkpt lat="44.76524" lon="4.20596">
        <ele>1250</ele>
        <time>2014-07-12T09:19:41Z</time>
      </trkpt>
      <trkpt lat="44.76547" lon="4.20522">
        <ele>1255</ele>
        <time>2014-07-12T09:20:04Z</time>
      </trkpt>
      <trkpt lat="44.76538" lon="4.2045">
        <ele>1261</ele>
        <time>2014-07-12T09:20:25Z</time>
      </trkpt>
      <trkpt lat="44.765" lon="4.20378">
        <ele>1265</ele>
        <time>2014-07-12T09:20:55Z</time>
      </trkpt>
      <trkpt lat="44.76488" lon="4.20365">
        <ele>1269</ele>
        <time>2014-07-12T09:21:05Z</time>
      </trkpt>
      <trkpt lat="44.76487" lon="4.20363">
        <ele>1269</ele>
        <time>2014-07-12T09:21:06Z</time>
      </trkpt>
      <trkpt lat="44.7646" lon="4.20325">
        <ele>1276</ele>
        <time>2014-07-12T09:21:31Z</time>
      </trkpt>
      <trkpt lat="44.76447" lon="4.20306">
        <ele>1277</ele>
        <time>2014-07-12T09:21:42Z</time>
      </trkpt>
      <trkpt lat="44.76423" lon="4.20259">
        <ele>1281</ele>
        <time>2014-07-12T09:22:09Z</time>
      </trkpt>
      <trkpt lat="44.76381" lon="4.20169">
        <ele>1285</ele>
        <time>2014-07-12T09:22:45Z</time>
      </trkpt>
      <trkpt lat="44.76322" lon="4.20137">
        <ele>1289</ele>
        <time>2014-07-12T09:23:06Z</time>
      </trkpt>
      <trkpt lat="44.76269" lon="4.20148">
        <ele>1289</ele>
        <time>2014-07-12T09:23:21Z</time>
      </trkpt>
      <trkpt lat="44.76155" lon="4.20144">
        <ele>1290</ele>
        <time>2014-07-12T09:23:50Z</time>
      </trkpt>
      <trkpt lat="44.76089" lon="4.20115">
        <ele>1291</ele>
        <time>2014-07-12T09:24:13Z</time>
      </trkpt>
      <trkpt lat="44.75968" lon="4.20097">
        <ele>1287</ele>
        <time>2014-07-12T09:24:45Z</time>
      </trkpt>
      <trkpt lat="44.75856" lon="4.20124">
        <ele>1285</ele>
        <time>2014-07-12T09:25:11Z</time>
      </trkpt>
      <trkpt lat="44.75833" lon="4.2013">
        <ele>1286</ele>
        <time>2014-07-12T09:25:16Z</time>
      </trkpt>
      <trkpt lat="44.75755" lon="4.20143">
        <ele>1285</ele>
        <time>2014-07-12T09:25:33Z</time>
      </trkpt>
      <trkpt lat="44.75745" lon="4.20143">
        <ele>1283</ele>
        <time>2014-07-12T09:25:35Z</time>
      </trkpt>
      <trkpt lat="44.75699" lon="4.20097">
        <ele>1282</ele>
        <time>2014-07-12T09:25:49Z</time>
      </trkpt>
      <trkpt lat="44.75682" lon="4.20065">
        <ele>1283</ele>
        <time>2014-07-12T09:25:55Z</time>
      </trkpt>
      <trkpt lat="44.75657" lon="4.20031">
        <ele>1277</ele>
        <time>2014-07-12T09:26:02Z</time>
      </trkpt>
      <trkpt lat="44.75666" lon="4.19961">
        <ele>1277</ele>
        <time>2014-07-12T09:26:12Z</time>
      </trkpt>
      <trkpt lat="44.75662" lon="4.1985">
        <ele>1276</ele>
        <time>2014-07-12T09:26:31Z</time>
      </trkpt>
      <trkpt lat="44.75644" lon="4.19759">
        <ele>1274</ele>
        <time>2014-07-12T09:26:53Z</time>
      </trkpt>
      <trkpt lat="44.75612" lon="4.19592">
        <ele>1271</ele>
        <time>2014-07-12T09:27:23Z</time>
      </trkpt>
      <trkpt lat="44.75543" lon="4.19392">
        <ele>1274</ele>
        <time>2014-07-12T09:28:00Z</time>
      </trkpt>
      <trkpt lat="44.75526" lon="4.19272">
        <ele>1274</ele>
        <time>2014-07-12T09:28:18Z</time>
      </trkpt>
      <trkpt lat="44.75522" lon="4.19246">
        <ele>1272</ele>
        <time>2014-07-12T09:28:22Z</time>
      </trkpt>
      <trkpt lat="44.75514" lon="4.19195">
        <ele>1270</ele>
        <time>2014-07-12T09:28:28Z</time>
      </trkpt>
      <trkpt lat="44.75504" lon="4.19131">
        <ele>1263</ele>
        <time>2014-07-12T09:28:35Z</time>
      </trkpt>
      <trkpt lat="44.75494" lon="4.19083">
        <ele>1261</ele>
        <time>2014-07-12T09:28:40Z</time>
      </trkpt>
      <trkpt lat="44.75485" lon="4.19059">
        <ele>1259</ele>
        <time>2014-07-12T09:28:43Z</time>
      </trkpt>
      <trkpt lat="44.75474" lon="4.1903">
        <ele>1257</ele>
        <time>2014-07-12T09:28:47Z</time>
      </trkpt>
      <trkpt lat="44.75471" lon="4.19023">
        <ele>1257</ele>
        <time>2014-07-12T09:28:48Z</time>
      </trkpt>
      <trkpt lat="44.75457" lon="4.18995">
        <ele>1249</ele>
        <time>2014-07-12T09:28:52Z</time>
      </trkpt>
      <trkpt lat="44.75433" lon="4.18968">
        <ele>1248</ele>
        <time>2014-07-12T09:29:05Z</time>
      </trkpt>
      <trkpt lat="44.7543" lon="4.18965">
        <ele>1248</ele>
        <time>2014-07-12T09:29:06Z</time>
      </trkpt>
      <trkpt lat="44.75395" lon="4.18939">
        <ele>1245</ele>
        <time>2014-07-12T09:29:12Z</time>
      </trkpt>
      <trkpt lat="44.75389" lon="4.18934">
        <ele>1245</ele>
        <time>2014-07-12T09:29:13Z</time>
      </trkpt>
      <trkpt lat="44.75361" lon="4.1892">
        <ele>1243</ele>
        <time>2014-07-12T09:29:18Z</time>
      </trkpt>
      <trkpt lat="44.75343" lon="4.18906">
        <ele>1237</ele>
        <time>2014-07-12T09:29:22Z</time>
      </trkpt>
      <trkpt lat="44.7534" lon="4.189">
        <ele>1237</ele>
        <time>2014-07-12T09:29:23Z</time>
      </trkpt>
      <trkpt lat="44.75337" lon="4.18894">
        <ele>1237</ele>
        <time>2014-07-12T09:29:24Z</time>
      </trkpt>
      <trkpt lat="44.75337" lon="4.18828">
        <ele>1234</ele>
        <time>2014-07-12T09:29:37Z</time>
      </trkpt>
      <trkpt lat="44.75324" lon="4.18793">
        <ele>1240</ele>
        <time>2014-07-12T09:30:01Z</time>
      </trkpt>
      <trkpt lat="44.75326" lon="4.18794">
        <ele>1240</ele>
        <time>2014-07-12T09:31:01Z</time>
      </trkpt>
      <trkpt lat="44.75323" lon="4.18789">
        <ele>1240</ele>
        <time>2014-07-12T09:31:14Z</time>
      </trkpt>
      <trkpt lat="44.75322" lon="4.18788">
        <ele>1240</ele>
        <time>2014-07-12T09:31:15Z</time>
      </trkpt>
      <trkpt lat="44.75287" lon="4.18734">
        <ele>1237</ele>
        <time>2014-07-12T09:31:38Z</time>
      </trkpt>
      <trkpt lat="44.75206" lon="4.1866">
        <ele>1236</ele>
        <time>2014-07-12T09:32:10Z</time>
      </trkpt>
      <trkpt lat="44.75156" lon="4.18652">
        <ele>1242</ele>
        <time>2014-07-12T09:32:33Z</time>
      </trkpt>
      <trkpt lat="44.75121" lon="4.18649">
        <ele>1243</ele>
        <time>2014-07-12T09:32:46Z</time>
      </trkpt>
      <trkpt lat="44.75068" lon="4.18605">
        <ele>1245</ele>
        <time>2014-07-12T09:33:13Z</time>
      </trkpt>
      <trkpt lat="44.75032" lon="4.18607">
        <ele>1248</ele>
        <time>2014-07-12T09:33:30Z</time>
      </trkpt>
      <trkpt lat="44.75012" lon="4.18622">
        <ele>1250</ele>
        <time>2014-07-12T09:33:39Z</time>
      </trkpt>
      <trkpt lat="44.74969" lon="4.18608">
        <ele>1255</ele>
        <time>2014-07-12T09:33:57Z</time>
      </trkpt>
      <trkpt lat="44.74946" lon="4.18579">
        <ele>1254</ele>
        <time>2014-07-12T09:34:09Z</time>
      </trkpt>
      <trkpt lat="44.74907" lon="4.185">
        <ele>1259</ele>
        <time>2014-07-12T09:34:46Z</time>
      </trkpt>
      <trkpt lat="44.74906" lon="4.18495">
        <ele>1259</ele>
        <time>2014-07-12T09:34:48Z</time>
      </trkpt>
      <trkpt lat="44.74932" lon="4.18449">
        <ele>1257</ele>
        <time>2014-07-12T09:35:16Z</time>
      </trkpt>
      <trkpt lat="44.74956" lon="4.18422">
        <ele>1257</ele>
        <time>2014-07-12T09:35:32Z</time>
      </trkpt>
      <trkpt lat="44.75001" lon="4.18385">
        <ele>1262</ele>
        <time>2014-07-12T09:35:52Z</time>
      </trkpt>
      <trkpt lat="44.75003" lon="4.18384">
        <ele>1262</ele>
        <time>2014-07-12T09:35:53Z</time>
      </trkpt>
      <trkpt lat="44.75082" lon="4.18339">
        <ele>1266</ele>
        <time>2014-07-12T09:36:25Z</time>
      </trkpt>
      <trkpt lat="44.751" lon="4.18325">
        <ele>1269</ele>
        <time>2014-07-12T09:36:37Z</time>
      </trkpt>
      <trkpt lat="44.75113" lon="4.18308">
        <ele>1270</ele>
        <time>2014-07-12T09:36:49Z</time>
      </trkpt>
      <trkpt lat="44.75098" lon="4.18277">
        <ele>1272</ele>
        <time>2014-07-12T09:37:10Z</time>
      </trkpt>
      <trkpt lat="44.75063" lon="4.18242">
        <ele>1280</ele>
        <time>2014-07-12T09:37:54Z</time>
      </trkpt>
      <trkpt lat="44.75047" lon="4.18221">
        <ele>1281</ele>
        <time>2014-07-12T09:38:21Z</time>
      </trkpt>
      <trkpt lat="44.75027" lon="4.18207">
        <ele>1282</ele>
        <time>2014-07-12T09:38:46Z</time>
      </trkpt>
      <trkpt lat="44.75019" lon="4.18201">
        <ele>1282</ele>
        <time>2014-07-12T09:39:01Z</time>
      </trkpt>
      <trkpt lat="44.75013" lon="4.18194">
        <ele>1282</ele>
        <time>2014-07-12T09:40:40Z</time>
      </trkpt>
      <trkpt lat="44.75013" lon="4.18201">
        <ele>1282</ele>
        <time>2014-07-12T09:42:09Z</time>
      </trkpt>
      <trkpt lat="44.75013" lon="4.18195">
        <ele>1282</ele>
        <time>2014-07-12T09:43:18Z</time>
      </trkpt>
      <trkpt lat="44.75011" lon="4.18198">
        <ele>1282</ele>
        <time>2014-07-12T09:45:05Z</time>
      </trkpt>
      <trkpt lat="44.7501" lon="4.182">
        <ele>1282</ele>
        <time>2014-07-12T09:46:23Z</time>
      </trkpt>
      <trkpt lat="44.75013" lon="4.18191">
        <ele>1282</ele>
        <time>2014-07-12T09:48:57Z</time>
      </trkpt>
      <trkpt lat="44.75011" lon="4.18195">
        <ele>1282</ele>
        <time>2014-07-12T09:51:00Z</time>
      </trkpt>
      <trkpt lat="44.75008" lon="4.18205">
        <ele>1282</ele>
        <time>2014-07-12T09:52:35Z</time>
      </trkpt>
      <trkpt lat="44.7501" lon="4.18203">
        <ele>1282</ele>
        <time>2014-07-12T09:54:18Z</time>
      </trkpt>
      <trkpt lat="44.75005" lon="4.18195">
        <ele>1282</ele>
        <time>2014-07-12T09:55:59Z</time>
      </trkpt>
      <trkpt lat="44.75004" lon="4.18195">
        <ele>1282</ele>
        <time>2014-07-12T09:57:50Z</time>
      </trkpt>
      <trkpt lat="44.75006" lon="4.18201">
        <ele>1282</ele>
        <time>2014-07-12T09:58:58Z</time>
      </trkpt>
      <trkpt lat="44.75004" lon="4.18202">
        <ele>1282</ele>
        <time>2014-07-12T10:00:16Z</time>
      </trkpt>
      <trkpt lat="44.75005" lon="4.18197">
        <ele>1282</ele>
        <time>2014-07-12T10:02:16Z</time>
      </trkpt>
      <trkpt lat="44.75005" lon="4.1821">
        <ele>1281</ele>
        <time>2014-07-12T10:03:32Z</time>
      </trkpt>
      <trkpt lat="44.75008" lon="4.18205">
        <ele>1282</ele>
        <time>2014-07-12T10:04:50Z</time>
      </trkpt>
      <trkpt lat="44.75014" lon="4.18197">
        <ele>1282</ele>
        <time>2014-07-12T10:06:37Z</time>
      </trkpt>
      <trkpt lat="44.75007" lon="4.18199">
        <ele>1282</ele>
        <time>2014-07-12T10:08:18Z</time>
      </trkpt>
      <trkpt lat="44.75009" lon="4.18197">
        <ele>1282</ele>
        <time>2014-07-12T10:08:32Z</time>
      </trkpt>
      <trkpt lat="44.75001" lon="4.18176">
        <ele>1282</ele>
        <time>2014-07-12T10:08:38Z</time>
      </trkpt>
      <trkpt lat="44.74998" lon="4.18167">
        <ele>1282</ele>
        <time>2014-07-12T10:08:40Z</time>
      </trkpt>
      <trkpt lat="44.74985" lon="4.18149">
        <ele>1279</ele>
        <time>2014-07-12T10:08:44Z</time>
      </trkpt>
      <trkpt lat="44.7498" lon="4.18127">
        <ele>1277</ele>
        <time>2014-07-12T10:08:47Z</time>
      </trkpt>
      <trkpt lat="44.74973" lon="4.18113">
        <ele>1277</ele>
        <time>2014-07-12T10:08:49Z</time>
      </trkpt>
      <trkpt lat="44.74963" lon="4.18094">
        <ele>1275</ele>
        <time>2014-07-12T10:08:52Z</time>
      </trkpt>
      <trkpt lat="44.74953" lon="4.18082">
        <ele>1271</ele>
        <time>2014-07-12T10:08:55Z</time>
      </trkpt>
      <trkpt lat="44.74945" lon="4.18075">
        <ele>1270</ele>
        <time>2014-07-12T10:08:57Z</time>
      </trkpt>
      <trkpt lat="44.74924" lon="4.1807">
        <ele>1268</ele>
        <time>2014-07-12T10:09:01Z</time>
      </trkpt>
      <trkpt lat="44.7491" lon="4.18052">
        <ele>1263</ele>
        <time>2014-07-12T10:09:04Z</time>
      </trkpt>
      <trkpt lat="44.74904" lon="4.18033">
        <ele>1262</ele>
        <time>2014-07-12T10:09:06Z</time>
      </trkpt>
      <trkpt lat="44.74899" lon="4.18013">
        <ele>1261</ele>
        <time>2014-07-12T10:09:08Z</time>
      </trkpt>
      <trkpt lat="44.74893" lon="4.17992">
        <ele>1257</ele>
        <time>2014-07-12T10:09:10Z</time>
      </trkpt>
      <trkpt lat="44.74884" lon="4.17964">
        <ele>1256</ele>
        <time>2014-07-12T10:09:14Z</time>
      </trkpt>
      <trkpt lat="44.74875" lon="4.17958">
        <ele>1255</ele>
        <time>2014-07-12T10:09:16Z</time>
      </trkpt>
      <trkpt lat="44.74863" lon="4.17956">
        <ele>1254</ele>
        <time>2014-07-12T10:09:18Z</time>
      </trkpt>
      <trkpt lat="44.74857" lon="4.17955">
        <ele>1253</ele>
        <time>2014-07-12T10:09:19Z</time>
      </trkpt>
      <trkpt lat="44.7484" lon="4.17942">
        <ele>1251</ele>
        <time>2014-07-12T10:09:22Z</time>
      </trkpt>
      <trkpt lat="44.74835" lon="4.17936">
        <ele>1250</ele>
        <time>2014-07-12T10:09:23Z</time>
      </trkpt>
      <trkpt lat="44.7481" lon="4.17902">
        <ele>1241</ele>
        <time>2014-07-12T10:09:28Z</time>
      </trkpt>
      <trkpt lat="44.748" lon="4.17876">
        <ele>1240</ele>
        <time>2014-07-12T10:09:31Z</time>
      </trkpt>
      <trkpt lat="44.74778" lon="4.17768">
        <ele>1237</ele>
        <time>2014-07-12T10:09:41Z</time>
      </trkpt>
      <trkpt lat="44.74754" lon="4.17601">
        <ele>1237</ele>
        <time>2014-07-12T10:09:57Z</time>
      </trkpt>
      <trkpt lat="44.74753" lon="4.17572">
        <ele>1237</ele>
        <time>2014-07-12T10:10:00Z</time>
      </trkpt>
      <trkpt lat="44.74754" lon="4.17543">
        <ele>1239</ele>
        <time>2014-07-12T10:10:03Z</time>
      </trkpt>
      <trkpt lat="44.74753" lon="4.17533">
        <ele>1239</ele>
        <time>2014-07-12T10:10:04Z</time>
      </trkpt>
      <trkpt lat="44.74745" lon="4.17458">
        <ele>1234</ele>
        <time>2014-07-12T10:10:12Z</time>
      </trkpt>
      <trkpt lat="44.74743" lon="4.1745">
        <ele>1234</ele>
        <time>2014-07-12T10:10:13Z</time>
      </trkpt>
      <trkpt lat="44.74719" lon="4.17379">
        <ele>1232</ele>
        <time>2014-07-12T10:10:22Z</time>
      </trkpt>
      <trkpt lat="44.74677" lon="4.17297">
        <ele>1228</ele>
        <time>2014-07-12T10:10:36Z</time>
      </trkpt>
      <trkpt lat="44.74675" lon="4.17292">
        <ele>1228</ele>
        <time>2014-07-12T10:10:37Z</time>
      </trkpt>
      <trkpt lat="44.74656" lon="4.17267">
        <ele>1228</ele>
        <time>2014-07-12T10:10:43Z</time>
      </trkpt>
      <trkpt lat="44.74636" lon="4.17238">
        <ele>1229</ele>
        <time>2014-07-12T10:10:50Z</time>
      </trkpt>
      <trkpt lat="44.74621" lon="4.17207">
        <ele>1230</ele>
        <time>2014-07-12T10:10:56Z</time>
      </trkpt>
      <trkpt lat="44.7452" lon="4.17086">
        <ele>1226</ele>
        <time>2014-07-12T10:11:22Z</time>
      </trkpt>
      <trkpt lat="44.74492" lon="4.17068">
        <ele>1220</ele>
        <time>2014-07-12T10:11:33Z</time>
      </trkpt>
      <trkpt lat="44.74406" lon="4.17044">
        <ele>1215</ele>
        <time>2014-07-12T10:11:54Z</time>
      </trkpt>
      <trkpt lat="44.74325" lon="4.1703">
        <ele>1215</ele>
        <time>2014-07-12T10:12:14Z</time>
      </trkpt>
      <trkpt lat="44.74212" lon="4.17008">
        <ele>1212</ele>
        <time>2014-07-12T10:12:43Z</time>
      </trkpt>
      <trkpt lat="44.74183" lon="4.17012">
        <ele>1210</ele>
        <time>2014-07-12T10:12:50Z</time>
      </trkpt>
      <trkpt lat="44.74177" lon="4.17013">
        <ele>1210</ele>
        <time>2014-07-12T10:12:51Z</time>
      </trkpt>
      <trkpt lat="44.74138" lon="4.17023">
        <ele>1206</ele>
        <time>2014-07-12T10:12:57Z</time>
      </trkpt>
      <trkpt lat="44.74083" lon="4.17017">
        <ele>1202</ele>
        <time>2014-07-12T10:13:05Z</time>
      </trkpt>
      <trkpt lat="44.74036" lon="4.17019">
        <ele>1198</ele>
        <time>2014-07-12T10:13:13Z</time>
      </trkpt>
      <trkpt lat="44.74006" lon="4.1701">
        <ele>1197</ele>
        <time>2014-07-12T10:13:18Z</time>
      </trkpt>
      <trkpt lat="44.74008" lon="4.16995">
        <ele>1198</ele>
        <time>2014-07-12T10:13:26Z</time>
      </trkpt>
      <trkpt lat="44.74013" lon="4.16956">
        <ele>1201</ele>
        <time>2014-07-12T10:13:41Z</time>
      </trkpt>
      <trkpt lat="44.74041" lon="4.16947">
        <ele>1201</ele>
        <time>2014-07-12T10:14:02Z</time>
      </trkpt>
      <trkpt lat="44.74067" lon="4.16927">
        <ele>1203</ele>
        <time>2014-07-12T10:14:30Z</time>
      </trkpt>
      <trkpt lat="44.74083" lon="4.16909">
        <ele>1208</ele>
        <time>2014-07-12T10:14:56Z</time>
      </trkpt>
      <trkpt lat="44.74084" lon="4.16908">
        <ele>1209</ele>
        <time>2014-07-12T10:14:57Z</time>
      </trkpt>
      <trkpt lat="44.7408" lon="4.16884">
        <ele>1213</ele>
        <time>2014-07-12T10:15:34Z</time>
      </trkpt>
      <trkpt lat="44.74075" lon="4.1687">
        <ele>1215</ele>
        <time>2014-07-12T10:15:59Z</time>
      </trkpt>
      <trkpt lat="44.74087" lon="4.16859">
        <ele>1219</ele>
        <time>2014-07-12T10:16:20Z</time>
      </trkpt>
      <trkpt lat="44.741" lon="4.1685">
        <ele>1220</ele>
        <time>2014-07-12T10:16:36Z</time>
      </trkpt>
      <trkpt lat="44.74106" lon="4.16844">
        <ele>1220</ele>
        <time>2014-07-12T10:16:47Z</time>
      </trkpt>
      <trkpt lat="44.74107" lon="4.16842">
        <ele>1220</ele>
        <time>2014-07-12T10:16:48Z</time>
      </trkpt>
      <trkpt lat="44.74124" lon="4.16816">
        <ele>1232</ele>
        <time>2014-07-12T10:17:17Z</time>
      </trkpt>
      <trkpt lat="44.74132" lon="4.16812">
        <ele>1233</ele>
        <time>2014-07-12T10:17:29Z</time>
      </trkpt>
      <trkpt lat="44.74167" lon="4.16791">
        <ele>1238</ele>
        <time>2014-07-12T10:17:55Z</time>
      </trkpt>
      <trkpt lat="44.74166" lon="4.16769">
        <ele>1239</ele>
        <time>2014-07-12T10:18:17Z</time>
      </trkpt>
      <trkpt lat="44.74157" lon="4.16737">
        <ele>1246</ele>
        <time>2014-07-12T10:18:35Z</time>
      </trkpt>
      <trkpt lat="44.74158" lon="4.16694">
        <ele>1249</ele>
        <time>2014-07-12T10:18:57Z</time>
      </trkpt>
      <trkpt lat="44.74159" lon="4.16686">
        <ele>1250</ele>
        <time>2014-07-12T10:19:01Z</time>
      </trkpt>
      <trkpt lat="44.74169" lon="4.16661">
        <ele>1255</ele>
        <time>2014-07-12T10:19:16Z</time>
      </trkpt>
      <trkpt lat="44.74165" lon="4.16617">
        <ele>1255</ele>
        <time>2014-07-12T10:19:39Z</time>
      </trkpt>
      <trkpt lat="44.7415" lon="4.16554">
        <ele>1259</ele>
        <time>2014-07-12T10:20:09Z</time>
      </trkpt>
      <trkpt lat="44.74146" lon="4.16538">
        <ele>1259</ele>
        <time>2014-07-12T10:21:03Z</time>
      </trkpt>
      <trkpt lat="44.74146" lon="4.16535">
        <ele>1259</ele>
        <time>2014-07-12T10:21:37Z</time>
      </trkpt>
      <trkpt lat="44.74149" lon="4.16525">
        <ele>1259</ele>
        <time>2014-07-12T10:21:41Z</time>
      </trkpt>
      <trkpt lat="44.74164" lon="4.16479">
        <ele>1261</ele>
        <time>2014-07-12T10:21:50Z</time>
      </trkpt>
      <trkpt lat="44.74196" lon="4.1641">
        <ele>1260</ele>
        <time>2014-07-12T10:22:01Z</time>
      </trkpt>
      <trkpt lat="44.74222" lon="4.16352">
        <ele>1259</ele>
        <time>2014-07-12T10:22:10Z</time>
      </trkpt>
      <trkpt lat="44.74276" lon="4.16219">
        <ele>1263</ele>
        <time>2014-07-12T10:22:36Z</time>
      </trkpt>
      <trkpt lat="44.74283" lon="4.16177">
        <ele>1263</ele>
        <time>2014-07-12T10:22:49Z</time>
      </trkpt>
      <trkpt lat="44.74294" lon="4.16092">
        <ele>1264</ele>
        <time>2014-07-12T10:23:17Z</time>
      </trkpt>
      <trkpt lat="44.74325" lon="4.15973">
        <ele>1266</ele>
        <time>2014-07-12T10:23:45Z</time>
      </trkpt>
      <trkpt lat="44.74335" lon="4.15874">
        <ele>1275</ele>
        <time>2014-07-12T10:24:09Z</time>
      </trkpt>
      <trkpt lat="44.74322" lon="4.15844">
        <ele>1271</ele>
        <time>2014-07-12T10:24:17Z</time>
      </trkpt>
      <trkpt lat="44.74304" lon="4.15797">
        <ele>1276</ele>
        <time>2014-07-12T10:24:35Z</time>
      </trkpt>
      <trkpt lat="44.74286" lon="4.15763">
        <ele>1277</ele>
        <time>2014-07-12T10:24:50Z</time>
      </trkpt>
      <trkpt lat="44.74279" lon="4.15752">
        <ele>1277</ele>
        <time>2014-07-12T10:24:55Z</time>
      </trkpt>
      <trkpt lat="44.74275" lon="4.15711">
        <ele>1282</ele>
        <time>2014-07-12T10:25:07Z</time>
      </trkpt>
      <trkpt lat="44.7428" lon="4.15631">
        <ele>1285</ele>
        <time>2014-07-12T10:25:42Z</time>
      </trkpt>
      <trkpt lat="44.74287" lon="4.15597">
        <ele>1286</ele>
        <time>2014-07-12T10:25:57Z</time>
      </trkpt>
      <trkpt lat="44.74295" lon="4.15531">
        <ele>1287</ele>
        <time>2014-07-12T10:26:25Z</time>
      </trkpt>
      <trkpt lat="44.74293" lon="4.15531">
        <ele>1287</ele>
        <time>2014-07-12T10:26:36Z</time>
      </trkpt>
      <trkpt lat="44.74301" lon="4.15459">
        <ele>1287</ele>
        <time>2014-07-12T10:27:43Z</time>
      </trkpt>
      <trkpt lat="44.74298" lon="4.15326">
        <ele>1288</ele>
        <time>2014-07-12T10:28:07Z</time>
      </trkpt>
      <trkpt lat="44.74263" lon="4.15229">
        <ele>1290</ele>
        <time>2014-07-12T10:28:32Z</time>
      </trkpt>
      <trkpt lat="44.74257" lon="4.15213">
        <ele>1292</ele>
        <time>2014-07-12T10:28:36Z</time>
      </trkpt>
      <trkpt lat="44.74216" lon="4.15122">
        <ele>1291</ele>
        <time>2014-07-12T10:28:57Z</time>
      </trkpt>
      <trkpt lat="44.74184" lon="4.15064">
        <ele>1295</ele>
        <time>2014-07-12T10:29:10Z</time>
      </trkpt>
      <trkpt lat="44.74181" lon="4.14989">
        <ele>1300</ele>
        <time>2014-07-12T10:29:29Z</time>
      </trkpt>
      <trkpt lat="44.74185" lon="4.14966">
        <ele>1302</ele>
        <time>2014-07-12T10:29:36Z</time>
      </trkpt>
      <trkpt lat="44.7419" lon="4.1493">
        <ele>1304</ele>
        <time>2014-07-12T10:29:47Z</time>
      </trkpt>
      <trkpt lat="44.74191" lon="4.14873">
        <ele>1306</ele>
        <time>2014-07-12T10:30:03Z</time>
      </trkpt>
      <trkpt lat="44.74208" lon="4.14836">
        <ele>1306</ele>
        <time>2014-07-12T10:30:14Z</time>
      </trkpt>
      <trkpt lat="44.74231" lon="4.14804">
        <ele>1306</ele>
        <time>2014-07-12T10:30:24Z</time>
      </trkpt>
      <trkpt lat="44.74274" lon="4.14746">
        <ele>1303</ele>
        <time>2014-07-12T10:30:37Z</time>
      </trkpt>
      <trkpt lat="44.74299" lon="4.14704">
        <ele>1302</ele>
        <time>2014-07-12T10:30:43Z</time>
      </trkpt>
      <trkpt lat="44.74307" lon="4.14693">
        <ele>1302</ele>
        <time>2014-07-12T10:30:45Z</time>
      </trkpt>
      <trkpt lat="44.74318" lon="4.14671">
        <ele>1300</ele>
        <time>2014-07-12T10:30:48Z</time>
      </trkpt>
      <trkpt lat="44.7434" lon="4.14621">
        <ele>1294</ele>
        <time>2014-07-12T10:30:54Z</time>
      </trkpt>
      <trkpt lat="44.74367" lon="4.14489">
        <ele>1291</ele>
        <time>2014-07-12T10:31:07Z</time>
      </trkpt>
      <trkpt lat="44.74368" lon="4.14448">
        <ele>1291</ele>
        <time>2014-07-12T10:31:11Z</time>
      </trkpt>
      <trkpt lat="44.74367" lon="4.14372">
        <ele>1287</ele>
        <time>2014-07-12T10:31:18Z</time>
      </trkpt>
      <trkpt lat="44.74369" lon="4.1436">
        <ele>1286</ele>
        <time>2014-07-12T10:31:19Z</time>
      </trkpt>
      <trkpt lat="44.74374" lon="4.14312">
        <ele>1282</ele>
        <time>2014-07-12T10:31:23Z</time>
      </trkpt>
      <trkpt lat="44.74421" lon="4.14171">
        <ele>1282</ele>
        <time>2014-07-12T10:31:37Z</time>
      </trkpt>
      <trkpt lat="44.74441" lon="4.14105">
        <ele>1282</ele>
        <time>2014-07-12T10:31:46Z</time>
      </trkpt>
      <trkpt lat="44.74455" lon="4.14063">
        <ele>1282</ele>
        <time>2014-07-12T10:31:53Z</time>
      </trkpt>
      <trkpt lat="44.74498" lon="4.13971">
        <ele>1278</ele>
        <time>2014-07-12T10:32:07Z</time>
      </trkpt>
      <trkpt lat="44.74516" lon="4.13942">
        <ele>1274</ele>
        <time>2014-07-12T10:32:10Z</time>
      </trkpt>
      <trkpt lat="44.74555" lon="4.13878">
        <ele>1270</ele>
        <time>2014-07-12T10:32:16Z</time>
      </trkpt>
      <trkpt lat="44.74578" lon="4.13838">
        <ele>1268</ele>
        <time>2014-07-12T10:32:20Z</time>
      </trkpt>
      <trkpt lat="44.74592" lon="4.13811">
        <ele>1266</ele>
        <time>2014-07-12T10:32:23Z</time>
      </trkpt>
      <trkpt lat="44.74626" lon="4.13738">
        <ele>1263</ele>
        <time>2014-07-12T10:32:41Z</time>
      </trkpt>
      <trkpt lat="44.74703" lon="4.13609">
        <ele>1268</ele>
        <time>2014-07-12T10:33:25Z</time>
      </trkpt>
      <trkpt lat="44.74721" lon="4.13579">
        <ele>1269</ele>
        <time>2014-07-12T10:33:41Z</time>
      </trkpt>
      <trkpt lat="44.74783" lon="4.13451">
        <ele>1269</ele>
        <time>2014-07-12T10:34:27Z</time>
      </trkpt>
      <trkpt lat="44.74798" lon="4.13417">
        <ele>1267</ele>
        <time>2014-07-12T10:34:34Z</time>
      </trkpt>
      <trkpt lat="44.7481" lon="4.13388">
        <ele>1267</ele>
        <time>2014-07-12T10:34:39Z</time>
      </trkpt>
      <trkpt lat="44.74812" lon="4.13381">
        <ele>1267</ele>
        <time>2014-07-12T10:34:40Z</time>
      </trkpt>
      <trkpt lat="44.74832" lon="4.13336">
        <ele>1267</ele>
        <time>2014-07-12T10:34:48Z</time>
      </trkpt>
      <trkpt lat="44.74872" lon="4.13268">
        <ele>1267</ele>
        <time>2014-07-12T10:35:01Z</time>
      </trkpt>
      <trkpt lat="44.74902" lon="4.13207">
        <ele>1267</ele>
        <time>2014-07-12T10:35:13Z</time>
      </trkpt>
      <trkpt lat="44.74906" lon="4.13202">
        <ele>1267</ele>
        <time>2014-07-12T10:35:14Z</time>
      </trkpt>
      <trkpt lat="44.74924" lon="4.13175">
        <ele>1267</ele>
        <time>2014-07-12T10:35:19Z</time>
      </trkpt>
      <trkpt lat="44.74958" lon="4.13118">
        <ele>1263</ele>
        <time>2014-07-12T10:35:27Z</time>
      </trkpt>
      <trkpt lat="44.74973" lon="4.13096">
        <ele>1262</ele>
        <time>2014-07-12T10:35:30Z</time>
      </trkpt>
      <trkpt lat="44.75015" lon="4.13037">
        <ele>1252</ele>
        <time>2014-07-12T10:35:37Z</time>
      </trkpt>
      <trkpt lat="44.75056" lon="4.12977">
        <ele>1241</ele>
        <time>2014-07-12T10:35:43Z</time>
      </trkpt>
      <trkpt lat="44.75083" lon="4.12939">
        <ele>1238</ele>
        <time>2014-07-12T10:35:47Z</time>
      </trkpt>
      <trkpt lat="44.75125" lon="4.129">
        <ele>1231</ele>
        <time>2014-07-12T10:35:53Z</time>
      </trkpt>
      <trkpt lat="44.75163" lon="4.12847">
        <ele>1229</ele>
        <time>2014-07-12T10:35:59Z</time>
      </trkpt>
      <trkpt lat="44.75181" lon="4.12814">
        <ele>1225</ele>
        <time>2014-07-12T10:36:02Z</time>
      </trkpt>
      <trkpt lat="44.75186" lon="4.12801">
        <ele>1224</ele>
        <time>2014-07-12T10:36:03Z</time>
      </trkpt>
      <trkpt lat="44.75189" lon="4.12789">
        <ele>1224</ele>
        <time>2014-07-12T10:36:04Z</time>
      </trkpt>
      <trkpt lat="44.7522" lon="4.12689">
        <ele>1225</ele>
        <time>2014-07-12T10:36:14Z</time>
      </trkpt>
      <trkpt lat="44.75226" lon="4.12595">
        <ele>1227</ele>
        <time>2014-07-12T10:36:27Z</time>
      </trkpt>
      <trkpt lat="44.75226" lon="4.12588">
        <ele>1227</ele>
        <time>2014-07-12T10:36:28Z</time>
      </trkpt>
      <trkpt lat="44.75203" lon="4.12419">
        <ele>1223</ele>
        <time>2014-07-12T10:36:49Z</time>
      </trkpt>
      <trkpt lat="44.75166" lon="4.12341">
        <ele>1225</ele>
        <time>2014-07-12T10:37:01Z</time>
      </trkpt>
      <trkpt lat="44.75143" lon="4.12242">
        <ele>1228</ele>
        <time>2014-07-12T10:37:18Z</time>
      </trkpt>
      <trkpt lat="44.75134" lon="4.12143">
        <ele>1232</ele>
        <time>2014-07-12T10:37:43Z</time>
      </trkpt>
      <trkpt lat="44.75128" lon="4.12111">
        <ele>1234</ele>
        <time>2014-07-12T10:37:53Z</time>
      </trkpt>
      <trkpt lat="44.75106" lon="4.12036">
        <ele>1240</ele>
        <time>2014-07-12T10:38:18Z</time>
      </trkpt>
      <trkpt lat="44.751" lon="4.12003">
        <ele>1241</ele>
        <time>2014-07-12T10:38:31Z</time>
      </trkpt>
      <trkpt lat="44.75102" lon="4.1195">
        <ele>1246</ele>
        <time>2014-07-12T10:38:51Z</time>
      </trkpt>
      <trkpt lat="44.75107" lon="4.11874">
        <ele>1250</ele>
        <time>2014-07-12T10:39:17Z</time>
      </trkpt>
      <trkpt lat="44.7512" lon="4.11798">
        <ele>1254</ele>
        <time>2014-07-12T10:39:42Z</time>
      </trkpt>
      <trkpt lat="44.75139" lon="4.11764">
        <ele>1257</ele>
        <time>2014-07-12T10:39:55Z</time>
      </trkpt>
      <trkpt lat="44.75149" lon="4.11743">
        <ele>1260</ele>
        <time>2014-07-12T10:40:02Z</time>
      </trkpt>
      <trkpt lat="44.75199" lon="4.1166">
        <ele>1264</ele>
        <time>2014-07-12T10:40:32Z</time>
      </trkpt>
      <trkpt lat="44.75314" lon="4.11528">
        <ele>1264</ele>
        <time>2014-07-12T10:41:23Z</time>
      </trkpt>
      <trkpt lat="44.75374" lon="4.11466">
        <ele>1265</ele>
        <time>2014-07-12T10:41:41Z</time>
      </trkpt>
      <trkpt lat="44.75495" lon="4.11354">
        <ele>1263</ele>
        <time>2014-07-12T10:42:20Z</time>
      </trkpt>
      <trkpt lat="44.75499" lon="4.11351">
        <ele>1262</ele>
        <time>2014-07-12T10:42:21Z</time>
      </trkpt>
      <trkpt lat="44.75541" lon="4.11309">
        <ele>1260</ele>
        <time>2014-07-12T10:42:29Z</time>
      </trkpt>
      <trkpt lat="44.75599" lon="4.11183">
        <ele>1261</ele>
        <time>2014-07-12T10:42:46Z</time>
      </trkpt>
      <trkpt lat="44.75611" lon="4.11126">
        <ele>1260</ele>
        <time>2014-07-12T10:42:54Z</time>
      </trkpt>
      <trkpt lat="44.75637" lon="4.11022">
        <ele>1257</ele>
        <time>2014-07-12T10:43:10Z</time>
      </trkpt>
      <trkpt lat="44.75679" lon="4.10928">
        <ele>1255</ele>
        <time>2014-07-12T10:43:25Z</time>
      </trkpt>
      <trkpt lat="44.75696" lon="4.10905">
        <ele>1253</ele>
        <time>2014-07-12T10:43:29Z</time>
      </trkpt>
      <trkpt lat="44.7576" lon="4.1081">
        <ele>1250</ele>
        <time>2014-07-12T10:43:45Z</time>
      </trkpt>
      <trkpt lat="44.75788" lon="4.10766">
        <ele>1247</ele>
        <time>2014-07-12T10:43:50Z</time>
      </trkpt>
      <trkpt lat="44.75803" lon="4.10733">
        <ele>1241</ele>
        <time>2014-07-12T10:43:53Z</time>
      </trkpt>
      <trkpt lat="44.75811" lon="4.10709">
        <ele>1240</ele>
        <time>2014-07-12T10:43:55Z</time>
      </trkpt>
      <trkpt lat="44.75823" lon="4.10689">
        <ele>1239</ele>
        <time>2014-07-12T10:43:57Z</time>
      </trkpt>
      <trkpt lat="44.75856" lon="4.10641">
        <ele>1233</ele>
        <time>2014-07-12T10:44:02Z</time>
      </trkpt>
      <trkpt lat="44.75874" lon="4.10607">
        <ele>1231</ele>
        <time>2014-07-12T10:44:05Z</time>
      </trkpt>
      <trkpt lat="44.75889" lon="4.10575">
        <ele>1225</ele>
        <time>2014-07-12T10:44:08Z</time>
      </trkpt>
      <trkpt lat="44.75901" lon="4.10543">
        <ele>1224</ele>
        <time>2014-07-12T10:44:11Z</time>
      </trkpt>
      <trkpt lat="44.75906" lon="4.10531">
        <ele>1223</ele>
        <time>2014-07-12T10:44:12Z</time>
      </trkpt>
      <trkpt lat="44.75914" lon="4.10493">
        <ele>1219</ele>
        <time>2014-07-12T10:44:15Z</time>
      </trkpt>
      <trkpt lat="44.7592" lon="4.10453">
        <ele>1213</ele>
        <time>2014-07-12T10:44:18Z</time>
      </trkpt>
      <trkpt lat="44.75935" lon="4.10396">
        <ele>1208</ele>
        <time>2014-07-12T10:44:22Z</time>
      </trkpt>
      <trkpt lat="44.75948" lon="4.10339">
        <ele>1206</ele>
        <time>2014-07-12T10:44:30Z</time>
      </trkpt>
      <trkpt lat="44.75948" lon="4.10344">
        <ele>1206</ele>
        <time>2014-07-12T10:44:40Z</time>
      </trkpt>
      <trkpt lat="44.75947" lon="4.10346">
        <ele>1206</ele>
        <time>2014-07-12T10:44:41Z</time>
      </trkpt>
      <trkpt lat="44.75939" lon="4.10382">
        <ele>1207</ele>
        <time>2014-07-12T10:44:55Z</time>
      </trkpt>
      <trkpt lat="44.75939" lon="4.10384">
        <ele>1207</ele>
        <time>2014-07-12T10:45:29Z</time>
      </trkpt>
      <trkpt lat="44.75941" lon="4.10383">
        <ele>1207</ele>
        <time>2014-07-12T10:45:39Z</time>
      </trkpt>
      <trkpt lat="44.75953" lon="4.10325">
        <ele>1204</ele>
        <time>2014-07-12T10:46:03Z</time>
      </trkpt>
      <trkpt lat="44.75984" lon="4.10162">
        <ele>1206</ele>
        <time>2014-07-12T10:46:38Z</time>
      </trkpt>
      <trkpt lat="44.75979" lon="4.10157">
        <ele>1205</ele>
        <time>2014-07-12T10:46:46Z</time>
      </trkpt>
      <trkpt lat="44.75963" lon="4.10121">
        <ele>1203</ele>
        <time>2014-07-12T10:46:56Z</time>
      </trkpt>
      <trkpt lat="44.75958" lon="4.1007">
        <ele>1197</ele>
        <time>2014-07-12T10:47:07Z</time>
      </trkpt>
      <trkpt lat="44.75945" lon="4.10052">
        <ele>1196</ele>
        <time>2014-07-12T10:47:10Z</time>
      </trkpt>
      <trkpt lat="44.75946" lon="4.10025">
        <ele>1194</ele>
        <time>2014-07-12T10:47:15Z</time>
      </trkpt>
      <trkpt lat="44.75951" lon="4.10016">
        <ele>1194</ele>
        <time>2014-07-12T10:47:17Z</time>
      </trkpt>
      <trkpt lat="44.75943" lon="4.09986">
        <ele>1188</ele>
        <time>2014-07-12T10:47:24Z</time>
      </trkpt>
      <trkpt lat="44.75937" lon="4.09989">
        <ele>1188</ele>
        <time>2014-07-12T10:47:25Z</time>
      </trkpt>
      <trkpt lat="44.75911" lon="4.10001">
        <ele>1186</ele>
        <time>2014-07-12T10:47:29Z</time>
      </trkpt>
      <trkpt lat="44.75881" lon="4.10025">
        <ele>1182</ele>
        <time>2014-07-12T10:47:33Z</time>
      </trkpt>
      <trkpt lat="44.75866" lon="4.1004">
        <ele>1181</ele>
        <time>2014-07-12T10:47:35Z</time>
      </trkpt>
      <trkpt lat="44.75843" lon="4.10061">
        <ele>1179</ele>
        <time>2014-07-12T10:47:38Z</time>
      </trkpt>
      <trkpt lat="44.75814" lon="4.10068">
        <ele>1167</ele>
        <time>2014-07-12T10:47:43Z</time>
      </trkpt>
      <trkpt lat="44.75805" lon="4.10035">
        <ele>1162</ele>
        <time>2014-07-12T10:47:48Z</time>
      </trkpt>
      <trkpt lat="44.75814" lon="4.09968">
        <ele>1155</ele>
        <time>2014-07-12T10:47:54Z</time>
      </trkpt>
      <trkpt lat="44.75823" lon="4.09932">
        <ele>1155</ele>
        <time>2014-07-12T10:47:57Z</time>
      </trkpt>
      <trkpt lat="44.75832" lon="4.09895">
        <ele>1148</ele>
        <time>2014-07-12T10:48:00Z</time>
      </trkpt>
      <trkpt lat="44.7584" lon="4.09864">
        <ele>1157</ele>
        <time>2014-07-12T10:48:03Z</time>
      </trkpt>
      <trkpt lat="44.75843" lon="4.09839">
        <ele>1152</ele>
        <time>2014-07-12T10:48:09Z</time>
      </trkpt>
      <trkpt lat="44.75816" lon="4.0986">
        <ele>1142</ele>
        <time>2014-07-12T10:48:15Z</time>
      </trkpt>
      <trkpt lat="44.75795" lon="4.09874">
        <ele>1140</ele>
        <time>2014-07-12T10:48:18Z</time>
      </trkpt>
      <trkpt lat="44.75779" lon="4.09891">
        <ele>1139</ele>
        <time>2014-07-12T10:48:21Z</time>
      </trkpt>
      <trkpt lat="44.7577" lon="4.09914">
        <ele>1137</ele>
        <time>2014-07-12T10:48:24Z</time>
      </trkpt>
      <trkpt lat="44.75769" lon="4.09921">
        <ele>1143</ele>
        <time>2014-07-12T10:48:25Z</time>
      </trkpt>
      <trkpt lat="44.75766" lon="4.09937">
        <ele>1145</ele>
        <time>2014-07-12T10:48:28Z</time>
      </trkpt>
      <trkpt lat="44.75732" lon="4.09965">
        <ele>1129</ele>
        <time>2014-07-12T10:48:39Z</time>
      </trkpt>
      <trkpt lat="44.75714" lon="4.10007">
        <ele>1135</ele>
        <time>2014-07-12T10:48:45Z</time>
      </trkpt>
      <trkpt lat="44.75712" lon="4.10017">
        <ele>1135</ele>
        <time>2014-07-12T10:48:46Z</time>
      </trkpt>
      <trkpt lat="44.75694" lon="4.10065">
        <ele>1136</ele>
        <time>2014-07-12T10:48:51Z</time>
      </trkpt>
      <trkpt lat="44.75679" lon="4.10071">
        <ele>1134</ele>
        <time>2014-07-12T10:48:54Z</time>
      </trkpt>
      <trkpt lat="44.75674" lon="4.10069">
        <ele>1134</ele>
        <time>2014-07-12T10:48:55Z</time>
      </trkpt>
      <trkpt lat="44.75644" lon="4.10056">
        <ele>1126</ele>
        <time>2014-07-12T10:49:01Z</time>
      </trkpt>
      <trkpt lat="44.75635" lon="4.10048">
        <ele>1125</ele>
        <time>2014-07-12T10:49:03Z</time>
      </trkpt>
      <trkpt lat="44.756" lon="4.10019">
        <ele>1121</ele>
        <time>2014-07-12T10:49:09Z</time>
      </trkpt>
      <trkpt lat="44.75566" lon="4.0999">
        <ele>1113</ele>
        <time>2014-07-12T10:49:15Z</time>
      </trkpt>
      <trkpt lat="44.75559" lon="4.09983">
        <ele>1112</ele>
        <time>2014-07-12T10:49:16Z</time>
      </trkpt>
      <trkpt lat="44.75549" lon="4.09966">
        <ele>1111</ele>
        <time>2014-07-12T10:49:18Z</time>
      </trkpt>
      <trkpt lat="44.75536" lon="4.09941">
        <ele>1110</ele>
        <time>2014-07-12T10:49:21Z</time>
      </trkpt>
      <trkpt lat="44.7555" lon="4.09935">
        <ele>1109</ele>
        <time>2014-07-12T10:49:27Z</time>
      </trkpt>
      <trkpt lat="44.75575" lon="4.09939">
        <ele>1108</ele>
        <time>2014-07-12T10:49:31Z</time>
      </trkpt>
      <trkpt lat="44.75599" lon="4.09935">
        <ele>1107</ele>
        <time>2014-07-12T10:49:34Z</time>
      </trkpt>
      <trkpt lat="44.75632" lon="4.09939">
        <ele>1108</ele>
        <time>2014-07-12T10:49:38Z</time>
      </trkpt>
      <trkpt lat="44.75645" lon="4.09916">
        <ele>1101</ele>
        <time>2014-07-12T10:49:42Z</time>
      </trkpt>
      <trkpt lat="44.7567" lon="4.09831">
        <ele>1098</ele>
        <time>2014-07-12T10:50:00Z</time>
      </trkpt>
      <trkpt lat="44.75676" lon="4.09807">
        <ele>1099</ele>
        <time>2014-07-12T10:50:09Z</time>
      </trkpt>
      <trkpt lat="44.75678" lon="4.09782">
        <ele>1097</ele>
        <time>2014-07-12T10:50:32Z</time>
      </trkpt>
      <trkpt lat="44.75673" lon="4.09793">
        <ele>1098</ele>
        <time>2014-07-12T10:51:25Z</time>
      </trkpt>
      <trkpt lat="44.75672" lon="4.09792">
        <ele>1098</ele>
        <time>2014-07-12T10:52:29Z</time>
      </trkpt>
      <trkpt lat="44.75687" lon="4.09749">
        <ele>1086</ele>
        <time>2014-07-12T10:52:40Z</time>
      </trkpt>
      <trkpt lat="44.75704" lon="4.09717">
        <ele>1086</ele>
        <time>2014-07-12T10:52:45Z</time>
      </trkpt>
      <trkpt lat="44.75697" lon="4.0969">
        <ele>1083</ele>
        <time>2014-07-12T10:52:50Z</time>
      </trkpt>
      <trkpt lat="44.75684" lon="4.09685">
        <ele>1081</ele>
        <time>2014-07-12T10:52:52Z</time>
      </trkpt>
      <trkpt lat="44.75668" lon="4.0968">
        <ele>1078</ele>
        <time>2014-07-12T10:52:55Z</time>
      </trkpt>
      <trkpt lat="44.75661" lon="4.09672">
        <ele>1074</ele>
        <time>2014-07-12T10:52:57Z</time>
      </trkpt>
      <trkpt lat="44.75657" lon="4.09643">
        <ele>1069</ele>
        <time>2014-07-12T10:53:01Z</time>
      </trkpt>
      <trkpt lat="44.75662" lon="4.09623">
        <ele>1067</ele>
        <time>2014-07-12T10:53:04Z</time>
      </trkpt>
      <trkpt lat="44.75665" lon="4.09617">
        <ele>1066</ele>
        <time>2014-07-12T10:53:05Z</time>
      </trkpt>
      <trkpt lat="44.75662" lon="4.09604">
        <ele>1064</ele>
        <time>2014-07-12T10:53:09Z</time>
      </trkpt>
      <trkpt lat="44.75656" lon="4.09602">
        <ele>1064</ele>
        <time>2014-07-12T10:53:16Z</time>
      </trkpt>
      <trkpt lat="44.75656" lon="4.0959">
        <ele>1063</ele>
        <time>2014-07-12T10:53:21Z</time>
      </trkpt>
      <trkpt lat="44.75656" lon="4.09586">
        <ele>1062</ele>
        <time>2014-07-12T10:53:22Z</time>
      </trkpt>
      <trkpt lat="44.75658" lon="4.09578">
        <ele>1059</ele>
        <time>2014-07-12T10:53:34Z</time>
      </trkpt>
      <trkpt lat="44.75658" lon="4.09577">
        <ele>1059</ele>
        <time>2014-07-12T10:53:38Z</time>
      </trkpt>
      <trkpt lat="44.75654" lon="4.09574">
        <ele>1059</ele>
        <time>2014-07-12T10:53:40Z</time>
      </trkpt>
      <trkpt lat="44.75621" lon="4.09553">
        <ele>1057</ele>
        <time>2014-07-12T10:53:50Z</time>
      </trkpt>
      <trkpt lat="44.75573" lon="4.0952">
        <ele>1054</ele>
        <time>2014-07-12T10:54:00Z</time>
      </trkpt>
      <trkpt lat="44.75549" lon="4.09539">
        <ele>1054</ele>
        <time>2014-07-12T10:54:05Z</time>
      </trkpt>
      <trkpt lat="44.75477" lon="4.09633">
        <ele>1056</ele>
        <time>2014-07-12T10:54:23Z</time>
      </trkpt>
      <trkpt lat="44.75474" lon="4.09635">
        <ele>1056</ele>
        <time>2014-07-12T10:54:32Z</time>
      </trkpt>
      <trkpt lat="44.75472" lon="4.09634">
        <ele>1055</ele>
        <time>2014-07-12T10:54:48Z</time>
      </trkpt>
      <trkpt lat="44.75466" lon="4.09625">
        <ele>1055</ele>
        <time>2014-07-12T10:54:58Z</time>
      </trkpt>
      <trkpt lat="44.75478" lon="4.09605">
        <ele>1054</ele>
        <time>2014-07-12T10:55:13Z</time>
      </trkpt>
      <trkpt lat="44.7547" lon="4.09603">
        <ele>1054</ele>
        <time>2014-07-12T10:55:40Z</time>
      </trkpt>
      <trkpt lat="44.75475" lon="4.09601">
        <ele>1054</ele>
        <time>2014-07-12T12:40:40Z</time>
      </trkpt>
      <trkpt lat="44.75475" lon="4.09602">
        <ele>1054</ele>
        <time>2014-07-12T12:40:41Z</time>
      </trkpt>
      <trkpt lat="44.75474" lon="4.09601">
        <ele>1054</ele>
        <time>2014-07-12T12:40:51Z</time>
      </trkpt>
      <trkpt lat="44.75467" lon="4.09624">
        <ele>1055</ele>
        <time>2014-07-12T12:41:02Z</time>
      </trkpt>
      <trkpt lat="44.75452" lon="4.0965">
        <ele>1055</ele>
        <time>2014-07-12T12:41:09Z</time>
      </trkpt>
      <trkpt lat="44.75444" lon="4.09665">
        <ele>1054</ele>
        <time>2014-07-12T12:41:11Z</time>
      </trkpt>
      <trkpt lat="44.75426" lon="4.09701">
        <ele>1060</ele>
        <time>2014-07-12T12:41:16Z</time>
      </trkpt>
      <trkpt lat="44.75397" lon="4.09723">
        <ele>1058</ele>
        <time>2014-07-12T12:41:30Z</time>
      </trkpt>
      <trkpt lat="44.75348" lon="4.09782">
        <ele>1060</ele>
        <time>2014-07-12T12:42:02Z</time>
      </trkpt>
      <trkpt lat="44.75279" lon="4.09916">
        <ele>1063</ele>
        <time>2014-07-12T12:42:48Z</time>
      </trkpt>
      <trkpt lat="44.75225" lon="4.10075">
        <ele>1066</ele>
        <time>2014-07-12T12:43:42Z</time>
      </trkpt>
      <trkpt lat="44.75214" lon="4.10206">
        <ele>1063</ele>
        <time>2014-07-12T12:44:18Z</time>
      </trkpt>
      <trkpt lat="44.75187" lon="4.10264">
        <ele>1063</ele>
        <time>2014-07-12T12:44:38Z</time>
      </trkpt>
      <trkpt lat="44.75186" lon="4.10258">
        <ele>1063</ele>
        <time>2014-07-12T12:44:39Z</time>
      </trkpt>
      <trkpt lat="44.75185" lon="4.10252">
        <ele>1062</ele>
        <time>2014-07-12T12:44:40Z</time>
      </trkpt>
      <trkpt lat="44.75151" lon="4.10212">
        <ele>1073</ele>
        <time>2014-07-12T12:44:50Z</time>
      </trkpt>
      <trkpt lat="44.75154" lon="4.10143">
        <ele>1078</ele>
        <time>2014-07-12T12:45:10Z</time>
      </trkpt>
      <trkpt lat="44.75163" lon="4.10095">
        <ele>1077</ele>
        <time>2014-07-12T12:45:38Z</time>
      </trkpt>
      <trkpt lat="44.75148" lon="4.10137">
        <ele>1081</ele>
        <time>2014-07-12T12:45:59Z</time>
      </trkpt>
      <trkpt lat="44.75139" lon="4.10165">
        <ele>1080</ele>
        <time>2014-07-12T12:46:12Z</time>
      </trkpt>
      <trkpt lat="44.75119" lon="4.10214">
        <ele>1080</ele>
        <time>2014-07-12T12:46:36Z</time>
      </trkpt>
      <trkpt lat="44.75098" lon="4.10277">
        <ele>1078</ele>
        <time>2014-07-12T12:47:04Z</time>
      </trkpt>
      <trkpt lat="44.75085" lon="4.10313">
        <ele>1076</ele>
        <time>2014-07-12T12:47:18Z</time>
      </trkpt>
      <trkpt lat="44.75071" lon="4.10346">
        <ele>1085</ele>
        <time>2014-07-12T12:47:34Z</time>
      </trkpt>
      <trkpt lat="44.75049" lon="4.10388">
        <ele>1087</ele>
        <time>2014-07-12T12:47:56Z</time>
      </trkpt>
      <trkpt lat="44.75005" lon="4.10431">
        <ele>1088</ele>
        <time>2014-07-12T12:48:27Z</time>
      </trkpt>
      <trkpt lat="44.74967" lon="4.10465">
        <ele>1099</ele>
        <time>2014-07-12T12:48:52Z</time>
      </trkpt>
      <trkpt lat="44.74934" lon="4.10476">
        <ele>1103</ele>
        <time>2014-07-12T12:49:11Z</time>
      </trkpt>
      <trkpt lat="44.74955" lon="4.10456">
        <ele>1103</ele>
        <time>2014-07-12T12:49:29Z</time>
      </trkpt>
      <trkpt lat="44.7498" lon="4.10397">
        <ele>1115</ele>
        <time>2014-07-12T12:49:55Z</time>
      </trkpt>
      <trkpt lat="44.75001" lon="4.1034">
        <ele>1111</ele>
        <time>2014-07-12T12:50:21Z</time>
      </trkpt>
      <trkpt lat="44.75014" lon="4.1029">
        <ele>1110</ele>
        <time>2014-07-12T12:50:42Z</time>
      </trkpt>
      <trkpt lat="44.75018" lon="4.10247">
        <ele>1122</ele>
        <time>2014-07-12T12:51:05Z</time>
      </trkpt>
      <trkpt lat="44.75006" lon="4.10284">
        <ele>1112</ele>
        <time>2014-07-12T12:51:25Z</time>
      </trkpt>
      <trkpt lat="44.7498" lon="4.10322">
        <ele>1130</ele>
        <time>2014-07-12T12:51:50Z</time>
      </trkpt>
      <trkpt lat="44.74938" lon="4.10368">
        <ele>1127</ele>
        <time>2014-07-12T12:52:19Z</time>
      </trkpt>
      <trkpt lat="44.74911" lon="4.1038">
        <ele>1141</ele>
        <time>2014-07-12T12:52:44Z</time>
      </trkpt>
      <trkpt lat="44.74914" lon="4.10379">
        <ele>1141</ele>
        <time>2014-07-12T12:52:47Z</time>
      </trkpt>
      <trkpt lat="44.74924" lon="4.10351">
        <ele>1134</ele>
        <time>2014-07-12T12:53:00Z</time>
      </trkpt>
      <trkpt lat="44.74944" lon="4.10298">
        <ele>1139</ele>
        <time>2014-07-12T12:53:22Z</time>
      </trkpt>
      <trkpt lat="44.7495" lon="4.10247">
        <ele>1147</ele>
        <time>2014-07-12T12:53:43Z</time>
      </trkpt>
      <trkpt lat="44.74942" lon="4.10215">
        <ele>1149</ele>
        <time>2014-07-12T12:54:03Z</time>
      </trkpt>
      <trkpt lat="44.74914" lon="4.10254">
        <ele>1155</ele>
        <time>2014-07-12T12:54:30Z</time>
      </trkpt>
      <trkpt lat="44.74867" lon="4.10276">
        <ele>1158</ele>
        <time>2014-07-12T12:54:56Z</time>
      </trkpt>
      <trkpt lat="44.74844" lon="4.10269">
        <ele>1161</ele>
        <time>2014-07-12T12:55:12Z</time>
      </trkpt>
      <trkpt lat="44.74849" lon="4.10208">
        <ele>1166</ele>
        <time>2014-07-12T12:55:39Z</time>
      </trkpt>
      <trkpt lat="44.74863" lon="4.10151">
        <ele>1173</ele>
        <time>2014-07-12T12:56:02Z</time>
      </trkpt>
      <trkpt lat="44.74874" lon="4.10093">
        <ele>1175</ele>
        <time>2014-07-12T12:56:29Z</time>
      </trkpt>
      <trkpt lat="44.74881" lon="4.10026">
        <ele>1182</ele>
        <time>2014-07-12T12:56:54Z</time>
      </trkpt>
      <trkpt lat="44.74882" lon="4.09964">
        <ele>1187</ele>
        <time>2014-07-12T12:57:13Z</time>
      </trkpt>
      <trkpt lat="44.74871" lon="4.09892">
        <ele>1191</ele>
        <time>2014-07-12T12:57:41Z</time>
      </trkpt>
      <trkpt lat="44.74861" lon="4.0983">
        <ele>1194</ele>
        <time>2014-07-12T12:58:05Z</time>
      </trkpt>
      <trkpt lat="44.74863" lon="4.09763">
        <ele>1194</ele>
        <time>2014-07-12T12:58:29Z</time>
      </trkpt>
      <trkpt lat="44.74847" lon="4.09693">
        <ele>1197</ele>
        <time>2014-07-12T12:58:54Z</time>
      </trkpt>
      <trkpt lat="44.7481" lon="4.09692">
        <ele>1206</ele>
        <time>2014-07-12T12:59:16Z</time>
      </trkpt>
      <trkpt lat="44.74714" lon="4.09716">
        <ele>1212</ele>
        <time>2014-07-12T12:59:54Z</time>
      </trkpt>
      <trkpt lat="44.74676" lon="4.09677">
        <ele>1215</ele>
        <time>2014-07-12T13:00:15Z</time>
      </trkpt>
      <trkpt lat="44.74634" lon="4.09607">
        <ele>1218</ele>
        <time>2014-07-12T13:00:39Z</time>
      </trkpt>
      <trkpt lat="44.74609" lon="4.09556">
        <ele>1220</ele>
        <time>2014-07-12T13:01:14Z</time>
      </trkpt>
      <trkpt lat="44.74605" lon="4.09554">
        <ele>1220</ele>
        <time>2014-07-12T13:03:03Z</time>
      </trkpt>
      <trkpt lat="44.74606" lon="4.09552">
        <ele>1220</ele>
        <time>2014-07-12T13:04:25Z</time>
      </trkpt>
      <trkpt lat="44.74591" lon="4.09525">
        <ele>1220</ele>
        <time>2014-07-12T13:05:32Z</time>
      </trkpt>
      <trkpt lat="44.74528" lon="4.0938">
        <ele>1222</ele>
        <time>2014-07-12T13:06:08Z</time>
      </trkpt>
      <trkpt lat="44.74523" lon="4.09335">
        <ele>1224</ele>
        <time>2014-07-12T13:06:19Z</time>
      </trkpt>
      <trkpt lat="44.74526" lon="4.09263">
        <ele>1227</ele>
        <time>2014-07-12T13:06:42Z</time>
      </trkpt>
      <trkpt lat="44.74531" lon="4.09184">
        <ele>1231</ele>
        <time>2014-07-12T13:07:07Z</time>
      </trkpt>
      <trkpt lat="44.74558" lon="4.09042">
        <ele>1232</ele>
        <time>2014-07-12T13:07:43Z</time>
      </trkpt>
      <trkpt lat="44.74526" lon="4.0901">
        <ele>1232</ele>
        <time>2014-07-12T13:08:02Z</time>
      </trkpt>
      <trkpt lat="44.74448" lon="4.08979">
        <ele>1233</ele>
        <time>2014-07-12T13:08:27Z</time>
      </trkpt>
      <trkpt lat="44.74361" lon="4.08959">
        <ele>1236</ele>
        <time>2014-07-12T13:08:54Z</time>
      </trkpt>
      <trkpt lat="44.74287" lon="4.08916">
        <ele>1240</ele>
        <time>2014-07-12T13:09:22Z</time>
      </trkpt>
      <trkpt lat="44.74193" lon="4.08863">
        <ele>1238</ele>
        <time>2014-07-12T13:09:48Z</time>
      </trkpt>
      <trkpt lat="44.74157" lon="4.08782">
        <ele>1237</ele>
        <time>2014-07-12T13:10:03Z</time>
      </trkpt>
      <trkpt lat="44.74138" lon="4.08776">
        <ele>1237</ele>
        <time>2014-07-12T13:10:11Z</time>
      </trkpt>
      <trkpt lat="44.74082" lon="4.08757">
        <ele>1239</ele>
        <time>2014-07-12T13:10:34Z</time>
      </trkpt>
      <trkpt lat="44.74045" lon="4.08744">
        <ele>1242</ele>
        <time>2014-07-12T13:10:52Z</time>
      </trkpt>
      <trkpt lat="44.74034" lon="4.08744">
        <ele>1243</ele>
        <time>2014-07-12T13:10:58Z</time>
      </trkpt>
      <trkpt lat="44.74" lon="4.08756">
        <ele>1243</ele>
        <time>2014-07-12T13:11:17Z</time>
      </trkpt>
      <trkpt lat="44.73952" lon="4.0881">
        <ele>1240</ele>
        <time>2014-07-12T13:11:38Z</time>
      </trkpt>
      <trkpt lat="44.73948" lon="4.08814">
        <ele>1240</ele>
        <time>2014-07-12T13:11:39Z</time>
      </trkpt>
      <trkpt lat="44.73937" lon="4.08828">
        <ele>1239</ele>
        <time>2014-07-12T13:11:42Z</time>
      </trkpt>
      <trkpt lat="44.7392" lon="4.08852">
        <ele>1238</ele>
        <time>2014-07-12T13:11:46Z</time>
      </trkpt>
      <trkpt lat="44.739" lon="4.08857">
        <ele>1235</ele>
        <time>2014-07-12T13:11:49Z</time>
      </trkpt>
      <trkpt lat="44.7388" lon="4.08818">
        <ele>1234</ele>
        <time>2014-07-12T13:11:54Z</time>
      </trkpt>
      <trkpt lat="44.73859" lon="4.08768">
        <ele>1232</ele>
        <time>2014-07-12T13:11:59Z</time>
      </trkpt>
      <trkpt lat="44.73837" lon="4.08744">
        <ele>1230</ele>
        <time>2014-07-12T13:12:02Z</time>
      </trkpt>
      <trkpt lat="44.73819" lon="4.08737">
        <ele>1226</ele>
        <time>2014-07-12T13:12:04Z</time>
      </trkpt>
      <trkpt lat="44.7379" lon="4.08725">
        <ele>1223</ele>
        <time>2014-07-12T13:12:07Z</time>
      </trkpt>
      <trkpt lat="44.7378" lon="4.08721">
        <ele>1223</ele>
        <time>2014-07-12T13:12:08Z</time>
      </trkpt>
      <trkpt lat="44.73763" lon="4.08709">
        <ele>1222</ele>
        <time>2014-07-12T13:12:10Z</time>
      </trkpt>
      <trkpt lat="44.73747" lon="4.08679">
        <ele>1215</ele>
        <time>2014-07-12T13:12:13Z</time>
      </trkpt>
      <trkpt lat="44.73746" lon="4.08616">
        <ele>1214</ele>
        <time>2014-07-12T13:12:18Z</time>
      </trkpt>
      <trkpt lat="44.73753" lon="4.08572">
        <ele>1218</ele>
        <time>2014-07-12T13:12:22Z</time>
      </trkpt>
      <trkpt lat="44.73736" lon="4.08558">
        <ele>1218</ele>
        <time>2014-07-12T13:12:26Z</time>
      </trkpt>
      <trkpt lat="44.73676" lon="4.08559">
        <ele>1217</ele>
        <time>2014-07-12T13:12:39Z</time>
      </trkpt>
      <trkpt lat="44.73673" lon="4.08561">
        <ele>1217</ele>
        <time>2014-07-12T13:12:40Z</time>
      </trkpt>
      <trkpt lat="44.73631" lon="4.086">
        <ele>1210</ele>
        <time>2014-07-12T13:13:01Z</time>
      </trkpt>
      <trkpt lat="44.73589" lon="4.08627">
        <ele>1208</ele>
        <time>2014-07-12T13:13:12Z</time>
      </trkpt>
      <trkpt lat="44.73558" lon="4.08691">
        <ele>1197</ele>
        <time>2014-07-12T13:13:23Z</time>
      </trkpt>
      <trkpt lat="44.73515" lon="4.08743">
        <ele>1193</ele>
        <time>2014-07-12T13:13:33Z</time>
      </trkpt>
      <trkpt lat="44.73432" lon="4.08747">
        <ele>1188</ele>
        <time>2014-07-12T13:13:49Z</time>
      </trkpt>
      <trkpt lat="44.73392" lon="4.08734">
        <ele>1183</ele>
        <time>2014-07-12T13:13:56Z</time>
      </trkpt>
      <trkpt lat="44.73382" lon="4.08729">
        <ele>1182</ele>
        <time>2014-07-12T13:13:58Z</time>
      </trkpt>
      <trkpt lat="44.7337" lon="4.08722">
        <ele>1182</ele>
        <time>2014-07-12T13:14:01Z</time>
      </trkpt>
      <trkpt lat="44.73343" lon="4.08713">
        <ele>1181</ele>
        <time>2014-07-12T13:14:07Z</time>
      </trkpt>
      <trkpt lat="44.73316" lon="4.08705">
        <ele>1173</ele>
        <time>2014-07-12T13:14:11Z</time>
      </trkpt>
      <trkpt lat="44.73308" lon="4.08701">
        <ele>1173</ele>
        <time>2014-07-12T13:14:12Z</time>
      </trkpt>
      <trkpt lat="44.73272" lon="4.08683">
        <ele>1173</ele>
        <time>2014-07-12T13:14:16Z</time>
      </trkpt>
      <trkpt lat="44.73229" lon="4.0868">
        <ele>1168</ele>
        <time>2014-07-12T13:14:20Z</time>
      </trkpt>
      <trkpt lat="44.73145" lon="4.08726">
        <ele>1155</ele>
        <time>2014-07-12T13:14:28Z</time>
      </trkpt>
      <trkpt lat="44.7311" lon="4.08726">
        <ele>1152</ele>
        <time>2014-07-12T13:14:32Z</time>
      </trkpt>
      <trkpt lat="44.73104" lon="4.08686">
        <ele>1155</ele>
        <time>2014-07-12T13:14:37Z</time>
      </trkpt>
      <trkpt lat="44.73075" lon="4.0866">
        <ele>1155</ele>
        <time>2014-07-12T13:14:42Z</time>
      </trkpt>
      <trkpt lat="44.73034" lon="4.08666">
        <ele>1153</ele>
        <time>2014-07-12T13:14:47Z</time>
      </trkpt>
      <trkpt lat="44.72998" lon="4.0868">
        <ele>1141</ele>
        <time>2014-07-12T13:14:52Z</time>
      </trkpt>
      <trkpt lat="44.72959" lon="4.08667">
        <ele>1143</ele>
        <time>2014-07-12T13:14:58Z</time>
      </trkpt>
      <trkpt lat="44.72934" lon="4.08704">
        <ele>1136</ele>
        <time>2014-07-12T13:15:04Z</time>
      </trkpt>
      <trkpt lat="44.72945" lon="4.08721">
        <ele>1135</ele>
        <time>2014-07-12T13:15:09Z</time>
      </trkpt>
      <trkpt lat="44.72942" lon="4.08741">
        <ele>1134</ele>
        <time>2014-07-12T13:15:14Z</time>
      </trkpt>
      <trkpt lat="44.72936" lon="4.08745">
        <ele>1133</ele>
        <time>2014-07-12T13:15:15Z</time>
      </trkpt>
      <trkpt lat="44.72902" lon="4.08767">
        <ele>1127</ele>
        <time>2014-07-12T13:15:20Z</time>
      </trkpt>
      <trkpt lat="44.72874" lon="4.08777">
        <ele>1125</ele>
        <time>2014-07-12T13:15:25Z</time>
      </trkpt>
      <trkpt lat="44.72866" lon="4.08799">
        <ele>1124</ele>
        <time>2014-07-12T13:15:30Z</time>
      </trkpt>
      <trkpt lat="44.7284" lon="4.08854">
        <ele>1123</ele>
        <time>2014-07-12T13:15:50Z</time>
      </trkpt>
      <trkpt lat="44.72811" lon="4.08892">
        <ele>1127</ele>
        <time>2014-07-12T13:16:10Z</time>
      </trkpt>
      <trkpt lat="44.72742" lon="4.08868">
        <ele>1135</ele>
        <time>2014-07-12T13:16:44Z</time>
      </trkpt>
      <trkpt lat="44.72713" lon="4.08868">
        <ele>1137</ele>
        <time>2014-07-12T13:17:03Z</time>
      </trkpt>
      <trkpt lat="44.72686" lon="4.0886">
        <ele>1139</ele>
        <time>2014-07-12T13:17:18Z</time>
      </trkpt>
      <trkpt lat="44.72677" lon="4.08861">
        <ele>1140</ele>
        <time>2014-07-12T13:17:25Z</time>
      </trkpt>
      <trkpt lat="44.72668" lon="4.08866">
        <ele>1140</ele>
        <time>2014-07-12T13:18:02Z</time>
      </trkpt>
      <trkpt lat="44.72653" lon="4.08876">
        <ele>1153</ele>
        <time>2014-07-12T13:18:31Z</time>
      </trkpt>
      <trkpt lat="44.72637" lon="4.08875">
        <ele>1155</ele>
        <time>2014-07-12T13:18:52Z</time>
      </trkpt>
      <trkpt lat="44.72628" lon="4.08875">
        <ele>1156</ele>
        <time>2014-07-12T13:19:15Z</time>
      </trkpt>
      <trkpt lat="44.72628" lon="4.08875">
        <ele>1156</ele>
        <time>2014-07-12T13:19:18Z</time>
      </trkpt>
      <trkpt lat="44.72613" lon="4.08885">
        <ele>1159</ele>
        <time>2014-07-12T13:19:45Z</time>
      </trkpt>
      <trkpt lat="44.72596" lon="4.08894">
        <ele>1163</ele>
        <time>2014-07-12T13:20:14Z</time>
      </trkpt>
      <trkpt lat="44.72589" lon="4.08899">
        <ele>1165</ele>
        <time>2014-07-12T13:20:30Z</time>
      </trkpt>
      <trkpt lat="44.72575" lon="4.08912">
        <ele>1173</ele>
        <time>2014-07-12T13:20:57Z</time>
      </trkpt>
      <trkpt lat="44.72564" lon="4.08932">
        <ele>1182</ele>
        <time>2014-07-12T13:21:25Z</time>
      </trkpt>
      <trkpt lat="44.72555" lon="4.08946">
        <ele>1185</ele>
        <time>2014-07-12T13:21:43Z</time>
      </trkpt>
      <trkpt lat="44.72546" lon="4.08963">
        <ele>1188</ele>
        <time>2014-07-12T13:22:08Z</time>
      </trkpt>
      <trkpt lat="44.72537" lon="4.08967">
        <ele>1189</ele>
        <time>2014-07-12T13:23:31Z</time>
      </trkpt>
      <trkpt lat="44.72525" lon="4.08982">
        <ele>1193</ele>
        <time>2014-07-12T13:25:05Z</time>
      </trkpt>
      <trkpt lat="44.72496" lon="4.08998">
        <ele>1206</ele>
        <time>2014-07-12T13:25:23Z</time>
      </trkpt>
      <trkpt lat="44.72485" lon="4.09009">
        <ele>1212</ele>
        <time>2014-07-12T13:25:35Z</time>
      </trkpt>
      <trkpt lat="44.72471" lon="4.09017">
        <ele>1214</ele>
        <time>2014-07-12T13:25:48Z</time>
      </trkpt>
      <trkpt lat="44.72459" lon="4.09028">
        <ele>1215</ele>
        <time>2014-07-12T13:26:18Z</time>
      </trkpt>
      <trkpt lat="44.72448" lon="4.09046">
        <ele>1217</ele>
        <time>2014-07-12T13:26:42Z</time>
      </trkpt>
      <trkpt lat="44.72435" lon="4.09055">
        <ele>1219</ele>
        <time>2014-07-12T13:26:57Z</time>
      </trkpt>
      <trkpt lat="44.72421" lon="4.09068">
        <ele>1222</ele>
        <time>2014-07-12T13:27:27Z</time>
      </trkpt>
      <trkpt lat="44.72401" lon="4.09073">
        <ele>1224</ele>
        <time>2014-07-12T13:28:42Z</time>
      </trkpt>
      <trkpt lat="44.72335" lon="4.09105">
        <ele>1233</ele>
        <time>2014-07-12T13:29:07Z</time>
      </trkpt>
      <trkpt lat="44.72286" lon="4.0914">
        <ele>1238</ele>
        <time>2014-07-12T13:29:25Z</time>
      </trkpt>
      <trkpt lat="44.72256" lon="4.09093">
        <ele>1232</ele>
        <time>2014-07-12T13:29:42Z</time>
      </trkpt>
      <trkpt lat="44.72188" lon="4.09117">
        <ele>1239</ele>
        <time>2014-07-12T13:30:09Z</time>
      </trkpt>
      <trkpt lat="44.72132" lon="4.09127">
        <ele>1248</ele>
        <time>2014-07-12T13:30:33Z</time>
      </trkpt>
      <trkpt lat="44.72126" lon="4.09074">
        <ele>1236</ele>
        <time>2014-07-12T13:30:49Z</time>
      </trkpt>
      <trkpt lat="44.72118" lon="4.09051">
        <ele>1236</ele>
        <time>2014-07-12T13:30:57Z</time>
      </trkpt>
      <trkpt lat="44.72084" lon="4.09003">
        <ele>1238</ele>
        <time>2014-07-12T13:31:16Z</time>
      </trkpt>
      <trkpt lat="44.72029" lon="4.09015">
        <ele>1246</ele>
        <time>2014-07-12T13:31:41Z</time>
      </trkpt>
      <trkpt lat="44.72" lon="4.09039">
        <ele>1250</ele>
        <time>2014-07-12T13:31:54Z</time>
      </trkpt>
      <trkpt lat="44.7191" lon="4.09066">
        <ele>1254</ele>
        <time>2014-07-12T13:32:24Z</time>
      </trkpt>
      <trkpt lat="44.71822" lon="4.09097">
        <ele>1261</ele>
        <time>2014-07-12T13:32:54Z</time>
      </trkpt>
      <trkpt lat="44.71782" lon="4.09131">
        <ele>1266</ele>
        <time>2014-07-12T13:33:06Z</time>
      </trkpt>
      <trkpt lat="44.71768" lon="4.09104">
        <ele>1266</ele>
        <time>2014-07-12T13:33:13Z</time>
      </trkpt>
      <trkpt lat="44.7177" lon="4.09095">
        <ele>1266</ele>
        <time>2014-07-12T13:33:15Z</time>
      </trkpt>
      <trkpt lat="44.71807" lon="4.08966">
        <ele>1267</ele>
        <time>2014-07-12T13:33:46Z</time>
      </trkpt>
      <trkpt lat="44.71839" lon="4.08839">
        <ele>1259</ele>
        <time>2014-07-12T13:34:13Z</time>
      </trkpt>
      <trkpt lat="44.71839" lon="4.08773">
        <ele>1251</ele>
        <time>2014-07-12T13:34:27Z</time>
      </trkpt>
      <trkpt lat="44.71788" lon="4.08662">
        <ele>1258</ele>
        <time>2014-07-12T13:34:55Z</time>
      </trkpt>
      <trkpt lat="44.71742" lon="4.08605">
        <ele>1269</ele>
        <time>2014-07-12T13:35:17Z</time>
      </trkpt>
      <trkpt lat="44.71705" lon="4.08569">
        <ele>1258</ele>
        <time>2014-07-12T13:35:31Z</time>
      </trkpt>
      <trkpt lat="44.71667" lon="4.08558">
        <ele>1261</ele>
        <time>2014-07-12T13:35:42Z</time>
      </trkpt>
      <trkpt lat="44.71649" lon="4.08552">
        <ele>1277</ele>
        <time>2014-07-12T13:35:47Z</time>
      </trkpt>
      <trkpt lat="44.71633" lon="4.08514">
        <ele>1275</ele>
        <time>2014-07-12T13:35:55Z</time>
      </trkpt>
      <trkpt lat="44.71617" lon="4.08297">
        <ele>1260</ele>
        <time>2014-07-12T13:36:34Z</time>
      </trkpt>
      <trkpt lat="44.71613" lon="4.08235">
        <ele>1257</ele>
        <time>2014-07-12T13:36:46Z</time>
      </trkpt>
      <trkpt lat="44.7156" lon="4.08209">
        <ele>1265</ele>
        <time>2014-07-12T13:37:09Z</time>
      </trkpt>
      <trkpt lat="44.71488" lon="4.08239">
        <ele>1271</ele>
        <time>2014-07-12T13:37:35Z</time>
      </trkpt>
      <trkpt lat="44.71442" lon="4.08246">
        <ele>1271</ele>
        <time>2014-07-12T13:37:59Z</time>
      </trkpt>
      <trkpt lat="44.71343" lon="4.08198">
        <ele>1272</ele>
        <time>2014-07-12T13:38:43Z</time>
      </trkpt>
      <trkpt lat="44.71257" lon="4.08249">
        <ele>1280</ele>
        <time>2014-07-12T13:39:13Z</time>
      </trkpt>
      <trkpt lat="44.71178" lon="4.08271">
        <ele>1291</ele>
        <time>2014-07-12T13:39:40Z</time>
      </trkpt>
      <trkpt lat="44.71159" lon="4.08183">
        <ele>1292</ele>
        <time>2014-07-12T13:40:02Z</time>
      </trkpt>
      <trkpt lat="44.71156" lon="4.08116">
        <ele>1288</ele>
        <time>2014-07-12T13:40:33Z</time>
      </trkpt>
      <trkpt lat="44.71124" lon="4.08041">
        <ele>1278</ele>
        <time>2014-07-12T13:40:58Z</time>
      </trkpt>
      <trkpt lat="44.71115" lon="4.08036">
        <ele>1278</ele>
        <time>2014-07-12T13:41:28Z</time>
      </trkpt>
      <trkpt lat="44.71111" lon="4.08035">
        <ele>1278</ele>
        <time>2014-07-12T13:43:00Z</time>
      </trkpt>
      <trkpt lat="44.71068" lon="4.08044">
        <ele>1279</ele>
        <time>2014-07-12T13:43:14Z</time>
      </trkpt>
      <trkpt lat="44.7103" lon="4.08064">
        <ele>1278</ele>
        <time>2014-07-12T13:43:23Z</time>
      </trkpt>
      <trkpt lat="44.70985" lon="4.08103">
        <ele>1278</ele>
        <time>2014-07-12T13:43:33Z</time>
      </trkpt>
      <trkpt lat="44.70962" lon="4.08128">
        <ele>1278</ele>
        <time>2014-07-12T13:43:41Z</time>
      </trkpt>
      <trkpt lat="44.7096" lon="4.08142">
        <ele>1279</ele>
        <time>2014-07-12T13:43:46Z</time>
      </trkpt>
      <trkpt lat="44.70954" lon="4.08164">
        <ele>1279</ele>
        <time>2014-07-12T13:43:56Z</time>
      </trkpt>
      <trkpt lat="44.70945" lon="4.08208">
        <ele>1289</ele>
        <time>2014-07-12T13:44:16Z</time>
      </trkpt>
      <trkpt lat="44.70911" lon="4.0827">
        <ele>1292</ele>
        <time>2014-07-12T13:44:47Z</time>
      </trkpt>
      <trkpt lat="44.70912" lon="4.08282">
        <ele>1293</ele>
        <time>2014-07-12T13:44:52Z</time>
      </trkpt>
      <trkpt lat="44.70887" lon="4.08308">
        <ele>1294</ele>
        <time>2014-07-12T13:45:10Z</time>
      </trkpt>
      <trkpt lat="44.70871" lon="4.0832">
        <ele>1294</ele>
        <time>2014-07-12T13:45:17Z</time>
      </trkpt>
      <trkpt lat="44.70869" lon="4.08322">
        <ele>1294</ele>
        <time>2014-07-12T13:45:18Z</time>
      </trkpt>
      <trkpt lat="44.70843" lon="4.08336">
        <ele>1295</ele>
        <time>2014-07-12T13:45:30Z</time>
      </trkpt>
      <trkpt lat="44.70813" lon="4.08363">
        <ele>1293</ele>
        <time>2014-07-12T13:45:47Z</time>
      </trkpt>
      <trkpt lat="44.7079" lon="4.08409">
        <ele>1293</ele>
        <time>2014-07-12T13:46:08Z</time>
      </trkpt>
      <trkpt lat="44.70766" lon="4.08413">
        <ele>1291</ele>
        <time>2014-07-12T13:46:22Z</time>
      </trkpt>
      <trkpt lat="44.70716" lon="4.08314">
        <ele>1289</ele>
        <time>2014-07-12T13:46:52Z</time>
      </trkpt>
      <trkpt lat="44.70671" lon="4.08216">
        <ele>1290</ele>
        <time>2014-07-12T13:47:20Z</time>
      </trkpt>
      <trkpt lat="44.7066" lon="4.08122">
        <ele>1296</ele>
        <time>2014-07-12T13:47:46Z</time>
      </trkpt>
      <trkpt lat="44.70655" lon="4.08085">
        <ele>1297</ele>
        <time>2014-07-12T13:47:56Z</time>
      </trkpt>
      <trkpt lat="44.70648" lon="4.08067">
        <ele>1299</ele>
        <time>2014-07-12T13:48:02Z</time>
      </trkpt>
      <trkpt lat="44.70593" lon="4.08005">
        <ele>1304</ele>
        <time>2014-07-12T13:48:40Z</time>
      </trkpt>
      <trkpt lat="44.70568" lon="4.07991">
        <ele>1310</ele>
        <time>2014-07-12T13:48:52Z</time>
      </trkpt>
      <trkpt lat="44.70519" lon="4.07966">
        <ele>1315</ele>
        <time>2014-07-12T13:49:17Z</time>
      </trkpt>
      <trkpt lat="44.70499" lon="4.07953">
        <ele>1320</ele>
        <time>2014-07-12T13:49:26Z</time>
      </trkpt>
      <trkpt lat="44.70468" lon="4.07942">
        <ele>1321</ele>
        <time>2014-07-12T13:49:47Z</time>
      </trkpt>
      <trkpt lat="44.70458" lon="4.07923">
        <ele>1322</ele>
        <time>2014-07-12T13:50:01Z</time>
      </trkpt>
      <trkpt lat="44.70453" lon="4.07917">
        <ele>1322</ele>
        <time>2014-07-12T13:50:06Z</time>
      </trkpt>
      <trkpt lat="44.70429" lon="4.07885">
        <ele>1328</ele>
        <time>2014-07-12T13:50:26Z</time>
      </trkpt>
      <trkpt lat="44.70389" lon="4.07833">
        <ele>1335</ele>
        <time>2014-07-12T13:50:56Z</time>
      </trkpt>
      <trkpt lat="44.70358" lon="4.07788">
        <ele>1337</ele>
        <time>2014-07-12T13:51:21Z</time>
      </trkpt>
      <trkpt lat="44.70298" lon="4.07648">
        <ele>1338</ele>
        <time>2014-07-12T13:52:10Z</time>
      </trkpt>
      <trkpt lat="44.70222" lon="4.07483">
        <ele>1332</ele>
        <time>2014-07-12T13:52:55Z</time>
      </trkpt>
      <trkpt lat="44.70199" lon="4.07434">
        <ele>1330</ele>
        <time>2014-07-12T13:53:04Z</time>
      </trkpt>
      <trkpt lat="44.70103" lon="4.07245">
        <ele>1329</ele>
        <time>2014-07-12T13:53:49Z</time>
      </trkpt>
      <trkpt lat="44.7005" lon="4.0713">
        <ele>1331</ele>
        <time>2014-07-12T13:54:23Z</time>
      </trkpt>
      <trkpt lat="44.69992" lon="4.07007">
        <ele>1336</ele>
        <time>2014-07-12T13:55:00Z</time>
      </trkpt>
      <trkpt lat="44.6994" lon="4.06918">
        <ele>1338</ele>
        <time>2014-07-12T13:55:33Z</time>
      </trkpt>
      <trkpt lat="44.69938" lon="4.06914">
        <ele>1339</ele>
        <time>2014-07-12T13:55:34Z</time>
      </trkpt>
      <trkpt lat="44.6991" lon="4.06867">
        <ele>1337</ele>
        <time>2014-07-12T13:55:43Z</time>
      </trkpt>
      <trkpt lat="44.69906" lon="4.06862">
        <ele>1337</ele>
        <time>2014-07-12T13:55:44Z</time>
      </trkpt>
      <trkpt lat="44.69859" lon="4.0676">
        <ele>1340</ele>
        <time>2014-07-12T13:56:11Z</time>
      </trkpt>
      <trkpt lat="44.69844" lon="4.06702">
        <ele>1341</ele>
        <time>2014-07-12T13:56:25Z</time>
      </trkpt>
      <trkpt lat="44.69841" lon="4.06693">
        <ele>1341</ele>
        <time>2014-07-12T13:56:27Z</time>
      </trkpt>
      <trkpt lat="44.69823" lon="4.06631">
        <ele>1347</ele>
        <time>2014-07-12T13:56:52Z</time>
      </trkpt>
      <trkpt lat="44.69807" lon="4.06597">
        <ele>1347</ele>
        <time>2014-07-12T13:57:08Z</time>
      </trkpt>
      <trkpt lat="44.69773" lon="4.0655">
        <ele>1349</ele>
        <time>2014-07-12T13:57:34Z</time>
      </trkpt>
      <trkpt lat="44.69759" lon="4.06525">
        <ele>1350</ele>
        <time>2014-07-12T13:57:48Z</time>
      </trkpt>
      <trkpt lat="44.6975" lon="4.0651">
        <ele>1350</ele>
        <time>2014-07-12T13:57:57Z</time>
      </trkpt>
      <trkpt lat="44.6974" lon="4.06491">
        <ele>1350</ele>
        <time>2014-07-12T13:58:07Z</time>
      </trkpt>
      <trkpt lat="44.69719" lon="4.06451">
        <ele>1350</ele>
        <time>2014-07-12T13:58:22Z</time>
      </trkpt>
      <trkpt lat="44.69719" lon="4.06378">
        <ele>1350</ele>
        <time>2014-07-12T13:58:49Z</time>
      </trkpt>
      <trkpt lat="44.6974" lon="4.06216">
        <ele>1351</ele>
        <time>2014-07-12T13:59:37Z</time>
      </trkpt>
      <trkpt lat="44.69764" lon="4.06086">
        <ele>1354</ele>
        <time>2014-07-12T14:00:19Z</time>
      </trkpt>
      <trkpt lat="44.69778" lon="4.06062">
        <ele>1355</ele>
        <time>2014-07-12T14:00:32Z</time>
      </trkpt>
      <trkpt lat="44.69794" lon="4.06032">
        <ele>1355</ele>
        <time>2014-07-12T14:01:07Z</time>
      </trkpt>
      <trkpt lat="44.69796" lon="4.06032">
        <ele>1355</ele>
        <time>2014-07-12T14:02:37Z</time>
      </trkpt>
      <trkpt lat="44.698" lon="4.06034">
        <ele>1355</ele>
        <time>2014-07-12T14:04:35Z</time>
      </trkpt>
      <trkpt lat="44.69796" lon="4.06031">
        <ele>1355</ele>
        <time>2014-07-12T14:05:50Z</time>
      </trkpt>
      <trkpt lat="44.69795" lon="4.06037">
        <ele>1355</ele>
        <time>2014-07-12T14:08:42Z</time>
      </trkpt>
      <trkpt lat="44.69795" lon="4.06035">
        <ele>1355</ele>
        <time>2014-07-12T14:12:14Z</time>
      </trkpt>
      <trkpt lat="44.69792" lon="4.06036">
        <ele>1355</ele>
        <time>2014-07-12T14:15:03Z</time>
      </trkpt>
      <trkpt lat="44.69792" lon="4.06035">
        <ele>1355</ele>
        <time>2014-07-12T14:17:34Z</time>
      </trkpt>
      <trkpt lat="44.69792" lon="4.06032">
        <ele>1355</ele>
        <time>2014-07-12T14:20:52Z</time>
      </trkpt>
      <trkpt lat="44.69797" lon="4.06001">
        <ele>1355</ele>
        <time>2014-07-12T14:21:05Z</time>
      </trkpt>
      <trkpt lat="44.69806" lon="4.05925">
        <ele>1356</ele>
        <time>2014-07-12T14:21:34Z</time>
      </trkpt>
      <trkpt lat="44.69804" lon="4.0592">
        <ele>1356</ele>
        <time>2014-07-12T14:21:41Z</time>
      </trkpt>
      <trkpt lat="44.69808" lon="4.05876">
        <ele>1356</ele>
        <time>2014-07-12T14:22:19Z</time>
      </trkpt>
      <trkpt lat="44.69815" lon="4.05826">
        <ele>1355</ele>
        <time>2014-07-12T14:22:56Z</time>
      </trkpt>
      <trkpt lat="44.69823" lon="4.05732">
        <ele>1354</ele>
        <time>2014-07-12T14:23:24Z</time>
      </trkpt>
      <trkpt lat="44.6983" lon="4.05711">
        <ele>1354</ele>
        <time>2014-07-12T14:23:31Z</time>
      </trkpt>
      <trkpt lat="44.69921" lon="4.05549">
        <ele>1353</ele>
        <time>2014-07-12T14:24:05Z</time>
      </trkpt>
      <trkpt lat="44.6995" lon="4.05479">
        <ele>1354</ele>
        <time>2014-07-12T14:24:18Z</time>
      </trkpt>
      <trkpt lat="44.69974" lon="4.05384">
        <ele>1360</ele>
        <time>2014-07-12T14:24:45Z</time>
      </trkpt>
      <trkpt lat="44.69962" lon="4.05341">
        <ele>1363</ele>
        <time>2014-07-12T14:25:01Z</time>
      </trkpt>
      <trkpt lat="44.69947" lon="4.05323">
        <ele>1371</ele>
        <time>2014-07-12T14:25:13Z</time>
      </trkpt>
      <trkpt lat="44.69924" lon="4.05295">
        <ele>1373</ele>
        <time>2014-07-12T14:25:35Z</time>
      </trkpt>
      <trkpt lat="44.69914" lon="4.05271">
        <ele>1372</ele>
        <time>2014-07-12T14:25:49Z</time>
      </trkpt>
      <trkpt lat="44.69908" lon="4.05251">
        <ele>1375</ele>
        <time>2014-07-12T14:26:03Z</time>
      </trkpt>
      <trkpt lat="44.69905" lon="4.05231">
        <ele>1379</ele>
        <time>2014-07-12T14:26:35Z</time>
      </trkpt>
      <trkpt lat="44.69901" lon="4.0523">
        <ele>1379</ele>
        <time>2014-07-12T14:27:10Z</time>
      </trkpt>
      <trkpt lat="44.69853" lon="4.05159">
        <ele>1384</ele>
        <time>2014-07-12T14:27:37Z</time>
      </trkpt>
      <trkpt lat="44.69752" lon="4.05007">
        <ele>1385</ele>
        <time>2014-07-12T14:28:23Z</time>
      </trkpt>
      <trkpt lat="44.69675" lon="4.04885">
        <ele>1391</ele>
        <time>2014-07-12T14:28:54Z</time>
      </trkpt>
      <trkpt lat="44.69662" lon="4.04857">
        <ele>1382</ele>
        <time>2014-07-12T14:29:01Z</time>
      </trkpt>
      <trkpt lat="44.6966" lon="4.04785">
        <ele>1387</ele>
        <time>2014-07-12T14:29:18Z</time>
      </trkpt>
      <trkpt lat="44.69657" lon="4.04729">
        <ele>1394</ele>
        <time>2014-07-12T14:29:32Z</time>
      </trkpt>
      <trkpt lat="44.69649" lon="4.04559">
        <ele>1399</ele>
        <time>2014-07-12T14:30:16Z</time>
      </trkpt>
      <trkpt lat="44.69649" lon="4.04511">
        <ele>1399</ele>
        <time>2014-07-12T14:30:27Z</time>
      </trkpt>
      <trkpt lat="44.69649" lon="4.04506">
        <ele>1400</ele>
        <time>2014-07-12T14:30:28Z</time>
      </trkpt>
      <trkpt lat="44.69626" lon="4.04401">
        <ele>1394</ele>
        <time>2014-07-12T14:30:41Z</time>
      </trkpt>
      <trkpt lat="44.69607" lon="4.04363">
        <ele>1393</ele>
        <time>2014-07-12T14:30:47Z</time>
      </trkpt>
      <trkpt lat="44.69594" lon="4.04341">
        <ele>1392</ele>
        <time>2014-07-12T14:30:53Z</time>
      </trkpt>
      <trkpt lat="44.6958" lon="4.04312">
        <ele>1390</ele>
        <time>2014-07-12T14:30:59Z</time>
      </trkpt>
      <trkpt lat="44.69591" lon="4.0423">
        <ele>1385</ele>
        <time>2014-07-12T14:31:11Z</time>
      </trkpt>
      <trkpt lat="44.69586" lon="4.04154">
        <ele>1380</ele>
        <time>2014-07-12T14:31:21Z</time>
      </trkpt>
      <trkpt lat="44.6957" lon="4.04058">
        <ele>1373</ele>
        <time>2014-07-12T14:31:33Z</time>
      </trkpt>
      <trkpt lat="44.69565" lon="4.04019">
        <ele>1370</ele>
        <time>2014-07-12T14:31:37Z</time>
      </trkpt>
      <trkpt lat="44.69562" lon="4.03977">
        <ele>1364</ele>
        <time>2014-07-12T14:31:43Z</time>
      </trkpt>
      <trkpt lat="44.69558" lon="4.03911">
        <ele>1357</ele>
        <time>2014-07-12T14:31:51Z</time>
      </trkpt>
      <trkpt lat="44.69556" lon="4.03893">
        <ele>1357</ele>
        <time>2014-07-12T14:31:53Z</time>
      </trkpt>
      <trkpt lat="44.69546" lon="4.03796">
        <ele>1353</ele>
        <time>2014-07-12T14:32:04Z</time>
      </trkpt>
      <trkpt lat="44.69543" lon="4.03703">
        <ele>1348</ele>
        <time>2014-07-12T14:32:14Z</time>
      </trkpt>
      <trkpt lat="44.6954" lon="4.03608">
        <ele>1344</ele>
        <time>2014-07-12T14:32:23Z</time>
      </trkpt>
      <trkpt lat="44.69538" lon="4.03525">
        <ele>1340</ele>
        <time>2014-07-12T14:32:31Z</time>
      </trkpt>
      <trkpt lat="44.69534" lon="4.0347">
        <ele>1335</ele>
        <time>2014-07-12T14:32:36Z</time>
      </trkpt>
      <trkpt lat="44.69528" lon="4.03411">
        <ele>1329</ele>
        <time>2014-07-12T14:32:41Z</time>
      </trkpt>
      <trkpt lat="44.69523" lon="4.03377">
        <ele>1328</ele>
        <time>2014-07-12T14:32:45Z</time>
      </trkpt>
      <trkpt lat="44.69526" lon="4.03335">
        <ele>1326</ele>
        <time>2014-07-12T14:32:51Z</time>
      </trkpt>
      <trkpt lat="44.69531" lon="4.03306">
        <ele>1319</ele>
        <time>2014-07-12T14:32:57Z</time>
      </trkpt>
      <trkpt lat="44.69533" lon="4.03296">
        <ele>1318</ele>
        <time>2014-07-12T14:33:09Z</time>
      </trkpt>
      <trkpt lat="44.69528" lon="4.0329">
        <ele>1318</ele>
        <time>2014-07-12T14:34:14Z</time>
      </trkpt>
      <trkpt lat="44.69561" lon="4.03289">
        <ele>1318</ele>
        <time>2014-07-12T14:34:26Z</time>
      </trkpt>
      <trkpt lat="44.69577" lon="4.03296">
        <ele>1319</ele>
        <time>2014-07-12T14:34:30Z</time>
      </trkpt>
      <trkpt lat="44.69612" lon="4.03324">
        <ele>1323</ele>
        <time>2014-07-12T14:34:38Z</time>
      </trkpt>
      <trkpt lat="44.69639" lon="4.03305">
        <ele>1322</ele>
        <time>2014-07-12T14:34:44Z</time>
      </trkpt>
      <trkpt lat="44.69633" lon="4.03277">
        <ele>1322</ele>
        <time>2014-07-12T14:34:47Z</time>
      </trkpt>
      <trkpt lat="44.69602" lon="4.032">
        <ele>1314</ele>
        <time>2014-07-12T14:34:55Z</time>
      </trkpt>
      <trkpt lat="44.69601" lon="4.03043">
        <ele>1303</ele>
        <time>2014-07-12T14:35:07Z</time>
      </trkpt>
      <trkpt lat="44.69646" lon="4.02935">
        <ele>1297</ele>
        <time>2014-07-12T14:35:16Z</time>
      </trkpt>
      <trkpt lat="44.69667" lon="4.02889">
        <ele>1302</ele>
        <time>2014-07-12T14:35:20Z</time>
      </trkpt>
      <trkpt lat="44.69711" lon="4.02768">
        <ele>1292</ele>
        <time>2014-07-12T14:35:30Z</time>
      </trkpt>
      <trkpt lat="44.69769" lon="4.02604">
        <ele>1292</ele>
        <time>2014-07-12T14:35:47Z</time>
      </trkpt>
      <trkpt lat="44.69787" lon="4.02561">
        <ele>1288</ele>
        <time>2014-07-12T14:35:52Z</time>
      </trkpt>
      <trkpt lat="44.6979" lon="4.02552">
        <ele>1288</ele>
        <time>2014-07-12T14:35:53Z</time>
      </trkpt>
      <trkpt lat="44.69801" lon="4.02474">
        <ele>1282</ele>
        <time>2014-07-12T14:36:00Z</time>
      </trkpt>
      <trkpt lat="44.69785" lon="4.02376">
        <ele>1278</ele>
        <time>2014-07-12T14:36:08Z</time>
      </trkpt>
      <trkpt lat="44.69768" lon="4.02312">
        <ele>1276</ele>
        <time>2014-07-12T14:36:13Z</time>
      </trkpt>
      <trkpt lat="44.69756" lon="4.02259">
        <ele>1272</ele>
        <time>2014-07-12T14:36:17Z</time>
      </trkpt>
      <trkpt lat="44.6975" lon="4.02206">
        <ele>1266</ele>
        <time>2014-07-12T14:36:21Z</time>
      </trkpt>
      <trkpt lat="44.69754" lon="4.02157">
        <ele>1268</ele>
        <time>2014-07-12T14:36:25Z</time>
      </trkpt>
      <trkpt lat="44.69763" lon="4.02128">
        <ele>1268</ele>
        <time>2014-07-12T14:36:28Z</time>
      </trkpt>
      <trkpt lat="44.69764" lon="4.02097">
        <ele>1266</ele>
        <time>2014-07-12T14:36:34Z</time>
      </trkpt>
      <trkpt lat="44.69762" lon="4.02081">
        <ele>1262</ele>
        <time>2014-07-12T14:36:50Z</time>
      </trkpt>
      <trkpt lat="44.6976" lon="4.02082">
        <ele>1262</ele>
        <time>2014-07-12T14:37:20Z</time>
      </trkpt>
      <trkpt lat="44.69757" lon="4.02084">
        <ele>1264</ele>
        <time>2014-07-12T14:37:22Z</time>
      </trkpt>
      <trkpt lat="44.69718" lon="4.02094">
        <ele>1262</ele>
        <time>2014-07-12T14:37:31Z</time>
      </trkpt>
      <trkpt lat="44.69706" lon="4.02099">
        <ele>1262</ele>
        <time>2014-07-12T14:37:33Z</time>
      </trkpt>
      <trkpt lat="44.69663" lon="4.02078">
        <ele>1258</ele>
        <time>2014-07-12T14:37:39Z</time>
      </trkpt>
      <trkpt lat="44.69656" lon="4.02074">
        <ele>1257</ele>
        <time>2014-07-12T14:37:40Z</time>
      </trkpt>
      <trkpt lat="44.69649" lon="4.0207">
        <ele>1257</ele>
        <time>2014-07-12T14:37:41Z</time>
      </trkpt>
      <trkpt lat="44.69606" lon="4.02039">
        <ele>1257</ele>
        <time>2014-07-12T14:37:50Z</time>
      </trkpt>
      <trkpt lat="44.69524" lon="4.01994">
        <ele>1262</ele>
        <time>2014-07-12T14:38:16Z</time>
      </trkpt>
      <trkpt lat="44.69472" lon="4.01969">
        <ele>1268</ele>
        <time>2014-07-12T14:38:49Z</time>
      </trkpt>
      <trkpt lat="44.69451" lon="4.01963">
        <ele>1269</ele>
        <time>2014-07-12T14:39:01Z</time>
      </trkpt>
      <trkpt lat="44.69425" lon="4.01965">
        <ele>1270</ele>
        <time>2014-07-12T14:39:15Z</time>
      </trkpt>
      <trkpt lat="44.69377" lon="4.01985">
        <ele>1277</ele>
        <time>2014-07-12T14:39:37Z</time>
      </trkpt>
      <trkpt lat="44.6928" lon="4.01956">
        <ele>1281</ele>
        <time>2014-07-12T14:40:14Z</time>
      </trkpt>
      <trkpt lat="44.69161" lon="4.01998">
        <ele>1284</ele>
        <time>2014-07-12T14:40:49Z</time>
      </trkpt>
      <trkpt lat="44.69005" lon="4.02063">
        <ele>1292</ele>
        <time>2014-07-12T14:41:26Z</time>
      </trkpt>
      <trkpt lat="44.68936" lon="4.02087">
        <ele>1296</ele>
        <time>2014-07-12T14:41:54Z</time>
      </trkpt>
      <trkpt lat="44.68872" lon="4.02088">
        <ele>1306</ele>
        <time>2014-07-12T14:42:25Z</time>
      </trkpt>
      <trkpt lat="44.68843" lon="4.02088">
        <ele>1310</ele>
        <time>2014-07-12T14:42:46Z</time>
      </trkpt>
      <trkpt lat="44.68823" lon="4.02084">
        <ele>1314</ele>
        <time>2014-07-12T14:43:17Z</time>
      </trkpt>
      <trkpt lat="44.6879" lon="4.02071">
        <ele>1319</ele>
        <time>2014-07-12T14:43:44Z</time>
      </trkpt>
      <trkpt lat="44.6878" lon="4.0207">
        <ele>1319</ele>
        <time>2014-07-12T14:43:50Z</time>
      </trkpt>
      <trkpt lat="44.68754" lon="4.02052">
        <ele>1320</ele>
        <time>2014-07-12T14:44:07Z</time>
      </trkpt>
      <trkpt lat="44.68753" lon="4.02049">
        <ele>1320</ele>
        <time>2014-07-12T14:44:09Z</time>
      </trkpt>
      <trkpt lat="44.68687" lon="4.01987">
        <ele>1326</ele>
        <time>2014-07-12T14:44:46Z</time>
      </trkpt>
      <trkpt lat="44.68633" lon="4.01947">
        <ele>1327</ele>
        <time>2014-07-12T14:45:12Z</time>
      </trkpt>
      <trkpt lat="44.68612" lon="4.01932">
        <ele>1328</ele>
        <time>2014-07-12T14:45:24Z</time>
      </trkpt>
      <trkpt lat="44.68555" lon="4.01937">
        <ele>1332</ele>
        <time>2014-07-12T14:45:52Z</time>
      </trkpt>
      <trkpt lat="44.68489" lon="4.01964">
        <ele>1339</ele>
        <time>2014-07-12T14:46:17Z</time>
      </trkpt>
      <trkpt lat="44.68456" lon="4.02002">
        <ele>1345</ele>
        <time>2014-07-12T14:46:41Z</time>
      </trkpt>
      <trkpt lat="44.68417" lon="4.02041">
        <ele>1348</ele>
        <time>2014-07-12T14:47:09Z</time>
      </trkpt>
      <trkpt lat="44.68386" lon="4.02077">
        <ele>1351</ele>
        <time>2014-07-12T14:47:31Z</time>
      </trkpt>
      <trkpt lat="44.68363" lon="4.02096">
        <ele>1356</ele>
        <time>2014-07-12T14:47:46Z</time>
      </trkpt>
      <trkpt lat="44.68259" lon="4.02165">
        <ele>1359</ele>
        <time>2014-07-12T14:48:47Z</time>
      </trkpt>
      <trkpt lat="44.68258" lon="4.02169">
        <ele>1360</ele>
        <time>2014-07-12T14:49:39Z</time>
      </trkpt>
      <trkpt lat="44.68231" lon="4.02176">
        <ele>1361</ele>
        <time>2014-07-12T14:50:48Z</time>
      </trkpt>
      <trkpt lat="44.68163" lon="4.02196">
        <ele>1368</ele>
        <time>2014-07-12T14:51:13Z</time>
      </trkpt>
      <trkpt lat="44.68133" lon="4.02202">
        <ele>1369</ele>
        <time>2014-07-12T14:51:25Z</time>
      </trkpt>
      <trkpt lat="44.6808" lon="4.02229">
        <ele>1375</ele>
        <time>2014-07-12T14:51:51Z</time>
      </trkpt>
      <trkpt lat="44.67972" lon="4.02329">
        <ele>1378</ele>
        <time>2014-07-12T14:52:33Z</time>
      </trkpt>
      <trkpt lat="44.67861" lon="4.02445">
        <ele>1381</ele>
        <time>2014-07-12T14:53:17Z</time>
      </trkpt>
      <trkpt lat="44.67802" lon="4.02495">
        <ele>1381</ele>
        <time>2014-07-12T14:53:46Z</time>
      </trkpt>
      <trkpt lat="44.67792" lon="4.02501">
        <ele>1383</ele>
        <time>2014-07-12T14:53:53Z</time>
      </trkpt>
      <trkpt lat="44.67794" lon="4.02495">
        <ele>1381</ele>
        <time>2014-07-12T14:53:58Z</time>
      </trkpt>
      <trkpt lat="44.67806" lon="4.02491">
        <ele>1381</ele>
        <time>2014-07-12T14:54:05Z</time>
      </trkpt>
      <trkpt lat="44.67804" lon="4.02498">
        <ele>1381</ele>
        <time>2014-07-12T14:54:19Z</time>
      </trkpt>
      <trkpt lat="44.67802" lon="4.02494">
        <ele>1381</ele>
        <time>2014-07-12T14:55:49Z</time>
      </trkpt>
      <trkpt lat="44.67801" lon="4.02493">
        <ele>1381</ele>
        <time>2014-07-12T14:57:25Z</time>
      </trkpt>
      <trkpt lat="44.67802" lon="4.02492">
        <ele>1381</ele>
        <time>2014-07-12T14:59:17Z</time>
      </trkpt>
      <trkpt lat="44.67799" lon="4.02491">
        <ele>1381</ele>
        <time>2014-07-12T15:00:18Z</time>
      </trkpt>
      <trkpt lat="44.67794" lon="4.02495">
        <ele>1381</ele>
        <time>2014-07-12T15:00:22Z</time>
      </trkpt>
      <trkpt lat="44.67731" lon="4.02558">
        <ele>1388</ele>
        <time>2014-07-12T15:00:55Z</time>
      </trkpt>
      <trkpt lat="44.6771" lon="4.0257">
        <ele>1390</ele>
        <time>2014-07-12T15:01:06Z</time>
      </trkpt>
      <trkpt lat="44.67671" lon="4.02614">
        <ele>1393</ele>
        <time>2014-07-12T15:01:34Z</time>
      </trkpt>
      <trkpt lat="44.67653" lon="4.02632">
        <ele>1399</ele>
        <time>2014-07-12T15:01:49Z</time>
      </trkpt>
      <trkpt lat="44.67636" lon="4.02635">
        <ele>1399</ele>
        <time>2014-07-12T15:02:00Z</time>
      </trkpt>
      <trkpt lat="44.67633" lon="4.02634">
        <ele>1400</ele>
        <time>2014-07-12T15:02:02Z</time>
      </trkpt>
      <trkpt lat="44.67603" lon="4.02641">
        <ele>1401</ele>
        <time>2014-07-12T15:02:22Z</time>
      </trkpt>
      <trkpt lat="44.67582" lon="4.02636">
        <ele>1406</ele>
        <time>2014-07-12T15:02:36Z</time>
      </trkpt>
      <trkpt lat="44.67526" lon="4.02627">
        <ele>1408</ele>
        <time>2014-07-12T15:03:08Z</time>
      </trkpt>
      <trkpt lat="44.67477" lon="4.02614">
        <ele>1413</ele>
        <time>2014-07-12T15:03:37Z</time>
      </trkpt>
      <trkpt lat="44.67451" lon="4.02608">
        <ele>1414</ele>
        <time>2014-07-12T15:03:52Z</time>
      </trkpt>
      <trkpt lat="44.67407" lon="4.02594">
        <ele>1418</ele>
        <time>2014-07-12T15:04:18Z</time>
      </trkpt>
      <trkpt lat="44.67366" lon="4.02568">
        <ele>1420</ele>
        <time>2014-07-12T15:04:45Z</time>
      </trkpt>
      <trkpt lat="44.67331" lon="4.02557">
        <ele>1420</ele>
        <time>2014-07-12T15:05:10Z</time>
      </trkpt>
      <trkpt lat="44.67325" lon="4.0256">
        <ele>1420</ele>
        <time>2014-07-12T15:06:15Z</time>
      </trkpt>
      <trkpt lat="44.67265" lon="4.02522">
        <ele>1418</ele>
        <time>2014-07-12T15:06:39Z</time>
      </trkpt>
      <trkpt lat="44.67263" lon="4.02509">
        <ele>1417</ele>
        <time>2014-07-12T15:06:41Z</time>
      </trkpt>
      <trkpt lat="44.67262" lon="4.0249">
        <ele>1417</ele>
        <time>2014-07-12T15:06:44Z</time>
      </trkpt>
      <trkpt lat="44.67253" lon="4.02466">
        <ele>1417</ele>
        <time>2014-07-12T15:06:48Z</time>
      </trkpt>
      <trkpt lat="44.67235" lon="4.02446">
        <ele>1414</ele>
        <time>2014-07-12T15:06:53Z</time>
      </trkpt>
      <trkpt lat="44.6723" lon="4.02443">
        <ele>1414</ele>
        <time>2014-07-12T15:06:54Z</time>
      </trkpt>
      <trkpt lat="44.6721" lon="4.02431">
        <ele>1413</ele>
        <time>2014-07-12T15:06:59Z</time>
      </trkpt>
      <trkpt lat="44.67188" lon="4.02411">
        <ele>1413</ele>
        <time>2014-07-12T15:07:04Z</time>
      </trkpt>
      <trkpt lat="44.67176" lon="4.02397">
        <ele>1412</ele>
        <time>2014-07-12T15:07:07Z</time>
      </trkpt>
      <trkpt lat="44.67151" lon="4.02336">
        <ele>1412</ele>
        <time>2014-07-12T15:07:20Z</time>
      </trkpt>
      <trkpt lat="44.67125" lon="4.02329">
        <ele>1411</ele>
        <time>2014-07-12T15:07:26Z</time>
      </trkpt>
      <trkpt lat="44.67073" lon="4.02333">
        <ele>1412</ele>
        <time>2014-07-12T15:07:40Z</time>
      </trkpt>
      <trkpt lat="44.67072" lon="4.02335">
        <ele>1412</ele>
        <time>2014-07-12T15:07:41Z</time>
      </trkpt>
      <trkpt lat="44.6707" lon="4.02341">
        <ele>1412</ele>
        <time>2014-07-12T15:07:44Z</time>
      </trkpt>
      <trkpt lat="44.6706" lon="4.02344">
        <ele>1412</ele>
        <time>2014-07-12T15:07:48Z</time>
      </trkpt>
      <trkpt lat="44.66993" lon="4.0233">
        <ele>1416</ele>
        <time>2014-07-12T15:08:15Z</time>
      </trkpt>
      <trkpt lat="44.66969" lon="4.02315">
        <ele>1419</ele>
        <time>2014-07-12T15:08:28Z</time>
      </trkpt>
      <trkpt lat="44.6694" lon="4.02294">
        <ele>1421</ele>
        <time>2014-07-12T15:08:43Z</time>
      </trkpt>
      <trkpt lat="44.66912" lon="4.02265">
        <ele>1427</ele>
        <time>2014-07-12T15:08:59Z</time>
      </trkpt>
      <trkpt lat="44.66858" lon="4.02244">
        <ele>1431</ele>
        <time>2014-07-12T15:09:24Z</time>
      </trkpt>
      <trkpt lat="44.66835" lon="4.02231">
        <ele>1432</ele>
        <time>2014-07-12T15:09:36Z</time>
      </trkpt>
      <trkpt lat="44.66781" lon="4.0216">
        <ele>1439</ele>
        <time>2014-07-12T15:10:08Z</time>
      </trkpt>
      <trkpt lat="44.66729" lon="4.02039">
        <ele>1438</ele>
        <time>2014-07-12T15:10:56Z</time>
      </trkpt>
      <trkpt lat="44.66636" lon="4.01932">
        <ele>1441</ele>
        <time>2014-07-12T15:11:44Z</time>
      </trkpt>
      <trkpt lat="44.66541" lon="4.01899">
        <ele>1443</ele>
        <time>2014-07-12T15:12:12Z</time>
      </trkpt>
      <trkpt lat="44.66531" lon="4.01896">
        <ele>1444</ele>
        <time>2014-07-12T15:12:17Z</time>
      </trkpt>
      <trkpt lat="44.66522" lon="4.01932">
        <ele>1443</ele>
        <time>2014-07-12T15:12:33Z</time>
      </trkpt>
      <trkpt lat="44.66522" lon="4.01932">
        <ele>1443</ele>
        <time>2014-07-12T15:13:24Z</time>
      </trkpt>
      <trkpt lat="44.66513" lon="4.01985">
        <ele>1443</ele>
        <time>2014-07-12T15:14:53Z</time>
      </trkpt>
      <trkpt lat="44.6649" lon="4.02056">
        <ele>1441</ele>
        <time>2014-07-12T15:15:07Z</time>
      </trkpt>
      <trkpt lat="44.66461" lon="4.02103">
        <ele>1440</ele>
        <time>2014-07-12T15:15:16Z</time>
      </trkpt>
      <trkpt lat="44.66419" lon="4.02132">
        <ele>1438</ele>
        <time>2014-07-12T15:15:23Z</time>
      </trkpt>
      <trkpt lat="44.66368" lon="4.02135">
        <ele>1430</ele>
        <time>2014-07-12T15:15:31Z</time>
      </trkpt>
      <trkpt lat="44.6631" lon="4.02167">
        <ele>1422</ele>
        <time>2014-07-12T15:15:45Z</time>
      </trkpt>
      <trkpt lat="44.66306" lon="4.02169">
        <ele>1422</ele>
        <time>2014-07-12T15:15:46Z</time>
      </trkpt>
      <trkpt lat="44.66255" lon="4.02205">
        <ele>1419</ele>
        <time>2014-07-12T15:15:57Z</time>
      </trkpt>
      <trkpt lat="44.66229" lon="4.02226">
        <ele>1412</ele>
        <time>2014-07-12T15:16:01Z</time>
      </trkpt>
      <trkpt lat="44.66221" lon="4.02231">
        <ele>1411</ele>
        <time>2014-07-12T15:16:02Z</time>
      </trkpt>
      <trkpt lat="44.66189" lon="4.02269">
        <ele>1407</ele>
        <time>2014-07-12T15:16:07Z</time>
      </trkpt>
      <trkpt lat="44.66171" lon="4.02296">
        <ele>1408</ele>
        <time>2014-07-12T15:16:11Z</time>
      </trkpt>
      <trkpt lat="44.66155" lon="4.02331">
        <ele>1399</ele>
        <time>2014-07-12T15:16:15Z</time>
      </trkpt>
      <trkpt lat="44.6613" lon="4.02391">
        <ele>1396</ele>
        <time>2014-07-12T15:16:23Z</time>
      </trkpt>
      <trkpt lat="44.66111" lon="4.02419">
        <ele>1395</ele>
        <time>2014-07-12T15:16:28Z</time>
      </trkpt>
      <trkpt lat="44.66081" lon="4.02462">
        <ele>1380</ele>
        <time>2014-07-12T15:16:35Z</time>
      </trkpt>
      <trkpt lat="44.66075" lon="4.02472">
        <ele>1380</ele>
        <time>2014-07-12T15:16:37Z</time>
      </trkpt>
      <trkpt lat="44.66062" lon="4.02496">
        <ele>1381</ele>
        <time>2014-07-12T15:16:41Z</time>
      </trkpt>
      <trkpt lat="44.66036" lon="4.02535">
        <ele>1379</ele>
        <time>2014-07-12T15:16:46Z</time>
      </trkpt>
      <trkpt lat="44.66018" lon="4.02554">
        <ele>1378</ele>
        <time>2014-07-12T15:16:49Z</time>
      </trkpt>
      <trkpt lat="44.65972" lon="4.026">
        <ele>1372</ele>
        <time>2014-07-12T15:17:02Z</time>
      </trkpt>
      <trkpt lat="44.65934" lon="4.02632">
        <ele>1372</ele>
        <time>2014-07-12T15:17:22Z</time>
      </trkpt>
      <trkpt lat="44.65888" lon="4.0271">
        <ele>1380</ele>
        <time>2014-07-12T15:17:54Z</time>
      </trkpt>
      <trkpt lat="44.65873" lon="4.02739">
        <ele>1381</ele>
        <time>2014-07-12T15:18:07Z</time>
      </trkpt>
      <trkpt lat="44.65855" lon="4.02766">
        <ele>1385</ele>
        <time>2014-07-12T15:18:21Z</time>
      </trkpt>
      <trkpt lat="44.65827" lon="4.02801">
        <ele>1391</ele>
        <time>2014-07-12T15:18:40Z</time>
      </trkpt>
      <trkpt lat="44.65808" lon="4.02818">
        <ele>1391</ele>
        <time>2014-07-12T15:18:51Z</time>
      </trkpt>
      <trkpt lat="44.65748" lon="4.0285">
        <ele>1393</ele>
        <time>2014-07-12T15:19:34Z</time>
      </trkpt>
      <trkpt lat="44.65742" lon="4.02851">
        <ele>1392</ele>
        <time>2014-07-12T15:20:13Z</time>
      </trkpt>
      <trkpt lat="44.65739" lon="4.02853">
        <ele>1392</ele>
        <time>2014-07-12T15:20:44Z</time>
      </trkpt>
      <trkpt lat="44.65738" lon="4.02855">
        <ele>1392</ele>
        <time>2014-07-12T15:20:46Z</time>
      </trkpt>
      <trkpt lat="44.65684" lon="4.02873">
        <ele>1390</ele>
        <time>2014-07-12T15:21:01Z</time>
      </trkpt>
      <trkpt lat="44.65597" lon="4.02895">
        <ele>1388</ele>
        <time>2014-07-12T15:21:32Z</time>
      </trkpt>
      <trkpt lat="44.65489" lon="4.02924">
        <ele>1390</ele>
        <time>2014-07-12T15:22:02Z</time>
      </trkpt>
      <trkpt lat="44.6542" lon="4.02944">
        <ele>1392</ele>
        <time>2014-07-12T15:22:28Z</time>
      </trkpt>
      <trkpt lat="44.65345" lon="4.02982">
        <ele>1401</ele>
        <time>2014-07-12T15:23:05Z</time>
      </trkpt>
      <trkpt lat="44.65342" lon="4.02986">
        <ele>1401</ele>
        <time>2014-07-12T15:23:15Z</time>
      </trkpt>
      <trkpt lat="44.65276" lon="4.03012">
        <ele>1400</ele>
        <time>2014-07-12T15:24:36Z</time>
      </trkpt>
      <trkpt lat="44.65272" lon="4.03014">
        <ele>1400</ele>
        <time>2014-07-12T15:24:37Z</time>
      </trkpt>
      <trkpt lat="44.65264" lon="4.03018">
        <ele>1401</ele>
        <time>2014-07-12T15:24:39Z</time>
      </trkpt>
      <trkpt lat="44.65198" lon="4.03055">
        <ele>1401</ele>
        <time>2014-07-12T15:25:03Z</time>
      </trkpt>
      <trkpt lat="44.65174" lon="4.03141">
        <ele>1399</ele>
        <time>2014-07-12T15:25:27Z</time>
      </trkpt>
      <trkpt lat="44.65169" lon="4.0324">
        <ele>1404</ele>
        <time>2014-07-12T15:25:55Z</time>
      </trkpt>
      <trkpt lat="44.65177" lon="4.0337">
        <ele>1409</ele>
        <time>2014-07-12T15:26:33Z</time>
      </trkpt>
      <trkpt lat="44.65176" lon="4.03424">
        <ele>1411</ele>
        <time>2014-07-12T15:26:46Z</time>
      </trkpt>
      <trkpt lat="44.65161" lon="4.03615">
        <ele>1415</ele>
        <time>2014-07-12T15:27:27Z</time>
      </trkpt>
      <trkpt lat="44.6516" lon="4.03775">
        <ele>1416</ele>
        <time>2014-07-12T15:28:08Z</time>
      </trkpt>
      <trkpt lat="44.65154" lon="4.03855">
        <ele>1420</ele>
        <time>2014-07-12T15:28:34Z</time>
      </trkpt>
      <trkpt lat="44.65137" lon="4.03923">
        <ele>1424</ele>
        <time>2014-07-12T15:29:00Z</time>
      </trkpt>
      <trkpt lat="44.65097" lon="4.04065">
        <ele>1428</ele>
        <time>2014-07-12T15:29:51Z</time>
      </trkpt>
      <trkpt lat="44.65049" lon="4.04181">
        <ele>1428</ele>
        <time>2014-07-12T15:30:18Z</time>
      </trkpt>
      <trkpt lat="44.65049" lon="4.04185">
        <ele>1428</ele>
        <time>2014-07-12T15:30:47Z</time>
      </trkpt>
      <trkpt lat="44.65037" lon="4.04212">
        <ele>1428</ele>
        <time>2014-07-12T15:32:39Z</time>
      </trkpt>
      <trkpt lat="44.64974" lon="4.04367">
        <ele>1426</ele>
        <time>2014-07-12T15:33:16Z</time>
      </trkpt>
      <trkpt lat="44.64953" lon="4.04401">
        <ele>1425</ele>
        <time>2014-07-12T15:33:21Z</time>
      </trkpt>
      <trkpt lat="44.64938" lon="4.04413">
        <ele>1424</ele>
        <time>2014-07-12T15:33:23Z</time>
      </trkpt>
      <trkpt lat="44.64893" lon="4.04445">
        <ele>1419</ele>
        <time>2014-07-12T15:33:28Z</time>
      </trkpt>
      <trkpt lat="44.64862" lon="4.04467">
        <ele>1417</ele>
        <time>2014-07-12T15:33:31Z</time>
      </trkpt>
      <trkpt lat="44.64844" lon="4.04483">
        <ele>1416</ele>
        <time>2014-07-12T15:33:33Z</time>
      </trkpt>
      <trkpt lat="44.64812" lon="4.04512">
        <ele>1411</ele>
        <time>2014-07-12T15:33:39Z</time>
      </trkpt>
      <trkpt lat="44.64799" lon="4.04512">
        <ele>1409</ele>
        <time>2014-07-12T15:33:42Z</time>
      </trkpt>
      <trkpt lat="44.64783" lon="4.04521">
        <ele>1407</ele>
        <time>2014-07-12T15:33:45Z</time>
      </trkpt>
      <trkpt lat="44.64774" lon="4.04532">
        <ele>1406</ele>
        <time>2014-07-12T15:33:47Z</time>
      </trkpt>
      <trkpt lat="44.64764" lon="4.04543">
        <ele>1406</ele>
        <time>2014-07-12T15:33:49Z</time>
      </trkpt>
      <trkpt lat="44.64741" lon="4.04554">
        <ele>1394</ele>
        <time>2014-07-12T15:33:53Z</time>
      </trkpt>
      <trkpt lat="44.64731" lon="4.04562">
        <ele>1394</ele>
        <time>2014-07-12T15:33:55Z</time>
      </trkpt>
      <trkpt lat="44.6471" lon="4.04572">
        <ele>1391</ele>
        <time>2014-07-12T15:33:59Z</time>
      </trkpt>
      <trkpt lat="44.64706" lon="4.04574">
        <ele>1391</ele>
        <time>2014-07-12T15:34:00Z</time>
      </trkpt>
      <trkpt lat="44.64698" lon="4.04571">
        <ele>1390</ele>
        <time>2014-07-12T15:34:02Z</time>
      </trkpt>
      <trkpt lat="44.64682" lon="4.04558">
        <ele>1388</ele>
        <time>2014-07-12T15:34:06Z</time>
      </trkpt>
      <trkpt lat="44.64666" lon="4.04549">
        <ele>1375</ele>
        <time>2014-07-12T15:34:10Z</time>
      </trkpt>
      <trkpt lat="44.64647" lon="4.04531">
        <ele>1372</ele>
        <time>2014-07-12T15:34:16Z</time>
      </trkpt>
      <trkpt lat="44.64632" lon="4.04514">
        <ele>1370</ele>
        <time>2014-07-12T15:34:21Z</time>
      </trkpt>
      <trkpt lat="44.64624" lon="4.04498">
        <ele>1361</ele>
        <time>2014-07-12T15:34:25Z</time>
      </trkpt>
      <trkpt lat="44.64605" lon="4.04471">
        <ele>1358</ele>
        <time>2014-07-12T15:34:32Z</time>
      </trkpt>
      <trkpt lat="44.64594" lon="4.04449">
        <ele>1356</ele>
        <time>2014-07-12T15:34:37Z</time>
      </trkpt>
      <trkpt lat="44.64588" lon="4.04403">
        <ele>1347</ele>
        <time>2014-07-12T15:34:46Z</time>
      </trkpt>
      <trkpt lat="44.64592" lon="4.04344">
        <ele>1340</ele>
        <time>2014-07-12T15:35:02Z</time>
      </trkpt>
      <trkpt lat="44.64584" lon="4.04331">
        <ele>1336</ele>
        <time>2014-07-12T15:35:35Z</time>
      </trkpt>
      <trkpt lat="44.64579" lon="4.04324">
        <ele>1332</ele>
        <time>2014-07-12T15:37:29Z</time>
      </trkpt>
      <trkpt lat="44.64578" lon="4.04306">
        <ele>1329</ele>
        <time>2014-07-12T15:39:12Z</time>
      </trkpt>
      <trkpt lat="44.64564" lon="4.04231">
        <ele>1322</ele>
        <time>2014-07-12T15:39:20Z</time>
      </trkpt>
      <trkpt lat="44.6456" lon="4.04222">
        <ele>1321</ele>
        <time>2014-07-12T15:39:21Z</time>
      </trkpt>
      <trkpt lat="44.64545" lon="4.04183">
        <ele>1318</ele>
        <time>2014-07-12T15:39:25Z</time>
      </trkpt>
      <trkpt lat="44.64528" lon="4.04142">
        <ele>1312</ele>
        <time>2014-07-12T15:39:30Z</time>
      </trkpt>
      <trkpt lat="44.64499" lon="4.0415">
        <ele>1307</ele>
        <time>2014-07-12T15:39:38Z</time>
      </trkpt>
      <trkpt lat="44.64484" lon="4.04175">
        <ele>1306</ele>
        <time>2014-07-12T15:39:44Z</time>
      </trkpt>
      <trkpt lat="44.64475" lon="4.04201">
        <ele>1303</ele>
        <time>2014-07-12T15:39:48Z</time>
      </trkpt>
      <trkpt lat="44.64448" lon="4.04272">
        <ele>1300</ele>
        <time>2014-07-12T15:39:57Z</time>
      </trkpt>
      <trkpt lat="44.64444" lon="4.04281">
        <ele>1300</ele>
        <time>2014-07-12T15:39:58Z</time>
      </trkpt>
      <trkpt lat="44.64426" lon="4.04343">
        <ele>1299</ele>
        <time>2014-07-12T15:40:04Z</time>
      </trkpt>
      <trkpt lat="44.64405" lon="4.04425">
        <ele>1296</ele>
        <time>2014-07-12T15:40:13Z</time>
      </trkpt>
      <trkpt lat="44.64401" lon="4.04438">
        <ele>1294</ele>
        <time>2014-07-12T15:40:15Z</time>
      </trkpt>
      <trkpt lat="44.64383" lon="4.04507">
        <ele>1296</ele>
        <time>2014-07-12T15:40:27Z</time>
      </trkpt>
      <trkpt lat="44.64382" lon="4.04515">
        <ele>1296</ele>
        <time>2014-07-12T15:40:40Z</time>
      </trkpt>
      <trkpt lat="44.64376" lon="4.04559">
        <ele>1296</ele>
        <time>2014-07-12T15:40:55Z</time>
      </trkpt>
      <trkpt lat="44.6436" lon="4.04577">
        <ele>1293</ele>
        <time>2014-07-12T15:41:01Z</time>
      </trkpt>
      <trkpt lat="44.64246" lon="4.04662">
        <ele>1287</ele>
        <time>2014-07-12T15:41:33Z</time>
      </trkpt>
      <trkpt lat="44.64207" lon="4.04731">
        <ele>1286</ele>
        <time>2014-07-12T15:41:50Z</time>
      </trkpt>
      <trkpt lat="44.64184" lon="4.04768">
        <ele>1287</ele>
        <time>2014-07-12T15:41:59Z</time>
      </trkpt>
      <trkpt lat="44.64159" lon="4.04798">
        <ele>1273</ele>
        <time>2014-07-12T15:42:04Z</time>
      </trkpt>
      <trkpt lat="44.64137" lon="4.04836">
        <ele>1275</ele>
        <time>2014-07-12T15:42:08Z</time>
      </trkpt>
      <trkpt lat="44.6409" lon="4.04953">
        <ele>1277</ele>
        <time>2014-07-12T15:42:22Z</time>
      </trkpt>
      <trkpt lat="44.64045" lon="4.05036">
        <ele>1266</ele>
        <time>2014-07-12T15:42:33Z</time>
      </trkpt>
      <trkpt lat="44.64001" lon="4.05071">
        <ele>1261</ele>
        <time>2014-07-12T15:42:40Z</time>
      </trkpt>
      <trkpt lat="44.63979" lon="4.05083">
        <ele>1250</ele>
        <time>2014-07-12T15:42:44Z</time>
      </trkpt>
      <trkpt lat="44.63969" lon="4.05099">
        <ele>1249</ele>
        <time>2014-07-12T15:43:09Z</time>
      </trkpt>
      <trkpt lat="44.63965" lon="4.05101">
        <ele>1248</ele>
        <time>2014-07-12T15:43:48Z</time>
      </trkpt>
      <trkpt lat="44.63964" lon="4.05103">
        <ele>1248</ele>
        <time>2014-07-12T15:44:23Z</time>
      </trkpt>
      <trkpt lat="44.63949" lon="4.05095">
        <ele>1246</ele>
        <time>2014-07-12T15:44:28Z</time>
      </trkpt>
      <trkpt lat="44.63918" lon="4.05089">
        <ele>1240</ele>
        <time>2014-07-12T15:44:34Z</time>
      </trkpt>
      <trkpt lat="44.63904" lon="4.05084">
        <ele>1236</ele>
        <time>2014-07-12T15:44:38Z</time>
      </trkpt>
      <trkpt lat="44.63886" lon="4.05071">
        <ele>1232</ele>
        <time>2014-07-12T15:44:50Z</time>
      </trkpt>
      <trkpt lat="44.63866" lon="4.05079">
        <ele>1231</ele>
        <time>2014-07-12T15:44:55Z</time>
      </trkpt>
      <trkpt lat="44.63856" lon="4.05076">
        <ele>1231</ele>
        <time>2014-07-12T15:44:58Z</time>
      </trkpt>
      <trkpt lat="44.63825" lon="4.05063">
        <ele>1229</ele>
        <time>2014-07-12T15:45:09Z</time>
      </trkpt>
      <trkpt lat="44.6381" lon="4.05069">
        <ele>1229</ele>
        <time>2014-07-12T15:45:37Z</time>
      </trkpt>
      <trkpt lat="44.63779" lon="4.05096">
        <ele>1229</ele>
        <time>2014-07-12T15:47:08Z</time>
      </trkpt>
      <trkpt lat="44.63733" lon="4.05128">
        <ele>1230</ele>
        <time>2014-07-12T15:47:23Z</time>
      </trkpt>
      <trkpt lat="44.63712" lon="4.05157">
        <ele>1230</ele>
        <time>2014-07-12T15:47:28Z</time>
      </trkpt>
      <trkpt lat="44.63687" lon="4.05207">
        <ele>1223</ele>
        <time>2014-07-12T15:47:36Z</time>
      </trkpt>
      <trkpt lat="44.63673" lon="4.05226">
        <ele>1222</ele>
        <time>2014-07-12T15:47:40Z</time>
      </trkpt>
      <trkpt lat="44.63656" lon="4.0524">
        <ele>1225</ele>
        <time>2014-07-12T15:47:44Z</time>
      </trkpt>
      <trkpt lat="44.63576" lon="4.05285">
        <ele>1218</ele>
        <time>2014-07-12T15:48:00Z</time>
      </trkpt>
      <trkpt lat="44.63504" lon="4.05277">
        <ele>1216</ele>
        <time>2014-07-12T15:48:14Z</time>
      </trkpt>
      <trkpt lat="44.63499" lon="4.05271">
        <ele>1209</ele>
        <time>2014-07-12T15:48:15Z</time>
      </trkpt>
      <trkpt lat="44.63459" lon="4.05177">
        <ele>1212</ele>
        <time>2014-07-12T15:48:26Z</time>
      </trkpt>
      <trkpt lat="44.63453" lon="4.05123">
        <ele>1217</ele>
        <time>2014-07-12T15:48:31Z</time>
      </trkpt>
      <trkpt lat="44.6345" lon="4.05113">
        <ele>1217</ele>
        <time>2014-07-12T15:48:32Z</time>
      </trkpt>
      <trkpt lat="44.63431" lon="4.05052">
        <ele>1221</ele>
        <time>2014-07-12T15:48:40Z</time>
      </trkpt>
      <trkpt lat="44.6342" lon="4.05029">
        <ele>1222</ele>
        <time>2014-07-12T15:48:44Z</time>
      </trkpt>
      <trkpt lat="44.63409" lon="4.05016">
        <ele>1219</ele>
        <time>2014-07-12T15:48:47Z</time>
      </trkpt>
      <trkpt lat="44.63382" lon="4.05015">
        <ele>1219</ele>
        <time>2014-07-12T15:48:55Z</time>
      </trkpt>
      <trkpt lat="44.63381" lon="4.05025">
        <ele>1219</ele>
        <time>2014-07-12T15:48:58Z</time>
      </trkpt>
      <trkpt lat="44.63382" lon="4.05031">
        <ele>1219</ele>
        <time>2014-07-12T15:48:59Z</time>
      </trkpt>
      <trkpt lat="44.63377" lon="4.05055">
        <ele>1217</ele>
        <time>2014-07-12T15:49:03Z</time>
      </trkpt>
      <trkpt lat="44.63362" lon="4.05087">
        <ele>1210</ele>
        <time>2014-07-12T15:49:09Z</time>
      </trkpt>
      <trkpt lat="44.63344" lon="4.05126">
        <ele>1208</ele>
        <time>2014-07-12T15:49:15Z</time>
      </trkpt>
      <trkpt lat="44.63323" lon="4.05165">
        <ele>1204</ele>
        <time>2014-07-12T15:49:20Z</time>
      </trkpt>
      <trkpt lat="44.63301" lon="4.05187">
        <ele>1194</ele>
        <time>2014-07-12T15:49:25Z</time>
      </trkpt>
      <trkpt lat="44.63295" lon="4.05189">
        <ele>1193</ele>
        <time>2014-07-12T15:49:26Z</time>
      </trkpt>
      <trkpt lat="44.6328" lon="4.05195">
        <ele>1192</ele>
        <time>2014-07-12T15:49:29Z</time>
      </trkpt>
      <trkpt lat="44.63262" lon="4.05195">
        <ele>1193</ele>
        <time>2014-07-12T15:49:32Z</time>
      </trkpt>
      <trkpt lat="44.63249" lon="4.05191">
        <ele>1190</ele>
        <time>2014-07-12T15:49:34Z</time>
      </trkpt>
      <trkpt lat="44.63228" lon="4.05194">
        <ele>1187</ele>
        <time>2014-07-12T15:49:37Z</time>
      </trkpt>
      <trkpt lat="44.63211" lon="4.05198">
        <ele>1185</ele>
        <time>2014-07-12T15:49:39Z</time>
      </trkpt>
      <trkpt lat="44.63181" lon="4.05208">
        <ele>1183</ele>
        <time>2014-07-12T15:49:42Z</time>
      </trkpt>
      <trkpt lat="44.63157" lon="4.05219">
        <ele>1174</ele>
        <time>2014-07-12T15:49:45Z</time>
      </trkpt>
      <trkpt lat="44.63151" lon="4.05222">
        <ele>1174</ele>
        <time>2014-07-12T15:49:46Z</time>
      </trkpt>
      <trkpt lat="44.63115" lon="4.05217">
        <ele>1173</ele>
        <time>2014-07-12T15:49:51Z</time>
      </trkpt>
      <trkpt lat="44.63095" lon="4.05223">
        <ele>1170</ele>
        <time>2014-07-12T15:49:54Z</time>
      </trkpt>
      <trkpt lat="44.63085" lon="4.05237">
        <ele>1166</ele>
        <time>2014-07-12T15:49:56Z</time>
      </trkpt>
      <trkpt lat="44.63081" lon="4.05245">
        <ele>1162</ele>
        <time>2014-07-12T15:49:57Z</time>
      </trkpt>
      <trkpt lat="44.6306" lon="4.05279">
        <ele>1161</ele>
        <time>2014-07-12T15:50:01Z</time>
      </trkpt>
      <trkpt lat="44.63054" lon="4.05286">
        <ele>1161</ele>
        <time>2014-07-12T15:50:02Z</time>
      </trkpt>
      <trkpt lat="44.63027" lon="4.05302">
        <ele>1161</ele>
        <time>2014-07-12T15:50:06Z</time>
      </trkpt>
      <trkpt lat="44.62973" lon="4.05322">
        <ele>1161</ele>
        <time>2014-07-12T15:50:22Z</time>
      </trkpt>
      <trkpt lat="44.6294" lon="4.05321">
        <ele>1161</ele>
        <time>2014-07-12T15:50:35Z</time>
      </trkpt>
      <trkpt lat="44.62908" lon="4.0531">
        <ele>1161</ele>
        <time>2014-07-12T15:50:42Z</time>
      </trkpt>
      <trkpt lat="44.6277" lon="4.05293">
        <ele>1164</ele>
        <time>2014-07-12T15:51:16Z</time>
      </trkpt>
      <trkpt lat="44.62684" lon="4.05254">
        <ele>1166</ele>
        <time>2014-07-12T15:51:45Z</time>
      </trkpt>
      <trkpt lat="44.62636" lon="4.05226">
        <ele>1164</ele>
        <time>2014-07-12T15:52:00Z</time>
      </trkpt>
      <trkpt lat="44.6255" lon="4.05246">
        <ele>1172</ele>
        <time>2014-07-12T15:52:28Z</time>
      </trkpt>
      <trkpt lat="44.62481" lon="4.05291">
        <ele>1177</ele>
        <time>2014-07-12T15:52:42Z</time>
      </trkpt>
      <trkpt lat="44.6237" lon="4.05302">
        <ele>1176</ele>
        <time>2014-07-12T15:53:03Z</time>
      </trkpt>
      <trkpt lat="44.62336" lon="4.05295">
        <ele>1176</ele>
        <time>2014-07-12T15:53:14Z</time>
      </trkpt>
      <trkpt lat="44.62304" lon="4.053">
        <ele>1178</ele>
        <time>2014-07-12T15:53:26Z</time>
      </trkpt>
      <trkpt lat="44.6224" lon="4.05318">
        <ele>1174</ele>
        <time>2014-07-12T15:53:54Z</time>
      </trkpt>
      <trkpt lat="44.62228" lon="4.05325">
        <ele>1173</ele>
        <time>2014-07-12T15:54:01Z</time>
      </trkpt>
      <trkpt lat="44.62232" lon="4.05319">
        <ele>1173</ele>
        <time>2014-07-12T15:54:20Z</time>
      </trkpt>
      <trkpt lat="44.62214" lon="4.05355">
        <ele>1176</ele>
        <time>2014-07-12T15:55:14Z</time>
      </trkpt>
      <trkpt lat="44.62203" lon="4.05408">
        <ele>1176</ele>
        <time>2014-07-12T15:55:25Z</time>
      </trkpt>
      <trkpt lat="44.62198" lon="4.05419">
        <ele>1179</ele>
        <time>2014-07-12T15:55:27Z</time>
      </trkpt>
      <trkpt lat="44.62191" lon="4.05444">
        <ele>1180</ele>
        <time>2014-07-12T15:55:31Z</time>
      </trkpt>
      <trkpt lat="44.62184" lon="4.05484">
        <ele>1179</ele>
        <time>2014-07-12T15:55:37Z</time>
      </trkpt>
      <trkpt lat="44.6217" lon="4.05522">
        <ele>1183</ele>
        <time>2014-07-12T15:55:44Z</time>
      </trkpt>
      <trkpt lat="44.62141" lon="4.05569">
        <ele>1177</ele>
        <time>2014-07-12T15:55:51Z</time>
      </trkpt>
      <trkpt lat="44.62103" lon="4.05627">
        <ele>1178</ele>
        <time>2014-07-12T15:56:00Z</time>
      </trkpt>
      <trkpt lat="44.62091" lon="4.05668">
        <ele>1176</ele>
        <time>2014-07-12T15:56:06Z</time>
      </trkpt>
      <trkpt lat="44.62091" lon="4.05673">
        <ele>1177</ele>
        <time>2014-07-12T15:56:07Z</time>
      </trkpt>
      <trkpt lat="44.62066" lon="4.05697">
        <ele>1183</ele>
        <time>2014-07-12T15:56:19Z</time>
      </trkpt>
      <trkpt lat="44.62056" lon="4.05668">
        <ele>1183</ele>
        <time>2014-07-12T15:56:27Z</time>
      </trkpt>
      <trkpt lat="44.62092" lon="4.05492">
        <ele>1176</ele>
        <time>2014-07-12T15:57:05Z</time>
      </trkpt>
      <trkpt lat="44.62097" lon="4.05406">
        <ele>1179</ele>
        <time>2014-07-12T15:57:21Z</time>
      </trkpt>
      <trkpt lat="44.621" lon="4.05403">
        <ele>1179</ele>
        <time>2014-07-12T15:57:22Z</time>
      </trkpt>
      <trkpt lat="44.62108" lon="4.05396">
        <ele>1178</ele>
        <time>2014-07-12T15:57:24Z</time>
      </trkpt>
      <trkpt lat="44.62121" lon="4.05354">
        <ele>1177</ele>
        <time>2014-07-12T15:57:30Z</time>
      </trkpt>
      <trkpt lat="44.62124" lon="4.05333">
        <ele>1176</ele>
        <time>2014-07-12T15:57:33Z</time>
      </trkpt>
      <trkpt lat="44.62122" lon="4.05295">
        <ele>1176</ele>
        <time>2014-07-12T15:57:38Z</time>
      </trkpt>
      <trkpt lat="44.62121" lon="4.05288">
        <ele>1176</ele>
        <time>2014-07-12T15:57:39Z</time>
      </trkpt>
      <trkpt lat="44.62106" lon="4.05182">
        <ele>1175</ele>
        <time>2014-07-12T15:57:54Z</time>
      </trkpt>
      <trkpt lat="44.62104" lon="4.05126">
        <ele>1177</ele>
        <time>2014-07-12T15:58:03Z</time>
      </trkpt>
      <trkpt lat="44.62123" lon="4.05045">
        <ele>1179</ele>
        <time>2014-07-12T15:58:20Z</time>
      </trkpt>
      <trkpt lat="44.62135" lon="4.04971">
        <ele>1184</ele>
        <time>2014-07-12T15:58:39Z</time>
      </trkpt>
      <trkpt lat="44.62146" lon="4.04922">
        <ele>1180</ele>
        <time>2014-07-12T15:58:52Z</time>
      </trkpt>
      <trkpt lat="44.62162" lon="4.04838">
        <ele>1179</ele>
        <time>2014-07-12T15:59:22Z</time>
      </trkpt>
      <trkpt lat="44.62169" lon="4.0481">
        <ele>1161</ele>
        <time>2014-07-12T15:59:33Z</time>
      </trkpt>
      <trkpt lat="44.62171" lon="4.04786">
        <ele>1157</ele>
        <time>2014-07-12T15:59:42Z</time>
      </trkpt>
      <trkpt lat="44.62147" lon="4.04755">
        <ele>1183</ele>
        <time>2014-07-12T15:59:55Z</time>
      </trkpt>
      <trkpt lat="44.6211" lon="4.04711">
        <ele>1178</ele>
        <time>2014-07-12T16:00:47Z</time>
      </trkpt>
      <trkpt lat="44.62104" lon="4.04704">
        <ele>1178</ele>
        <time>2014-07-12T16:01:53Z</time>
      </trkpt>
      <trkpt lat="44.62076" lon="4.0468">
        <ele>1194</ele>
        <time>2014-07-12T16:02:03Z</time>
      </trkpt>
      <trkpt lat="44.62068" lon="4.04634">
        <ele>1178</ele>
        <time>2014-07-12T16:02:10Z</time>
      </trkpt>
      <trkpt lat="44.62065" lon="4.04628">
        <ele>1178</ele>
        <time>2014-07-12T16:02:11Z</time>
      </trkpt>
      <trkpt lat="44.62063" lon="4.04623">
        <ele>1177</ele>
        <time>2014-07-12T16:02:12Z</time>
      </trkpt>
      <trkpt lat="44.62055" lon="4.046">
        <ele>1174</ele>
        <time>2014-07-12T16:02:16Z</time>
      </trkpt>
      <trkpt lat="44.61992" lon="4.04599">
        <ele>1197</ele>
        <time>2014-07-12T16:02:35Z</time>
      </trkpt>
      <trkpt lat="44.61956" lon="4.04568">
        <ele>1191</ele>
        <time>2014-07-12T16:02:55Z</time>
      </trkpt>
      <trkpt lat="44.61964" lon="4.04503">
        <ele>1181</ele>
        <time>2014-07-12T16:03:08Z</time>
      </trkpt>
      <trkpt lat="44.61964" lon="4.04487">
        <ele>1170</ele>
        <time>2014-07-12T16:03:10Z</time>
      </trkpt>
      <trkpt lat="44.61958" lon="4.04462">
        <ele>1171</ele>
        <time>2014-07-12T16:03:13Z</time>
      </trkpt>
      <trkpt lat="44.61953" lon="4.04454">
        <ele>1171</ele>
        <time>2014-07-12T16:03:14Z</time>
      </trkpt>
      <trkpt lat="44.61948" lon="4.04446">
        <ele>1172</ele>
        <time>2014-07-12T16:03:15Z</time>
      </trkpt>
      <trkpt lat="44.6189" lon="4.04334">
        <ele>1185</ele>
        <time>2014-07-12T16:03:35Z</time>
      </trkpt>
      <trkpt lat="44.6186" lon="4.04287">
        <ele>1169</ele>
        <time>2014-07-12T16:03:47Z</time>
      </trkpt>
      <trkpt lat="44.61856" lon="4.04285">
        <ele>1169</ele>
        <time>2014-07-12T16:03:48Z</time>
      </trkpt>
      <trkpt lat="44.61802" lon="4.04256">
        <ele>1190</ele>
        <time>2014-07-12T16:03:59Z</time>
      </trkpt>
      <trkpt lat="44.61753" lon="4.04222">
        <ele>1180</ele>
        <time>2014-07-12T16:04:09Z</time>
      </trkpt>
      <trkpt lat="44.61756" lon="4.04207">
        <ele>1177</ele>
        <time>2014-07-12T16:04:11Z</time>
      </trkpt>
      <trkpt lat="44.61765" lon="4.04172">
        <ele>1176</ele>
        <time>2014-07-12T16:04:16Z</time>
      </trkpt>
      <trkpt lat="44.61767" lon="4.04069">
        <ele>1151</ele>
        <time>2014-07-12T16:04:33Z</time>
      </trkpt>
      <trkpt lat="44.61698" lon="4.04017">
        <ele>1176</ele>
        <time>2014-07-12T16:04:52Z</time>
      </trkpt>
      <trkpt lat="44.61561" lon="4.03906">
        <ele>1160</ele>
        <time>2014-07-12T16:05:29Z</time>
      </trkpt>
      <trkpt lat="44.61518" lon="4.03941">
        <ele>1177</ele>
        <time>2014-07-12T16:05:47Z</time>
      </trkpt>
      <trkpt lat="44.61487" lon="4.04037">
        <ele>1194</ele>
        <time>2014-07-12T16:06:12Z</time>
      </trkpt>
      <trkpt lat="44.6144" lon="4.04081">
        <ele>1196</ele>
        <time>2014-07-12T16:06:31Z</time>
      </trkpt>
      <trkpt lat="44.6143" lon="4.04039">
        <ele>1193</ele>
        <time>2014-07-12T16:06:41Z</time>
      </trkpt>
      <trkpt lat="44.61427" lon="4.03986">
        <ele>1182</ele>
        <time>2014-07-12T16:06:52Z</time>
      </trkpt>
      <trkpt lat="44.61422" lon="4.03937">
        <ele>1178</ele>
        <time>2014-07-12T16:07:00Z</time>
      </trkpt>
      <trkpt lat="44.61408" lon="4.03828">
        <ele>1174</ele>
        <time>2014-07-12T16:07:13Z</time>
      </trkpt>
      <trkpt lat="44.61405" lon="4.03774">
        <ele>1176</ele>
        <time>2014-07-12T16:07:21Z</time>
      </trkpt>
      <trkpt lat="44.61409" lon="4.03745">
        <ele>1168</ele>
        <time>2014-07-12T16:07:26Z</time>
      </trkpt>
      <trkpt lat="44.61408" lon="4.03733">
        <ele>1172</ele>
        <time>2014-07-12T16:07:28Z</time>
      </trkpt>
      <trkpt lat="44.61402" lon="4.0364">
        <ele>1186</ele>
        <time>2014-07-12T16:07:55Z</time>
      </trkpt>
      <trkpt lat="44.61426" lon="4.03599">
        <ele>1178</ele>
        <time>2014-07-12T16:08:18Z</time>
      </trkpt>
      <trkpt lat="44.61454" lon="4.03572">
        <ele>1191</ele>
        <time>2014-07-12T16:08:40Z</time>
      </trkpt>
      <trkpt lat="44.61499" lon="4.03539">
        <ele>1189</ele>
        <time>2014-07-12T16:09:08Z</time>
      </trkpt>
      <trkpt lat="44.61536" lon="4.03486">
        <ele>1170</ele>
        <time>2014-07-12T16:09:34Z</time>
      </trkpt>
      <trkpt lat="44.61525" lon="4.0345">
        <ele>1173</ele>
        <time>2014-07-12T16:09:39Z</time>
      </trkpt>
      <trkpt lat="44.61513" lon="4.03403">
        <ele>1178</ele>
        <time>2014-07-12T16:09:47Z</time>
      </trkpt>
      <trkpt lat="44.61507" lon="4.03299">
        <ele>1172</ele>
        <time>2014-07-12T16:10:15Z</time>
      </trkpt>
      <trkpt lat="44.61507" lon="4.03254">
        <ele>1183</ele>
        <time>2014-07-12T16:10:31Z</time>
      </trkpt>
      <trkpt lat="44.61503" lon="4.03224">
        <ele>1180</ele>
        <time>2014-07-12T16:10:45Z</time>
      </trkpt>
      <trkpt lat="44.61502" lon="4.03208">
        <ele>1179</ele>
        <time>2014-07-12T16:10:52Z</time>
      </trkpt>
      <trkpt lat="44.61506" lon="4.03184">
        <ele>1185</ele>
        <time>2014-07-12T16:11:04Z</time>
      </trkpt>
      <trkpt lat="44.61506" lon="4.03182">
        <ele>1186</ele>
        <time>2014-07-12T16:11:05Z</time>
      </trkpt>
      <trkpt lat="44.61517" lon="4.03156">
        <ele>1189</ele>
        <time>2014-07-12T16:11:19Z</time>
      </trkpt>
      <trkpt lat="44.61522" lon="4.03131">
        <ele>1186</ele>
        <time>2014-07-12T16:11:31Z</time>
      </trkpt>
      <trkpt lat="44.61513" lon="4.0306">
        <ele>1198</ele>
        <time>2014-07-12T16:12:00Z</time>
      </trkpt>
      <trkpt lat="44.61519" lon="4.03021">
        <ele>1200</ele>
        <time>2014-07-12T16:12:17Z</time>
      </trkpt>
      <trkpt lat="44.61526" lon="4.02991">
        <ele>1205</ele>
        <time>2014-07-12T16:12:31Z</time>
      </trkpt>
      <trkpt lat="44.61541" lon="4.02944">
        <ele>1203</ele>
        <time>2014-07-12T16:12:53Z</time>
      </trkpt>
      <trkpt lat="44.6154" lon="4.02921">
        <ele>1204</ele>
        <time>2014-07-12T16:13:05Z</time>
      </trkpt>
      <trkpt lat="44.6152" lon="4.02924">
        <ele>1210</ele>
        <time>2014-07-12T16:13:34Z</time>
      </trkpt>
      <trkpt lat="44.61516" lon="4.02926">
        <ele>1212</ele>
        <time>2014-07-12T16:14:29Z</time>
      </trkpt>
      <trkpt lat="44.61488" lon="4.02975">
        <ele>1224</ele>
        <time>2014-07-12T16:14:57Z</time>
      </trkpt>
      <trkpt lat="44.61468" lon="4.03014">
        <ele>1225</ele>
        <time>2014-07-12T16:15:15Z</time>
      </trkpt>
      <trkpt lat="44.61439" lon="4.03077">
        <ele>1231</ele>
        <time>2014-07-12T16:15:45Z</time>
      </trkpt>
      <trkpt lat="44.6141" lon="4.03173">
        <ele>1246</ele>
        <time>2014-07-12T16:16:21Z</time>
      </trkpt>
      <trkpt lat="44.61401" lon="4.03234">
        <ele>1251</ele>
        <time>2014-07-12T16:16:47Z</time>
      </trkpt>
      <trkpt lat="44.61398" lon="4.03264">
        <ele>1253</ele>
        <time>2014-07-12T16:16:59Z</time>
      </trkpt>
      <trkpt lat="44.61403" lon="4.0332">
        <ele>1253</ele>
        <time>2014-07-12T16:17:20Z</time>
      </trkpt>
      <trkpt lat="44.61413" lon="4.03393">
        <ele>1254</ele>
        <time>2014-07-12T16:17:47Z</time>
      </trkpt>
      <trkpt lat="44.61406" lon="4.0342">
        <ele>1247</ele>
        <time>2014-07-12T16:17:58Z</time>
      </trkpt>
      <trkpt lat="44.61372" lon="4.03434">
        <ele>1252</ele>
        <time>2014-07-12T16:18:20Z</time>
      </trkpt>
      <trkpt lat="44.61326" lon="4.03429">
        <ele>1270</ele>
        <time>2014-07-12T16:18:47Z</time>
      </trkpt>
      <trkpt lat="44.61281" lon="4.03438">
        <ele>1272</ele>
        <time>2014-07-12T16:19:14Z</time>
      </trkpt>
      <trkpt lat="44.61243" lon="4.0344">
        <ele>1286</ele>
        <time>2014-07-12T16:19:36Z</time>
      </trkpt>
      <trkpt lat="44.61174" lon="4.03455">
        <ele>1288</ele>
        <time>2014-07-12T16:20:10Z</time>
      </trkpt>
      <trkpt lat="44.61152" lon="4.03528">
        <ele>1289</ele>
        <time>2014-07-12T16:20:31Z</time>
      </trkpt>
      <trkpt lat="44.61149" lon="4.03551">
        <ele>1288</ele>
        <time>2014-07-12T16:20:38Z</time>
      </trkpt>
      <trkpt lat="44.61137" lon="4.03509">
        <ele>1291</ele>
        <time>2014-07-12T16:21:02Z</time>
      </trkpt>
      <trkpt lat="44.61153" lon="4.03435">
        <ele>1303</ele>
        <time>2014-07-12T16:21:29Z</time>
      </trkpt>
      <trkpt lat="44.61182" lon="4.03406">
        <ele>1303</ele>
        <time>2014-07-12T16:21:50Z</time>
      </trkpt>
      <trkpt lat="44.61203" lon="4.0339">
        <ele>1304</ele>
        <time>2014-07-12T16:22:04Z</time>
      </trkpt>
      <trkpt lat="44.61246" lon="4.03368">
        <ele>1304</ele>
        <time>2014-07-12T16:22:30Z</time>
      </trkpt>
      <trkpt lat="44.6128" lon="4.03356">
        <ele>1293</ele>
        <time>2014-07-12T16:22:48Z</time>
      </trkpt>
      <trkpt lat="44.61305" lon="4.03327">
        <ele>1295</ele>
        <time>2014-07-12T16:23:02Z</time>
      </trkpt>
      <trkpt lat="44.61309" lon="4.03244">
        <ele>1291</ele>
        <time>2014-07-12T16:23:13Z</time>
      </trkpt>
      <trkpt lat="44.61311" lon="4.032">
        <ele>1291</ele>
        <time>2014-07-12T16:23:17Z</time>
      </trkpt>
      <trkpt lat="44.61307" lon="4.03116">
        <ele>1285</ele>
        <time>2014-07-12T16:23:25Z</time>
      </trkpt>
      <trkpt lat="44.61246" lon="4.02999">
        <ele>1281</ele>
        <time>2014-07-12T16:23:49Z</time>
      </trkpt>
      <trkpt lat="44.61224" lon="4.02979">
        <ele>1283</ele>
        <time>2014-07-12T16:24:00Z</time>
      </trkpt>
      <trkpt lat="44.61181" lon="4.02922">
        <ele>1284</ele>
        <time>2014-07-12T16:24:25Z</time>
      </trkpt>
      <trkpt lat="44.61151" lon="4.0291">
        <ele>1284</ele>
        <time>2014-07-12T16:24:38Z</time>
      </trkpt>
      <trkpt lat="44.61079" lon="4.02904">
        <ele>1289</ele>
        <time>2014-07-12T16:25:11Z</time>
      </trkpt>
      <trkpt lat="44.61056" lon="4.02914">
        <ele>1284</ele>
        <time>2014-07-12T16:25:40Z</time>
      </trkpt>
      <trkpt lat="44.61057" lon="4.02916">
        <ele>1285</ele>
        <time>2014-07-12T16:28:01Z</time>
      </trkpt>
      <trkpt lat="44.61056" lon="4.02915">
        <ele>1285</ele>
        <time>2014-07-12T16:29:51Z</time>
      </trkpt>
      <trkpt lat="44.61055" lon="4.02914">
        <ele>1284</ele>
        <time>2014-07-12T16:30:13Z</time>
      </trkpt>
      <trkpt lat="44.61094" lon="4.02934">
        <ele>1298</ele>
        <time>2014-07-12T16:30:36Z</time>
      </trkpt>
      <trkpt lat="44.61142" lon="4.0301">
        <ele>1308</ele>
        <time>2014-07-12T16:31:09Z</time>
      </trkpt>
      <trkpt lat="44.6116" lon="4.0305">
        <ele>1312</ele>
        <time>2014-07-12T16:31:24Z</time>
      </trkpt>
      <trkpt lat="44.61195" lon="4.03136">
        <ele>1313</ele>
        <time>2014-07-12T16:31:56Z</time>
      </trkpt>
      <trkpt lat="44.61201" lon="4.03224">
        <ele>1319</ele>
        <time>2014-07-12T16:32:26Z</time>
      </trkpt>
      <trkpt lat="44.61152" lon="4.03271">
        <ele>1327</ele>
        <time>2014-07-12T16:32:53Z</time>
      </trkpt>
      <trkpt lat="44.61044" lon="4.03298">
        <ele>1325</ele>
        <time>2014-07-12T16:33:22Z</time>
      </trkpt>
      <trkpt lat="44.60944" lon="4.03371">
        <ele>1327</ele>
        <time>2014-07-12T16:33:49Z</time>
      </trkpt>
      <trkpt lat="44.60879" lon="4.03426">
        <ele>1331</ele>
        <time>2014-07-12T16:34:16Z</time>
      </trkpt>
      <trkpt lat="44.60867" lon="4.03462">
        <ele>1333</ele>
        <time>2014-07-12T16:34:32Z</time>
      </trkpt>
      <trkpt lat="44.60847" lon="4.03513">
        <ele>1342</ele>
        <time>2014-07-12T16:34:57Z</time>
      </trkpt>
      <trkpt lat="44.60835" lon="4.03543">
        <ele>1346</ele>
        <time>2014-07-12T16:35:12Z</time>
      </trkpt>
      <trkpt lat="44.60812" lon="4.036">
        <ele>1346</ele>
        <time>2014-07-12T16:35:41Z</time>
      </trkpt>
      <trkpt lat="44.60802" lon="4.03627">
        <ele>1345</ele>
        <time>2014-07-12T16:35:53Z</time>
      </trkpt>
      <trkpt lat="44.6078" lon="4.03697">
        <ele>1351</ele>
        <time>2014-07-12T16:36:24Z</time>
      </trkpt>
      <trkpt lat="44.60778" lon="4.03738">
        <ele>1352</ele>
        <time>2014-07-12T16:36:41Z</time>
      </trkpt>
      <trkpt lat="44.60788" lon="4.03816">
        <ele>1357</ele>
        <time>2014-07-12T16:37:13Z</time>
      </trkpt>
      <trkpt lat="44.60788" lon="4.0392">
        <ele>1363</ele>
        <time>2014-07-12T16:37:45Z</time>
      </trkpt>
      <trkpt lat="44.60791" lon="4.04031">
        <ele>1368</ele>
        <time>2014-07-12T16:38:17Z</time>
      </trkpt>
      <trkpt lat="44.60838" lon="4.04252">
        <ele>1374</ele>
        <time>2014-07-12T16:39:13Z</time>
      </trkpt>
      <trkpt lat="44.60906" lon="4.04333">
        <ele>1379</ele>
        <time>2014-07-12T16:39:44Z</time>
      </trkpt>
      <trkpt lat="44.60921" lon="4.04365">
        <ele>1381</ele>
        <time>2014-07-12T16:39:55Z</time>
      </trkpt>
      <trkpt lat="44.60908" lon="4.04399">
        <ele>1382</ele>
        <time>2014-07-12T16:40:07Z</time>
      </trkpt>
      <trkpt lat="44.60898" lon="4.04428">
        <ele>1385</ele>
        <time>2014-07-12T16:40:18Z</time>
      </trkpt>
      <trkpt lat="44.60892" lon="4.04495">
        <ele>1388</ele>
        <time>2014-07-12T16:40:45Z</time>
      </trkpt>
      <trkpt lat="44.60875" lon="4.04521">
        <ele>1394</ele>
        <time>2014-07-12T16:40:59Z</time>
      </trkpt>
      <trkpt lat="44.60838" lon="4.04595">
        <ele>1399</ele>
        <time>2014-07-12T16:41:31Z</time>
      </trkpt>
      <trkpt lat="44.60807" lon="4.04688">
        <ele>1403</ele>
        <time>2014-07-12T16:42:03Z</time>
      </trkpt>
      <trkpt lat="44.60808" lon="4.04779">
        <ele>1407</ele>
        <time>2014-07-12T16:42:30Z</time>
      </trkpt>
      <trkpt lat="44.60808" lon="4.04834">
        <ele>1411</ele>
        <time>2014-07-12T16:42:46Z</time>
      </trkpt>
      <trkpt lat="44.60771" lon="4.0496">
        <ele>1412</ele>
        <time>2014-07-12T16:43:15Z</time>
      </trkpt>
      <trkpt lat="44.60792" lon="4.05184">
        <ele>1412</ele>
        <time>2014-07-12T16:44:00Z</time>
      </trkpt>
      <trkpt lat="44.60813" lon="4.0528">
        <ele>1412</ele>
        <time>2014-07-12T16:44:16Z</time>
      </trkpt>
      <trkpt lat="44.60829" lon="4.05356">
        <ele>1409</ele>
        <time>2014-07-12T16:44:38Z</time>
      </trkpt>
      <trkpt lat="44.60829" lon="4.05355">
        <ele>1409</ele>
        <time>2014-07-12T16:45:32Z</time>
      </trkpt>
      <trkpt lat="44.60836" lon="4.05368">
        <ele>1409</ele>
        <time>2014-07-12T16:46:45Z</time>
      </trkpt>
      <trkpt lat="44.60848" lon="4.05408">
        <ele>1407</ele>
        <time>2014-07-12T16:46:54Z</time>
      </trkpt>
      <trkpt lat="44.60869" lon="4.05479">
        <ele>1399</ele>
        <time>2014-07-12T16:47:03Z</time>
      </trkpt>
      <trkpt lat="44.60898" lon="4.05505">
        <ele>1393</ele>
        <time>2014-07-12T16:47:09Z</time>
      </trkpt>
      <trkpt lat="44.60913" lon="4.05505">
        <ele>1395</ele>
        <time>2014-07-12T16:47:11Z</time>
      </trkpt>
      <trkpt lat="44.60941" lon="4.05505">
        <ele>1393</ele>
        <time>2014-07-12T16:47:15Z</time>
      </trkpt>
      <trkpt lat="44.60966" lon="4.05531">
        <ele>1391</ele>
        <time>2014-07-12T16:47:19Z</time>
      </trkpt>
      <trkpt lat="44.60976" lon="4.05573">
        <ele>1389</ele>
        <time>2014-07-12T16:47:23Z</time>
      </trkpt>
      <trkpt lat="44.60978" lon="4.05583">
        <ele>1389</ele>
        <time>2014-07-12T16:47:24Z</time>
      </trkpt>
      <trkpt lat="44.60982" lon="4.05628">
        <ele>1384</ele>
        <time>2014-07-12T16:47:28Z</time>
      </trkpt>
      <trkpt lat="44.60973" lon="4.05685">
        <ele>1378</ele>
        <time>2014-07-12T16:47:33Z</time>
      </trkpt>
      <trkpt lat="44.6095" lon="4.05727">
        <ele>1376</ele>
        <time>2014-07-12T16:47:38Z</time>
      </trkpt>
      <trkpt lat="44.609" lon="4.05774">
        <ele>1370</ele>
        <time>2014-07-12T16:47:45Z</time>
      </trkpt>
      <trkpt lat="44.60873" lon="4.05825">
        <ele>1369</ele>
        <time>2014-07-12T16:47:56Z</time>
      </trkpt>
      <trkpt lat="44.60874" lon="4.05825">
        <ele>1369</ele>
        <time>2014-07-12T16:48:06Z</time>
      </trkpt>
      <trkpt lat="44.60848" lon="4.05774">
        <ele>1367</ele>
        <time>2014-07-12T16:48:30Z</time>
      </trkpt>
      <trkpt lat="44.60842" lon="4.05768">
        <ele>1367</ele>
        <time>2014-07-12T16:48:54Z</time>
      </trkpt>
      <trkpt lat="44.60832" lon="4.05758">
        <ele>1362</ele>
        <time>2014-07-12T16:48:58Z</time>
      </trkpt>
      <trkpt lat="44.60821" lon="4.05739">
        <ele>1360</ele>
        <time>2014-07-12T16:49:02Z</time>
      </trkpt>
      <trkpt lat="44.60813" lon="4.05722">
        <ele>1358</ele>
        <time>2014-07-12T16:49:17Z</time>
      </trkpt>
      <trkpt lat="44.60781" lon="4.05677">
        <ele>1355</ele>
        <time>2014-07-12T16:49:32Z</time>
      </trkpt>
      <trkpt lat="44.60765" lon="4.0564">
        <ele>1359</ele>
        <time>2014-07-12T16:49:43Z</time>
      </trkpt>
      <trkpt lat="44.60737" lon="4.05592">
        <ele>1350</ele>
        <time>2014-07-12T16:49:57Z</time>
      </trkpt>
      <trkpt lat="44.60705" lon="4.05555">
        <ele>1353</ele>
        <time>2014-07-12T16:50:16Z</time>
      </trkpt>
      <trkpt lat="44.60678" lon="4.05532">
        <ele>1352</ele>
        <time>2014-07-12T16:50:30Z</time>
      </trkpt>
      <trkpt lat="44.60636" lon="4.05524">
        <ele>1339</ele>
        <time>2014-07-12T16:50:46Z</time>
      </trkpt>
      <trkpt lat="44.60605" lon="4.05523">
        <ele>1337</ele>
        <time>2014-07-12T16:50:57Z</time>
      </trkpt>
      <trkpt lat="44.60584" lon="4.05529">
        <ele>1336</ele>
        <time>2014-07-12T16:51:06Z</time>
      </trkpt>
      <trkpt lat="44.60567" lon="4.05525">
        <ele>1327</ele>
        <time>2014-07-12T16:51:27Z</time>
      </trkpt>
      <trkpt lat="44.60525" lon="4.05521">
        <ele>1322</ele>
        <time>2014-07-12T16:52:07Z</time>
      </trkpt>
      <trkpt lat="44.6051" lon="4.05519">
        <ele>1321</ele>
        <time>2014-07-12T16:52:12Z</time>
      </trkpt>
      <trkpt lat="44.60485" lon="4.05493">
        <ele>1314</ele>
        <time>2014-07-12T16:52:21Z</time>
      </trkpt>
      <trkpt lat="44.6047" lon="4.0547">
        <ele>1309</ele>
        <time>2014-07-12T16:52:27Z</time>
      </trkpt>
      <trkpt lat="44.60459" lon="4.05459">
        <ele>1307</ele>
        <time>2014-07-12T16:52:31Z</time>
      </trkpt>
      <trkpt lat="44.60449" lon="4.05442">
        <ele>1305</ele>
        <time>2014-07-12T16:52:36Z</time>
      </trkpt>
      <trkpt lat="44.60443" lon="4.05428">
        <ele>1303</ele>
        <time>2014-07-12T16:52:40Z</time>
      </trkpt>
      <trkpt lat="44.60427" lon="4.05403">
        <ele>1300</ele>
        <time>2014-07-12T16:52:50Z</time>
      </trkpt>
      <trkpt lat="44.6042" lon="4.05383">
        <ele>1301</ele>
        <time>2014-07-12T16:52:55Z</time>
      </trkpt>
      <trkpt lat="44.60414" lon="4.05345">
        <ele>1285</ele>
        <time>2014-07-12T16:53:05Z</time>
      </trkpt>
      <trkpt lat="44.60415" lon="4.05322">
        <ele>1286</ele>
        <time>2014-07-12T16:53:10Z</time>
      </trkpt>
      <trkpt lat="44.60414" lon="4.0529">
        <ele>1284</ele>
        <time>2014-07-12T16:53:17Z</time>
      </trkpt>
      <trkpt lat="44.60389" lon="4.05261">
        <ele>1284</ele>
        <time>2014-07-12T16:53:27Z</time>
      </trkpt>
      <trkpt lat="44.60371" lon="4.05248">
        <ele>1285</ele>
        <time>2014-07-12T16:53:34Z</time>
      </trkpt>
      <trkpt lat="44.60347" lon="4.05235">
        <ele>1279</ele>
        <time>2014-07-12T16:53:42Z</time>
      </trkpt>
      <trkpt lat="44.60333" lon="4.05218">
        <ele>1264</ele>
        <time>2014-07-12T16:53:48Z</time>
      </trkpt>
      <trkpt lat="44.60328" lon="4.05213">
        <ele>1264</ele>
        <time>2014-07-12T16:53:50Z</time>
      </trkpt>
      <trkpt lat="44.60307" lon="4.05205">
        <ele>1263</ele>
        <time>2014-07-12T16:53:57Z</time>
      </trkpt>
      <trkpt lat="44.60283" lon="4.05199">
        <ele>1259</ele>
        <time>2014-07-12T16:54:04Z</time>
      </trkpt>
      <trkpt lat="44.6025" lon="4.05199">
        <ele>1243</ele>
        <time>2014-07-12T16:54:13Z</time>
      </trkpt>
      <trkpt lat="44.60231" lon="4.05201">
        <ele>1241</ele>
        <time>2014-07-12T16:54:18Z</time>
      </trkpt>
      <trkpt lat="44.60205" lon="4.05191">
        <ele>1238</ele>
        <time>2014-07-12T16:54:27Z</time>
      </trkpt>
      <trkpt lat="44.6019" lon="4.05172">
        <ele>1236</ele>
        <time>2014-07-12T16:54:34Z</time>
      </trkpt>
      <trkpt lat="44.60158" lon="4.05137">
        <ele>1227</ele>
        <time>2014-07-12T16:54:50Z</time>
      </trkpt>
      <trkpt lat="44.60133" lon="4.05112">
        <ele>1225</ele>
        <time>2014-07-12T16:54:57Z</time>
      </trkpt>
      <trkpt lat="44.60098" lon="4.05106">
        <ele>1223</ele>
        <time>2014-07-12T16:55:12Z</time>
      </trkpt>
      <trkpt lat="44.6006" lon="4.05077">
        <ele>1216</ele>
        <time>2014-07-12T16:55:28Z</time>
      </trkpt>
      <trkpt lat="44.60025" lon="4.05054">
        <ele>1213</ele>
        <time>2014-07-12T16:55:42Z</time>
      </trkpt>
      <trkpt lat="44.60018" lon="4.05039">
        <ele>1212</ele>
        <time>2014-07-12T16:56:00Z</time>
      </trkpt>
      <trkpt lat="44.6002" lon="4.05026">
        <ele>1212</ele>
        <time>2014-07-12T16:56:37Z</time>
      </trkpt>
      <trkpt lat="44.60016" lon="4.05019">
        <ele>1211</ele>
        <time>2014-07-12T16:56:41Z</time>
      </trkpt>
      <trkpt lat="44.60005" lon="4.05009">
        <ele>1208</ele>
        <time>2014-07-12T16:56:46Z</time>
      </trkpt>
      <trkpt lat="44.59998" lon="4.05015">
        <ele>1203</ele>
        <time>2014-07-12T16:56:50Z</time>
      </trkpt>
      <trkpt lat="44.59994" lon="4.05019">
        <ele>1203</ele>
        <time>2014-07-12T16:57:16Z</time>
      </trkpt>
      <trkpt lat="44.59977" lon="4.05025">
        <ele>1202</ele>
        <time>2014-07-12T17:14:26Z</time>
      </trkpt>
      <trkpt lat="44.59978" lon="4.05024">
        <ele>1202</ele>
        <time>2014-07-12T17:14:39Z</time>
      </trkpt>
      <trkpt lat="44.59978" lon="4.05024">
        <ele>1202</ele>
        <time>2014-07-12T17:14:48Z</time>
      </trkpt>
    </trkseg>
  </trk>
  <trk>
    <name><![CDATA[13-JUIL-14 16:14:51]]></name>
    <trkseg>
      <trkpt lat="44.59978" lon="4.05027">
        <ele>1202</ele>
        <time>2014-07-12T17:15:09Z</time>
      </trkpt>
      <trkpt lat="44.59978" lon="4.05028">
        <ele>1202</ele>
        <time>2014-07-12T17:15:25Z</time>
      </trkpt>
      <trkpt lat="44.59978" lon="4.05035">
        <ele>1202</ele>
        <time>2014-07-13T07:23:23Z</time>
      </trkpt>
      <trkpt lat="44.59978" lon="4.05033">
        <ele>1202</ele>
        <time>2014-07-13T07:24:37Z</time>
      </trkpt>
      <trkpt lat="44.59985" lon="4.05033">
        <ele>1202</ele>
        <time>2014-07-13T07:26:03Z</time>
      </trkpt>
      <trkpt lat="44.59981" lon="4.05018">
        <ele>1202</ele>
        <time>2014-07-13T07:26:30Z</time>
      </trkpt>
      <trkpt lat="44.59981" lon="4.05018">
        <ele>1202</ele>
        <time>2014-07-13T07:26:41Z</time>
      </trkpt>
      <trkpt lat="44.59996" lon="4.04992">
        <ele>1202</ele>
        <time>2014-07-13T07:27:10Z</time>
      </trkpt>
      <trkpt lat="44.59991" lon="4.04994">
        <ele>1202</ele>
        <time>2014-07-13T07:27:43Z</time>
      </trkpt>
      <trkpt lat="44.59987" lon="4.04995">
        <ele>1201</ele>
        <time>2014-07-13T07:29:34Z</time>
      </trkpt>
      <trkpt lat="44.59998" lon="4.04987">
        <ele>1202</ele>
        <time>2014-07-13T07:31:36Z</time>
      </trkpt>
      <trkpt lat="44.59999" lon="4.04985">
        <ele>1201</ele>
        <time>2014-07-13T07:34:05Z</time>
      </trkpt>
      <trkpt lat="44.59994" lon="4.04994">
        <ele>1202</ele>
        <time>2014-07-13T07:36:24Z</time>
      </trkpt>
      <trkpt lat="44.59996" lon="4.04992">
        <ele>1202</ele>
        <time>2014-07-13T07:37:36Z</time>
      </trkpt>
      <trkpt lat="44.59971" lon="4.05004">
        <ele>1201</ele>
        <time>2014-07-13T07:37:49Z</time>
      </trkpt>
      <trkpt lat="44.59933" lon="4.05005">
        <ele>1196</ele>
        <time>2014-07-13T07:37:59Z</time>
      </trkpt>
      <trkpt lat="44.59899" lon="4.05012">
        <ele>1189</ele>
        <time>2014-07-13T07:38:08Z</time>
      </trkpt>
      <trkpt lat="44.59879" lon="4.05018">
        <ele>1188</ele>
        <time>2014-07-13T07:38:13Z</time>
      </trkpt>
      <trkpt lat="44.59819" lon="4.05011">
        <ele>1181</ele>
        <time>2014-07-13T07:38:24Z</time>
      </trkpt>
      <trkpt lat="44.59802" lon="4.05003">
        <ele>1179</ele>
        <time>2014-07-13T07:38:28Z</time>
      </trkpt>
      <trkpt lat="44.59788" lon="4.04992">
        <ele>1177</ele>
        <time>2014-07-13T07:38:39Z</time>
      </trkpt>
      <trkpt lat="44.59774" lon="4.05057">
        <ele>1176</ele>
        <time>2014-07-13T07:39:03Z</time>
      </trkpt>
      <trkpt lat="44.59749" lon="4.05125">
        <ele>1165</ele>
        <time>2014-07-13T07:39:19Z</time>
      </trkpt>
      <trkpt lat="44.59746" lon="4.05139">
        <ele>1165</ele>
        <time>2014-07-13T07:39:38Z</time>
      </trkpt>
      <trkpt lat="44.59734" lon="4.05189">
        <ele>1158</ele>
        <time>2014-07-13T07:39:47Z</time>
      </trkpt>
      <trkpt lat="44.59692" lon="4.05257">
        <ele>1148</ele>
        <time>2014-07-13T07:40:01Z</time>
      </trkpt>
      <trkpt lat="44.59674" lon="4.053">
        <ele>1147</ele>
        <time>2014-07-13T07:40:10Z</time>
      </trkpt>
      <trkpt lat="44.59655" lon="4.0534">
        <ele>1145</ele>
        <time>2014-07-13T07:40:15Z</time>
      </trkpt>
      <trkpt lat="44.5964" lon="4.05366">
        <ele>1142</ele>
        <time>2014-07-13T07:40:18Z</time>
      </trkpt>
      <trkpt lat="44.59623" lon="4.0541">
        <ele>1140</ele>
        <time>2014-07-13T07:40:23Z</time>
      </trkpt>
      <trkpt lat="44.59609" lon="4.05463">
        <ele>1138</ele>
        <time>2014-07-13T07:40:33Z</time>
      </trkpt>
      <trkpt lat="44.59573" lon="4.05582">
        <ele>1137</ele>
        <time>2014-07-13T07:40:57Z</time>
      </trkpt>
      <trkpt lat="44.59542" lon="4.05681">
        <ele>1142</ele>
        <time>2014-07-13T07:41:23Z</time>
      </trkpt>
      <trkpt lat="44.59535" lon="4.0571">
        <ele>1143</ele>
        <time>2014-07-13T07:41:33Z</time>
      </trkpt>
      <trkpt lat="44.59508" lon="4.05787">
        <ele>1146</ele>
        <time>2014-07-13T07:42:05Z</time>
      </trkpt>
      <trkpt lat="44.59485" lon="4.0586">
        <ele>1159</ele>
        <time>2014-07-13T07:42:35Z</time>
      </trkpt>
      <trkpt lat="44.59469" lon="4.05891">
        <ele>1159</ele>
        <time>2014-07-13T07:42:51Z</time>
      </trkpt>
      <trkpt lat="44.59434" lon="4.05936">
        <ele>1161</ele>
        <time>2014-07-13T07:43:18Z</time>
      </trkpt>
      <trkpt lat="44.59403" lon="4.05985">
        <ele>1168</ele>
        <time>2014-07-13T07:43:46Z</time>
      </trkpt>
      <trkpt lat="44.59372" lon="4.06036">
        <ele>1172</ele>
        <time>2014-07-13T07:44:09Z</time>
      </trkpt>
      <trkpt lat="44.59316" lon="4.06086">
        <ele>1186</ele>
        <time>2014-07-13T07:44:48Z</time>
      </trkpt>
      <trkpt lat="44.59275" lon="4.06141">
        <ele>1190</ele>
        <time>2014-07-13T07:45:17Z</time>
      </trkpt>
      <trkpt lat="44.59249" lon="4.06155">
        <ele>1193</ele>
        <time>2014-07-13T07:45:33Z</time>
      </trkpt>
      <trkpt lat="44.59209" lon="4.06177">
        <ele>1202</ele>
        <time>2014-07-13T07:45:57Z</time>
      </trkpt>
      <trkpt lat="44.5916" lon="4.06201">
        <ele>1203</ele>
        <time>2014-07-13T07:46:25Z</time>
      </trkpt>
      <trkpt lat="44.59109" lon="4.06233">
        <ele>1206</ele>
        <time>2014-07-13T07:46:59Z</time>
      </trkpt>
      <trkpt lat="44.5909" lon="4.06246">
        <ele>1208</ele>
        <time>2014-07-13T07:47:10Z</time>
      </trkpt>
      <trkpt lat="44.59066" lon="4.06274">
        <ele>1216</ele>
        <time>2014-07-13T07:47:24Z</time>
      </trkpt>
      <trkpt lat="44.59041" lon="4.06285">
        <ele>1217</ele>
        <time>2014-07-13T07:47:37Z</time>
      </trkpt>
      <trkpt lat="44.59024" lon="4.06292">
        <ele>1217</ele>
        <time>2014-07-13T07:47:44Z</time>
      </trkpt>
      <trkpt lat="44.59023" lon="4.06293">
        <ele>1217</ele>
        <time>2014-07-13T07:47:45Z</time>
      </trkpt>
      <trkpt lat="44.58983" lon="4.06337">
        <ele>1217</ele>
        <time>2014-07-13T07:48:17Z</time>
      </trkpt>
      <trkpt lat="44.58978" lon="4.06347">
        <ele>1217</ele>
        <time>2014-07-13T07:49:00Z</time>
      </trkpt>
      <trkpt lat="44.58973" lon="4.0638">
        <ele>1215</ele>
        <time>2014-07-13T07:49:08Z</time>
      </trkpt>
      <trkpt lat="44.58973" lon="4.06424">
        <ele>1213</ele>
        <time>2014-07-13T07:49:13Z</time>
      </trkpt>
      <trkpt lat="44.58962" lon="4.06492">
        <ele>1211</ele>
        <time>2014-07-13T07:49:20Z</time>
      </trkpt>
      <trkpt lat="44.58956" lon="4.06505">
        <ele>1211</ele>
        <time>2014-07-13T07:49:22Z</time>
      </trkpt>
      <trkpt lat="44.58936" lon="4.06548">
        <ele>1210</ele>
        <time>2014-07-13T07:49:29Z</time>
      </trkpt>
      <trkpt lat="44.58905" lon="4.06564">
        <ele>1199</ele>
        <time>2014-07-13T07:49:45Z</time>
      </trkpt>
      <trkpt lat="44.58895" lon="4.06517">
        <ele>1196</ele>
        <time>2014-07-13T07:49:52Z</time>
      </trkpt>
      <trkpt lat="44.58867" lon="4.06542">
        <ele>1194</ele>
        <time>2014-07-13T07:49:57Z</time>
      </trkpt>
      <trkpt lat="44.58835" lon="4.06562">
        <ele>1192</ele>
        <time>2014-07-13T07:50:01Z</time>
      </trkpt>
      <trkpt lat="44.58807" lon="4.06578">
        <ele>1184</ele>
        <time>2014-07-13T07:50:04Z</time>
      </trkpt>
      <trkpt lat="44.58799" lon="4.06583">
        <ele>1182</ele>
        <time>2014-07-13T07:50:05Z</time>
      </trkpt>
      <trkpt lat="44.58754" lon="4.06597">
        <ele>1178</ele>
        <time>2014-07-13T07:50:10Z</time>
      </trkpt>
      <trkpt lat="44.58708" lon="4.06589">
        <ele>1172</ele>
        <time>2014-07-13T07:50:15Z</time>
      </trkpt>
      <trkpt lat="44.58648" lon="4.06522">
        <ele>1167</ele>
        <time>2014-07-13T07:50:24Z</time>
      </trkpt>
      <trkpt lat="44.58617" lon="4.06493">
        <ele>1163</ele>
        <time>2014-07-13T07:50:28Z</time>
      </trkpt>
      <trkpt lat="44.5859" lon="4.06478">
        <ele>1162</ele>
        <time>2014-07-13T07:50:31Z</time>
      </trkpt>
      <trkpt lat="44.58543" lon="4.06473">
        <ele>1151</ele>
        <time>2014-07-13T07:50:36Z</time>
      </trkpt>
      <trkpt lat="44.58502" lon="4.06538">
        <ele>1149</ele>
        <time>2014-07-13T07:50:45Z</time>
      </trkpt>
      <trkpt lat="44.58535" lon="4.06615">
        <ele>1146</ele>
        <time>2014-07-13T07:50:53Z</time>
      </trkpt>
      <trkpt lat="44.58552" lon="4.06646">
        <ele>1145</ele>
        <time>2014-07-13T07:50:56Z</time>
      </trkpt>
      <trkpt lat="44.586" lon="4.06738">
        <ele>1146</ele>
        <time>2014-07-13T07:51:05Z</time>
      </trkpt>
      <trkpt lat="44.58611" lon="4.06756">
        <ele>1144</ele>
        <time>2014-07-13T07:51:07Z</time>
      </trkpt>
      <trkpt lat="44.58643" lon="4.06793">
        <ele>1145</ele>
        <time>2014-07-13T07:51:13Z</time>
      </trkpt>
      <trkpt lat="44.58632" lon="4.06826">
        <ele>1144</ele>
        <time>2014-07-13T07:51:21Z</time>
      </trkpt>
      <trkpt lat="44.58602" lon="4.06813">
        <ele>1144</ele>
        <time>2014-07-13T07:51:36Z</time>
      </trkpt>
      <trkpt lat="44.58564" lon="4.06799">
        <ele>1147</ele>
        <time>2014-07-13T07:51:53Z</time>
      </trkpt>
      <trkpt lat="44.58541" lon="4.06789">
        <ele>1148</ele>
        <time>2014-07-13T07:52:06Z</time>
      </trkpt>
      <trkpt lat="44.58475" lon="4.06767">
        <ele>1156</ele>
        <time>2014-07-13T07:52:37Z</time>
      </trkpt>
      <trkpt lat="44.58418" lon="4.06747">
        <ele>1156</ele>
        <time>2014-07-13T07:53:03Z</time>
      </trkpt>
      <trkpt lat="44.58354" lon="4.06739">
        <ele>1160</ele>
        <time>2014-07-13T07:53:35Z</time>
      </trkpt>
      <trkpt lat="44.58334" lon="4.06742">
        <ele>1163</ele>
        <time>2014-07-13T07:53:46Z</time>
      </trkpt>
      <trkpt lat="44.5828" lon="4.06706">
        <ele>1171</ele>
        <time>2014-07-13T07:54:13Z</time>
      </trkpt>
      <trkpt lat="44.58272" lon="4.06706">
        <ele>1172</ele>
        <time>2014-07-13T07:54:18Z</time>
      </trkpt>
      <trkpt lat="44.58262" lon="4.06708">
        <ele>1173</ele>
        <time>2014-07-13T07:54:23Z</time>
      </trkpt>
      <trkpt lat="44.58252" lon="4.06696">
        <ele>1173</ele>
        <time>2014-07-13T07:54:42Z</time>
      </trkpt>
      <trkpt lat="44.58254" lon="4.06697">
        <ele>1173</ele>
        <time>2014-07-13T07:56:04Z</time>
      </trkpt>
      <trkpt lat="44.58247" lon="4.0669">
        <ele>1183</ele>
        <time>2014-07-13T07:58:16Z</time>
      </trkpt>
      <trkpt lat="44.58219" lon="4.06619">
        <ele>1180</ele>
        <time>2014-07-13T07:58:39Z</time>
      </trkpt>
      <trkpt lat="44.58196" lon="4.06542">
        <ele>1178</ele>
        <time>2014-07-13T07:59:05Z</time>
      </trkpt>
      <trkpt lat="44.58164" lon="4.06475">
        <ele>1190</ele>
        <time>2014-07-13T07:59:30Z</time>
      </trkpt>
      <trkpt lat="44.58131" lon="4.06442">
        <ele>1192</ele>
        <time>2014-07-13T07:59:49Z</time>
      </trkpt>
      <trkpt lat="44.58086" lon="4.06417">
        <ele>1197</ele>
        <time>2014-07-13T08:00:14Z</time>
      </trkpt>
      <trkpt lat="44.58057" lon="4.06411">
        <ele>1195</ele>
        <time>2014-07-13T08:00:29Z</time>
      </trkpt>
      <trkpt lat="44.58027" lon="4.0642">
        <ele>1199</ele>
        <time>2014-07-13T08:00:45Z</time>
      </trkpt>
      <trkpt lat="44.57997" lon="4.06444">
        <ele>1197</ele>
        <time>2014-07-13T08:01:01Z</time>
      </trkpt>
      <trkpt lat="44.57891" lon="4.06548">
        <ele>1200</ele>
        <time>2014-07-13T08:01:38Z</time>
      </trkpt>
      <trkpt lat="44.57881" lon="4.06553">
        <ele>1199</ele>
        <time>2014-07-13T08:01:41Z</time>
      </trkpt>
      <trkpt lat="44.57884" lon="4.06541">
        <ele>1199</ele>
        <time>2014-07-13T08:01:46Z</time>
      </trkpt>
      <trkpt lat="44.57911" lon="4.06498">
        <ele>1194</ele>
        <time>2014-07-13T08:01:59Z</time>
      </trkpt>
      <trkpt lat="44.57917" lon="4.06487">
        <ele>1196</ele>
        <time>2014-07-13T08:02:01Z</time>
      </trkpt>
      <trkpt lat="44.57947" lon="4.06424">
        <ele>1191</ele>
        <time>2014-07-13T08:02:09Z</time>
      </trkpt>
      <trkpt lat="44.57962" lon="4.06372">
        <ele>1182</ele>
        <time>2014-07-13T08:02:14Z</time>
      </trkpt>
      <trkpt lat="44.57977" lon="4.06323">
        <ele>1175</ele>
        <time>2014-07-13T08:02:18Z</time>
      </trkpt>
      <trkpt lat="44.58003" lon="4.06268">
        <ele>1178</ele>
        <time>2014-07-13T08:02:23Z</time>
      </trkpt>
      <trkpt lat="44.58034" lon="4.06219">
        <ele>1169</ele>
        <time>2014-07-13T08:02:28Z</time>
      </trkpt>
      <trkpt lat="44.58055" lon="4.06199">
        <ele>1168</ele>
        <time>2014-07-13T08:02:31Z</time>
      </trkpt>
      <trkpt lat="44.58093" lon="4.06167">
        <ele>1162</ele>
        <time>2014-07-13T08:02:36Z</time>
      </trkpt>
      <trkpt lat="44.58125" lon="4.06151">
        <ele>1157</ele>
        <time>2014-07-13T08:02:40Z</time>
      </trkpt>
      <trkpt lat="44.58166" lon="4.06155">
        <ele>1160</ele>
        <time>2014-07-13T08:02:45Z</time>
      </trkpt>
      <trkpt lat="44.58224" lon="4.06197">
        <ele>1159</ele>
        <time>2014-07-13T08:02:54Z</time>
      </trkpt>
      <trkpt lat="44.58232" lon="4.06203">
        <ele>1159</ele>
        <time>2014-07-13T08:02:55Z</time>
      </trkpt>
      <trkpt lat="44.58318" lon="4.06303">
        <ele>1150</ele>
        <time>2014-07-13T08:03:08Z</time>
      </trkpt>
      <trkpt lat="44.58325" lon="4.06419">
        <ele>1145</ele>
        <time>2014-07-13T08:03:17Z</time>
      </trkpt>
      <trkpt lat="44.58325" lon="4.0643">
        <ele>1147</ele>
        <time>2014-07-13T08:03:18Z</time>
      </trkpt>
      <trkpt lat="44.58339" lon="4.06441">
        <ele>1136</ele>
        <time>2014-07-13T08:03:24Z</time>
      </trkpt>
      <trkpt lat="44.58345" lon="4.064">
        <ele>1136</ele>
        <time>2014-07-13T08:03:30Z</time>
      </trkpt>
      <trkpt lat="44.58361" lon="4.06316">
        <ele>1134</ele>
        <time>2014-07-13T08:03:40Z</time>
      </trkpt>
      <trkpt lat="44.58366" lon="4.0627">
        <ele>1133</ele>
        <time>2014-07-13T08:03:45Z</time>
      </trkpt>
      <trkpt lat="44.5837" lon="4.06231">
        <ele>1129</ele>
        <time>2014-07-13T08:03:49Z</time>
      </trkpt>
      <trkpt lat="44.58333" lon="4.06161">
        <ele>1127</ele>
        <time>2014-07-13T08:03:58Z</time>
      </trkpt>
      <trkpt lat="44.58286" lon="4.06123">
        <ele>1127</ele>
        <time>2014-07-13T08:04:05Z</time>
      </trkpt>
      <trkpt lat="44.58248" lon="4.06063">
        <ele>1123</ele>
        <time>2014-07-13T08:04:13Z</time>
      </trkpt>
      <trkpt lat="44.58233" lon="4.06031">
        <ele>1121</ele>
        <time>2014-07-13T08:04:16Z</time>
      </trkpt>
      <trkpt lat="44.58209" lon="4.05989">
        <ele>1112</ele>
        <time>2014-07-13T08:04:20Z</time>
      </trkpt>
      <trkpt lat="44.58195" lon="4.05967">
        <ele>1113</ele>
        <time>2014-07-13T08:04:22Z</time>
      </trkpt>
      <trkpt lat="44.58173" lon="4.0592">
        <ele>1110</ele>
        <time>2014-07-13T08:04:26Z</time>
      </trkpt>
      <trkpt lat="44.58168" lon="4.05909">
        <ele>1107</ele>
        <time>2014-07-13T08:04:27Z</time>
      </trkpt>
      <trkpt lat="44.58143" lon="4.05873">
        <ele>1098</ele>
        <time>2014-07-13T08:04:31Z</time>
      </trkpt>
      <trkpt lat="44.58096" lon="4.05871">
        <ele>1097</ele>
        <time>2014-07-13T08:04:38Z</time>
      </trkpt>
      <trkpt lat="44.58067" lon="4.05904">
        <ele>1101</ele>
        <time>2014-07-13T08:04:43Z</time>
      </trkpt>
      <trkpt lat="44.58052" lon="4.05898">
        <ele>1100</ele>
        <time>2014-07-13T08:04:50Z</time>
      </trkpt>
      <trkpt lat="44.58054" lon="4.05896">
        <ele>1100</ele>
        <time>2014-07-13T08:04:51Z</time>
      </trkpt>
      <trkpt lat="44.5809" lon="4.05831">
        <ele>1089</ele>
        <time>2014-07-13T08:05:06Z</time>
      </trkpt>
      <trkpt lat="44.58144" lon="4.05807">
        <ele>1089</ele>
        <time>2014-07-13T08:05:17Z</time>
      </trkpt>
      <trkpt lat="44.58135" lon="4.05792">
        <ele>1088</ele>
        <time>2014-07-13T08:05:23Z</time>
      </trkpt>
      <trkpt lat="44.58102" lon="4.05771">
        <ele>1087</ele>
        <time>2014-07-13T08:05:33Z</time>
      </trkpt>
      <trkpt lat="44.58098" lon="4.05758">
        <ele>1086</ele>
        <time>2014-07-13T08:05:35Z</time>
      </trkpt>
      <trkpt lat="44.58097" lon="4.05737">
        <ele>1085</ele>
        <time>2014-07-13T08:05:38Z</time>
      </trkpt>
      <trkpt lat="44.58098" lon="4.0573">
        <ele>1085</ele>
        <time>2014-07-13T08:05:39Z</time>
      </trkpt>
      <trkpt lat="44.58117" lon="4.05696">
        <ele>1086</ele>
        <time>2014-07-13T08:05:45Z</time>
      </trkpt>
      <trkpt lat="44.58121" lon="4.05693">
        <ele>1086</ele>
        <time>2014-07-13T08:05:46Z</time>
      </trkpt>
      <trkpt lat="44.58134" lon="4.05668">
        <ele>1085</ele>
        <time>2014-07-13T08:05:51Z</time>
      </trkpt>
      <trkpt lat="44.58153" lon="4.05642">
        <ele>1089</ele>
        <time>2014-07-13T08:05:59Z</time>
      </trkpt>
      <trkpt lat="44.58182" lon="4.05597">
        <ele>1089</ele>
        <time>2014-07-13T08:06:23Z</time>
      </trkpt>
      <trkpt lat="44.58189" lon="4.05585">
        <ele>1089</ele>
        <time>2014-07-13T08:06:38Z</time>
      </trkpt>
      <trkpt lat="44.58185" lon="4.05588">
        <ele>1089</ele>
        <time>2014-07-13T08:06:42Z</time>
      </trkpt>
      <trkpt lat="44.58187" lon="4.05588">
        <ele>1089</ele>
        <time>2014-07-13T08:06:53Z</time>
      </trkpt>
      <trkpt lat="44.58202" lon="4.05573">
        <ele>1094</ele>
        <time>2014-07-13T08:07:04Z</time>
      </trkpt>
      <trkpt lat="44.58286" lon="4.05494">
        <ele>1093</ele>
        <time>2014-07-13T08:07:48Z</time>
      </trkpt>
      <trkpt lat="44.58323" lon="4.05474">
        <ele>1088</ele>
        <time>2014-07-13T08:08:03Z</time>
      </trkpt>
      <trkpt lat="44.58328" lon="4.05386">
        <ele>1099</ele>
        <time>2014-07-13T08:08:29Z</time>
      </trkpt>
      <trkpt lat="44.58342" lon="4.05283">
        <ele>1089</ele>
        <time>2014-07-13T08:08:55Z</time>
      </trkpt>
      <trkpt lat="44.5828" lon="4.05241">
        <ele>1090</ele>
        <time>2014-07-13T08:09:22Z</time>
      </trkpt>
      <trkpt lat="44.58137" lon="4.0529">
        <ele>1112</ele>
        <time>2014-07-13T08:10:08Z</time>
      </trkpt>
      <trkpt lat="44.58075" lon="4.05283">
        <ele>1120</ele>
        <time>2014-07-13T08:10:30Z</time>
      </trkpt>
      <trkpt lat="44.58086" lon="4.05304">
        <ele>1116</ele>
        <time>2014-07-13T08:10:48Z</time>
      </trkpt>
      <trkpt lat="44.58123" lon="4.05314">
        <ele>1115</ele>
        <time>2014-07-13T08:11:11Z</time>
      </trkpt>
      <trkpt lat="44.58153" lon="4.05313">
        <ele>1115</ele>
        <time>2014-07-13T08:11:28Z</time>
      </trkpt>
      <trkpt lat="44.58214" lon="4.05318">
        <ele>1112</ele>
        <time>2014-07-13T08:11:58Z</time>
      </trkpt>
      <trkpt lat="44.58228" lon="4.05318">
        <ele>1112</ele>
        <time>2014-07-13T08:12:04Z</time>
      </trkpt>
      <trkpt lat="44.58225" lon="4.05354">
        <ele>1120</ele>
        <time>2014-07-13T08:12:23Z</time>
      </trkpt>
      <trkpt lat="44.58211" lon="4.05375">
        <ele>1121</ele>
        <time>2014-07-13T08:12:38Z</time>
      </trkpt>
      <trkpt lat="44.58173" lon="4.05408">
        <ele>1127</ele>
        <time>2014-07-13T08:13:08Z</time>
      </trkpt>
      <trkpt lat="44.58116" lon="4.05441">
        <ele>1134</ele>
        <time>2014-07-13T08:13:46Z</time>
      </trkpt>
      <trkpt lat="44.58092" lon="4.05458">
        <ele>1134</ele>
        <time>2014-07-13T08:14:01Z</time>
      </trkpt>
      <trkpt lat="44.58044" lon="4.05481">
        <ele>1144</ele>
        <time>2014-07-13T08:14:32Z</time>
      </trkpt>
      <trkpt lat="44.57997" lon="4.05488">
        <ele>1149</ele>
        <time>2014-07-13T08:14:56Z</time>
      </trkpt>
      <trkpt lat="44.57955" lon="4.05476">
        <ele>1155</ele>
        <time>2014-07-13T08:15:22Z</time>
      </trkpt>
      <trkpt lat="44.5794" lon="4.05463">
        <ele>1157</ele>
        <time>2014-07-13T08:15:43Z</time>
      </trkpt>
      <trkpt lat="44.57968" lon="4.0544">
        <ele>1157</ele>
        <time>2014-07-13T08:16:05Z</time>
      </trkpt>
      <trkpt lat="44.57974" lon="4.05419">
        <ele>1157</ele>
        <time>2014-07-13T08:16:13Z</time>
      </trkpt>
      <trkpt lat="44.57944" lon="4.05376">
        <ele>1161</ele>
        <time>2014-07-13T08:16:39Z</time>
      </trkpt>
      <trkpt lat="44.57896" lon="4.05353">
        <ele>1169</ele>
        <time>2014-07-13T08:17:05Z</time>
      </trkpt>
      <trkpt lat="44.5788" lon="4.05344">
        <ele>1171</ele>
        <time>2014-07-13T08:17:13Z</time>
      </trkpt>
      <trkpt lat="44.5778" lon="4.05282">
        <ele>1177</ele>
        <time>2014-07-13T08:18:01Z</time>
      </trkpt>
      <trkpt lat="44.57717" lon="4.05232">
        <ele>1177</ele>
        <time>2014-07-13T08:18:27Z</time>
      </trkpt>
      <trkpt lat="44.57651" lon="4.05173">
        <ele>1183</ele>
        <time>2014-07-13T08:18:52Z</time>
      </trkpt>
      <trkpt lat="44.57602" lon="4.05086">
        <ele>1185</ele>
        <time>2014-07-13T08:19:24Z</time>
      </trkpt>
      <trkpt lat="44.57538" lon="4.04972">
        <ele>1185</ele>
        <time>2014-07-13T08:19:59Z</time>
      </trkpt>
      <trkpt lat="44.57514" lon="4.04953">
        <ele>1184</ele>
        <time>2014-07-13T08:20:09Z</time>
      </trkpt>
      <trkpt lat="44.57512" lon="4.04939">
        <ele>1183</ele>
        <time>2014-07-13T08:20:13Z</time>
      </trkpt>
      <trkpt lat="44.57502" lon="4.04839">
        <ele>1183</ele>
        <time>2014-07-13T08:20:47Z</time>
      </trkpt>
      <trkpt lat="44.57496" lon="4.04782">
        <ele>1173</ele>
        <time>2014-07-13T08:21:01Z</time>
      </trkpt>
      <trkpt lat="44.57503" lon="4.04661">
        <ele>1187</ele>
        <time>2014-07-13T08:21:28Z</time>
      </trkpt>
      <trkpt lat="44.57513" lon="4.04571">
        <ele>1186</ele>
        <time>2014-07-13T08:21:42Z</time>
      </trkpt>
      <trkpt lat="44.57516" lon="4.04527">
        <ele>1187</ele>
        <time>2014-07-13T08:21:49Z</time>
      </trkpt>
      <trkpt lat="44.57536" lon="4.04403">
        <ele>1185</ele>
        <time>2014-07-13T08:22:12Z</time>
      </trkpt>
      <trkpt lat="44.57561" lon="4.04301">
        <ele>1185</ele>
        <time>2014-07-13T08:22:29Z</time>
      </trkpt>
      <trkpt lat="44.57543" lon="4.04247">
        <ele>1188</ele>
        <time>2014-07-13T08:22:38Z</time>
      </trkpt>
      <trkpt lat="44.57537" lon="4.04235">
        <ele>1188</ele>
        <time>2014-07-13T08:22:40Z</time>
      </trkpt>
      <trkpt lat="44.57524" lon="4.04193">
        <ele>1189</ele>
        <time>2014-07-13T08:22:47Z</time>
      </trkpt>
      <trkpt lat="44.57536" lon="4.04127">
        <ele>1192</ele>
        <time>2014-07-13T08:23:03Z</time>
      </trkpt>
      <trkpt lat="44.57545" lon="4.04096">
        <ele>1193</ele>
        <time>2014-07-13T08:23:15Z</time>
      </trkpt>
      <trkpt lat="44.5757" lon="4.04029">
        <ele>1191</ele>
        <time>2014-07-13T08:23:38Z</time>
      </trkpt>
      <trkpt lat="44.57582" lon="4.03991">
        <ele>1191</ele>
        <time>2014-07-13T08:23:48Z</time>
      </trkpt>
      <trkpt lat="44.57575" lon="4.03877">
        <ele>1185</ele>
        <time>2014-07-13T08:24:05Z</time>
      </trkpt>
      <trkpt lat="44.57581" lon="4.03772">
        <ele>1186</ele>
        <time>2014-07-13T08:24:28Z</time>
      </trkpt>
      <trkpt lat="44.5758" lon="4.03768">
        <ele>1187</ele>
        <time>2014-07-13T08:24:29Z</time>
      </trkpt>
      <trkpt lat="44.57531" lon="4.03694">
        <ele>1187</ele>
        <time>2014-07-13T08:24:48Z</time>
      </trkpt>
      <trkpt lat="44.57493" lon="4.03657">
        <ele>1188</ele>
        <time>2014-07-13T08:24:57Z</time>
      </trkpt>
      <trkpt lat="44.5742" lon="4.03617">
        <ele>1188</ele>
        <time>2014-07-13T08:25:12Z</time>
      </trkpt>
      <trkpt lat="44.5726" lon="4.03472">
        <ele>1187</ele>
        <time>2014-07-13T08:25:47Z</time>
      </trkpt>
      <trkpt lat="44.57239" lon="4.03437">
        <ele>1185</ele>
        <time>2014-07-13T08:25:52Z</time>
      </trkpt>
      <trkpt lat="44.57224" lon="4.0342">
        <ele>1185</ele>
        <time>2014-07-13T08:25:55Z</time>
      </trkpt>
      <trkpt lat="44.57175" lon="4.03353">
        <ele>1186</ele>
        <time>2014-07-13T08:26:07Z</time>
      </trkpt>
      <trkpt lat="44.57142" lon="4.03318">
        <ele>1186</ele>
        <time>2014-07-13T08:26:18Z</time>
      </trkpt>
      <trkpt lat="44.57139" lon="4.03312">
        <ele>1186</ele>
        <time>2014-07-13T08:26:19Z</time>
      </trkpt>
      <trkpt lat="44.57128" lon="4.03293">
        <ele>1185</ele>
        <time>2014-07-13T08:26:22Z</time>
      </trkpt>
      <trkpt lat="44.57119" lon="4.03285">
        <ele>1185</ele>
        <time>2014-07-13T08:26:31Z</time>
      </trkpt>
      <trkpt lat="44.57116" lon="4.03274">
        <ele>1184</ele>
        <time>2014-07-13T08:26:43Z</time>
      </trkpt>
      <trkpt lat="44.57135" lon="4.03273">
        <ele>1184</ele>
        <time>2014-07-13T08:27:03Z</time>
      </trkpt>
      <trkpt lat="44.57138" lon="4.0327">
        <ele>1184</ele>
        <time>2014-07-13T08:27:47Z</time>
      </trkpt>
      <trkpt lat="44.57136" lon="4.0327">
        <ele>1184</ele>
        <time>2014-07-13T08:28:01Z</time>
      </trkpt>
      <trkpt lat="44.57107" lon="4.03266">
        <ele>1184</ele>
        <time>2014-07-13T08:28:14Z</time>
      </trkpt>
      <trkpt lat="44.57048" lon="4.03249">
        <ele>1183</ele>
        <time>2014-07-13T08:28:47Z</time>
      </trkpt>
      <trkpt lat="44.57043" lon="4.03246">
        <ele>1183</ele>
        <time>2014-07-13T08:28:50Z</time>
      </trkpt>
      <trkpt lat="44.57012" lon="4.03223">
        <ele>1184</ele>
        <time>2014-07-13T08:29:17Z</time>
      </trkpt>
      <trkpt lat="44.57008" lon="4.03229">
        <ele>1184</ele>
        <time>2014-07-13T08:30:22Z</time>
      </trkpt>
      <trkpt lat="44.57013" lon="4.03225">
        <ele>1184</ele>
        <time>2014-07-13T08:32:27Z</time>
      </trkpt>
      <trkpt lat="44.57006" lon="4.03216">
        <ele>1183</ele>
        <time>2014-07-13T08:33:31Z</time>
      </trkpt>
      <trkpt lat="44.56982" lon="4.03224">
        <ele>1183</ele>
        <time>2014-07-13T08:33:40Z</time>
      </trkpt>
      <trkpt lat="44.56967" lon="4.0323">
        <ele>1182</ele>
        <time>2014-07-13T08:33:43Z</time>
      </trkpt>
      <trkpt lat="44.5694" lon="4.03234">
        <ele>1181</ele>
        <time>2014-07-13T08:33:47Z</time>
      </trkpt>
      <trkpt lat="44.56914" lon="4.03233">
        <ele>1178</ele>
        <time>2014-07-13T08:33:56Z</time>
      </trkpt>
      <trkpt lat="44.56881" lon="4.03236">
        <ele>1176</ele>
        <time>2014-07-13T08:34:04Z</time>
      </trkpt>
      <trkpt lat="44.56853" lon="4.03239">
        <ele>1174</ele>
        <time>2014-07-13T08:34:08Z</time>
      </trkpt>
      <trkpt lat="44.56818" lon="4.0322">
        <ele>1168</ele>
        <time>2014-07-13T08:34:13Z</time>
      </trkpt>
      <trkpt lat="44.56807" lon="4.03211">
        <ele>1168</ele>
        <time>2014-07-13T08:34:15Z</time>
      </trkpt>
      <trkpt lat="44.56772" lon="4.0319">
        <ele>1165</ele>
        <time>2014-07-13T08:34:20Z</time>
      </trkpt>
      <trkpt lat="44.56721" lon="4.03153">
        <ele>1155</ele>
        <time>2014-07-13T08:34:28Z</time>
      </trkpt>
      <trkpt lat="44.56715" lon="4.03149">
        <ele>1155</ele>
        <time>2014-07-13T08:34:29Z</time>
      </trkpt>
      <trkpt lat="44.56696" lon="4.03144">
        <ele>1154</ele>
        <time>2014-07-13T08:34:32Z</time>
      </trkpt>
      <trkpt lat="44.56675" lon="4.03132">
        <ele>1153</ele>
        <time>2014-07-13T08:34:35Z</time>
      </trkpt>
      <trkpt lat="44.56639" lon="4.03098">
        <ele>1147</ele>
        <time>2014-07-13T08:34:41Z</time>
      </trkpt>
      <trkpt lat="44.56623" lon="4.03083">
        <ele>1146</ele>
        <time>2014-07-13T08:34:44Z</time>
      </trkpt>
      <trkpt lat="44.56614" lon="4.03076">
        <ele>1145</ele>
        <time>2014-07-13T08:34:46Z</time>
      </trkpt>
      <trkpt lat="44.56592" lon="4.03067">
        <ele>1144</ele>
        <time>2014-07-13T08:34:51Z</time>
      </trkpt>
      <trkpt lat="44.56584" lon="4.0306">
        <ele>1144</ele>
        <time>2014-07-13T08:34:53Z</time>
      </trkpt>
      <trkpt lat="44.56556" lon="4.03024">
        <ele>1140</ele>
        <time>2014-07-13T08:35:01Z</time>
      </trkpt>
      <trkpt lat="44.5655" lon="4.03016">
        <ele>1140</ele>
        <time>2014-07-13T08:35:03Z</time>
      </trkpt>
      <trkpt lat="44.56525" lon="4.02976">
        <ele>1137</ele>
        <time>2014-07-13T08:35:12Z</time>
      </trkpt>
      <trkpt lat="44.56521" lon="4.02972">
        <ele>1137</ele>
        <time>2014-07-13T08:35:13Z</time>
      </trkpt>
      <trkpt lat="44.56464" lon="4.0291">
        <ele>1128</ele>
        <time>2014-07-13T08:35:33Z</time>
      </trkpt>
      <trkpt lat="44.56461" lon="4.02906">
        <ele>1128</ele>
        <time>2014-07-13T08:35:34Z</time>
      </trkpt>
      <trkpt lat="44.56434" lon="4.02876">
        <ele>1126</ele>
        <time>2014-07-13T08:35:43Z</time>
      </trkpt>
      <trkpt lat="44.56362" lon="4.02829">
        <ele>1124</ele>
        <time>2014-07-13T08:36:02Z</time>
      </trkpt>
      <trkpt lat="44.56361" lon="4.02827">
        <ele>1124</ele>
        <time>2014-07-13T08:36:22Z</time>
      </trkpt>
      <trkpt lat="44.56352" lon="4.02811">
        <ele>1124</ele>
        <time>2014-07-13T08:36:57Z</time>
      </trkpt>
      <trkpt lat="44.56292" lon="4.02738">
        <ele>1125</ele>
        <time>2014-07-13T08:37:16Z</time>
      </trkpt>
      <trkpt lat="44.56172" lon="4.02617">
        <ele>1122</ele>
        <time>2014-07-13T08:37:53Z</time>
      </trkpt>
      <trkpt lat="44.5617" lon="4.02587">
        <ele>1123</ele>
        <time>2014-07-13T08:38:01Z</time>
      </trkpt>
      <trkpt lat="44.56169" lon="4.02563">
        <ele>1126</ele>
        <time>2014-07-13T08:38:05Z</time>
      </trkpt>
      <trkpt lat="44.56119" lon="4.02504">
        <ele>1126</ele>
        <time>2014-07-13T08:38:23Z</time>
      </trkpt>
      <trkpt lat="44.56096" lon="4.02464">
        <ele>1130</ele>
        <time>2014-07-13T08:38:34Z</time>
      </trkpt>
      <trkpt lat="44.56076" lon="4.02423">
        <ele>1127</ele>
        <time>2014-07-13T08:39:06Z</time>
      </trkpt>
      <trkpt lat="44.56075" lon="4.02406">
        <ele>1126</ele>
        <time>2014-07-13T08:39:40Z</time>
      </trkpt>
      <trkpt lat="44.56068" lon="4.02382">
        <ele>1125</ele>
        <time>2014-07-13T08:40:16Z</time>
      </trkpt>
      <trkpt lat="44.5606" lon="4.02327">
        <ele>1121</ele>
        <time>2014-07-13T08:40:25Z</time>
      </trkpt>
      <trkpt lat="44.5606" lon="4.02306">
        <ele>1120</ele>
        <time>2014-07-13T08:40:28Z</time>
      </trkpt>
      <trkpt lat="44.56081" lon="4.02258">
        <ele>1121</ele>
        <time>2014-07-13T08:40:41Z</time>
      </trkpt>
      <trkpt lat="44.56039" lon="4.02242">
        <ele>1113</ele>
        <time>2014-07-13T08:40:50Z</time>
      </trkpt>
      <trkpt lat="44.56025" lon="4.02241">
        <ele>1111</ele>
        <time>2014-07-13T08:40:52Z</time>
      </trkpt>
      <trkpt lat="44.56003" lon="4.02195">
        <ele>1110</ele>
        <time>2014-07-13T08:41:01Z</time>
      </trkpt>
      <trkpt lat="44.5599" lon="4.02165">
        <ele>1108</ele>
        <time>2014-07-13T08:41:10Z</time>
      </trkpt>
      <trkpt lat="44.55961" lon="4.02164">
        <ele>1110</ele>
        <time>2014-07-13T08:41:21Z</time>
      </trkpt>
      <trkpt lat="44.5593" lon="4.02153">
        <ele>1109</ele>
        <time>2014-07-13T08:41:35Z</time>
      </trkpt>
      <trkpt lat="44.55901" lon="4.02143">
        <ele>1112</ele>
        <time>2014-07-13T08:41:47Z</time>
      </trkpt>
      <trkpt lat="44.55875" lon="4.02101">
        <ele>1117</ele>
        <time>2014-07-13T08:42:09Z</time>
      </trkpt>
      <trkpt lat="44.55854" lon="4.0205">
        <ele>1127</ele>
        <time>2014-07-13T08:42:34Z</time>
      </trkpt>
      <trkpt lat="44.55831" lon="4.02007">
        <ele>1133</ele>
        <time>2014-07-13T08:42:57Z</time>
      </trkpt>
      <trkpt lat="44.55801" lon="4.01959">
        <ele>1137</ele>
        <time>2014-07-13T08:43:25Z</time>
      </trkpt>
      <trkpt lat="44.55769" lon="4.0194">
        <ele>1137</ele>
        <time>2014-07-13T08:43:53Z</time>
      </trkpt>
      <trkpt lat="44.55728" lon="4.01889">
        <ele>1140</ele>
        <time>2014-07-13T08:44:27Z</time>
      </trkpt>
      <trkpt lat="44.55706" lon="4.01855">
        <ele>1141</ele>
        <time>2014-07-13T08:44:42Z</time>
      </trkpt>
      <trkpt lat="44.55661" lon="4.0177">
        <ele>1143</ele>
        <time>2014-07-13T08:45:37Z</time>
      </trkpt>
      <trkpt lat="44.55615" lon="4.01708">
        <ele>1142</ele>
        <time>2014-07-13T08:46:03Z</time>
      </trkpt>
      <trkpt lat="44.55508" lon="4.01586">
        <ele>1137</ele>
        <time>2014-07-13T08:46:44Z</time>
      </trkpt>
      <trkpt lat="44.55465" lon="4.01493">
        <ele>1131</ele>
        <time>2014-07-13T08:46:57Z</time>
      </trkpt>
      <trkpt lat="44.55372" lon="4.01347">
        <ele>1126</ele>
        <time>2014-07-13T08:47:20Z</time>
      </trkpt>
      <trkpt lat="44.55347" lon="4.01321">
        <ele>1121</ele>
        <time>2014-07-13T08:47:24Z</time>
      </trkpt>
      <trkpt lat="44.55304" lon="4.01276">
        <ele>1118</ele>
        <time>2014-07-13T08:47:29Z</time>
      </trkpt>
      <trkpt lat="44.55258" lon="4.01207">
        <ele>1117</ele>
        <time>2014-07-13T08:47:35Z</time>
      </trkpt>
      <trkpt lat="44.55217" lon="4.01128">
        <ele>1121</ele>
        <time>2014-07-13T08:47:45Z</time>
      </trkpt>
      <trkpt lat="44.55196" lon="4.01101">
        <ele>1122</ele>
        <time>2014-07-13T08:47:54Z</time>
      </trkpt>
      <trkpt lat="44.55164" lon="4.01057">
        <ele>1127</ele>
        <time>2014-07-13T08:48:14Z</time>
      </trkpt>
      <trkpt lat="44.55142" lon="4.01029">
        <ele>1128</ele>
        <time>2014-07-13T08:48:28Z</time>
      </trkpt>
      <trkpt lat="44.55064" lon="4.00969">
        <ele>1135</ele>
        <time>2014-07-13T08:49:10Z</time>
      </trkpt>
      <trkpt lat="44.54992" lon="4.00939">
        <ele>1138</ele>
        <time>2014-07-13T08:49:44Z</time>
      </trkpt>
      <trkpt lat="44.54892" lon="4.00908">
        <ele>1141</ele>
        <time>2014-07-13T08:50:09Z</time>
      </trkpt>
      <trkpt lat="44.54867" lon="4.009">
        <ele>1141</ele>
        <time>2014-07-13T08:50:15Z</time>
      </trkpt>
      <trkpt lat="44.54857" lon="4.00898">
        <ele>1141</ele>
        <time>2014-07-13T08:50:17Z</time>
      </trkpt>
      <trkpt lat="44.54842" lon="4.00902">
        <ele>1142</ele>
        <time>2014-07-13T08:51:04Z</time>
      </trkpt>
      <trkpt lat="44.54722" lon="4.00885">
        <ele>1140</ele>
        <time>2014-07-13T08:51:41Z</time>
      </trkpt>
      <trkpt lat="44.54687" lon="4.00893">
        <ele>1140</ele>
        <time>2014-07-13T08:51:47Z</time>
      </trkpt>
      <trkpt lat="44.54516" lon="4.00926">
        <ele>1139</ele>
        <time>2014-07-13T08:52:21Z</time>
      </trkpt>
      <trkpt lat="44.54496" lon="4.00928">
        <ele>1140</ele>
        <time>2014-07-13T08:52:25Z</time>
      </trkpt>
      <trkpt lat="44.54473" lon="4.00929">
        <ele>1139</ele>
        <time>2014-07-13T08:52:30Z</time>
      </trkpt>
      <trkpt lat="44.54348" lon="4.0098">
        <ele>1134</ele>
        <time>2014-07-13T08:52:57Z</time>
      </trkpt>
      <trkpt lat="44.54278" lon="4.0101">
        <ele>1132</ele>
        <time>2014-07-13T08:53:07Z</time>
      </trkpt>
      <trkpt lat="44.54264" lon="4.01015">
        <ele>1132</ele>
        <time>2014-07-13T08:53:09Z</time>
      </trkpt>
      <trkpt lat="44.54185" lon="4.01">
        <ele>1127</ele>
        <time>2014-07-13T08:53:22Z</time>
      </trkpt>
      <trkpt lat="44.54118" lon="4.00954">
        <ele>1126</ele>
        <time>2014-07-13T08:53:35Z</time>
      </trkpt>
      <trkpt lat="44.54102" lon="4.00943">
        <ele>1126</ele>
        <time>2014-07-13T08:53:38Z</time>
      </trkpt>
      <trkpt lat="44.5406" lon="4.00904">
        <ele>1120</ele>
        <time>2014-07-13T08:53:46Z</time>
      </trkpt>
      <trkpt lat="44.5403" lon="4.0088">
        <ele>1118</ele>
        <time>2014-07-13T08:53:51Z</time>
      </trkpt>
      <trkpt lat="44.5396" lon="4.00817">
        <ele>1113</ele>
        <time>2014-07-13T08:54:05Z</time>
      </trkpt>
      <trkpt lat="44.53927" lon="4.00788">
        <ele>1113</ele>
        <time>2014-07-13T08:54:29Z</time>
      </trkpt>
      <trkpt lat="44.53917" lon="4.00777">
        <ele>1111</ele>
        <time>2014-07-13T08:55:57Z</time>
      </trkpt>
      <trkpt lat="44.53905" lon="4.00764">
        <ele>1111</ele>
        <time>2014-07-13T08:56:12Z</time>
      </trkpt>
      <trkpt lat="44.53872" lon="4.00735">
        <ele>1109</ele>
        <time>2014-07-13T08:56:19Z</time>
      </trkpt>
      <trkpt lat="44.53841" lon="4.00716">
        <ele>1108</ele>
        <time>2014-07-13T08:56:25Z</time>
      </trkpt>
      <trkpt lat="44.53812" lon="4.00682">
        <ele>1106</ele>
        <time>2014-07-13T08:56:31Z</time>
      </trkpt>
      <trkpt lat="44.53807" lon="4.00676">
        <ele>1106</ele>
        <time>2014-07-13T08:56:32Z</time>
      </trkpt>
      <trkpt lat="44.53749" lon="4.00606">
        <ele>1106</ele>
        <time>2014-07-13T08:56:47Z</time>
      </trkpt>
      <trkpt lat="44.53684" lon="4.00572">
        <ele>1102</ele>
        <time>2014-07-13T08:57:05Z</time>
      </trkpt>
      <trkpt lat="44.53611" lon="4.00587">
        <ele>1104</ele>
        <time>2014-07-13T08:57:23Z</time>
      </trkpt>
      <trkpt lat="44.53566" lon="4.00571">
        <ele>1100</ele>
        <time>2014-07-13T08:57:34Z</time>
      </trkpt>
      <trkpt lat="44.53518" lon="4.00526">
        <ele>1095</ele>
        <time>2014-07-13T08:57:45Z</time>
      </trkpt>
      <trkpt lat="44.53508" lon="4.00499">
        <ele>1090</ele>
        <time>2014-07-13T08:57:50Z</time>
      </trkpt>
      <trkpt lat="44.53503" lon="4.00472">
        <ele>1089</ele>
        <time>2014-07-13T08:57:54Z</time>
      </trkpt>
      <trkpt lat="44.53494" lon="4.00433">
        <ele>1085</ele>
        <time>2014-07-13T08:57:59Z</time>
      </trkpt>
      <trkpt lat="44.53486" lon="4.00395">
        <ele>1081</ele>
        <time>2014-07-13T08:58:16Z</time>
      </trkpt>
      <trkpt lat="44.53498" lon="4.00392">
        <ele>1081</ele>
        <time>2014-07-13T08:58:24Z</time>
      </trkpt>
      <trkpt lat="44.53499" lon="4.00392">
        <ele>1081</ele>
        <time>2014-07-13T08:58:25Z</time>
      </trkpt>
      <trkpt lat="44.53514" lon="4.00389">
        <ele>1082</ele>
        <time>2014-07-13T08:58:34Z</time>
      </trkpt>
      <trkpt lat="44.53528" lon="4.00248">
        <ele>1080</ele>
        <time>2014-07-13T08:59:01Z</time>
      </trkpt>
      <trkpt lat="44.53541" lon="4.00156">
        <ele>1082</ele>
        <time>2014-07-13T08:59:20Z</time>
      </trkpt>
      <trkpt lat="44.53557" lon="3.99989">
        <ele>1081</ele>
        <time>2014-07-13T08:59:54Z</time>
      </trkpt>
      <trkpt lat="44.53536" lon="3.99934">
        <ele>1081</ele>
        <time>2014-07-13T09:00:07Z</time>
      </trkpt>
      <trkpt lat="44.53507" lon="3.9991">
        <ele>1079</ele>
        <time>2014-07-13T09:00:16Z</time>
      </trkpt>
      <trkpt lat="44.53453" lon="3.99873">
        <ele>1081</ele>
        <time>2014-07-13T09:00:29Z</time>
      </trkpt>
      <trkpt lat="44.53447" lon="3.99866">
        <ele>1081</ele>
        <time>2014-07-13T09:00:31Z</time>
      </trkpt>
      <trkpt lat="44.534" lon="3.99808">
        <ele>1080</ele>
        <time>2014-07-13T09:00:48Z</time>
      </trkpt>
      <trkpt lat="44.53323" lon="3.9978">
        <ele>1080</ele>
        <time>2014-07-13T09:01:08Z</time>
      </trkpt>
      <trkpt lat="44.53263" lon="3.99804">
        <ele>1082</ele>
        <time>2014-07-13T09:01:25Z</time>
      </trkpt>
      <trkpt lat="44.53188" lon="3.9989">
        <ele>1085</ele>
        <time>2014-07-13T09:01:48Z</time>
      </trkpt>
      <trkpt lat="44.53157" lon="3.99895">
        <ele>1086</ele>
        <time>2014-07-13T09:01:54Z</time>
      </trkpt>
      <trkpt lat="44.53146" lon="3.99894">
        <ele>1086</ele>
        <time>2014-07-13T09:01:56Z</time>
      </trkpt>
      <trkpt lat="44.53136" lon="3.9989">
        <ele>1086</ele>
        <time>2014-07-13T09:01:58Z</time>
      </trkpt>
      <trkpt lat="44.53074" lon="3.99884">
        <ele>1087</ele>
        <time>2014-07-13T09:02:11Z</time>
      </trkpt>
      <trkpt lat="44.52997" lon="3.99891">
        <ele>1086</ele>
        <time>2014-07-13T09:02:28Z</time>
      </trkpt>
      <trkpt lat="44.52876" lon="3.99902">
        <ele>1086</ele>
        <time>2014-07-13T09:02:56Z</time>
      </trkpt>
      <trkpt lat="44.52867" lon="3.99899">
        <ele>1086</ele>
        <time>2014-07-13T09:02:58Z</time>
      </trkpt>
      <trkpt lat="44.52769" lon="3.99854">
        <ele>1082</ele>
        <time>2014-07-13T09:03:39Z</time>
      </trkpt>
      <trkpt lat="44.52769" lon="3.99855">
        <ele>1082</ele>
        <time>2014-07-13T09:04:44Z</time>
      </trkpt>
      <trkpt lat="44.52768" lon="3.99851">
        <ele>1082</ele>
        <time>2014-07-13T09:06:25Z</time>
      </trkpt>
      <trkpt lat="44.52767" lon="3.99854">
        <ele>1082</ele>
        <time>2014-07-13T09:09:34Z</time>
      </trkpt>
      <trkpt lat="44.52756" lon="3.99854">
        <ele>1081</ele>
        <time>2014-07-13T09:10:33Z</time>
      </trkpt>
      <trkpt lat="44.52695" lon="3.99859">
        <ele>1083</ele>
        <time>2014-07-13T09:10:45Z</time>
      </trkpt>
      <trkpt lat="44.52624" lon="3.99829">
        <ele>1075</ele>
        <time>2014-07-13T09:10:55Z</time>
      </trkpt>
      <trkpt lat="44.52516" lon="3.99789">
        <ele>1075</ele>
        <time>2014-07-13T09:11:10Z</time>
      </trkpt>
      <trkpt lat="44.52428" lon="3.99793">
        <ele>1073</ele>
        <time>2014-07-13T09:11:22Z</time>
      </trkpt>
      <trkpt lat="44.52421" lon="3.99795">
        <ele>1073</ele>
        <time>2014-07-13T09:11:23Z</time>
      </trkpt>
      <trkpt lat="44.52356" lon="3.99819">
        <ele>1067</ele>
        <time>2014-07-13T09:11:32Z</time>
      </trkpt>
      <trkpt lat="44.52305" lon="3.9984">
        <ele>1068</ele>
        <time>2014-07-13T09:11:39Z</time>
      </trkpt>
      <trkpt lat="44.52257" lon="3.99843">
        <ele>1064</ele>
        <time>2014-07-13T09:11:45Z</time>
      </trkpt>
      <trkpt lat="44.52196" lon="3.99866">
        <ele>1061</ele>
        <time>2014-07-13T09:11:53Z</time>
      </trkpt>
      <trkpt lat="44.52113" lon="3.99913">
        <ele>1054</ele>
        <time>2014-07-13T09:12:04Z</time>
      </trkpt>
      <trkpt lat="44.52058" lon="3.99993">
        <ele>1049</ele>
        <time>2014-07-13T09:12:13Z</time>
      </trkpt>
      <trkpt lat="44.52033" lon="4.00085">
        <ele>1048</ele>
        <time>2014-07-13T09:12:20Z</time>
      </trkpt>
      <trkpt lat="44.5203" lon="4.00099">
        <ele>1048</ele>
        <time>2014-07-13T09:12:21Z</time>
      </trkpt>
      <trkpt lat="44.51994" lon="4.00168">
        <ele>1043</ele>
        <time>2014-07-13T09:12:28Z</time>
      </trkpt>
      <trkpt lat="44.5198" lon="4.00178">
        <ele>1042</ele>
        <time>2014-07-13T09:12:30Z</time>
      </trkpt>
      <trkpt lat="44.51913" lon="4.00257">
        <ele>1040</ele>
        <time>2014-07-13T09:12:43Z</time>
      </trkpt>
      <trkpt lat="44.51921" lon="4.00269">
        <ele>1040</ele>
        <time>2014-07-13T09:12:48Z</time>
      </trkpt>
      <trkpt lat="44.51958" lon="4.00299">
        <ele>1040</ele>
        <time>2014-07-13T09:13:01Z</time>
      </trkpt>
      <trkpt lat="44.52066" lon="4.00399">
        <ele>1041</ele>
        <time>2014-07-13T09:13:28Z</time>
      </trkpt>
      <trkpt lat="44.52096" lon="4.00441">
        <ele>1041</ele>
        <time>2014-07-13T09:13:39Z</time>
      </trkpt>
      <trkpt lat="44.52135" lon="4.00495">
        <ele>1039</ele>
        <time>2014-07-13T09:13:49Z</time>
      </trkpt>
      <trkpt lat="44.52173" lon="4.00509">
        <ele>1035</ele>
        <time>2014-07-13T09:13:55Z</time>
      </trkpt>
      <trkpt lat="44.5218" lon="4.00507">
        <ele>1034</ele>
        <time>2014-07-13T09:13:56Z</time>
      </trkpt>
      <trkpt lat="44.52215" lon="4.005">
        <ele>1038</ele>
        <time>2014-07-13T09:14:01Z</time>
      </trkpt>
      <trkpt lat="44.52255" lon="4.00511">
        <ele>1032</ele>
        <time>2014-07-13T09:14:07Z</time>
      </trkpt>
      <trkpt lat="44.52273" lon="4.00523">
        <ele>1029</ele>
        <time>2014-07-13T09:14:11Z</time>
      </trkpt>
      <trkpt lat="44.52307" lon="4.00521">
        <ele>1029</ele>
        <time>2014-07-13T09:14:20Z</time>
      </trkpt>
      <trkpt lat="44.52336" lon="4.00544">
        <ele>1028</ele>
        <time>2014-07-13T09:14:28Z</time>
      </trkpt>
      <trkpt lat="44.52337" lon="4.00543">
        <ele>1028</ele>
        <time>2014-07-13T09:14:29Z</time>
      </trkpt>
      <trkpt lat="44.52338" lon="4.00537">
        <ele>1028</ele>
        <time>2014-07-13T09:14:34Z</time>
      </trkpt>
      <trkpt lat="44.52337" lon="4.00537">
        <ele>1028</ele>
        <time>2014-07-13T09:14:35Z</time>
      </trkpt>
      <trkpt lat="44.52337" lon="4.00537">
        <ele>1028</ele>
        <time>2014-07-13T09:15:03Z</time>
      </trkpt>
      <trkpt lat="44.5234" lon="4.00539">
        <ele>1028</ele>
        <time>2014-07-13T09:15:08Z</time>
      </trkpt>
      <trkpt lat="44.52348" lon="4.00512">
        <ele>1030</ele>
        <time>2014-07-13T09:15:27Z</time>
      </trkpt>
      <trkpt lat="44.5235" lon="4.00501">
        <ele>1030</ele>
        <time>2014-07-13T09:15:56Z</time>
      </trkpt>
      <trkpt lat="44.52345" lon="4.00495">
        <ele>1033</ele>
        <time>2014-07-13T09:18:04Z</time>
      </trkpt>
      <trkpt lat="44.52348" lon="4.00494">
        <ele>1034</ele>
        <time>2014-07-13T09:22:00Z</time>
      </trkpt>
      <trkpt lat="44.52348" lon="4.00496">
        <ele>1033</ele>
        <time>2014-07-13T09:25:25Z</time>
      </trkpt>
      <trkpt lat="44.5235" lon="4.00498">
        <ele>1034</ele>
        <time>2014-07-13T09:29:00Z</time>
      </trkpt>
      <trkpt lat="44.5235" lon="4.00499">
        <ele>1034</ele>
        <time>2014-07-13T09:32:50Z</time>
      </trkpt>
      <trkpt lat="44.5235" lon="4.00491">
        <ele>1034</ele>
        <time>2014-07-13T09:36:16Z</time>
      </trkpt>
      <trkpt lat="44.52351" lon="4.00497">
        <ele>1034</ele>
        <time>2014-07-13T09:39:49Z</time>
      </trkpt>
      <trkpt lat="44.52348" lon="4.00503">
        <ele>1030</ele>
        <time>2014-07-13T09:42:51Z</time>
      </trkpt>
      <trkpt lat="44.52347" lon="4.00537">
        <ele>1028</ele>
        <time>2014-07-13T09:43:04Z</time>
      </trkpt>
      <trkpt lat="44.52339" lon="4.00555">
        <ele>1027</ele>
        <time>2014-07-13T09:43:13Z</time>
      </trkpt>
      <trkpt lat="44.52348" lon="4.00579">
        <ele>1026</ele>
        <time>2014-07-13T09:43:18Z</time>
      </trkpt>
      <trkpt lat="44.52413" lon="4.00593">
        <ele>1025</ele>
        <time>2014-07-13T09:43:42Z</time>
      </trkpt>
      <trkpt lat="44.52484" lon="4.00643">
        <ele>1026</ele>
        <time>2014-07-13T09:44:11Z</time>
      </trkpt>
      <trkpt lat="44.52508" lon="4.00684">
        <ele>1029</ele>
        <time>2014-07-13T09:44:23Z</time>
      </trkpt>
      <trkpt lat="44.52538" lon="4.00738">
        <ele>1032</ele>
        <time>2014-07-13T09:44:43Z</time>
      </trkpt>
      <trkpt lat="44.52538" lon="4.0074">
        <ele>1032</ele>
        <time>2014-07-13T09:44:44Z</time>
      </trkpt>
      <trkpt lat="44.52536" lon="4.00749">
        <ele>1032</ele>
        <time>2014-07-13T09:44:57Z</time>
      </trkpt>
      <trkpt lat="44.52538" lon="4.00749">
        <ele>1032</ele>
        <time>2014-07-13T09:45:02Z</time>
      </trkpt>
      <trkpt lat="44.52552" lon="4.00773">
        <ele>1038</ele>
        <time>2014-07-13T09:45:17Z</time>
      </trkpt>
      <trkpt lat="44.5255" lon="4.00778">
        <ele>1038</ele>
        <time>2014-07-13T09:45:20Z</time>
      </trkpt>
      <trkpt lat="44.52536" lon="4.00794">
        <ele>1039</ele>
        <time>2014-07-13T09:45:33Z</time>
      </trkpt>
      <trkpt lat="44.52515" lon="4.00818">
        <ele>1041</ele>
        <time>2014-07-13T09:46:00Z</time>
      </trkpt>
      <trkpt lat="44.5251" lon="4.00832">
        <ele>1042</ele>
        <time>2014-07-13T09:46:09Z</time>
      </trkpt>
      <trkpt lat="44.52503" lon="4.00854">
        <ele>1047</ele>
        <time>2014-07-13T09:46:22Z</time>
      </trkpt>
      <trkpt lat="44.52496" lon="4.00882">
        <ele>1047</ele>
        <time>2014-07-13T09:46:40Z</time>
      </trkpt>
      <trkpt lat="44.52491" lon="4.009">
        <ele>1049</ele>
        <time>2014-07-13T09:46:50Z</time>
      </trkpt>
      <trkpt lat="44.5248" lon="4.00928">
        <ele>1053</ele>
        <time>2014-07-13T09:47:07Z</time>
      </trkpt>
      <trkpt lat="44.52486" lon="4.00981">
        <ele>1056</ele>
        <time>2014-07-13T09:47:32Z</time>
      </trkpt>
      <trkpt lat="44.525" lon="4.01063">
        <ele>1061</ele>
        <time>2014-07-13T09:48:07Z</time>
      </trkpt>
      <trkpt lat="44.52545" lon="4.01091">
        <ele>1068</ele>
        <time>2014-07-13T09:48:39Z</time>
      </trkpt>
      <trkpt lat="44.52602" lon="4.01108">
        <ele>1071</ele>
        <time>2014-07-13T09:49:12Z</time>
      </trkpt>
      <trkpt lat="44.5271" lon="4.01126">
        <ele>1075</ele>
        <time>2014-07-13T09:50:01Z</time>
      </trkpt>
      <trkpt lat="44.52731" lon="4.01146">
        <ele>1076</ele>
        <time>2014-07-13T09:50:23Z</time>
      </trkpt>
      <trkpt lat="44.52771" lon="4.01197">
        <ele>1076</ele>
        <time>2014-07-13T09:50:56Z</time>
      </trkpt>
      <trkpt lat="44.52819" lon="4.01226">
        <ele>1072</ele>
        <time>2014-07-13T09:51:18Z</time>
      </trkpt>
      <trkpt lat="44.52852" lon="4.01226">
        <ele>1068</ele>
        <time>2014-07-13T09:51:23Z</time>
      </trkpt>
      <trkpt lat="44.52877" lon="4.01224">
        <ele>1067</ele>
        <time>2014-07-13T09:51:26Z</time>
      </trkpt>
      <trkpt lat="44.52923" lon="4.01226">
        <ele>1060</ele>
        <time>2014-07-13T09:51:32Z</time>
      </trkpt>
      <trkpt lat="44.52968" lon="4.01229">
        <ele>1060</ele>
        <time>2014-07-13T09:51:38Z</time>
      </trkpt>
      <trkpt lat="44.52993" lon="4.01245">
        <ele>1055</ele>
        <time>2014-07-13T09:51:42Z</time>
      </trkpt>
      <trkpt lat="44.53031" lon="4.01291">
        <ele>1049</ele>
        <time>2014-07-13T09:51:52Z</time>
      </trkpt>
      <trkpt lat="44.53061" lon="4.01317">
        <ele>1048</ele>
        <time>2014-07-13T09:52:17Z</time>
      </trkpt>
      <trkpt lat="44.53072" lon="4.01328">
        <ele>1047</ele>
        <time>2014-07-13T09:53:34Z</time>
      </trkpt>
      <trkpt lat="44.53093" lon="4.01386">
        <ele>1048</ele>
        <time>2014-07-13T09:53:48Z</time>
      </trkpt>
      <trkpt lat="44.53081" lon="4.01482">
        <ele>1031</ele>
        <time>2014-07-13T09:54:09Z</time>
      </trkpt>
      <trkpt lat="44.53093" lon="4.01539">
        <ele>1030</ele>
        <time>2014-07-13T09:54:26Z</time>
      </trkpt>
      <trkpt lat="44.53114" lon="4.01545">
        <ele>1029</ele>
        <time>2014-07-13T09:54:33Z</time>
      </trkpt>
      <trkpt lat="44.53142" lon="4.01556">
        <ele>1028</ele>
        <time>2014-07-13T09:54:40Z</time>
      </trkpt>
      <trkpt lat="44.53197" lon="4.01551">
        <ele>1030</ele>
        <time>2014-07-13T09:54:54Z</time>
      </trkpt>
      <trkpt lat="44.53207" lon="4.01557">
        <ele>1029</ele>
        <time>2014-07-13T09:54:57Z</time>
      </trkpt>
      <trkpt lat="44.53253" lon="4.01582">
        <ele>1023</ele>
        <time>2014-07-13T09:55:11Z</time>
      </trkpt>
      <trkpt lat="44.53277" lon="4.01607">
        <ele>1018</ele>
        <time>2014-07-13T09:55:17Z</time>
      </trkpt>
      <trkpt lat="44.53311" lon="4.01677">
        <ele>1004</ele>
        <time>2014-07-13T09:55:33Z</time>
      </trkpt>
      <trkpt lat="44.53364" lon="4.0169">
        <ele>1005</ele>
        <time>2014-07-13T09:55:41Z</time>
      </trkpt>
      <trkpt lat="44.5341" lon="4.01721">
        <ele>1001</ele>
        <time>2014-07-13T09:55:50Z</time>
      </trkpt>
      <trkpt lat="44.53437" lon="4.0178">
        <ele>993</ele>
        <time>2014-07-13T09:56:02Z</time>
      </trkpt>
      <trkpt lat="44.53464" lon="4.018">
        <ele>991</ele>
        <time>2014-07-13T09:56:16Z</time>
      </trkpt>
      <trkpt lat="44.53469" lon="4.01802">
        <ele>991</ele>
        <time>2014-07-13T09:56:17Z</time>
      </trkpt>
      <trkpt lat="44.53503" lon="4.01808">
        <ele>988</ele>
        <time>2014-07-13T09:56:22Z</time>
      </trkpt>
      <trkpt lat="44.53544" lon="4.0184">
        <ele>983</ele>
        <time>2014-07-13T09:56:28Z</time>
      </trkpt>
      <trkpt lat="44.53566" lon="4.01894">
        <ele>983</ele>
        <time>2014-07-13T09:56:38Z</time>
      </trkpt>
      <trkpt lat="44.53569" lon="4.01912">
        <ele>984</ele>
        <time>2014-07-13T09:57:01Z</time>
      </trkpt>
      <trkpt lat="44.5357" lon="4.01912">
        <ele>984</ele>
        <time>2014-07-13T09:58:15Z</time>
      </trkpt>
      <trkpt lat="44.53607" lon="4.01993">
        <ele>990</ele>
        <time>2014-07-13T09:59:00Z</time>
      </trkpt>
      <trkpt lat="44.53632" lon="4.01997">
        <ele>991</ele>
        <time>2014-07-13T09:59:13Z</time>
      </trkpt>
      <trkpt lat="44.53694" lon="4.01994">
        <ele>997</ele>
        <time>2014-07-13T09:59:44Z</time>
      </trkpt>
      <trkpt lat="44.53699" lon="4.01992">
        <ele>997</ele>
        <time>2014-07-13T09:59:47Z</time>
      </trkpt>
      <trkpt lat="44.53696" lon="4.02015">
        <ele>996</ele>
        <time>2014-07-13T09:59:55Z</time>
      </trkpt>
      <trkpt lat="44.53672" lon="4.02063">
        <ele>993</ele>
        <time>2014-07-13T10:00:03Z</time>
      </trkpt>
      <trkpt lat="44.53655" lon="4.02098">
        <ele>993</ele>
        <time>2014-07-13T10:00:07Z</time>
      </trkpt>
      <trkpt lat="44.53617" lon="4.02158">
        <ele>995</ele>
        <time>2014-07-13T10:00:16Z</time>
      </trkpt>
      <trkpt lat="44.53593" lon="4.02162">
        <ele>997</ele>
        <time>2014-07-13T10:00:22Z</time>
      </trkpt>
      <trkpt lat="44.53589" lon="4.02158">
        <ele>997</ele>
        <time>2014-07-13T10:00:23Z</time>
      </trkpt>
      <trkpt lat="44.53542" lon="4.02111">
        <ele>1000</ele>
        <time>2014-07-13T10:00:41Z</time>
      </trkpt>
      <trkpt lat="44.53436" lon="4.02065">
        <ele>1000</ele>
        <time>2014-07-13T10:01:16Z</time>
      </trkpt>
      <trkpt lat="44.53432" lon="4.02066">
        <ele>1001</ele>
        <time>2014-07-13T10:01:18Z</time>
      </trkpt>
      <trkpt lat="44.53437" lon="4.02079">
        <ele>1002</ele>
        <time>2014-07-13T10:01:24Z</time>
      </trkpt>
      <trkpt lat="44.53484" lon="4.02106">
        <ele>1008</ele>
        <time>2014-07-13T10:01:45Z</time>
      </trkpt>
      <trkpt lat="44.53484" lon="4.02108">
        <ele>1008</ele>
        <time>2014-07-13T10:01:46Z</time>
      </trkpt>
      <trkpt lat="44.53483" lon="4.02109">
        <ele>1008</ele>
        <time>2014-07-13T10:01:47Z</time>
      </trkpt>
      <trkpt lat="44.53474" lon="4.02102">
        <ele>1008</ele>
        <time>2014-07-13T10:01:59Z</time>
      </trkpt>
      <trkpt lat="44.53507" lon="4.02127">
        <ele>1003</ele>
        <time>2014-07-13T10:02:19Z</time>
      </trkpt>
      <trkpt lat="44.53539" lon="4.02187">
        <ele>1008</ele>
        <time>2014-07-13T10:02:45Z</time>
      </trkpt>
      <trkpt lat="44.53543" lon="4.02209">
        <ele>1008</ele>
        <time>2014-07-13T10:02:54Z</time>
      </trkpt>
      <trkpt lat="44.53542" lon="4.02211">
        <ele>1009</ele>
        <time>2014-07-13T10:03:31Z</time>
      </trkpt>
      <trkpt lat="44.53543" lon="4.02211">
        <ele>1009</ele>
        <time>2014-07-13T10:06:11Z</time>
      </trkpt>
      <trkpt lat="44.53542" lon="4.02211">
        <ele>1009</ele>
        <time>2014-07-13T10:09:31Z</time>
      </trkpt>
      <trkpt lat="44.53544" lon="4.02209">
        <ele>1008</ele>
        <time>2014-07-13T10:12:27Z</time>
      </trkpt>
      <trkpt lat="44.53544" lon="4.02211">
        <ele>1008</ele>
        <time>2014-07-13T10:15:41Z</time>
      </trkpt>
      <trkpt lat="44.53543" lon="4.02211">
        <ele>1009</ele>
        <time>2014-07-13T10:17:31Z</time>
      </trkpt>
      <trkpt lat="44.53534" lon="4.02212">
        <ele>1009</ele>
        <time>2014-07-13T10:17:44Z</time>
      </trkpt>
      <trkpt lat="44.53514" lon="4.02222">
        <ele>1011</ele>
        <time>2014-07-13T10:18:04Z</time>
      </trkpt>
      <trkpt lat="44.53495" lon="4.02244">
        <ele>1018</ele>
        <time>2014-07-13T10:18:24Z</time>
      </trkpt>
      <trkpt lat="44.53484" lon="4.02258">
        <ele>1023</ele>
        <time>2014-07-13T10:18:34Z</time>
      </trkpt>
      <trkpt lat="44.53465" lon="4.02292">
        <ele>1027</ele>
        <time>2014-07-13T10:18:55Z</time>
      </trkpt>
      <trkpt lat="44.53431" lon="4.02329">
        <ele>1032</ele>
        <time>2014-07-13T10:19:23Z</time>
      </trkpt>
      <trkpt lat="44.53409" lon="4.02341">
        <ele>1037</ele>
        <time>2014-07-13T10:19:36Z</time>
      </trkpt>
      <trkpt lat="44.53375" lon="4.02363">
        <ele>1039</ele>
        <time>2014-07-13T10:19:52Z</time>
      </trkpt>
      <trkpt lat="44.53302" lon="4.0236">
        <ele>1045</ele>
        <time>2014-07-13T10:20:21Z</time>
      </trkpt>
      <trkpt lat="44.53277" lon="4.02379">
        <ele>1046</ele>
        <time>2014-07-13T10:20:32Z</time>
      </trkpt>
      <trkpt lat="44.53254" lon="4.02398">
        <ele>1046</ele>
        <time>2014-07-13T10:20:42Z</time>
      </trkpt>
      <trkpt lat="44.53188" lon="4.02443">
        <ele>1049</ele>
        <time>2014-07-13T10:21:12Z</time>
      </trkpt>
      <trkpt lat="44.53094" lon="4.02483">
        <ele>1052</ele>
        <time>2014-07-13T10:21:42Z</time>
      </trkpt>
      <trkpt lat="44.52968" lon="4.02592">
        <ele>1048</ele>
        <time>2014-07-13T10:22:14Z</time>
      </trkpt>
      <trkpt lat="44.52856" lon="4.02654">
        <ele>1052</ele>
        <time>2014-07-13T10:22:42Z</time>
      </trkpt>
      <trkpt lat="44.52713" lon="4.02716">
        <ele>1050</ele>
        <time>2014-07-13T10:23:10Z</time>
      </trkpt>
      <trkpt lat="44.52659" lon="4.02744">
        <ele>1051</ele>
        <time>2014-07-13T10:23:23Z</time>
      </trkpt>
      <trkpt lat="44.52625" lon="4.0277">
        <ele>1050</ele>
        <time>2014-07-13T10:23:46Z</time>
      </trkpt>
      <trkpt lat="44.52549" lon="4.02833">
        <ele>1054</ele>
        <time>2014-07-13T10:24:14Z</time>
      </trkpt>
      <trkpt lat="44.52402" lon="4.02969">
        <ele>1055</ele>
        <time>2014-07-13T10:25:17Z</time>
      </trkpt>
      <trkpt lat="44.52288" lon="4.03091">
        <ele>1054</ele>
        <time>2014-07-13T10:26:09Z</time>
      </trkpt>
      <trkpt lat="44.52288" lon="4.03091">
        <ele>1054</ele>
        <time>2014-07-13T10:26:18Z</time>
      </trkpt>
      <trkpt lat="44.52286" lon="4.03092">
        <ele>1054</ele>
        <time>2014-07-13T10:27:42Z</time>
      </trkpt>
      <trkpt lat="44.52232" lon="4.03147">
        <ele>1048</ele>
        <time>2014-07-13T10:27:56Z</time>
      </trkpt>
      <trkpt lat="44.52177" lon="4.032">
        <ele>1047</ele>
        <time>2014-07-13T10:28:06Z</time>
      </trkpt>
      <trkpt lat="44.52151" lon="4.03229">
        <ele>1042</ele>
        <time>2014-07-13T10:28:11Z</time>
      </trkpt>
      <trkpt lat="44.52139" lon="4.03239">
        <ele>1042</ele>
        <time>2014-07-13T10:28:13Z</time>
      </trkpt>
      <trkpt lat="44.52088" lon="4.03293">
        <ele>1039</ele>
        <time>2014-07-13T10:28:21Z</time>
      </trkpt>
      <trkpt lat="44.52043" lon="4.03344">
        <ele>1031</ele>
        <time>2014-07-13T10:28:28Z</time>
      </trkpt>
      <trkpt lat="44.52023" lon="4.03363">
        <ele>1031</ele>
        <time>2014-07-13T10:28:31Z</time>
      </trkpt>
      <trkpt lat="44.51982" lon="4.03421">
        <ele>1028</ele>
        <time>2014-07-13T10:28:38Z</time>
      </trkpt>
      <trkpt lat="44.51837" lon="4.03613">
        <ele>1019</ele>
        <time>2014-07-13T10:29:06Z</time>
      </trkpt>
      <trkpt lat="44.5181" lon="4.0364">
        <ele>1019</ele>
        <time>2014-07-13T10:29:16Z</time>
      </trkpt>
      <trkpt lat="44.51807" lon="4.03634">
        <ele>1019</ele>
        <time>2014-07-13T10:29:40Z</time>
      </trkpt>
      <trkpt lat="44.5177" lon="4.03636">
        <ele>1020</ele>
        <time>2014-07-13T10:30:05Z</time>
      </trkpt>
      <trkpt lat="44.51758" lon="4.03627">
        <ele>1020</ele>
        <time>2014-07-13T10:30:33Z</time>
      </trkpt>
      <trkpt lat="44.5176" lon="4.03629">
        <ele>1020</ele>
        <time>2014-07-13T10:56:25Z</time>
      </trkpt>
      <trkpt lat="44.51761" lon="4.03631">
        <ele>1020</ele>
        <time>2014-07-13T10:56:44Z</time>
      </trkpt>
      <trkpt lat="44.51782" lon="4.0365">
        <ele>1020</ele>
        <time>2014-07-13T10:56:59Z</time>
      </trkpt>
      <trkpt lat="44.51782" lon="4.0367">
        <ele>1015</ele>
        <time>2014-07-13T10:57:27Z</time>
      </trkpt>
      <trkpt lat="44.51742" lon="4.0371">
        <ele>1014</ele>
        <time>2014-07-13T10:57:40Z</time>
      </trkpt>
      <trkpt lat="44.51706" lon="4.03743">
        <ele>1013</ele>
        <time>2014-07-13T10:57:47Z</time>
      </trkpt>
      <trkpt lat="44.51701" lon="4.03748">
        <ele>1013</ele>
        <time>2014-07-13T10:57:48Z</time>
      </trkpt>
      <trkpt lat="44.51679" lon="4.03778">
        <ele>1006</ele>
        <time>2014-07-13T10:57:54Z</time>
      </trkpt>
      <trkpt lat="44.51675" lon="4.03782">
        <ele>1006</ele>
        <time>2014-07-13T10:57:55Z</time>
      </trkpt>
      <trkpt lat="44.51656" lon="4.03811">
        <ele>1004</ele>
        <time>2014-07-13T10:58:00Z</time>
      </trkpt>
      <trkpt lat="44.51648" lon="4.03825">
        <ele>1003</ele>
        <time>2014-07-13T10:58:02Z</time>
      </trkpt>
      <trkpt lat="44.51616" lon="4.0386">
        <ele>999</ele>
        <time>2014-07-13T10:58:10Z</time>
      </trkpt>
      <trkpt lat="44.51567" lon="4.03853">
        <ele>994</ele>
        <time>2014-07-13T10:58:24Z</time>
      </trkpt>
      <trkpt lat="44.51551" lon="4.03824">
        <ele>994</ele>
        <time>2014-07-13T10:58:29Z</time>
      </trkpt>
      <trkpt lat="44.51542" lon="4.03803">
        <ele>993</ele>
        <time>2014-07-13T10:58:32Z</time>
      </trkpt>
      <trkpt lat="44.51516" lon="4.03786">
        <ele>991</ele>
        <time>2014-07-13T10:58:37Z</time>
      </trkpt>
      <trkpt lat="44.5151" lon="4.03785">
        <ele>990</ele>
        <time>2014-07-13T10:58:38Z</time>
      </trkpt>
      <trkpt lat="44.51504" lon="4.03784">
        <ele>990</ele>
        <time>2014-07-13T10:58:39Z</time>
      </trkpt>
      <trkpt lat="44.51478" lon="4.03804">
        <ele>981</ele>
        <time>2014-07-13T10:58:44Z</time>
      </trkpt>
      <trkpt lat="44.51474" lon="4.0381">
        <ele>982</ele>
        <time>2014-07-13T10:58:45Z</time>
      </trkpt>
      <trkpt lat="44.51466" lon="4.03822">
        <ele>981</ele>
        <time>2014-07-13T10:58:47Z</time>
      </trkpt>
      <trkpt lat="44.51438" lon="4.03859">
        <ele>982</ele>
        <time>2014-07-13T10:58:53Z</time>
      </trkpt>
      <trkpt lat="44.51427" lon="4.03871">
        <ele>982</ele>
        <time>2014-07-13T10:58:55Z</time>
      </trkpt>
      <trkpt lat="44.51379" lon="4.03921">
        <ele>980</ele>
        <time>2014-07-13T10:59:04Z</time>
      </trkpt>
      <trkpt lat="44.51344" lon="4.04014">
        <ele>980</ele>
        <time>2014-07-13T10:59:17Z</time>
      </trkpt>
      <trkpt lat="44.51271" lon="4.04099">
        <ele>976</ele>
        <time>2014-07-13T10:59:33Z</time>
      </trkpt>
      <trkpt lat="44.51255" lon="4.0418">
        <ele>976</ele>
        <time>2014-07-13T10:59:47Z</time>
      </trkpt>
      <trkpt lat="44.51272" lon="4.0426">
        <ele>977</ele>
        <time>2014-07-13T11:00:11Z</time>
      </trkpt>
      <trkpt lat="44.51278" lon="4.04414">
        <ele>976</ele>
        <time>2014-07-13T11:00:52Z</time>
      </trkpt>
      <trkpt lat="44.51252" lon="4.04471">
        <ele>971</ele>
        <time>2014-07-13T11:01:01Z</time>
      </trkpt>
      <trkpt lat="44.51245" lon="4.04487">
        <ele>971</ele>
        <time>2014-07-13T11:01:03Z</time>
      </trkpt>
      <trkpt lat="44.51218" lon="4.04522">
        <ele>965</ele>
        <time>2014-07-13T11:01:09Z</time>
      </trkpt>
      <trkpt lat="44.51193" lon="4.04547">
        <ele>964</ele>
        <time>2014-07-13T11:01:13Z</time>
      </trkpt>
      <trkpt lat="44.51176" lon="4.04567">
        <ele>961</ele>
        <time>2014-07-13T11:01:16Z</time>
      </trkpt>
      <trkpt lat="44.5116" lon="4.04583">
        <ele>959</ele>
        <time>2014-07-13T11:01:19Z</time>
      </trkpt>
      <trkpt lat="44.51126" lon="4.046">
        <ele>952</ele>
        <time>2014-07-13T11:01:24Z</time>
      </trkpt>
      <trkpt lat="44.511" lon="4.04611">
        <ele>951</ele>
        <time>2014-07-13T11:01:28Z</time>
      </trkpt>
      <trkpt lat="44.51089" lon="4.04616">
        <ele>951</ele>
        <time>2014-07-13T11:01:30Z</time>
      </trkpt>
      <trkpt lat="44.51061" lon="4.04637">
        <ele>940</ele>
        <time>2014-07-13T11:01:36Z</time>
      </trkpt>
      <trkpt lat="44.51047" lon="4.04685">
        <ele>932</ele>
        <time>2014-07-13T11:01:43Z</time>
      </trkpt>
      <trkpt lat="44.51049" lon="4.04741">
        <ele>931</ele>
        <time>2014-07-13T11:01:48Z</time>
      </trkpt>
      <trkpt lat="44.5105" lon="4.04754">
        <ele>929</ele>
        <time>2014-07-13T11:01:49Z</time>
      </trkpt>
      <trkpt lat="44.51115" lon="4.04868">
        <ele>930</ele>
        <time>2014-07-13T11:02:07Z</time>
      </trkpt>
      <trkpt lat="44.51153" lon="4.04965">
        <ele>924</ele>
        <time>2014-07-13T11:02:21Z</time>
      </trkpt>
      <trkpt lat="44.51154" lon="4.04974">
        <ele>924</ele>
        <time>2014-07-13T11:02:22Z</time>
      </trkpt>
      <trkpt lat="44.51127" lon="4.05077">
        <ele>917</ele>
        <time>2014-07-13T11:02:33Z</time>
      </trkpt>
      <trkpt lat="44.51125" lon="4.05082">
        <ele>916</ele>
        <time>2014-07-13T11:02:34Z</time>
      </trkpt>
      <trkpt lat="44.51122" lon="4.05095">
        <ele>913</ele>
        <time>2014-07-13T11:02:41Z</time>
      </trkpt>
      <trkpt lat="44.51114" lon="4.05108">
        <ele>912</ele>
        <time>2014-07-13T11:03:01Z</time>
      </trkpt>
      <trkpt lat="44.51116" lon="4.05106">
        <ele>913</ele>
        <time>2014-07-13T11:03:35Z</time>
      </trkpt>
      <trkpt lat="44.5112" lon="4.05098">
        <ele>913</ele>
        <time>2014-07-13T11:03:53Z</time>
      </trkpt>
      <trkpt lat="44.51122" lon="4.05096">
        <ele>913</ele>
        <time>2014-07-13T11:04:51Z</time>
      </trkpt>
      <trkpt lat="44.51122" lon="4.05147">
        <ele>912</ele>
        <time>2014-07-13T11:05:08Z</time>
      </trkpt>
      <trkpt lat="44.51103" lon="4.05195">
        <ele>911</ele>
        <time>2014-07-13T11:05:20Z</time>
      </trkpt>
      <trkpt lat="44.51065" lon="4.053">
        <ele>896</ele>
        <time>2014-07-13T11:05:36Z</time>
      </trkpt>
      <trkpt lat="44.51056" lon="4.05325">
        <ele>896</ele>
        <time>2014-07-13T11:05:40Z</time>
      </trkpt>
      <trkpt lat="44.51066" lon="4.05369">
        <ele>894</ele>
        <time>2014-07-13T11:05:49Z</time>
      </trkpt>
      <trkpt lat="44.51101" lon="4.05366">
        <ele>898</ele>
        <time>2014-07-13T11:05:59Z</time>
      </trkpt>
      <trkpt lat="44.51113" lon="4.05363">
        <ele>898</ele>
        <time>2014-07-13T11:06:01Z</time>
      </trkpt>
      <trkpt lat="44.51138" lon="4.05362">
        <ele>897</ele>
        <time>2014-07-13T11:06:11Z</time>
      </trkpt>
      <trkpt lat="44.51112" lon="4.05393">
        <ele>894</ele>
        <time>2014-07-13T11:06:19Z</time>
      </trkpt>
      <trkpt lat="44.51094" lon="4.0542">
        <ele>885</ele>
        <time>2014-07-13T11:06:24Z</time>
      </trkpt>
      <trkpt lat="44.51091" lon="4.05427">
        <ele>884</ele>
        <time>2014-07-13T11:06:25Z</time>
      </trkpt>
      <trkpt lat="44.5107" lon="4.05464">
        <ele>877</ele>
        <time>2014-07-13T11:06:31Z</time>
      </trkpt>
      <trkpt lat="44.5103" lon="4.05476">
        <ele>874</ele>
        <time>2014-07-13T11:06:39Z</time>
      </trkpt>
      <trkpt lat="44.50991" lon="4.05443">
        <ele>869</ele>
        <time>2014-07-13T11:06:48Z</time>
      </trkpt>
      <trkpt lat="44.50975" lon="4.05422">
        <ele>869</ele>
        <time>2014-07-13T11:06:53Z</time>
      </trkpt>
      <trkpt lat="44.50947" lon="4.05399">
        <ele>868</ele>
        <time>2014-07-13T11:07:02Z</time>
      </trkpt>
      <trkpt lat="44.50921" lon="4.05381">
        <ele>865</ele>
        <time>2014-07-13T11:07:11Z</time>
      </trkpt>
      <trkpt lat="44.50898" lon="4.0539">
        <ele>848</ele>
        <time>2014-07-13T11:07:24Z</time>
      </trkpt>
      <trkpt lat="44.50871" lon="4.05437">
        <ele>846</ele>
        <time>2014-07-13T11:07:41Z</time>
      </trkpt>
      <trkpt lat="44.50853" lon="4.05478">
        <ele>843</ele>
        <time>2014-07-13T11:07:49Z</time>
      </trkpt>
      <trkpt lat="44.50827" lon="4.05559">
        <ele>835</ele>
        <time>2014-07-13T11:08:02Z</time>
      </trkpt>
      <trkpt lat="44.50825" lon="4.05565">
        <ele>835</ele>
        <time>2014-07-13T11:08:03Z</time>
      </trkpt>
      <trkpt lat="44.50814" lon="4.05602">
        <ele>836</ele>
        <time>2014-07-13T11:08:27Z</time>
      </trkpt>
      <trkpt lat="44.50811" lon="4.05625">
        <ele>835</ele>
        <time>2014-07-13T11:09:15Z</time>
      </trkpt>
      <trkpt lat="44.50752" lon="4.05679">
        <ele>834</ele>
        <time>2014-07-13T11:09:32Z</time>
      </trkpt>
      <trkpt lat="44.50689" lon="4.05788">
        <ele>825</ele>
        <time>2014-07-13T11:09:47Z</time>
      </trkpt>
      <trkpt lat="44.50689" lon="4.0583">
        <ele>828</ele>
        <time>2014-07-13T11:09:58Z</time>
      </trkpt>
      <trkpt lat="44.50697" lon="4.059">
        <ele>832</ele>
        <time>2014-07-13T11:10:22Z</time>
      </trkpt>
      <trkpt lat="44.50685" lon="4.05942">
        <ele>838</ele>
        <time>2014-07-13T11:10:36Z</time>
      </trkpt>
      <trkpt lat="44.50673" lon="4.05978">
        <ele>841</ele>
        <time>2014-07-13T11:10:48Z</time>
      </trkpt>
      <trkpt lat="44.50679" lon="4.06041">
        <ele>842</ele>
        <time>2014-07-13T11:11:14Z</time>
      </trkpt>
      <trkpt lat="44.50685" lon="4.06066">
        <ele>845</ele>
        <time>2014-07-13T11:11:26Z</time>
      </trkpt>
      <trkpt lat="44.50691" lon="4.06093">
        <ele>845</ele>
        <time>2014-07-13T11:11:39Z</time>
      </trkpt>
      <trkpt lat="44.50671" lon="4.0609">
        <ele>854</ele>
        <time>2014-07-13T11:12:00Z</time>
      </trkpt>
      <trkpt lat="44.50632" lon="4.06057">
        <ele>861</ele>
        <time>2014-07-13T11:12:29Z</time>
      </trkpt>
      <trkpt lat="44.50577" lon="4.06102">
        <ele>869</ele>
        <time>2014-07-13T11:13:21Z</time>
      </trkpt>
      <trkpt lat="44.50527" lon="4.06204">
        <ele>874</ele>
        <time>2014-07-13T11:13:49Z</time>
      </trkpt>
      <trkpt lat="44.50476" lon="4.0628">
        <ele>876</ele>
        <time>2014-07-13T11:14:18Z</time>
      </trkpt>
      <trkpt lat="44.50417" lon="4.06366">
        <ele>883</ele>
        <time>2014-07-13T11:14:48Z</time>
      </trkpt>
      <trkpt lat="44.50364" lon="4.06447">
        <ele>880</ele>
        <time>2014-07-13T11:15:22Z</time>
      </trkpt>
      <trkpt lat="44.50323" lon="4.06528">
        <ele>879</ele>
        <time>2014-07-13T11:15:51Z</time>
      </trkpt>
      <trkpt lat="44.50302" lon="4.06583">
        <ele>880</ele>
        <time>2014-07-13T11:16:36Z</time>
      </trkpt>
      <trkpt lat="44.50294" lon="4.06641">
        <ele>882</ele>
        <time>2014-07-13T11:17:13Z</time>
      </trkpt>
      <trkpt lat="44.50284" lon="4.06765">
        <ele>876</ele>
        <time>2014-07-13T11:17:27Z</time>
      </trkpt>
      <trkpt lat="44.50276" lon="4.0684">
        <ele>874</ele>
        <time>2014-07-13T11:17:36Z</time>
      </trkpt>
      <trkpt lat="44.5027" lon="4.06889">
        <ele>874</ele>
        <time>2014-07-13T11:17:42Z</time>
      </trkpt>
      <trkpt lat="44.50247" lon="4.06949">
        <ele>858</ele>
        <time>2014-07-13T11:17:50Z</time>
      </trkpt>
      <trkpt lat="44.50261" lon="4.07027">
        <ele>871</ele>
        <time>2014-07-13T11:18:01Z</time>
      </trkpt>
      <trkpt lat="44.50249" lon="4.07059">
        <ele>860</ele>
        <time>2014-07-13T11:18:06Z</time>
      </trkpt>
      <trkpt lat="44.50242" lon="4.07075">
        <ele>862</ele>
        <time>2014-07-13T11:18:09Z</time>
      </trkpt>
      <trkpt lat="44.50219" lon="4.07117">
        <ele>862</ele>
        <time>2014-07-13T11:18:21Z</time>
      </trkpt>
      <trkpt lat="44.50201" lon="4.07146">
        <ele>862</ele>
        <time>2014-07-13T11:18:34Z</time>
      </trkpt>
      <trkpt lat="44.5018" lon="4.07163">
        <ele>862</ele>
        <time>2014-07-13T11:18:47Z</time>
      </trkpt>
      <trkpt lat="44.50081" lon="4.07248">
        <ele>856</ele>
        <time>2014-07-13T11:19:12Z</time>
      </trkpt>
      <trkpt lat="44.50055" lon="4.07268">
        <ele>855</ele>
        <time>2014-07-13T11:19:16Z</time>
      </trkpt>
      <trkpt lat="44.49994" lon="4.07302">
        <ele>847</ele>
        <time>2014-07-13T11:19:24Z</time>
      </trkpt>
      <trkpt lat="44.49923" lon="4.0735">
        <ele>846</ele>
        <time>2014-07-13T11:19:33Z</time>
      </trkpt>
      <trkpt lat="44.49866" lon="4.07405">
        <ele>845</ele>
        <time>2014-07-13T11:19:41Z</time>
      </trkpt>
      <trkpt lat="44.49829" lon="4.07461">
        <ele>844</ele>
        <time>2014-07-13T11:19:47Z</time>
      </trkpt>
      <trkpt lat="44.49823" lon="4.07471">
        <ele>844</ele>
        <time>2014-07-13T11:19:48Z</time>
      </trkpt>
      <trkpt lat="44.49785" lon="4.07541">
        <ele>838</ele>
        <time>2014-07-13T11:19:55Z</time>
      </trkpt>
      <trkpt lat="44.49755" lon="4.076">
        <ele>835</ele>
        <time>2014-07-13T11:20:01Z</time>
      </trkpt>
      <trkpt lat="44.49744" lon="4.07614">
        <ele>837</ele>
        <time>2014-07-13T11:20:03Z</time>
      </trkpt>
      <trkpt lat="44.4967" lon="4.07726">
        <ele>840</ele>
        <time>2014-07-13T11:20:26Z</time>
      </trkpt>
      <trkpt lat="44.49629" lon="4.07749">
        <ele>838</ele>
        <time>2014-07-13T11:20:40Z</time>
      </trkpt>
      <trkpt lat="44.49597" lon="4.0775">
        <ele>836</ele>
        <time>2014-07-13T11:20:52Z</time>
      </trkpt>
      <trkpt lat="44.49562" lon="4.07745">
        <ele>832</ele>
        <time>2014-07-13T11:21:00Z</time>
      </trkpt>
      <trkpt lat="44.49523" lon="4.07736">
        <ele>828</ele>
        <time>2014-07-13T11:21:06Z</time>
      </trkpt>
      <trkpt lat="44.49484" lon="4.07726">
        <ele>823</ele>
        <time>2014-07-13T11:21:12Z</time>
      </trkpt>
      <trkpt lat="44.49444" lon="4.07718">
        <ele>821</ele>
        <time>2014-07-13T11:21:18Z</time>
      </trkpt>
      <trkpt lat="44.49425" lon="4.07706">
        <ele>820</ele>
        <time>2014-07-13T11:21:23Z</time>
      </trkpt>
      <trkpt lat="44.49419" lon="4.07706">
        <ele>820</ele>
        <time>2014-07-13T11:21:26Z</time>
      </trkpt>
      <trkpt lat="44.49408" lon="4.07712">
        <ele>815</ele>
        <time>2014-07-13T11:21:30Z</time>
      </trkpt>
      <trkpt lat="44.49393" lon="4.07728">
        <ele>815</ele>
        <time>2014-07-13T11:21:37Z</time>
      </trkpt>
      <trkpt lat="44.4939" lon="4.07743">
        <ele>816</ele>
        <time>2014-07-13T11:21:41Z</time>
      </trkpt>
      <trkpt lat="44.49335" lon="4.07789">
        <ele>812</ele>
        <time>2014-07-13T11:21:58Z</time>
      </trkpt>
      <trkpt lat="44.49305" lon="4.07822">
        <ele>808</ele>
        <time>2014-07-13T11:22:07Z</time>
      </trkpt>
      <trkpt lat="44.493" lon="4.07844">
        <ele>804</ele>
        <time>2014-07-13T11:22:11Z</time>
      </trkpt>
      <trkpt lat="44.49295" lon="4.07863">
        <ele>803</ele>
        <time>2014-07-13T11:22:14Z</time>
      </trkpt>
      <trkpt lat="44.49276" lon="4.07907">
        <ele>801</ele>
        <time>2014-07-13T11:22:21Z</time>
      </trkpt>
      <trkpt lat="44.49266" lon="4.07939">
        <ele>794</ele>
        <time>2014-07-13T11:22:26Z</time>
      </trkpt>
      <trkpt lat="44.49254" lon="4.07965">
        <ele>791</ele>
        <time>2014-07-13T11:22:32Z</time>
      </trkpt>
      <trkpt lat="44.4925" lon="4.07978">
        <ele>790</ele>
        <time>2014-07-13T11:22:35Z</time>
      </trkpt>
      <trkpt lat="44.49251" lon="4.07994">
        <ele>789</ele>
        <time>2014-07-13T11:22:38Z</time>
      </trkpt>
      <trkpt lat="44.49254" lon="4.0802">
        <ele>780</ele>
        <time>2014-07-13T11:22:42Z</time>
      </trkpt>
      <trkpt lat="44.49249" lon="4.08053">
        <ele>778</ele>
        <time>2014-07-13T11:22:51Z</time>
      </trkpt>
      <trkpt lat="44.49234" lon="4.08052">
        <ele>779</ele>
        <time>2014-07-13T11:22:58Z</time>
      </trkpt>
      <trkpt lat="44.4922" lon="4.08072">
        <ele>778</ele>
        <time>2014-07-13T11:23:05Z</time>
      </trkpt>
      <trkpt lat="44.49218" lon="4.08085">
        <ele>766</ele>
        <time>2014-07-13T11:23:22Z</time>
      </trkpt>
      <trkpt lat="44.49215" lon="4.08094">
        <ele>766</ele>
        <time>2014-07-13T11:23:27Z</time>
      </trkpt>
      <trkpt lat="44.49215" lon="4.08136">
        <ele>763</ele>
        <time>2014-07-13T11:23:41Z</time>
      </trkpt>
      <trkpt lat="44.49207" lon="4.08173">
        <ele>750</ele>
        <time>2014-07-13T11:23:49Z</time>
      </trkpt>
      <trkpt lat="44.49196" lon="4.08221">
        <ele>747</ele>
        <time>2014-07-13T11:24:00Z</time>
      </trkpt>
      <trkpt lat="44.49194" lon="4.08227">
        <ele>747</ele>
        <time>2014-07-13T11:24:01Z</time>
      </trkpt>
      <trkpt lat="44.49192" lon="4.08256">
        <ele>735</ele>
        <time>2014-07-13T11:24:05Z</time>
      </trkpt>
      <trkpt lat="44.49183" lon="4.08295">
        <ele>730</ele>
        <time>2014-07-13T11:24:13Z</time>
      </trkpt>
      <trkpt lat="44.49164" lon="4.08352">
        <ele>734</ele>
        <time>2014-07-13T11:24:21Z</time>
      </trkpt>
      <trkpt lat="44.49155" lon="4.0839">
        <ele>730</ele>
        <time>2014-07-13T11:24:29Z</time>
      </trkpt>
      <trkpt lat="44.49144" lon="4.08422">
        <ele>718</ele>
        <time>2014-07-13T11:24:36Z</time>
      </trkpt>
      <trkpt lat="44.49136" lon="4.08439">
        <ele>720</ele>
        <time>2014-07-13T11:24:47Z</time>
      </trkpt>
      <trkpt lat="44.49129" lon="4.08462">
        <ele>719</ele>
        <time>2014-07-13T11:25:11Z</time>
      </trkpt>
      <trkpt lat="44.49117" lon="4.08497">
        <ele>720</ele>
        <time>2014-07-13T11:25:20Z</time>
      </trkpt>
      <trkpt lat="44.49114" lon="4.0851">
        <ele>710</ele>
        <time>2014-07-13T11:25:57Z</time>
      </trkpt>
      <trkpt lat="44.49111" lon="4.08514">
        <ele>711</ele>
        <time>2014-07-13T11:27:49Z</time>
      </trkpt>
      <trkpt lat="44.49112" lon="4.08514">
        <ele>710</ele>
        <time>2014-07-13T11:30:51Z</time>
      </trkpt>
      <trkpt lat="44.49103" lon="4.08556">
        <ele>706</ele>
        <time>2014-07-13T11:32:44Z</time>
      </trkpt>
      <trkpt lat="44.49101" lon="4.08563">
        <ele>707</ele>
        <time>2014-07-13T11:32:46Z</time>
      </trkpt>
      <trkpt lat="44.49097" lon="4.08608">
        <ele>695</ele>
        <time>2014-07-13T11:32:54Z</time>
      </trkpt>
      <trkpt lat="44.49092" lon="4.08672">
        <ele>689</ele>
        <time>2014-07-13T11:33:04Z</time>
      </trkpt>
      <trkpt lat="44.49086" lon="4.08701">
        <ele>677</ele>
        <time>2014-07-13T11:33:08Z</time>
      </trkpt>
      <trkpt lat="44.49077" lon="4.08725">
        <ele>695</ele>
        <time>2014-07-13T11:33:12Z</time>
      </trkpt>
      <trkpt lat="44.49076" lon="4.08731">
        <ele>693</ele>
        <time>2014-07-13T11:33:13Z</time>
      </trkpt>
      <trkpt lat="44.49067" lon="4.08761">
        <ele>683</ele>
        <time>2014-07-13T11:33:17Z</time>
      </trkpt>
      <trkpt lat="44.49057" lon="4.0878">
        <ele>682</ele>
        <time>2014-07-13T11:33:22Z</time>
      </trkpt>
      <trkpt lat="44.49053" lon="4.08786">
        <ele>682</ele>
        <time>2014-07-13T11:33:24Z</time>
      </trkpt>
      <trkpt lat="44.49042" lon="4.08794">
        <ele>682</ele>
        <time>2014-07-13T11:33:29Z</time>
      </trkpt>
      <trkpt lat="44.49048" lon="4.08815">
        <ele>679</ele>
        <time>2014-07-13T11:33:43Z</time>
      </trkpt>
      <trkpt lat="44.49047" lon="4.08821">
        <ele>679</ele>
        <time>2014-07-13T11:33:50Z</time>
      </trkpt>
      <trkpt lat="44.49035" lon="4.08845">
        <ele>670</ele>
        <time>2014-07-13T11:34:01Z</time>
      </trkpt>
      <trkpt lat="44.49019" lon="4.08856">
        <ele>670</ele>
        <time>2014-07-13T11:34:06Z</time>
      </trkpt>
      <trkpt lat="44.48996" lon="4.08875">
        <ele>669</ele>
        <time>2014-07-13T11:34:12Z</time>
      </trkpt>
      <trkpt lat="44.48987" lon="4.08893">
        <ele>668</ele>
        <time>2014-07-13T11:34:16Z</time>
      </trkpt>
      <trkpt lat="44.48969" lon="4.08924">
        <ele>657</ele>
        <time>2014-07-13T11:34:23Z</time>
      </trkpt>
      <trkpt lat="44.48961" lon="4.08952">
        <ele>654</ele>
        <time>2014-07-13T11:34:30Z</time>
      </trkpt>
      <trkpt lat="44.48966" lon="4.08957">
        <ele>654</ele>
        <time>2014-07-13T11:34:33Z</time>
      </trkpt>
      <trkpt lat="44.48973" lon="4.08966">
        <ele>653</ele>
        <time>2014-07-13T11:34:37Z</time>
      </trkpt>
      <trkpt lat="44.48962" lon="4.08985">
        <ele>651</ele>
        <time>2014-07-13T11:34:44Z</time>
      </trkpt>
      <trkpt lat="44.48954" lon="4.08998">
        <ele>650</ele>
        <time>2014-07-13T11:34:47Z</time>
      </trkpt>
      <trkpt lat="44.4894" lon="4.09011">
        <ele>636</ele>
        <time>2014-07-13T11:34:53Z</time>
      </trkpt>
      <trkpt lat="44.48929" lon="4.09023">
        <ele>635</ele>
        <time>2014-07-13T11:34:57Z</time>
      </trkpt>
      <trkpt lat="44.48913" lon="4.09042">
        <ele>622</ele>
        <time>2014-07-13T11:35:25Z</time>
      </trkpt>
      <trkpt lat="44.48911" lon="4.09042">
        <ele>622</ele>
        <time>2014-07-13T11:35:55Z</time>
      </trkpt>
      <trkpt lat="44.48893" lon="4.09064">
        <ele>618</ele>
        <time>2014-07-13T11:36:49Z</time>
      </trkpt>
      <trkpt lat="44.48887" lon="4.09071">
        <ele>617</ele>
        <time>2014-07-13T11:36:51Z</time>
      </trkpt>
      <trkpt lat="44.48862" lon="4.09088">
        <ele>600</ele>
        <time>2014-07-13T11:36:57Z</time>
      </trkpt>
      <trkpt lat="44.48844" lon="4.09099">
        <ele>599</ele>
        <time>2014-07-13T11:37:04Z</time>
      </trkpt>
      <trkpt lat="44.48842" lon="4.09102">
        <ele>598</ele>
        <time>2014-07-13T11:37:16Z</time>
      </trkpt>
      <trkpt lat="44.48905" lon="4.09135">
        <ele>596</ele>
        <time>2014-07-13T11:37:42Z</time>
      </trkpt>
      <trkpt lat="44.48961" lon="4.09176">
        <ele>583</ele>
        <time>2014-07-13T11:38:02Z</time>
      </trkpt>
      <trkpt lat="44.49006" lon="4.09191">
        <ele>582</ele>
        <time>2014-07-13T11:38:25Z</time>
      </trkpt>
      <trkpt lat="44.49022" lon="4.09195">
        <ele>579</ele>
        <time>2014-07-13T11:38:41Z</time>
      </trkpt>
      <trkpt lat="44.48983" lon="4.09202">
        <ele>581</ele>
        <time>2014-07-13T11:38:54Z</time>
      </trkpt>
      <trkpt lat="44.48978" lon="4.09201">
        <ele>580</ele>
        <time>2014-07-13T11:39:19Z</time>
      </trkpt>
      <trkpt lat="44.48955" lon="4.09201">
        <ele>579</ele>
        <time>2014-07-13T11:39:30Z</time>
      </trkpt>
      <trkpt lat="44.4891" lon="4.09177">
        <ele>581</ele>
        <time>2014-07-13T11:39:48Z</time>
      </trkpt>
      <trkpt lat="44.48895" lon="4.09184">
        <ele>576</ele>
        <time>2014-07-13T11:39:52Z</time>
      </trkpt>
      <trkpt lat="44.48874" lon="4.0919">
        <ele>572</ele>
        <time>2014-07-13T11:39:56Z</time>
      </trkpt>
      <trkpt lat="44.48857" lon="4.09194">
        <ele>571</ele>
        <time>2014-07-13T11:39:59Z</time>
      </trkpt>
      <trkpt lat="44.48852" lon="4.09197">
        <ele>570</ele>
        <time>2014-07-13T11:40:00Z</time>
      </trkpt>
      <trkpt lat="44.48835" lon="4.09207">
        <ele>568</ele>
        <time>2014-07-13T11:40:15Z</time>
      </trkpt>
      <trkpt lat="44.48833" lon="4.09206">
        <ele>559</ele>
        <time>2014-07-13T11:40:46Z</time>
      </trkpt>
      <trkpt lat="44.48828" lon="4.09213">
        <ele>557</ele>
        <time>2014-07-13T11:43:32Z</time>
      </trkpt>
      <trkpt lat="44.48829" lon="4.09205">
        <ele>559</ele>
        <time>2014-07-13T11:45:31Z</time>
      </trkpt>
      <trkpt lat="44.4883" lon="4.09207">
        <ele>558</ele>
        <time>2014-07-13T11:48:04Z</time>
      </trkpt>
      <trkpt lat="44.48827" lon="4.09208">
        <ele>558</ele>
        <time>2014-07-13T11:50:18Z</time>
      </trkpt>
      <trkpt lat="44.4883" lon="4.09207">
        <ele>558</ele>
        <time>2014-07-13T11:52:11Z</time>
      </trkpt>
      <trkpt lat="44.48829" lon="4.09206">
        <ele>559</ele>
        <time>2014-07-13T11:54:11Z</time>
      </trkpt>
      <trkpt lat="44.48829" lon="4.09207">
        <ele>558</ele>
        <time>2014-07-13T11:54:42Z</time>
      </trkpt>
      <trkpt lat="44.48829" lon="4.09207">
        <ele>558</ele>
        <time>2014-07-13T11:54:43Z</time>
      </trkpt>
      <trkpt lat="44.4883" lon="4.09209">
        <ele>558</ele>
        <time>2014-07-13T11:57:17Z</time>
      </trkpt>
      <trkpt lat="44.48827" lon="4.09213">
        <ele>557</ele>
        <time>2014-07-13T11:59:50Z</time>
      </trkpt>
      <trkpt lat="44.48829" lon="4.09211">
        <ele>557</ele>
        <time>2014-07-13T12:01:47Z</time>
      </trkpt>
      <trkpt lat="44.48826" lon="4.09219">
        <ele>555</ele>
        <time>2014-07-13T12:04:13Z</time>
      </trkpt>
      <trkpt lat="44.48816" lon="4.09231">
        <ele>553</ele>
        <time>2014-07-13T12:04:18Z</time>
      </trkpt>
      <trkpt lat="44.4881" lon="4.09236">
        <ele>552</ele>
        <time>2014-07-13T12:04:23Z</time>
      </trkpt>
      <trkpt lat="44.48795" lon="4.09231">
        <ele>552</ele>
        <time>2014-07-13T12:04:44Z</time>
      </trkpt>
      <trkpt lat="44.48793" lon="4.09228">
        <ele>552</ele>
        <time>2014-07-13T12:04:57Z</time>
      </trkpt>
      <trkpt lat="44.4879" lon="4.0922">
        <ele>552</ele>
        <time>2014-07-13T12:06:42Z</time>
      </trkpt>
      <trkpt lat="44.48778" lon="4.09203">
        <ele>553</ele>
        <time>2014-07-13T12:07:53Z</time>
      </trkpt>
      <trkpt lat="44.48756" lon="4.09142">
        <ele>566</ele>
        <time>2014-07-13T12:08:15Z</time>
      </trkpt>
      <trkpt lat="44.48751" lon="4.09052">
        <ele>579</ele>
        <time>2014-07-13T12:08:46Z</time>
      </trkpt>
      <trkpt lat="44.48752" lon="4.09003">
        <ele>576</ele>
        <time>2014-07-13T12:09:05Z</time>
      </trkpt>
      <trkpt lat="44.48752" lon="4.08997">
        <ele>578</ele>
        <time>2014-07-13T12:09:07Z</time>
      </trkpt>
      <trkpt lat="44.48709" lon="4.08954">
        <ele>587</ele>
        <time>2014-07-13T12:09:31Z</time>
      </trkpt>
      <trkpt lat="44.48684" lon="4.09036">
        <ele>570</ele>
        <time>2014-07-13T12:09:54Z</time>
      </trkpt>
      <trkpt lat="44.486" lon="4.09059">
        <ele>576</ele>
        <time>2014-07-13T12:10:28Z</time>
      </trkpt>
      <trkpt lat="44.4856" lon="4.09067">
        <ele>585</ele>
        <time>2014-07-13T12:10:46Z</time>
      </trkpt>
      <trkpt lat="44.48497" lon="4.09085">
        <ele>585</ele>
        <time>2014-07-13T12:11:09Z</time>
      </trkpt>
      <trkpt lat="44.48423" lon="4.09124">
        <ele>583</ele>
        <time>2014-07-13T12:11:38Z</time>
      </trkpt>
      <trkpt lat="44.48356" lon="4.09131">
        <ele>591</ele>
        <time>2014-07-13T12:12:12Z</time>
      </trkpt>
      <trkpt lat="44.48345" lon="4.0913">
        <ele>591</ele>
        <time>2014-07-13T12:13:00Z</time>
      </trkpt>
      <trkpt lat="44.48306" lon="4.09126">
        <ele>602</ele>
        <time>2014-07-13T12:13:25Z</time>
      </trkpt>
      <trkpt lat="44.48251" lon="4.09142">
        <ele>603</ele>
        <time>2014-07-13T12:13:52Z</time>
      </trkpt>
      <trkpt lat="44.48225" lon="4.09168">
        <ele>594</ele>
        <time>2014-07-13T12:14:04Z</time>
      </trkpt>
      <trkpt lat="44.48162" lon="4.09152">
        <ele>606</ele>
        <time>2014-07-13T12:14:26Z</time>
      </trkpt>
      <trkpt lat="44.48119" lon="4.09115">
        <ele>606</ele>
        <time>2014-07-13T12:14:51Z</time>
      </trkpt>
      <trkpt lat="44.48085" lon="4.0903">
        <ele>620</ele>
        <time>2014-07-13T12:15:17Z</time>
      </trkpt>
      <trkpt lat="44.4802" lon="4.08914">
        <ele>614</ele>
        <time>2014-07-13T12:15:53Z</time>
      </trkpt>
      <trkpt lat="44.48017" lon="4.08853">
        <ele>618</ele>
        <time>2014-07-13T12:16:08Z</time>
      </trkpt>
      <trkpt lat="44.48016" lon="4.08742">
        <ele>632</ele>
        <time>2014-07-13T12:16:35Z</time>
      </trkpt>
      <trkpt lat="44.48017" lon="4.08678">
        <ele>639</ele>
        <time>2014-07-13T12:16:53Z</time>
      </trkpt>
      <trkpt lat="44.48004" lon="4.0866">
        <ele>638</ele>
        <time>2014-07-13T12:17:02Z</time>
      </trkpt>
      <trkpt lat="44.47967" lon="4.0871">
        <ele>631</ele>
        <time>2014-07-13T12:17:28Z</time>
      </trkpt>
      <trkpt lat="44.47958" lon="4.0873">
        <ele>630</ele>
        <time>2014-07-13T12:17:35Z</time>
      </trkpt>
      <trkpt lat="44.47955" lon="4.08732">
        <ele>630</ele>
        <time>2014-07-13T12:17:36Z</time>
      </trkpt>
      <trkpt lat="44.47874" lon="4.08712">
        <ele>634</ele>
        <time>2014-07-13T12:18:05Z</time>
      </trkpt>
      <trkpt lat="44.47821" lon="4.08649">
        <ele>648</ele>
        <time>2014-07-13T12:18:30Z</time>
      </trkpt>
      <trkpt lat="44.47788" lon="4.08611">
        <ele>652</ele>
        <time>2014-07-13T12:18:52Z</time>
      </trkpt>
      <trkpt lat="44.47779" lon="4.08625">
        <ele>652</ele>
        <time>2014-07-13T12:19:00Z</time>
      </trkpt>
      <trkpt lat="44.47768" lon="4.08691">
        <ele>646</ele>
        <time>2014-07-13T12:19:26Z</time>
      </trkpt>
      <trkpt lat="44.47777" lon="4.08717">
        <ele>644</ele>
        <time>2014-07-13T12:19:35Z</time>
      </trkpt>
      <trkpt lat="44.47765" lon="4.08782">
        <ele>640</ele>
        <time>2014-07-13T12:19:57Z</time>
      </trkpt>
      <trkpt lat="44.47721" lon="4.08835">
        <ele>655</ele>
        <time>2014-07-13T12:20:23Z</time>
      </trkpt>
      <trkpt lat="44.4769" lon="4.08889">
        <ele>657</ele>
        <time>2014-07-13T12:20:44Z</time>
      </trkpt>
      <trkpt lat="44.47654" lon="4.08969">
        <ele>668</ele>
        <time>2014-07-13T12:21:06Z</time>
      </trkpt>
      <trkpt lat="44.47635" lon="4.0907">
        <ele>661</ele>
        <time>2014-07-13T12:21:28Z</time>
      </trkpt>
      <trkpt lat="44.47591" lon="4.0907">
        <ele>668</ele>
        <time>2014-07-13T12:21:41Z</time>
      </trkpt>
      <trkpt lat="44.47501" lon="4.09069">
        <ele>677</ele>
        <time>2014-07-13T12:22:10Z</time>
      </trkpt>
      <trkpt lat="44.47447" lon="4.09063">
        <ele>681</ele>
        <time>2014-07-13T12:22:33Z</time>
      </trkpt>
      <trkpt lat="44.4744" lon="4.09073">
        <ele>681</ele>
        <time>2014-07-13T12:22:48Z</time>
      </trkpt>
      <trkpt lat="44.47419" lon="4.09103">
        <ele>682</ele>
        <time>2014-07-13T12:23:24Z</time>
      </trkpt>
      <trkpt lat="44.47381" lon="4.09189">
        <ele>683</ele>
        <time>2014-07-13T12:23:51Z</time>
      </trkpt>
      <trkpt lat="44.47383" lon="4.09189">
        <ele>683</ele>
        <time>2014-07-13T12:24:14Z</time>
      </trkpt>
      <trkpt lat="44.47384" lon="4.09192">
        <ele>683</ele>
        <time>2014-07-13T12:26:10Z</time>
      </trkpt>
      <trkpt lat="44.4738" lon="4.09188">
        <ele>683</ele>
        <time>2014-07-13T12:27:47Z</time>
      </trkpt>
      <trkpt lat="44.47378" lon="4.09193">
        <ele>683</ele>
        <time>2014-07-13T12:30:06Z</time>
      </trkpt>
      <trkpt lat="44.47354" lon="4.09225">
        <ele>683</ele>
        <time>2014-07-13T12:30:21Z</time>
      </trkpt>
      <trkpt lat="44.47327" lon="4.09261">
        <ele>682</ele>
        <time>2014-07-13T12:30:32Z</time>
      </trkpt>
      <trkpt lat="44.47323" lon="4.09264">
        <ele>682</ele>
        <time>2014-07-13T12:30:33Z</time>
      </trkpt>
      <trkpt lat="44.47283" lon="4.09299">
        <ele>680</ele>
        <time>2014-07-13T12:30:42Z</time>
      </trkpt>
      <trkpt lat="44.47214" lon="4.09372">
        <ele>674</ele>
        <time>2014-07-13T12:30:56Z</time>
      </trkpt>
      <trkpt lat="44.47196" lon="4.0939">
        <ele>674</ele>
        <time>2014-07-13T12:30:59Z</time>
      </trkpt>
      <trkpt lat="44.47154" lon="4.09408">
        <ele>671</ele>
        <time>2014-07-13T12:31:05Z</time>
      </trkpt>
      <trkpt lat="44.47126" lon="4.09429">
        <ele>668</ele>
        <time>2014-07-13T12:31:10Z</time>
      </trkpt>
      <trkpt lat="44.47099" lon="4.0944">
        <ele>668</ele>
        <time>2014-07-13T12:31:14Z</time>
      </trkpt>
      <trkpt lat="44.47035" lon="4.09465">
        <ele>666</ele>
        <time>2014-07-13T12:31:23Z</time>
      </trkpt>
      <trkpt lat="44.47021" lon="4.09471">
        <ele>666</ele>
        <time>2014-07-13T12:31:25Z</time>
      </trkpt>
      <trkpt lat="44.46936" lon="4.09523">
        <ele>661</ele>
        <time>2014-07-13T12:31:39Z</time>
      </trkpt>
      <trkpt lat="44.4687" lon="4.09516">
        <ele>658</ele>
        <time>2014-07-13T12:32:00Z</time>
      </trkpt>
      <trkpt lat="44.46833" lon="4.09547">
        <ele>657</ele>
        <time>2014-07-13T12:32:09Z</time>
      </trkpt>
      <trkpt lat="44.46823" lon="4.09558">
        <ele>653</ele>
        <time>2014-07-13T12:32:11Z</time>
      </trkpt>
      <trkpt lat="44.46796" lon="4.09577">
        <ele>651</ele>
        <time>2014-07-13T12:32:15Z</time>
      </trkpt>
      <trkpt lat="44.46774" lon="4.09595">
        <ele>648</ele>
        <time>2014-07-13T12:32:18Z</time>
      </trkpt>
      <trkpt lat="44.467" lon="4.0965">
        <ele>642</ele>
        <time>2014-07-13T12:32:27Z</time>
      </trkpt>
      <trkpt lat="44.46694" lon="4.09657">
        <ele>642</ele>
        <time>2014-07-13T12:32:28Z</time>
      </trkpt>
      <trkpt lat="44.46675" lon="4.09689">
        <ele>641</ele>
        <time>2014-07-13T12:32:32Z</time>
      </trkpt>
      <trkpt lat="44.46664" lon="4.09715">
        <ele>641</ele>
        <time>2014-07-13T12:32:35Z</time>
      </trkpt>
      <trkpt lat="44.46643" lon="4.09741">
        <ele>641</ele>
        <time>2014-07-13T12:32:39Z</time>
      </trkpt>
      <trkpt lat="44.46582" lon="4.09791">
        <ele>636</ele>
        <time>2014-07-13T12:32:48Z</time>
      </trkpt>
      <trkpt lat="44.46566" lon="4.09798">
        <ele>636</ele>
        <time>2014-07-13T12:32:50Z</time>
      </trkpt>
      <trkpt lat="44.4652" lon="4.09797">
        <ele>633</ele>
        <time>2014-07-13T12:32:55Z</time>
      </trkpt>
      <trkpt lat="44.46481" lon="4.0979">
        <ele>628</ele>
        <time>2014-07-13T12:32:59Z</time>
      </trkpt>
      <trkpt lat="44.46471" lon="4.09786">
        <ele>628</ele>
        <time>2014-07-13T12:33:00Z</time>
      </trkpt>
      <trkpt lat="44.46415" lon="4.09759">
        <ele>625</ele>
        <time>2014-07-13T12:33:06Z</time>
      </trkpt>
      <trkpt lat="44.46397" lon="4.09746">
        <ele>622</ele>
        <time>2014-07-13T12:33:08Z</time>
      </trkpt>
      <trkpt lat="44.46366" lon="4.0972">
        <ele>619</ele>
        <time>2014-07-13T12:33:12Z</time>
      </trkpt>
      <trkpt lat="44.46345" lon="4.09704">
        <ele>618</ele>
        <time>2014-07-13T12:33:15Z</time>
      </trkpt>
      <trkpt lat="44.46289" lon="4.09707">
        <ele>612</ele>
        <time>2014-07-13T12:33:22Z</time>
      </trkpt>
      <trkpt lat="44.4625" lon="4.09716">
        <ele>609</ele>
        <time>2014-07-13T12:33:26Z</time>
      </trkpt>
      <trkpt lat="44.4621" lon="4.09721">
        <ele>604</ele>
        <time>2014-07-13T12:33:30Z</time>
      </trkpt>
      <trkpt lat="44.46171" lon="4.09725">
        <ele>602</ele>
        <time>2014-07-13T12:33:34Z</time>
      </trkpt>
      <trkpt lat="44.4614" lon="4.09726">
        <ele>598</ele>
        <time>2014-07-13T12:33:37Z</time>
      </trkpt>
      <trkpt lat="44.46109" lon="4.09736">
        <ele>597</ele>
        <time>2014-07-13T12:33:40Z</time>
      </trkpt>
      <trkpt lat="44.46089" lon="4.09745">
        <ele>596</ele>
        <time>2014-07-13T12:33:42Z</time>
      </trkpt>
      <trkpt lat="44.46035" lon="4.09771">
        <ele>590</ele>
        <time>2014-07-13T12:33:48Z</time>
      </trkpt>
      <trkpt lat="44.46021" lon="4.09789">
        <ele>590</ele>
        <time>2014-07-13T12:33:50Z</time>
      </trkpt>
      <trkpt lat="44.46008" lon="4.09808">
        <ele>589</ele>
        <time>2014-07-13T12:33:52Z</time>
      </trkpt>
      <trkpt lat="44.45995" lon="4.09826">
        <ele>587</ele>
        <time>2014-07-13T12:33:54Z</time>
      </trkpt>
      <trkpt lat="44.45983" lon="4.09837">
        <ele>585</ele>
        <time>2014-07-13T12:33:56Z</time>
      </trkpt>
      <trkpt lat="44.45954" lon="4.09841">
        <ele>582</ele>
        <time>2014-07-13T12:34:00Z</time>
      </trkpt>
      <trkpt lat="44.45921" lon="4.09834">
        <ele>580</ele>
        <time>2014-07-13T12:34:04Z</time>
      </trkpt>
      <trkpt lat="44.45893" lon="4.09821">
        <ele>575</ele>
        <time>2014-07-13T12:34:07Z</time>
      </trkpt>
      <trkpt lat="44.45857" lon="4.09795">
        <ele>572</ele>
        <time>2014-07-13T12:34:11Z</time>
      </trkpt>
      <trkpt lat="44.45802" lon="4.09745">
        <ele>558</ele>
        <time>2014-07-13T12:34:18Z</time>
      </trkpt>
      <trkpt lat="44.45796" lon="4.09741">
        <ele>558</ele>
        <time>2014-07-13T12:34:19Z</time>
      </trkpt>
      <trkpt lat="44.45775" lon="4.09762">
        <ele>564</ele>
        <time>2014-07-13T12:34:24Z</time>
      </trkpt>
      <trkpt lat="44.45777" lon="4.09796">
        <ele>565</ele>
        <time>2014-07-13T12:34:29Z</time>
      </trkpt>
      <trkpt lat="44.45803" lon="4.09857">
        <ele>564</ele>
        <time>2014-07-13T12:34:38Z</time>
      </trkpt>
      <trkpt lat="44.45807" lon="4.09864">
        <ele>564</ele>
        <time>2014-07-13T12:34:39Z</time>
      </trkpt>
      <trkpt lat="44.45814" lon="4.09878">
        <ele>564</ele>
        <time>2014-07-13T12:34:41Z</time>
      </trkpt>
      <trkpt lat="44.4582" lon="4.09923">
        <ele>558</ele>
        <time>2014-07-13T12:34:52Z</time>
      </trkpt>
      <trkpt lat="44.4582" lon="4.09925">
        <ele>558</ele>
        <time>2014-07-13T12:35:18Z</time>
      </trkpt>
      <trkpt lat="44.45822" lon="4.09955">
        <ele>554</ele>
        <time>2014-07-13T12:35:27Z</time>
      </trkpt>
      <trkpt lat="44.45838" lon="4.10004">
        <ele>555</ele>
        <time>2014-07-13T12:35:40Z</time>
      </trkpt>
      <trkpt lat="44.45867" lon="4.10084">
        <ele>545</ele>
        <time>2014-07-13T12:35:53Z</time>
      </trkpt>
      <trkpt lat="44.4587" lon="4.10102">
        <ele>545</ele>
        <time>2014-07-13T12:35:55Z</time>
      </trkpt>
      <trkpt lat="44.45887" lon="4.10202">
        <ele>538</ele>
        <time>2014-07-13T12:36:05Z</time>
      </trkpt>
      <trkpt lat="44.45915" lon="4.10295">
        <ele>531</ele>
        <time>2014-07-13T12:36:14Z</time>
      </trkpt>
      <trkpt lat="44.45925" lon="4.10384">
        <ele>531</ele>
        <time>2014-07-13T12:36:22Z</time>
      </trkpt>
      <trkpt lat="44.45948" lon="4.10449">
        <ele>521</ele>
        <time>2014-07-13T12:36:30Z</time>
      </trkpt>
      <trkpt lat="44.45954" lon="4.10451">
        <ele>521</ele>
        <time>2014-07-13T12:36:31Z</time>
      </trkpt>
      <trkpt lat="44.45992" lon="4.10426">
        <ele>524</ele>
        <time>2014-07-13T12:36:37Z</time>
      </trkpt>
      <trkpt lat="44.46005" lon="4.10401">
        <ele>522</ele>
        <time>2014-07-13T12:36:40Z</time>
      </trkpt>
      <trkpt lat="44.46009" lon="4.10393">
        <ele>520</ele>
        <time>2014-07-13T12:36:41Z</time>
      </trkpt>
      <trkpt lat="44.46016" lon="4.10399">
        <ele>520</ele>
        <time>2014-07-13T12:36:46Z</time>
      </trkpt>
      <trkpt lat="44.46014" lon="4.10403">
        <ele>520</ele>
        <time>2014-07-13T12:36:47Z</time>
      </trkpt>
      <trkpt lat="44.45983" lon="4.10465">
        <ele>519</ele>
        <time>2014-07-13T12:37:00Z</time>
      </trkpt>
      <trkpt lat="44.45949" lon="4.10507">
        <ele>509</ele>
        <time>2014-07-13T12:37:10Z</time>
      </trkpt>
      <trkpt lat="44.4594" lon="4.1051">
        <ele>510</ele>
        <time>2014-07-13T12:37:12Z</time>
      </trkpt>
      <trkpt lat="44.45934" lon="4.10511">
        <ele>511</ele>
        <time>2014-07-13T12:37:13Z</time>
      </trkpt>
      <trkpt lat="44.45895" lon="4.10487">
        <ele>510</ele>
        <time>2014-07-13T12:37:21Z</time>
      </trkpt>
      <trkpt lat="44.45892" lon="4.10481">
        <ele>510</ele>
        <time>2014-07-13T12:37:22Z</time>
      </trkpt>
      <trkpt lat="44.45886" lon="4.10452">
        <ele>509</ele>
        <time>2014-07-13T12:37:26Z</time>
      </trkpt>
      <trkpt lat="44.45885" lon="4.10444">
        <ele>509</ele>
        <time>2014-07-13T12:37:27Z</time>
      </trkpt>
      <trkpt lat="44.45875" lon="4.10438">
        <ele>507</ele>
        <time>2014-07-13T12:37:32Z</time>
      </trkpt>
      <trkpt lat="44.45875" lon="4.10442">
        <ele>507</ele>
        <time>2014-07-13T12:37:33Z</time>
      </trkpt>
      <trkpt lat="44.45875" lon="4.10451">
        <ele>507</ele>
        <time>2014-07-13T12:37:35Z</time>
      </trkpt>
      <trkpt lat="44.45875" lon="4.10494">
        <ele>506</ele>
        <time>2014-07-13T12:37:42Z</time>
      </trkpt>
      <trkpt lat="44.45889" lon="4.10531">
        <ele>500</ele>
        <time>2014-07-13T12:37:47Z</time>
      </trkpt>
      <trkpt lat="44.45936" lon="4.10573">
        <ele>503</ele>
        <time>2014-07-13T12:37:55Z</time>
      </trkpt>
      <trkpt lat="44.45944" lon="4.10573">
        <ele>503</ele>
        <time>2014-07-13T12:37:56Z</time>
      </trkpt>
      <trkpt lat="44.45957" lon="4.10573">
        <ele>502</ele>
        <time>2014-07-13T12:37:58Z</time>
      </trkpt>
      <trkpt lat="44.45983" lon="4.10562">
        <ele>500</ele>
        <time>2014-07-13T12:38:02Z</time>
      </trkpt>
      <trkpt lat="44.46" lon="4.10547">
        <ele>501</ele>
        <time>2014-07-13T12:38:05Z</time>
      </trkpt>
      <trkpt lat="44.46007" lon="4.10552">
        <ele>484</ele>
        <time>2014-07-13T12:38:11Z</time>
      </trkpt>
      <trkpt lat="44.46005" lon="4.10554">
        <ele>484</ele>
        <time>2014-07-13T12:38:12Z</time>
      </trkpt>
      <trkpt lat="44.45999" lon="4.10563">
        <ele>497</ele>
        <time>2014-07-13T12:38:15Z</time>
      </trkpt>
      <trkpt lat="44.45989" lon="4.10584">
        <ele>485</ele>
        <time>2014-07-13T12:38:19Z</time>
      </trkpt>
      <trkpt lat="44.45983" lon="4.10596">
        <ele>483</ele>
        <time>2014-07-13T12:38:21Z</time>
      </trkpt>
      <trkpt lat="44.45974" lon="4.10607">
        <ele>481</ele>
        <time>2014-07-13T12:38:23Z</time>
      </trkpt>
      <trkpt lat="44.4596" lon="4.10622">
        <ele>479</ele>
        <time>2014-07-13T12:38:26Z</time>
      </trkpt>
      <trkpt lat="44.45944" lon="4.10638">
        <ele>477</ele>
        <time>2014-07-13T12:38:29Z</time>
      </trkpt>
      <trkpt lat="44.45924" lon="4.10644">
        <ele>475</ele>
        <time>2014-07-13T12:38:33Z</time>
      </trkpt>
      <trkpt lat="44.45913" lon="4.10645">
        <ele>472</ele>
        <time>2014-07-13T12:38:35Z</time>
      </trkpt>
      <trkpt lat="44.45896" lon="4.10648">
        <ele>472</ele>
        <time>2014-07-13T12:38:38Z</time>
      </trkpt>
      <trkpt lat="44.45873" lon="4.10647">
        <ele>471</ele>
        <time>2014-07-13T12:38:45Z</time>
      </trkpt>
      <trkpt lat="44.45868" lon="4.1065">
        <ele>470</ele>
        <time>2014-07-13T12:38:57Z</time>
      </trkpt>
      <trkpt lat="44.45883" lon="4.10671">
        <ele>455</ele>
        <time>2014-07-13T12:39:08Z</time>
      </trkpt>
      <trkpt lat="44.45872" lon="4.10673">
        <ele>454</ele>
        <time>2014-07-13T12:39:11Z</time>
      </trkpt>
      <trkpt lat="44.45851" lon="4.1067">
        <ele>454</ele>
        <time>2014-07-13T12:39:16Z</time>
      </trkpt>
      <trkpt lat="44.45832" lon="4.10665">
        <ele>456</ele>
        <time>2014-07-13T12:39:22Z</time>
      </trkpt>
      <trkpt lat="44.4583" lon="4.10668">
        <ele>454</ele>
        <time>2014-07-13T12:39:23Z</time>
      </trkpt>
      <trkpt lat="44.45824" lon="4.1069">
        <ele>446</ele>
        <time>2014-07-13T12:39:27Z</time>
      </trkpt>
      <trkpt lat="44.4582" lon="4.10712">
        <ele>443</ele>
        <time>2014-07-13T12:39:32Z</time>
      </trkpt>
      <trkpt lat="44.45798" lon="4.1073">
        <ele>440</ele>
        <time>2014-07-13T12:39:39Z</time>
      </trkpt>
      <trkpt lat="44.45797" lon="4.10735">
        <ele>440</ele>
        <time>2014-07-13T12:39:40Z</time>
      </trkpt>
      <trkpt lat="44.45794" lon="4.10756">
        <ele>434</ele>
        <time>2014-07-13T12:39:43Z</time>
      </trkpt>
      <trkpt lat="44.45795" lon="4.10774">
        <ele>433</ele>
        <time>2014-07-13T12:39:45Z</time>
      </trkpt>
      <trkpt lat="44.45797" lon="4.10828">
        <ele>431</ele>
        <time>2014-07-13T12:39:50Z</time>
      </trkpt>
      <trkpt lat="44.45796" lon="4.1084">
        <ele>429</ele>
        <time>2014-07-13T12:39:51Z</time>
      </trkpt>
      <trkpt lat="44.45789" lon="4.10883">
        <ele>429</ele>
        <time>2014-07-13T12:39:56Z</time>
      </trkpt>
      <trkpt lat="44.45807" lon="4.11042">
        <ele>432</ele>
        <time>2014-07-13T12:40:18Z</time>
      </trkpt>
      <trkpt lat="44.45768" lon="4.11176">
        <ele>429</ele>
        <time>2014-07-13T12:40:34Z</time>
      </trkpt>
      <trkpt lat="44.4576" lon="4.11194">
        <ele>427</ele>
        <time>2014-07-13T12:40:36Z</time>
      </trkpt>
      <trkpt lat="44.45733" lon="4.11255">
        <ele>426</ele>
        <time>2014-07-13T12:40:42Z</time>
      </trkpt>
      <trkpt lat="44.45719" lon="4.1129">
        <ele>427</ele>
        <time>2014-07-13T12:40:45Z</time>
      </trkpt>
      <trkpt lat="44.45696" lon="4.11333">
        <ele>419</ele>
        <time>2014-07-13T12:40:49Z</time>
      </trkpt>
      <trkpt lat="44.45669" lon="4.11387">
        <ele>416</ele>
        <time>2014-07-13T12:40:54Z</time>
      </trkpt>
      <trkpt lat="44.45649" lon="4.11433">
        <ele>416</ele>
        <time>2014-07-13T12:40:58Z</time>
      </trkpt>
      <trkpt lat="44.45615" lon="4.11477">
        <ele>415</ele>
        <time>2014-07-13T12:41:03Z</time>
      </trkpt>
      <trkpt lat="44.45591" lon="4.1152">
        <ele>405</ele>
        <time>2014-07-13T12:41:07Z</time>
      </trkpt>
      <trkpt lat="44.4556" lon="4.11592">
        <ele>403</ele>
        <time>2014-07-13T12:41:13Z</time>
      </trkpt>
      <trkpt lat="44.45546" lon="4.1166">
        <ele>401</ele>
        <time>2014-07-13T12:41:19Z</time>
      </trkpt>
      <trkpt lat="44.45542" lon="4.1167">
        <ele>392</ele>
        <time>2014-07-13T12:41:20Z</time>
      </trkpt>
      <trkpt lat="44.45523" lon="4.11715">
        <ele>390</ele>
        <time>2014-07-13T12:41:25Z</time>
      </trkpt>
      <trkpt lat="44.45521" lon="4.11722">
        <ele>390</ele>
        <time>2014-07-13T12:41:26Z</time>
      </trkpt>
      <trkpt lat="44.45518" lon="4.11726">
        <ele>390</ele>
        <time>2014-07-13T12:41:52Z</time>
      </trkpt>
      <trkpt lat="44.45505" lon="4.11753">
        <ele>387</ele>
        <time>2014-07-13T12:42:02Z</time>
      </trkpt>
      <trkpt lat="44.45448" lon="4.11788">
        <ele>390</ele>
        <time>2014-07-13T12:42:25Z</time>
      </trkpt>
      <trkpt lat="44.45417" lon="4.11813">
        <ele>389</ele>
        <time>2014-07-13T12:42:36Z</time>
      </trkpt>
      <trkpt lat="44.4538" lon="4.1184">
        <ele>381</ele>
        <time>2014-07-13T12:42:49Z</time>
      </trkpt>
      <trkpt lat="44.45296" lon="4.11873">
        <ele>376</ele>
        <time>2014-07-13T12:43:06Z</time>
      </trkpt>
      <trkpt lat="44.45289" lon="4.11871">
        <ele>376</ele>
        <time>2014-07-13T12:43:07Z</time>
      </trkpt>
      <trkpt lat="44.4527" lon="4.11834">
        <ele>376</ele>
        <time>2014-07-13T12:43:13Z</time>
      </trkpt>
      <trkpt lat="44.4527" lon="4.11815">
        <ele>383</ele>
        <time>2014-07-13T12:43:15Z</time>
      </trkpt>
      <trkpt lat="44.45271" lon="4.11737">
        <ele>390</ele>
        <time>2014-07-13T12:43:25Z</time>
      </trkpt>
      <trkpt lat="44.45243" lon="4.11619">
        <ele>385</ele>
        <time>2014-07-13T12:43:43Z</time>
      </trkpt>
      <trkpt lat="44.45204" lon="4.11565">
        <ele>397</ele>
        <time>2014-07-13T12:43:54Z</time>
      </trkpt>
      <trkpt lat="44.45185" lon="4.11556">
        <ele>395</ele>
        <time>2014-07-13T12:43:58Z</time>
      </trkpt>
      <trkpt lat="44.4518" lon="4.11554">
        <ele>395</ele>
        <time>2014-07-13T12:43:59Z</time>
      </trkpt>
      <trkpt lat="44.4516" lon="4.1155">
        <ele>381</ele>
        <time>2014-07-13T12:44:03Z</time>
      </trkpt>
      <trkpt lat="44.45141" lon="4.11541">
        <ele>381</ele>
        <time>2014-07-13T12:44:07Z</time>
      </trkpt>
      <trkpt lat="44.45115" lon="4.11493">
        <ele>384</ele>
        <time>2014-07-13T12:44:17Z</time>
      </trkpt>
      <trkpt lat="44.45114" lon="4.11487">
        <ele>384</ele>
        <time>2014-07-13T12:44:18Z</time>
      </trkpt>
      <trkpt lat="44.45132" lon="4.11391">
        <ele>383</ele>
        <time>2014-07-13T12:44:35Z</time>
      </trkpt>
      <trkpt lat="44.45159" lon="4.11303">
        <ele>378</ele>
        <time>2014-07-13T12:44:49Z</time>
      </trkpt>
      <trkpt lat="44.4523" lon="4.11161">
        <ele>382</ele>
        <time>2014-07-13T12:45:16Z</time>
      </trkpt>
      <trkpt lat="44.4529" lon="4.11063">
        <ele>382</ele>
        <time>2014-07-13T12:45:37Z</time>
      </trkpt>
      <trkpt lat="44.45311" lon="4.11021">
        <ele>381</ele>
        <time>2014-07-13T12:45:43Z</time>
      </trkpt>
      <trkpt lat="44.45313" lon="4.11015">
        <ele>381</ele>
        <time>2014-07-13T12:45:44Z</time>
      </trkpt>
      <trkpt lat="44.45353" lon="4.10986">
        <ele>376</ele>
        <time>2014-07-13T12:45:55Z</time>
      </trkpt>
      <trkpt lat="44.4543" lon="4.10947">
        <ele>382</ele>
        <time>2014-07-13T12:46:12Z</time>
      </trkpt>
      <trkpt lat="44.45435" lon="4.10944">
        <ele>381</ele>
        <time>2014-07-13T12:46:13Z</time>
      </trkpt>
      <trkpt lat="44.45457" lon="4.10925">
        <ele>383</ele>
        <time>2014-07-13T12:46:18Z</time>
      </trkpt>
      <trkpt lat="44.45491" lon="4.109">
        <ele>377</ele>
        <time>2014-07-13T12:46:27Z</time>
      </trkpt>
      <trkpt lat="44.4553" lon="4.10824">
        <ele>379</ele>
        <time>2014-07-13T12:46:42Z</time>
      </trkpt>
      <trkpt lat="44.45545" lon="4.10785">
        <ele>381</ele>
        <time>2014-07-13T12:46:49Z</time>
      </trkpt>
      <trkpt lat="44.45548" lon="4.10771">
        <ele>381</ele>
        <time>2014-07-13T12:46:51Z</time>
      </trkpt>
      <trkpt lat="44.45581" lon="4.10644">
        <ele>376</ele>
        <time>2014-07-13T12:47:09Z</time>
      </trkpt>
      <trkpt lat="44.45586" lon="4.10619">
        <ele>391</ele>
        <time>2014-07-13T12:47:13Z</time>
      </trkpt>
      <trkpt lat="44.456" lon="4.1057">
        <ele>389</ele>
        <time>2014-07-13T12:47:21Z</time>
      </trkpt>
      <trkpt lat="44.45602" lon="4.10565">
        <ele>390</ele>
        <time>2014-07-13T12:47:22Z</time>
      </trkpt>
      <trkpt lat="44.45604" lon="4.10545">
        <ele>391</ele>
        <time>2014-07-13T12:47:25Z</time>
      </trkpt>
      <trkpt lat="44.45607" lon="4.10448">
        <ele>393</ele>
        <time>2014-07-13T12:47:42Z</time>
      </trkpt>
      <trkpt lat="44.45612" lon="4.10415">
        <ele>399</ele>
        <time>2014-07-13T12:47:47Z</time>
      </trkpt>
      <trkpt lat="44.45595" lon="4.10394">
        <ele>397</ele>
        <time>2014-07-13T12:47:53Z</time>
      </trkpt>
      <trkpt lat="44.4556" lon="4.10416">
        <ele>390</ele>
        <time>2014-07-13T12:48:00Z</time>
      </trkpt>
      <trkpt lat="44.45546" lon="4.10418">
        <ele>380</ele>
        <time>2014-07-13T12:48:02Z</time>
      </trkpt>
      <trkpt lat="44.45527" lon="4.10428">
        <ele>380</ele>
        <time>2014-07-13T12:48:05Z</time>
      </trkpt>
      <trkpt lat="44.45492" lon="4.10444">
        <ele>377</ele>
        <time>2014-07-13T12:48:10Z</time>
      </trkpt>
      <trkpt lat="44.45484" lon="4.10446">
        <ele>376</ele>
        <time>2014-07-13T12:48:11Z</time>
      </trkpt>
      <trkpt lat="44.45446" lon="4.10454">
        <ele>375</ele>
        <time>2014-07-13T12:48:16Z</time>
      </trkpt>
      <trkpt lat="44.4544" lon="4.10457">
        <ele>375</ele>
        <time>2014-07-13T12:48:17Z</time>
      </trkpt>
      <trkpt lat="44.45428" lon="4.10463">
        <ele>374</ele>
        <time>2014-07-13T12:48:19Z</time>
      </trkpt>
      <trkpt lat="44.45389" lon="4.10469">
        <ele>370</ele>
        <time>2014-07-13T12:48:25Z</time>
      </trkpt>
      <trkpt lat="44.45372" lon="4.10474">
        <ele>368</ele>
        <time>2014-07-13T12:48:29Z</time>
      </trkpt>
      <trkpt lat="44.45263" lon="4.10432">
        <ele>360</ele>
        <time>2014-07-13T12:48:47Z</time>
      </trkpt>
      <trkpt lat="44.45255" lon="4.10428">
        <ele>360</ele>
        <time>2014-07-13T12:48:48Z</time>
      </trkpt>
      <trkpt lat="44.45207" lon="4.10406">
        <ele>359</ele>
        <time>2014-07-13T12:48:55Z</time>
      </trkpt>
      <trkpt lat="44.45183" lon="4.10372">
        <ele>359</ele>
        <time>2014-07-13T12:49:00Z</time>
      </trkpt>
      <trkpt lat="44.45167" lon="4.10349">
        <ele>355</ele>
        <time>2014-07-13T12:49:04Z</time>
      </trkpt>
      <trkpt lat="44.45146" lon="4.10282">
        <ele>358</ele>
        <time>2014-07-13T12:49:15Z</time>
      </trkpt>
      <trkpt lat="44.45171" lon="4.10191">
        <ele>368</ele>
        <time>2014-07-13T12:49:35Z</time>
      </trkpt>
      <trkpt lat="44.45158" lon="4.10174">
        <ele>362</ele>
        <time>2014-07-13T12:49:41Z</time>
      </trkpt>
      <trkpt lat="44.4512" lon="4.10133">
        <ele>354</ele>
        <time>2014-07-13T12:49:53Z</time>
      </trkpt>
      <trkpt lat="44.45126" lon="4.10097">
        <ele>355</ele>
        <time>2014-07-13T12:49:59Z</time>
      </trkpt>
      <trkpt lat="44.45159" lon="4.1001">
        <ele>358</ele>
        <time>2014-07-13T12:50:13Z</time>
      </trkpt>
      <trkpt lat="44.45152" lon="4.09986">
        <ele>354</ele>
        <time>2014-07-13T12:50:17Z</time>
      </trkpt>
      <trkpt lat="44.45148" lon="4.09982">
        <ele>353</ele>
        <time>2014-07-13T12:50:18Z</time>
      </trkpt>
      <trkpt lat="44.45137" lon="4.0992">
        <ele>351</ele>
        <time>2014-07-13T12:50:28Z</time>
      </trkpt>
      <trkpt lat="44.4519" lon="4.09848">
        <ele>360</ele>
        <time>2014-07-13T12:50:46Z</time>
      </trkpt>
      <trkpt lat="44.45219" lon="4.09835">
        <ele>364</ele>
        <time>2014-07-13T12:50:56Z</time>
      </trkpt>
      <trkpt lat="44.45265" lon="4.09859">
        <ele>378</ele>
        <time>2014-07-13T12:51:14Z</time>
      </trkpt>
      <trkpt lat="44.45285" lon="4.09884">
        <ele>382</ele>
        <time>2014-07-13T12:51:26Z</time>
      </trkpt>
      <trkpt lat="44.45308" lon="4.0988">
        <ele>383</ele>
        <time>2014-07-13T12:51:40Z</time>
      </trkpt>
      <trkpt lat="44.45286" lon="4.09812">
        <ele>379</ele>
        <time>2014-07-13T12:51:57Z</time>
      </trkpt>
      <trkpt lat="44.45269" lon="4.09749">
        <ele>372</ele>
        <time>2014-07-13T12:52:12Z</time>
      </trkpt>
      <trkpt lat="44.45308" lon="4.09653">
        <ele>376</ele>
        <time>2014-07-13T12:52:36Z</time>
      </trkpt>
      <trkpt lat="44.4534" lon="4.096">
        <ele>381</ele>
        <time>2014-07-13T12:52:51Z</time>
      </trkpt>
      <trkpt lat="44.45371" lon="4.09596">
        <ele>388</ele>
        <time>2014-07-13T12:53:01Z</time>
      </trkpt>
      <trkpt lat="44.45413" lon="4.09594">
        <ele>390</ele>
        <time>2014-07-13T12:53:14Z</time>
      </trkpt>
      <trkpt lat="44.45445" lon="4.09561">
        <ele>392</ele>
        <time>2014-07-13T12:53:26Z</time>
      </trkpt>
      <trkpt lat="44.45478" lon="4.09518">
        <ele>393</ele>
        <time>2014-07-13T12:53:40Z</time>
      </trkpt>
      <trkpt lat="44.45544" lon="4.09459">
        <ele>404</ele>
        <time>2014-07-13T12:54:05Z</time>
      </trkpt>
      <trkpt lat="44.45607" lon="4.09383">
        <ele>413</ele>
        <time>2014-07-13T12:54:31Z</time>
      </trkpt>
      <trkpt lat="44.45673" lon="4.09385">
        <ele>424</ele>
        <time>2014-07-13T12:54:54Z</time>
      </trkpt>
      <trkpt lat="44.45686" lon="4.0933">
        <ele>426</ele>
        <time>2014-07-13T12:55:08Z</time>
      </trkpt>
      <trkpt lat="44.45669" lon="4.09333">
        <ele>418</ele>
        <time>2014-07-13T12:55:14Z</time>
      </trkpt>
      <trkpt lat="44.45609" lon="4.09315">
        <ele>429</ele>
        <time>2014-07-13T12:55:32Z</time>
      </trkpt>
      <trkpt lat="44.45556" lon="4.09334">
        <ele>411</ele>
        <time>2014-07-13T12:55:46Z</time>
      </trkpt>
      <trkpt lat="44.4553" lon="4.09343">
        <ele>410</ele>
        <time>2014-07-13T12:55:51Z</time>
      </trkpt>
      <trkpt lat="44.45459" lon="4.09341">
        <ele>407</ele>
        <time>2014-07-13T12:56:05Z</time>
      </trkpt>
      <trkpt lat="44.4545" lon="4.09332">
        <ele>427</ele>
        <time>2014-07-13T12:56:07Z</time>
      </trkpt>
      <trkpt lat="44.45446" lon="4.09328">
        <ele>427</ele>
        <time>2014-07-13T12:56:08Z</time>
      </trkpt>
      <trkpt lat="44.45419" lon="4.09337">
        <ele>414</ele>
        <time>2014-07-13T12:56:14Z</time>
      </trkpt>
      <trkpt lat="44.45416" lon="4.09344">
        <ele>412</ele>
        <time>2014-07-13T12:56:15Z</time>
      </trkpt>
      <trkpt lat="44.45408" lon="4.09355">
        <ele>408</ele>
        <time>2014-07-13T12:56:17Z</time>
      </trkpt>
      <trkpt lat="44.45388" lon="4.09379">
        <ele>402</ele>
        <time>2014-07-13T12:56:21Z</time>
      </trkpt>
      <trkpt lat="44.45359" lon="4.0937">
        <ele>405</ele>
        <time>2014-07-13T12:56:27Z</time>
      </trkpt>
      <trkpt lat="44.45331" lon="4.0936">
        <ele>416</ele>
        <time>2014-07-13T12:56:32Z</time>
      </trkpt>
      <trkpt lat="44.45325" lon="4.09359">
        <ele>416</ele>
        <time>2014-07-13T12:56:33Z</time>
      </trkpt>
      <trkpt lat="44.45295" lon="4.09388">
        <ele>412</ele>
        <time>2014-07-13T12:56:39Z</time>
      </trkpt>
      <trkpt lat="44.45281" lon="4.09394">
        <ele>413</ele>
        <time>2014-07-13T12:56:41Z</time>
      </trkpt>
      <trkpt lat="44.45267" lon="4.09398">
        <ele>414</ele>
        <time>2014-07-13T12:56:43Z</time>
      </trkpt>
      <trkpt lat="44.45245" lon="4.09426">
        <ele>410</ele>
        <time>2014-07-13T12:56:48Z</time>
      </trkpt>
      <trkpt lat="44.4524" lon="4.09439">
        <ele>409</ele>
        <time>2014-07-13T12:56:50Z</time>
      </trkpt>
      <trkpt lat="44.45182" lon="4.09511">
        <ele>395</ele>
        <time>2014-07-13T12:57:03Z</time>
      </trkpt>
      <trkpt lat="44.45144" lon="4.09516">
        <ele>402</ele>
        <time>2014-07-13T12:57:10Z</time>
      </trkpt>
      <trkpt lat="44.45128" lon="4.09509">
        <ele>403</ele>
        <time>2014-07-13T12:57:13Z</time>
      </trkpt>
      <trkpt lat="44.45112" lon="4.09526">
        <ele>402</ele>
        <time>2014-07-13T12:57:17Z</time>
      </trkpt>
      <trkpt lat="44.45101" lon="4.09551">
        <ele>398</ele>
        <time>2014-07-13T12:57:21Z</time>
      </trkpt>
      <trkpt lat="44.45064" lon="4.09566">
        <ele>398</ele>
        <time>2014-07-13T12:57:30Z</time>
      </trkpt>
      <trkpt lat="44.4504" lon="4.09538">
        <ele>402</ele>
        <time>2014-07-13T12:57:36Z</time>
      </trkpt>
      <trkpt lat="44.45019" lon="4.09478">
        <ele>417</ele>
        <time>2014-07-13T12:57:44Z</time>
      </trkpt>
      <trkpt lat="44.45018" lon="4.0947">
        <ele>418</ele>
        <time>2014-07-13T12:57:45Z</time>
      </trkpt>
      <trkpt lat="44.45002" lon="4.09469">
        <ele>417</ele>
        <time>2014-07-13T12:57:50Z</time>
      </trkpt>
      <trkpt lat="44.45" lon="4.09475">
        <ele>418</ele>
        <time>2014-07-13T12:57:51Z</time>
      </trkpt>
      <trkpt lat="44.4499" lon="4.0951">
        <ele>408</ele>
        <time>2014-07-13T12:57:57Z</time>
      </trkpt>
      <trkpt lat="44.44985" lon="4.09521">
        <ele>408</ele>
        <time>2014-07-13T12:57:59Z</time>
      </trkpt>
      <trkpt lat="44.44976" lon="4.09537">
        <ele>408</ele>
        <time>2014-07-13T12:58:02Z</time>
      </trkpt>
      <trkpt lat="44.44953" lon="4.09595">
        <ele>399</ele>
        <time>2014-07-13T12:58:14Z</time>
      </trkpt>
      <trkpt lat="44.44928" lon="4.09628">
        <ele>400</ele>
        <time>2014-07-13T12:58:25Z</time>
      </trkpt>
      <trkpt lat="44.44867" lon="4.09755">
        <ele>402</ele>
        <time>2014-07-13T12:58:58Z</time>
      </trkpt>
      <trkpt lat="44.44865" lon="4.09765">
        <ele>402</ele>
        <time>2014-07-13T12:59:00Z</time>
      </trkpt>
      <trkpt lat="44.44863" lon="4.09769">
        <ele>402</ele>
        <time>2014-07-13T12:59:01Z</time>
      </trkpt>
      <trkpt lat="44.44834" lon="4.09825">
        <ele>404</ele>
        <time>2014-07-13T12:59:15Z</time>
      </trkpt>
      <trkpt lat="44.44814" lon="4.09839">
        <ele>405</ele>
        <time>2014-07-13T12:59:20Z</time>
      </trkpt>
      <trkpt lat="44.44796" lon="4.09847">
        <ele>405</ele>
        <time>2014-07-13T12:59:24Z</time>
      </trkpt>
      <trkpt lat="44.44749" lon="4.0989">
        <ele>413</ele>
        <time>2014-07-13T12:59:37Z</time>
      </trkpt>
      <trkpt lat="44.44718" lon="4.09941">
        <ele>414</ele>
        <time>2014-07-13T12:59:50Z</time>
      </trkpt>
      <trkpt lat="44.44716" lon="4.09947">
        <ele>414</ele>
        <time>2014-07-13T12:59:51Z</time>
      </trkpt>
      <trkpt lat="44.44681" lon="4.10051">
        <ele>414</ele>
        <time>2014-07-13T13:00:14Z</time>
      </trkpt>
      <trkpt lat="44.44663" lon="4.10128">
        <ele>413</ele>
        <time>2014-07-13T13:00:31Z</time>
      </trkpt>
      <trkpt lat="44.44651" lon="4.10132">
        <ele>413</ele>
        <time>2014-07-13T13:00:35Z</time>
      </trkpt>
      <trkpt lat="44.44615" lon="4.10085">
        <ele>413</ele>
        <time>2014-07-13T13:00:56Z</time>
      </trkpt>
      <trkpt lat="44.44621" lon="4.10088">
        <ele>414</ele>
        <time>2014-07-13T13:01:54Z</time>
      </trkpt>
      <trkpt lat="44.44615" lon="4.10079">
        <ele>417</ele>
        <time>2014-07-13T13:03:45Z</time>
      </trkpt>
      <trkpt lat="44.44596" lon="4.09973">
        <ele>419</ele>
        <time>2014-07-13T13:04:06Z</time>
      </trkpt>
      <trkpt lat="44.44607" lon="4.09922">
        <ele>419</ele>
        <time>2014-07-13T13:04:16Z</time>
      </trkpt>
      <trkpt lat="44.44623" lon="4.09855">
        <ele>419</ele>
        <time>2014-07-13T13:04:29Z</time>
      </trkpt>
      <trkpt lat="44.44683" lon="4.09763">
        <ele>417</ele>
        <time>2014-07-13T13:04:52Z</time>
      </trkpt>
      <trkpt lat="44.44673" lon="4.09728">
        <ele>419</ele>
        <time>2014-07-13T13:04:58Z</time>
      </trkpt>
      <trkpt lat="44.44667" lon="4.09723">
        <ele>419</ele>
        <time>2014-07-13T13:04:59Z</time>
      </trkpt>
      <trkpt lat="44.4465" lon="4.09678">
        <ele>415</ele>
        <time>2014-07-13T13:05:04Z</time>
      </trkpt>
      <trkpt lat="44.4465" lon="4.09668">
        <ele>415</ele>
        <time>2014-07-13T13:05:05Z</time>
      </trkpt>
      <trkpt lat="44.44648" lon="4.09649">
        <ele>414</ele>
        <time>2014-07-13T13:05:07Z</time>
      </trkpt>
      <trkpt lat="44.44625" lon="4.09634">
        <ele>412</ele>
        <time>2014-07-13T13:05:12Z</time>
      </trkpt>
      <trkpt lat="44.44618" lon="4.09636">
        <ele>411</ele>
        <time>2014-07-13T13:05:13Z</time>
      </trkpt>
      <trkpt lat="44.44577" lon="4.09648">
        <ele>404</ele>
        <time>2014-07-13T13:05:18Z</time>
      </trkpt>
      <trkpt lat="44.44538" lon="4.09656">
        <ele>402</ele>
        <time>2014-07-13T13:05:23Z</time>
      </trkpt>
      <trkpt lat="44.44509" lon="4.09661">
        <ele>400</ele>
        <time>2014-07-13T13:05:27Z</time>
      </trkpt>
      <trkpt lat="44.44463" lon="4.09684">
        <ele>396</ele>
        <time>2014-07-13T13:05:33Z</time>
      </trkpt>
      <trkpt lat="44.4444" lon="4.09699">
        <ele>395</ele>
        <time>2014-07-13T13:05:36Z</time>
      </trkpt>
      <trkpt lat="44.44373" lon="4.09742">
        <ele>390</ele>
        <time>2014-07-13T13:05:44Z</time>
      </trkpt>
      <trkpt lat="44.44365" lon="4.09745">
        <ele>390</ele>
        <time>2014-07-13T13:05:45Z</time>
      </trkpt>
      <trkpt lat="44.44312" lon="4.09747">
        <ele>392</ele>
        <time>2014-07-13T13:05:54Z</time>
      </trkpt>
      <trkpt lat="44.44299" lon="4.09753">
        <ele>391</ele>
        <time>2014-07-13T13:05:57Z</time>
      </trkpt>
      <trkpt lat="44.44294" lon="4.09756">
        <ele>391</ele>
        <time>2014-07-13T13:05:58Z</time>
      </trkpt>
      <trkpt lat="44.44231" lon="4.09788">
        <ele>398</ele>
        <time>2014-07-13T13:06:15Z</time>
      </trkpt>
      <trkpt lat="44.44194" lon="4.09823">
        <ele>400</ele>
        <time>2014-07-13T13:06:28Z</time>
      </trkpt>
      <trkpt lat="44.44098" lon="4.09918">
        <ele>402</ele>
        <time>2014-07-13T13:06:59Z</time>
      </trkpt>
      <trkpt lat="44.44088" lon="4.09925">
        <ele>403</ele>
        <time>2014-07-13T13:07:02Z</time>
      </trkpt>
      <trkpt lat="44.44026" lon="4.09909">
        <ele>406</ele>
        <time>2014-07-13T13:07:20Z</time>
      </trkpt>
      <trkpt lat="44.4396" lon="4.09816">
        <ele>402</ele>
        <time>2014-07-13T13:07:43Z</time>
      </trkpt>
      <trkpt lat="44.43956" lon="4.09815">
        <ele>402</ele>
        <time>2014-07-13T13:07:44Z</time>
      </trkpt>
      <trkpt lat="44.43901" lon="4.09804">
        <ele>400</ele>
        <time>2014-07-13T13:07:54Z</time>
      </trkpt>
      <trkpt lat="44.43894" lon="4.09803">
        <ele>400</ele>
        <time>2014-07-13T13:07:55Z</time>
      </trkpt>
      <trkpt lat="44.43824" lon="4.09792">
        <ele>398</ele>
        <time>2014-07-13T13:08:05Z</time>
      </trkpt>
      <trkpt lat="44.43712" lon="4.0988">
        <ele>393</ele>
        <time>2014-07-13T13:08:24Z</time>
      </trkpt>
      <trkpt lat="44.43616" lon="4.1002">
        <ele>394</ele>
        <time>2014-07-13T13:08:46Z</time>
      </trkpt>
      <trkpt lat="44.43606" lon="4.10051">
        <ele>394</ele>
        <time>2014-07-13T13:08:50Z</time>
      </trkpt>
      <trkpt lat="44.43576" lon="4.10152">
        <ele>393</ele>
        <time>2014-07-13T13:09:04Z</time>
      </trkpt>
      <trkpt lat="44.43498" lon="4.10355">
        <ele>392</ele>
        <time>2014-07-13T13:09:36Z</time>
      </trkpt>
      <trkpt lat="44.43498" lon="4.1036">
        <ele>392</ele>
        <time>2014-07-13T13:09:37Z</time>
      </trkpt>
      <trkpt lat="44.43466" lon="4.10564">
        <ele>387</ele>
        <time>2014-07-13T13:10:09Z</time>
      </trkpt>
      <trkpt lat="44.43457" lon="4.10629">
        <ele>383</ele>
        <time>2014-07-13T13:10:15Z</time>
      </trkpt>
      <trkpt lat="44.43435" lon="4.10722">
        <ele>377</ele>
        <time>2014-07-13T13:10:22Z</time>
      </trkpt>
      <trkpt lat="44.43404" lon="4.10837">
        <ele>370</ele>
        <time>2014-07-13T13:10:31Z</time>
      </trkpt>
      <trkpt lat="44.43357" lon="4.11012">
        <ele>362</ele>
        <time>2014-07-13T13:10:45Z</time>
      </trkpt>
      <trkpt lat="44.43333" lon="4.11104">
        <ele>359</ele>
        <time>2014-07-13T13:10:53Z</time>
      </trkpt>
      <trkpt lat="44.4333" lon="4.11115">
        <ele>359</ele>
        <time>2014-07-13T13:10:54Z</time>
      </trkpt>
      <trkpt lat="44.43263" lon="4.11218">
        <ele>360</ele>
        <time>2014-07-13T13:11:08Z</time>
      </trkpt>
      <trkpt lat="44.43278" lon="4.11261">
        <ele>360</ele>
        <time>2014-07-13T13:11:22Z</time>
      </trkpt>
      <trkpt lat="44.43284" lon="4.11276">
        <ele>359</ele>
        <time>2014-07-13T13:11:44Z</time>
      </trkpt>
      <trkpt lat="44.43284" lon="4.11274">
        <ele>360</ele>
        <time>2014-07-13T13:13:42Z</time>
      </trkpt>
      <trkpt lat="44.4329" lon="4.11275">
        <ele>359</ele>
        <time>2014-07-13T13:15:17Z</time>
      </trkpt>
      <trkpt lat="44.43295" lon="4.1133">
        <ele>358</ele>
        <time>2014-07-13T13:15:31Z</time>
      </trkpt>
      <trkpt lat="44.4329" lon="4.11408">
        <ele>352</ele>
        <time>2014-07-13T13:15:42Z</time>
      </trkpt>
      <trkpt lat="44.43275" lon="4.11485">
        <ele>346</ele>
        <time>2014-07-13T13:15:53Z</time>
      </trkpt>
      <trkpt lat="44.4325" lon="4.11617">
        <ele>345</ele>
        <time>2014-07-13T13:16:15Z</time>
      </trkpt>
      <trkpt lat="44.43245" lon="4.11697">
        <ele>341</ele>
        <time>2014-07-13T13:16:29Z</time>
      </trkpt>
      <trkpt lat="44.43216" lon="4.11793">
        <ele>338</ele>
        <time>2014-07-13T13:16:46Z</time>
      </trkpt>
      <trkpt lat="44.43164" lon="4.11918">
        <ele>339</ele>
        <time>2014-07-13T13:17:04Z</time>
      </trkpt>
      <trkpt lat="44.43148" lon="4.11932">
        <ele>336</ele>
        <time>2014-07-13T13:17:07Z</time>
      </trkpt>
      <trkpt lat="44.43104" lon="4.11974">
        <ele>334</ele>
        <time>2014-07-13T13:17:15Z</time>
      </trkpt>
      <trkpt lat="44.43092" lon="4.12019">
        <ele>330</ele>
        <time>2014-07-13T13:17:21Z</time>
      </trkpt>
      <trkpt lat="44.43059" lon="4.1209">
        <ele>324</ele>
        <time>2014-07-13T13:17:34Z</time>
      </trkpt>
      <trkpt lat="44.43036" lon="4.12154">
        <ele>321</ele>
        <time>2014-07-13T13:17:42Z</time>
      </trkpt>
      <trkpt lat="44.43027" lon="4.12182">
        <ele>316</ele>
        <time>2014-07-13T13:17:45Z</time>
      </trkpt>
      <trkpt lat="44.42991" lon="4.12255">
        <ele>316</ele>
        <time>2014-07-13T13:17:53Z</time>
      </trkpt>
      <trkpt lat="44.42967" lon="4.123">
        <ele>313</ele>
        <time>2014-07-13T13:17:58Z</time>
      </trkpt>
      <trkpt lat="44.42941" lon="4.12412">
        <ele>310</ele>
        <time>2014-07-13T13:18:12Z</time>
      </trkpt>
      <trkpt lat="44.42939" lon="4.12443">
        <ele>304</ele>
        <time>2014-07-13T13:18:16Z</time>
      </trkpt>
      <trkpt lat="44.42937" lon="4.12466">
        <ele>303</ele>
        <time>2014-07-13T13:18:19Z</time>
      </trkpt>
      <trkpt lat="44.42902" lon="4.12546">
        <ele>304</ele>
        <time>2014-07-13T13:18:31Z</time>
      </trkpt>
      <trkpt lat="44.42893" lon="4.12566">
        <ele>303</ele>
        <time>2014-07-13T13:18:34Z</time>
      </trkpt>
      <trkpt lat="44.42884" lon="4.12626">
        <ele>302</ele>
        <time>2014-07-13T13:18:42Z</time>
      </trkpt>
      <trkpt lat="44.42871" lon="4.12694">
        <ele>300</ele>
        <time>2014-07-13T13:19:05Z</time>
      </trkpt>
      <trkpt lat="44.4287" lon="4.12696">
        <ele>300</ele>
        <time>2014-07-13T13:19:15Z</time>
      </trkpt>
      <trkpt lat="44.42875" lon="4.12712">
        <ele>300</ele>
        <time>2014-07-13T13:19:22Z</time>
      </trkpt>
      <trkpt lat="44.42881" lon="4.12755">
        <ele>296</ele>
        <time>2014-07-13T13:19:46Z</time>
      </trkpt>
      <trkpt lat="44.42883" lon="4.12752">
        <ele>296</ele>
        <time>2014-07-13T13:20:08Z</time>
      </trkpt>
      <trkpt lat="44.4287" lon="4.12695">
        <ele>300</ele>
        <time>2014-07-13T13:20:25Z</time>
      </trkpt>
      <trkpt lat="44.42843" lon="4.12637">
        <ele>303</ele>
        <time>2014-07-13T13:20:41Z</time>
      </trkpt>
      <trkpt lat="44.42806" lon="4.1263">
        <ele>302</ele>
        <time>2014-07-13T13:21:00Z</time>
      </trkpt>
      <trkpt lat="44.42787" lon="4.12647">
        <ele>301</ele>
        <time>2014-07-13T13:21:09Z</time>
      </trkpt>
      <trkpt lat="44.42761" lon="4.12672">
        <ele>299</ele>
        <time>2014-07-13T13:21:15Z</time>
      </trkpt>
      <trkpt lat="44.42711" lon="4.12648">
        <ele>294</ele>
        <time>2014-07-13T13:21:31Z</time>
      </trkpt>
      <trkpt lat="44.4266" lon="4.12582">
        <ele>286</ele>
        <time>2014-07-13T13:21:51Z</time>
      </trkpt>
      <trkpt lat="44.42646" lon="4.12635">
        <ele>286</ele>
        <time>2014-07-13T13:22:07Z</time>
      </trkpt>
      <trkpt lat="44.42656" lon="4.12684">
        <ele>287</ele>
        <time>2014-07-13T13:22:17Z</time>
      </trkpt>
      <trkpt lat="44.42671" lon="4.12759">
        <ele>286</ele>
        <time>2014-07-13T13:22:30Z</time>
      </trkpt>
      <trkpt lat="44.42715" lon="4.12818">
        <ele>284</ele>
        <time>2014-07-13T13:22:43Z</time>
      </trkpt>
      <trkpt lat="44.42735" lon="4.12907">
        <ele>274</ele>
        <time>2014-07-13T13:22:56Z</time>
      </trkpt>
      <trkpt lat="44.42735" lon="4.12933">
        <ele>267</ele>
        <time>2014-07-13T13:23:00Z</time>
      </trkpt>
      <trkpt lat="44.42717" lon="4.12915">
        <ele>272</ele>
        <time>2014-07-13T13:23:12Z</time>
      </trkpt>
      <trkpt lat="44.42675" lon="4.12858">
        <ele>272</ele>
        <time>2014-07-13T13:23:32Z</time>
      </trkpt>
      <trkpt lat="44.42643" lon="4.12843">
        <ele>264</ele>
        <time>2014-07-13T13:23:40Z</time>
      </trkpt>
      <trkpt lat="44.42593" lon="4.12827">
        <ele>265</ele>
        <time>2014-07-13T13:23:50Z</time>
      </trkpt>
      <trkpt lat="44.42568" lon="4.12797">
        <ele>258</ele>
        <time>2014-07-13T13:23:57Z</time>
      </trkpt>
      <trkpt lat="44.42564" lon="4.12793">
        <ele>258</ele>
        <time>2014-07-13T13:23:58Z</time>
      </trkpt>
      <trkpt lat="44.42552" lon="4.12766">
        <ele>258</ele>
        <time>2014-07-13T13:24:02Z</time>
      </trkpt>
      <trkpt lat="44.42539" lon="4.12733">
        <ele>263</ele>
        <time>2014-07-13T13:24:09Z</time>
      </trkpt>
      <trkpt lat="44.42524" lon="4.12721">
        <ele>261</ele>
        <time>2014-07-13T13:24:18Z</time>
      </trkpt>
      <trkpt lat="44.42514" lon="4.12728">
        <ele>258</ele>
        <time>2014-07-13T13:24:24Z</time>
      </trkpt>
      <trkpt lat="44.42509" lon="4.12727">
        <ele>258</ele>
        <time>2014-07-13T13:24:26Z</time>
      </trkpt>
      <trkpt lat="44.42503" lon="4.12728">
        <ele>257</ele>
        <time>2014-07-13T13:25:06Z</time>
      </trkpt>
      <trkpt lat="44.42487" lon="4.12732">
        <ele>246</ele>
        <time>2014-07-13T13:26:09Z</time>
      </trkpt>
      <trkpt lat="44.42459" lon="4.12737">
        <ele>243</ele>
        <time>2014-07-13T13:26:20Z</time>
      </trkpt>
      <trkpt lat="44.42455" lon="4.12733">
        <ele>242</ele>
        <time>2014-07-13T13:26:30Z</time>
      </trkpt>
      <trkpt lat="44.42406" lon="4.12737">
        <ele>230</ele>
        <time>2014-07-13T13:26:53Z</time>
      </trkpt>
      <trkpt lat="44.42376" lon="4.12732">
        <ele>228</ele>
        <time>2014-07-13T13:26:58Z</time>
      </trkpt>
      <trkpt lat="44.42363" lon="4.12736">
        <ele>226</ele>
        <time>2014-07-13T13:27:00Z</time>
      </trkpt>
      <trkpt lat="44.42343" lon="4.12743">
        <ele>223</ele>
        <time>2014-07-13T13:27:03Z</time>
      </trkpt>
      <trkpt lat="44.42334" lon="4.12753">
        <ele>219</ele>
        <time>2014-07-13T13:27:05Z</time>
      </trkpt>
      <trkpt lat="44.42318" lon="4.12814">
        <ele>211</ele>
        <time>2014-07-13T13:27:14Z</time>
      </trkpt>
      <trkpt lat="44.42342" lon="4.1285">
        <ele>215</ele>
        <time>2014-07-13T13:27:25Z</time>
      </trkpt>
      <trkpt lat="44.4235" lon="4.12883">
        <ele>216</ele>
        <time>2014-07-13T13:27:31Z</time>
      </trkpt>
      <trkpt lat="44.42368" lon="4.12986">
        <ele>213</ele>
        <time>2014-07-13T13:27:48Z</time>
      </trkpt>
      <trkpt lat="44.42378" lon="4.13102">
        <ele>205</ele>
        <time>2014-07-13T13:28:12Z</time>
      </trkpt>
      <trkpt lat="44.42362" lon="4.1316">
        <ele>202</ele>
        <time>2014-07-13T13:28:32Z</time>
      </trkpt>
      <trkpt lat="44.42356" lon="4.13192">
        <ele>194</ele>
        <time>2014-07-13T13:28:43Z</time>
      </trkpt>
      <trkpt lat="44.42388" lon="4.13202">
        <ele>194</ele>
        <time>2014-07-13T13:29:00Z</time>
      </trkpt>
      <trkpt lat="44.42393" lon="4.13224">
        <ele>193</ele>
        <time>2014-07-13T13:29:18Z</time>
      </trkpt>
      <trkpt lat="44.42397" lon="4.13231">
        <ele>193</ele>
        <time>2014-07-13T13:29:31Z</time>
      </trkpt>
      <trkpt lat="44.42397" lon="4.13227">
        <ele>193</ele>
        <time>2014-07-13T13:30:46Z</time>
      </trkpt>
      <trkpt lat="44.42398" lon="4.13244">
        <ele>193</ele>
        <time>2014-07-13T13:31:38Z</time>
      </trkpt>
      <trkpt lat="44.42399" lon="4.13263">
        <ele>183</ele>
        <time>2014-07-13T13:31:41Z</time>
      </trkpt>
      <trkpt lat="44.42411" lon="4.13314">
        <ele>172</ele>
        <time>2014-07-13T13:31:52Z</time>
      </trkpt>
      <trkpt lat="44.42423" lon="4.13327">
        <ele>174</ele>
        <time>2014-07-13T13:31:57Z</time>
      </trkpt>
      <trkpt lat="44.42437" lon="4.13331">
        <ele>178</ele>
        <time>2014-07-13T13:32:02Z</time>
      </trkpt>
      <trkpt lat="44.42452" lon="4.13336">
        <ele>164</ele>
        <time>2014-07-13T13:32:07Z</time>
      </trkpt>
      <trkpt lat="44.42472" lon="4.13345">
        <ele>165</ele>
        <time>2014-07-13T13:32:14Z</time>
      </trkpt>
      <trkpt lat="44.42511" lon="4.13354">
        <ele>165</ele>
        <time>2014-07-13T13:32:26Z</time>
      </trkpt>
      <trkpt lat="44.42529" lon="4.13358">
        <ele>162</ele>
        <time>2014-07-13T13:32:30Z</time>
      </trkpt>
      <trkpt lat="44.42561" lon="4.13359">
        <ele>160</ele>
        <time>2014-07-13T13:32:43Z</time>
      </trkpt>
      <trkpt lat="44.42563" lon="4.13358">
        <ele>160</ele>
        <time>2014-07-13T13:33:07Z</time>
      </trkpt>
      <trkpt lat="44.42566" lon="4.13363">
        <ele>160</ele>
        <time>2014-07-13T13:34:03Z</time>
      </trkpt>
      <trkpt lat="44.42661" lon="4.13323">
        <ele>159</ele>
        <time>2014-07-13T13:34:26Z</time>
      </trkpt>
      <trkpt lat="44.42919" lon="4.13224">
        <ele>156</ele>
        <time>2014-07-13T13:35:26Z</time>
      </trkpt>
      <trkpt lat="44.42978" lon="4.13205">
        <ele>158</ele>
        <time>2014-07-13T13:35:41Z</time>
      </trkpt>
      <trkpt lat="44.43018" lon="4.13192">
        <ele>158</ele>
        <time>2014-07-13T13:35:50Z</time>
      </trkpt>
      <trkpt lat="44.43035" lon="4.13208">
        <ele>156</ele>
        <time>2014-07-13T13:35:55Z</time>
      </trkpt>
      <trkpt lat="44.4305" lon="4.13254">
        <ele>154</ele>
        <time>2014-07-13T13:36:04Z</time>
      </trkpt>
      <trkpt lat="44.43076" lon="4.13255">
        <ele>153</ele>
        <time>2014-07-13T13:36:10Z</time>
      </trkpt>
      <trkpt lat="44.4313" lon="4.13236">
        <ele>160</ele>
        <time>2014-07-13T13:36:30Z</time>
      </trkpt>
      <trkpt lat="44.43158" lon="4.13222">
        <ele>162</ele>
        <time>2014-07-13T13:36:43Z</time>
      </trkpt>
      <trkpt lat="44.43204" lon="4.13204">
        <ele>174</ele>
        <time>2014-07-13T13:37:05Z</time>
      </trkpt>
      <trkpt lat="44.43221" lon="4.13196">
        <ele>175</ele>
        <time>2014-07-13T13:37:15Z</time>
      </trkpt>
      <trkpt lat="44.43246" lon="4.13184">
        <ele>177</ele>
        <time>2014-07-13T13:37:29Z</time>
      </trkpt>
      <trkpt lat="44.43277" lon="4.1313">
        <ele>188</ele>
        <time>2014-07-13T13:37:55Z</time>
      </trkpt>
      <trkpt lat="44.4329" lon="4.13096">
        <ele>189</ele>
        <time>2014-07-13T13:38:10Z</time>
      </trkpt>
      <trkpt lat="44.43302" lon="4.13059">
        <ele>189</ele>
        <time>2014-07-13T13:38:24Z</time>
      </trkpt>
      <trkpt lat="44.43325" lon="4.12997">
        <ele>194</ele>
        <time>2014-07-13T13:38:47Z</time>
      </trkpt>
      <trkpt lat="44.43342" lon="4.1294">
        <ele>206</ele>
        <time>2014-07-13T13:39:09Z</time>
      </trkpt>
      <trkpt lat="44.43357" lon="4.1289">
        <ele>199</ele>
        <time>2014-07-13T13:39:24Z</time>
      </trkpt>
      <trkpt lat="44.43371" lon="4.12887">
        <ele>201</ele>
        <time>2014-07-13T13:39:33Z</time>
      </trkpt>
      <trkpt lat="44.43365" lon="4.12936">
        <ele>211</ele>
        <time>2014-07-13T13:39:49Z</time>
      </trkpt>
      <trkpt lat="44.43361" lon="4.12994">
        <ele>212</ele>
        <time>2014-07-13T13:40:05Z</time>
      </trkpt>
      <trkpt lat="44.43372" lon="4.13104">
        <ele>225</ele>
        <time>2014-07-13T13:40:34Z</time>
      </trkpt>
      <trkpt lat="44.43376" lon="4.13147">
        <ele>228</ele>
        <time>2014-07-13T13:40:47Z</time>
      </trkpt>
      <trkpt lat="44.43375" lon="4.13216">
        <ele>235</ele>
        <time>2014-07-13T13:41:09Z</time>
      </trkpt>
      <trkpt lat="44.43375" lon="4.13219">
        <ele>235</ele>
        <time>2014-07-13T13:41:10Z</time>
      </trkpt>
      <trkpt lat="44.43362" lon="4.13278">
        <ele>244</ele>
        <time>2014-07-13T13:41:33Z</time>
      </trkpt>
      <trkpt lat="44.43348" lon="4.13325">
        <ele>245</ele>
        <time>2014-07-13T13:41:52Z</time>
      </trkpt>
      <trkpt lat="44.43315" lon="4.13375">
        <ele>245</ele>
        <time>2014-07-13T13:42:16Z</time>
      </trkpt>
      <trkpt lat="44.43272" lon="4.1343">
        <ele>257</ele>
        <time>2014-07-13T13:42:43Z</time>
      </trkpt>
      <trkpt lat="44.43255" lon="4.13449">
        <ele>259</ele>
        <time>2014-07-13T13:42:56Z</time>
      </trkpt>
      <trkpt lat="44.43234" lon="4.13475">
        <ele>247</ele>
        <time>2014-07-13T13:43:09Z</time>
      </trkpt>
      <trkpt lat="44.43218" lon="4.1355">
        <ele>261</ele>
        <time>2014-07-13T13:43:29Z</time>
      </trkpt>
      <trkpt lat="44.43208" lon="4.13559">
        <ele>261</ele>
        <time>2014-07-13T13:43:32Z</time>
      </trkpt>
      <trkpt lat="44.43168" lon="4.13572">
        <ele>261</ele>
        <time>2014-07-13T13:43:49Z</time>
      </trkpt>
      <trkpt lat="44.43112" lon="4.13598">
        <ele>266</ele>
        <time>2014-07-13T13:44:14Z</time>
      </trkpt>
      <trkpt lat="44.43074" lon="4.1364">
        <ele>268</ele>
        <time>2014-07-13T13:44:37Z</time>
      </trkpt>
      <trkpt lat="44.43075" lon="4.13643">
        <ele>269</ele>
        <time>2014-07-13T13:44:38Z</time>
      </trkpt>
      <trkpt lat="44.43083" lon="4.13652">
        <ele>271</ele>
        <time>2014-07-13T13:44:43Z</time>
      </trkpt>
      <trkpt lat="44.43118" lon="4.13669">
        <ele>281</ele>
        <time>2014-07-13T13:45:00Z</time>
      </trkpt>
      <trkpt lat="44.43206" lon="4.13722">
        <ele>286</ele>
        <time>2014-07-13T13:45:35Z</time>
      </trkpt>
      <trkpt lat="44.43268" lon="4.13766">
        <ele>293</ele>
        <time>2014-07-13T13:46:00Z</time>
      </trkpt>
      <trkpt lat="44.43349" lon="4.13823">
        <ele>298</ele>
        <time>2014-07-13T13:46:31Z</time>
      </trkpt>
      <trkpt lat="44.43473" lon="4.13881">
        <ele>304</ele>
        <time>2014-07-13T13:47:09Z</time>
      </trkpt>
      <trkpt lat="44.43585" lon="4.13906">
        <ele>312</ele>
        <time>2014-07-13T13:47:41Z</time>
      </trkpt>
      <trkpt lat="44.43691" lon="4.13907">
        <ele>318</ele>
        <time>2014-07-13T13:48:09Z</time>
      </trkpt>
      <trkpt lat="44.43799" lon="4.13868">
        <ele>321</ele>
        <time>2014-07-13T13:48:40Z</time>
      </trkpt>
      <trkpt lat="44.43889" lon="4.13843">
        <ele>326</ele>
        <time>2014-07-13T13:49:09Z</time>
      </trkpt>
      <trkpt lat="44.43933" lon="4.13842">
        <ele>330</ele>
        <time>2014-07-13T13:49:25Z</time>
      </trkpt>
      <trkpt lat="44.43974" lon="4.13847">
        <ele>332</ele>
        <time>2014-07-13T13:49:40Z</time>
      </trkpt>
      <trkpt lat="44.44035" lon="4.13851">
        <ele>338</ele>
        <time>2014-07-13T13:50:03Z</time>
      </trkpt>
      <trkpt lat="44.44076" lon="4.13862">
        <ele>339</ele>
        <time>2014-07-13T13:50:18Z</time>
      </trkpt>
      <trkpt lat="44.44159" lon="4.1389">
        <ele>345</ele>
        <time>2014-07-13T13:50:47Z</time>
      </trkpt>
      <trkpt lat="44.44207" lon="4.13909">
        <ele>347</ele>
        <time>2014-07-13T13:50:57Z</time>
      </trkpt>
      <trkpt lat="44.44213" lon="4.13909">
        <ele>347</ele>
        <time>2014-07-13T13:50:58Z</time>
      </trkpt>
      <trkpt lat="44.44243" lon="4.13911">
        <ele>348</ele>
        <time>2014-07-13T13:51:05Z</time>
      </trkpt>
      <trkpt lat="44.44247" lon="4.13913">
        <ele>349</ele>
        <time>2014-07-13T13:51:06Z</time>
      </trkpt>
      <trkpt lat="44.44277" lon="4.13923">
        <ele>356</ele>
        <time>2014-07-13T13:51:14Z</time>
      </trkpt>
      <trkpt lat="44.44277" lon="4.13835">
        <ele>353</ele>
        <time>2014-07-13T13:51:33Z</time>
      </trkpt>
      <trkpt lat="44.4431" lon="4.13726">
        <ele>355</ele>
        <time>2014-07-13T13:52:10Z</time>
      </trkpt>
      <trkpt lat="44.44359" lon="4.1373">
        <ele>362</ele>
        <time>2014-07-13T13:52:23Z</time>
      </trkpt>
      <trkpt lat="44.44396" lon="4.13695">
        <ele>363</ele>
        <time>2014-07-13T13:52:35Z</time>
      </trkpt>
      <trkpt lat="44.4447" lon="4.13644">
        <ele>366</ele>
        <time>2014-07-13T13:53:00Z</time>
      </trkpt>
      <trkpt lat="44.44565" lon="4.13617">
        <ele>371</ele>
        <time>2014-07-13T13:53:31Z</time>
      </trkpt>
      <trkpt lat="44.44628" lon="4.1368">
        <ele>378</ele>
        <time>2014-07-13T13:53:57Z</time>
      </trkpt>
      <trkpt lat="44.44658" lon="4.13772">
        <ele>386</ele>
        <time>2014-07-13T13:54:24Z</time>
      </trkpt>
      <trkpt lat="44.44663" lon="4.13884">
        <ele>392</ele>
        <time>2014-07-13T13:54:48Z</time>
      </trkpt>
      <trkpt lat="44.44685" lon="4.13937">
        <ele>391</ele>
        <time>2014-07-13T13:54:59Z</time>
      </trkpt>
      <trkpt lat="44.44729" lon="4.1397">
        <ele>390</ele>
        <time>2014-07-13T13:55:12Z</time>
      </trkpt>
      <trkpt lat="44.44798" lon="4.14144">
        <ele>391</ele>
        <time>2014-07-13T13:55:45Z</time>
      </trkpt>
      <trkpt lat="44.44829" lon="4.14207">
        <ele>390</ele>
        <time>2014-07-13T13:56:00Z</time>
      </trkpt>
      <trkpt lat="44.44875" lon="4.1428">
        <ele>391</ele>
        <time>2014-07-13T13:56:17Z</time>
      </trkpt>
      <trkpt lat="44.44966" lon="4.14429">
        <ele>394</ele>
        <time>2014-07-13T13:57:00Z</time>
      </trkpt>
      <trkpt lat="44.45002" lon="4.1449">
        <ele>397</ele>
        <time>2014-07-13T13:57:15Z</time>
      </trkpt>
      <trkpt lat="44.45086" lon="4.14535">
        <ele>401</ele>
        <time>2014-07-13T13:57:38Z</time>
      </trkpt>
      <trkpt lat="44.45132" lon="4.14581">
        <ele>401</ele>
        <time>2014-07-13T13:57:55Z</time>
      </trkpt>
      <trkpt lat="44.45151" lon="4.14603">
        <ele>400</ele>
        <time>2014-07-13T13:58:10Z</time>
      </trkpt>
      <trkpt lat="44.45163" lon="4.14613">
        <ele>400</ele>
        <time>2014-07-13T13:58:24Z</time>
      </trkpt>
      <trkpt lat="44.45151" lon="4.14629">
        <ele>400</ele>
        <time>2014-07-13T13:58:43Z</time>
      </trkpt>
      <trkpt lat="44.45152" lon="4.14632">
        <ele>400</ele>
        <time>2014-07-13T13:59:26Z</time>
      </trkpt>
      <trkpt lat="44.4515" lon="4.14635">
        <ele>400</ele>
        <time>2014-07-13T14:01:28Z</time>
      </trkpt>
      <trkpt lat="44.4515" lon="4.14631">
        <ele>400</ele>
        <time>2014-07-13T14:03:39Z</time>
      </trkpt>
      <trkpt lat="44.45151" lon="4.14606">
        <ele>400</ele>
        <time>2014-07-13T14:03:47Z</time>
      </trkpt>
      <trkpt lat="44.45146" lon="4.14598">
        <ele>400</ele>
        <time>2014-07-13T14:03:50Z</time>
      </trkpt>
      <trkpt lat="44.45099" lon="4.14545">
        <ele>401</ele>
        <time>2014-07-13T14:04:08Z</time>
      </trkpt>
      <trkpt lat="44.45027" lon="4.14517">
        <ele>395</ele>
        <time>2014-07-13T14:04:27Z</time>
      </trkpt>
      <trkpt lat="44.45006" lon="4.14495">
        <ele>397</ele>
        <time>2014-07-13T14:04:33Z</time>
      </trkpt>
      <trkpt lat="44.44922" lon="4.14363">
        <ele>394</ele>
        <time>2014-07-13T14:04:58Z</time>
      </trkpt>
      <trkpt lat="44.44914" lon="4.14357">
        <ele>390</ele>
        <time>2014-07-13T14:05:00Z</time>
      </trkpt>
      <trkpt lat="44.4486" lon="4.14328">
        <ele>390</ele>
        <time>2014-07-13T14:05:11Z</time>
      </trkpt>
      <trkpt lat="44.44787" lon="4.14274">
        <ele>388</ele>
        <time>2014-07-13T14:05:25Z</time>
      </trkpt>
      <trkpt lat="44.44774" lon="4.14266">
        <ele>389</ele>
        <time>2014-07-13T14:05:27Z</time>
      </trkpt>
      <trkpt lat="44.4474" lon="4.14274">
        <ele>390</ele>
        <time>2014-07-13T14:05:32Z</time>
      </trkpt>
      <trkpt lat="44.44719" lon="4.14291">
        <ele>390</ele>
        <time>2014-07-13T14:05:36Z</time>
      </trkpt>
      <trkpt lat="44.44712" lon="4.14335">
        <ele>387</ele>
        <time>2014-07-13T14:05:42Z</time>
      </trkpt>
      <trkpt lat="44.44727" lon="4.14417">
        <ele>383</ele>
        <time>2014-07-13T14:05:51Z</time>
      </trkpt>
      <trkpt lat="44.44644" lon="4.14519">
        <ele>387</ele>
        <time>2014-07-13T14:06:04Z</time>
      </trkpt>
      <trkpt lat="44.44639" lon="4.14529">
        <ele>388</ele>
        <time>2014-07-13T14:06:05Z</time>
      </trkpt>
      <trkpt lat="44.44636" lon="4.14574">
        <ele>385</ele>
        <time>2014-07-13T14:06:09Z</time>
      </trkpt>
      <trkpt lat="44.44638" lon="4.14585">
        <ele>380</ele>
        <time>2014-07-13T14:06:10Z</time>
      </trkpt>
      <trkpt lat="44.44634" lon="4.14633">
        <ele>378</ele>
        <time>2014-07-13T14:06:14Z</time>
      </trkpt>
      <trkpt lat="44.44614" lon="4.14705">
        <ele>373</ele>
        <time>2014-07-13T14:06:20Z</time>
      </trkpt>
      <trkpt lat="44.4461" lon="4.14718">
        <ele>373</ele>
        <time>2014-07-13T14:06:21Z</time>
      </trkpt>
      <trkpt lat="44.4459" lon="4.14796">
        <ele>367</ele>
        <time>2014-07-13T14:06:27Z</time>
      </trkpt>
      <trkpt lat="44.44556" lon="4.14882">
        <ele>371</ele>
        <time>2014-07-13T14:06:34Z</time>
      </trkpt>
      <trkpt lat="44.44537" lon="4.1493">
        <ele>366</ele>
        <time>2014-07-13T14:06:38Z</time>
      </trkpt>
      <trkpt lat="44.4453" lon="4.15001">
        <ele>359</ele>
        <time>2014-07-13T14:06:43Z</time>
      </trkpt>
      <trkpt lat="44.44527" lon="4.15044">
        <ele>356</ele>
        <time>2014-07-13T14:06:46Z</time>
      </trkpt>
      <trkpt lat="44.44512" lon="4.15094">
        <ele>351</ele>
        <time>2014-07-13T14:06:50Z</time>
      </trkpt>
      <trkpt lat="44.44489" lon="4.15117">
        <ele>357</ele>
        <time>2014-07-13T14:06:53Z</time>
      </trkpt>
      <trkpt lat="44.4448" lon="4.15123">
        <ele>357</ele>
        <time>2014-07-13T14:06:54Z</time>
      </trkpt>
      <trkpt lat="44.44426" lon="4.15176">
        <ele>352</ele>
        <time>2014-07-13T14:07:01Z</time>
      </trkpt>
      <trkpt lat="44.44402" lon="4.15197">
        <ele>357</ele>
        <time>2014-07-13T14:07:04Z</time>
      </trkpt>
      <trkpt lat="44.44387" lon="4.15234">
        <ele>355</ele>
        <time>2014-07-13T14:07:08Z</time>
      </trkpt>
      <trkpt lat="44.44374" lon="4.15292">
        <ele>348</ele>
        <time>2014-07-13T14:07:33Z</time>
      </trkpt>
      <trkpt lat="44.44369" lon="4.15311">
        <ele>348</ele>
        <time>2014-07-13T14:07:56Z</time>
      </trkpt>
      <trkpt lat="44.44349" lon="4.15378">
        <ele>340</ele>
        <time>2014-07-13T14:08:05Z</time>
      </trkpt>
      <trkpt lat="44.44324" lon="4.15435">
        <ele>336</ele>
        <time>2014-07-13T14:08:11Z</time>
      </trkpt>
      <trkpt lat="44.44288" lon="4.15478">
        <ele>333</ele>
        <time>2014-07-13T14:08:16Z</time>
      </trkpt>
      <trkpt lat="44.44263" lon="4.15503">
        <ele>326</ele>
        <time>2014-07-13T14:08:19Z</time>
      </trkpt>
      <trkpt lat="44.44249" lon="4.1552">
        <ele>326</ele>
        <time>2014-07-13T14:08:21Z</time>
      </trkpt>
      <trkpt lat="44.4418" lon="4.15509">
        <ele>324</ele>
        <time>2014-07-13T14:08:29Z</time>
      </trkpt>
      <trkpt lat="44.44138" lon="4.15533">
        <ele>323</ele>
        <time>2014-07-13T14:08:35Z</time>
      </trkpt>
      <trkpt lat="44.44135" lon="4.15556">
        <ele>322</ele>
        <time>2014-07-13T14:08:37Z</time>
      </trkpt>
      <trkpt lat="44.44126" lon="4.15634">
        <ele>316</ele>
        <time>2014-07-13T14:08:43Z</time>
      </trkpt>
      <trkpt lat="44.44121" lon="4.15646">
        <ele>316</ele>
        <time>2014-07-13T14:08:44Z</time>
      </trkpt>
      <trkpt lat="44.44091" lon="4.15683">
        <ele>312</ele>
        <time>2014-07-13T14:08:48Z</time>
      </trkpt>
      <trkpt lat="44.44044" lon="4.15718">
        <ele>312</ele>
        <time>2014-07-13T14:08:53Z</time>
      </trkpt>
      <trkpt lat="44.44026" lon="4.15771">
        <ele>306</ele>
        <time>2014-07-13T14:08:57Z</time>
      </trkpt>
      <trkpt lat="44.44014" lon="4.15831">
        <ele>304</ele>
        <time>2014-07-13T14:09:01Z</time>
      </trkpt>
      <trkpt lat="44.43978" lon="4.15876">
        <ele>298</ele>
        <time>2014-07-13T14:09:06Z</time>
      </trkpt>
      <trkpt lat="44.43958" lon="4.15881">
        <ele>298</ele>
        <time>2014-07-13T14:09:08Z</time>
      </trkpt>
      <trkpt lat="44.43948" lon="4.15881">
        <ele>298</ele>
        <time>2014-07-13T14:09:09Z</time>
      </trkpt>
      <trkpt lat="44.43899" lon="4.15888">
        <ele>299</ele>
        <time>2014-07-13T14:09:15Z</time>
      </trkpt>
      <trkpt lat="44.43852" lon="4.15913">
        <ele>297</ele>
        <time>2014-07-13T14:09:21Z</time>
      </trkpt>
      <trkpt lat="44.43777" lon="4.15953">
        <ele>290</ele>
        <time>2014-07-13T14:09:30Z</time>
      </trkpt>
      <trkpt lat="44.43729" lon="4.15982">
        <ele>286</ele>
        <time>2014-07-13T14:09:50Z</time>
      </trkpt>
      <trkpt lat="44.43729" lon="4.15982">
        <ele>286</ele>
        <time>2014-07-13T14:10:55Z</time>
      </trkpt>
      <trkpt lat="44.43706" lon="4.15998">
        <ele>286</ele>
        <time>2014-07-13T14:11:31Z</time>
      </trkpt>
      <trkpt lat="44.43675" lon="4.16004">
        <ele>282</ele>
        <time>2014-07-13T14:11:37Z</time>
      </trkpt>
      <trkpt lat="44.43627" lon="4.1596">
        <ele>279</ele>
        <time>2014-07-13T14:11:46Z</time>
      </trkpt>
      <trkpt lat="44.43625" lon="4.1595">
        <ele>279</ele>
        <time>2014-07-13T14:11:47Z</time>
      </trkpt>
      <trkpt lat="44.43623" lon="4.15939">
        <ele>279</ele>
        <time>2014-07-13T14:11:48Z</time>
      </trkpt>
      <trkpt lat="44.4362" lon="4.15929">
        <ele>278</ele>
        <time>2014-07-13T14:11:49Z</time>
      </trkpt>
      <trkpt lat="44.43587" lon="4.1589">
        <ele>278</ele>
        <time>2014-07-13T14:11:55Z</time>
      </trkpt>
      <trkpt lat="44.43569" lon="4.15892">
        <ele>276</ele>
        <time>2014-07-13T14:11:59Z</time>
      </trkpt>
      <trkpt lat="44.43565" lon="4.15894">
        <ele>276</ele>
        <time>2014-07-13T14:12:01Z</time>
      </trkpt>
      <trkpt lat="44.43562" lon="4.15884">
        <ele>276</ele>
        <time>2014-07-13T14:12:07Z</time>
      </trkpt>
      <trkpt lat="44.43582" lon="4.1585">
        <ele>278</ele>
        <time>2014-07-13T14:12:21Z</time>
      </trkpt>
      <trkpt lat="44.43607" lon="4.15806">
        <ele>284</ele>
        <time>2014-07-13T14:12:40Z</time>
      </trkpt>
      <trkpt lat="44.43623" lon="4.15778">
        <ele>286</ele>
        <time>2014-07-13T14:12:52Z</time>
      </trkpt>
      <trkpt lat="44.4362" lon="4.15703">
        <ele>291</ele>
        <time>2014-07-13T14:13:22Z</time>
      </trkpt>
      <trkpt lat="44.436" lon="4.15673">
        <ele>292</ele>
        <time>2014-07-13T14:13:37Z</time>
      </trkpt>
      <trkpt lat="44.43542" lon="4.15588">
        <ele>294</ele>
        <time>2014-07-13T14:14:37Z</time>
      </trkpt>
    </trkseg>
  </trk>
  <trk>
    <name><![CDATA[14 JUIL 2014 08:47]]></name>
    <trkseg>
      <trkpt lat="44.4355" lon="4.15596">
        <ele>294</ele>
        <time>2014-07-14T06:47:36Z</time>
      </trkpt>
      <trkpt lat="44.43548" lon="4.15596">
        <ele>294</ele>
        <time>2014-07-14T06:48:10Z</time>
      </trkpt>
      <trkpt lat="44.4355" lon="4.15593">
        <ele>294</ele>
        <time>2014-07-14T06:49:22Z</time>
      </trkpt>
      <trkpt lat="44.4355" lon="4.15595">
        <ele>294</ele>
        <time>2014-07-14T06:49:47Z</time>
      </trkpt>
      <trkpt lat="44.43555" lon="4.15601">
        <ele>294</ele>
        <time>2014-07-14T06:49:50Z</time>
      </trkpt>
      <trkpt lat="44.4362" lon="4.15711">
        <ele>291</ele>
        <time>2014-07-14T06:50:16Z</time>
      </trkpt>
      <trkpt lat="44.43622" lon="4.15717">
        <ele>291</ele>
        <time>2014-07-14T06:50:17Z</time>
      </trkpt>
      <trkpt lat="44.43614" lon="4.15785">
        <ele>285</ele>
        <time>2014-07-14T06:50:27Z</time>
      </trkpt>
      <trkpt lat="44.43607" lon="4.15798">
        <ele>284</ele>
        <time>2014-07-14T06:50:29Z</time>
      </trkpt>
      <trkpt lat="44.43603" lon="4.15804">
        <ele>284</ele>
        <time>2014-07-14T06:50:30Z</time>
      </trkpt>
      <trkpt lat="44.4359" lon="4.15826">
        <ele>282</ele>
        <time>2014-07-14T06:50:33Z</time>
      </trkpt>
      <trkpt lat="44.43573" lon="4.15857">
        <ele>277</ele>
        <time>2014-07-14T06:50:37Z</time>
      </trkpt>
      <trkpt lat="44.43559" lon="4.15885">
        <ele>276</ele>
        <time>2014-07-14T06:50:41Z</time>
      </trkpt>
      <trkpt lat="44.43554" lon="4.15896">
        <ele>276</ele>
        <time>2014-07-14T06:50:43Z</time>
      </trkpt>
      <trkpt lat="44.4348" lon="4.15964">
        <ele>269</ele>
        <time>2014-07-14T06:50:56Z</time>
      </trkpt>
      <trkpt lat="44.43389" lon="4.16021">
        <ele>266</ele>
        <time>2014-07-14T06:51:10Z</time>
      </trkpt>
      <trkpt lat="44.4319" lon="4.16094">
        <ele>262</ele>
        <time>2014-07-14T06:51:39Z</time>
      </trkpt>
      <trkpt lat="44.43183" lon="4.16095">
        <ele>262</ele>
        <time>2014-07-14T06:51:40Z</time>
      </trkpt>
      <trkpt lat="44.43083" lon="4.16106">
        <ele>261</ele>
        <time>2014-07-14T06:51:57Z</time>
      </trkpt>
      <trkpt lat="44.43005" lon="4.16091">
        <ele>261</ele>
        <time>2014-07-14T06:52:14Z</time>
      </trkpt>
      <trkpt lat="44.42943" lon="4.16112">
        <ele>263</ele>
        <time>2014-07-14T06:52:27Z</time>
      </trkpt>
      <trkpt lat="44.42757" lon="4.16148">
        <ele>262</ele>
        <time>2014-07-14T06:53:10Z</time>
      </trkpt>
      <trkpt lat="44.42588" lon="4.16138">
        <ele>261</ele>
        <time>2014-07-14T06:53:45Z</time>
      </trkpt>
      <trkpt lat="44.42554" lon="4.16137">
        <ele>259</ele>
        <time>2014-07-14T06:53:52Z</time>
      </trkpt>
      <trkpt lat="44.42549" lon="4.16135">
        <ele>259</ele>
        <time>2014-07-14T06:53:53Z</time>
      </trkpt>
      <trkpt lat="44.42492" lon="4.16119">
        <ele>255</ele>
        <time>2014-07-14T06:54:02Z</time>
      </trkpt>
      <trkpt lat="44.42442" lon="4.16124">
        <ele>255</ele>
        <time>2014-07-14T06:54:10Z</time>
      </trkpt>
      <trkpt lat="44.4238" lon="4.16181">
        <ele>256</ele>
        <time>2014-07-14T06:54:25Z</time>
      </trkpt>
      <trkpt lat="44.42342" lon="4.16221">
        <ele>256</ele>
        <time>2014-07-14T06:54:35Z</time>
      </trkpt>
      <trkpt lat="44.42337" lon="4.16223">
        <ele>256</ele>
        <time>2014-07-14T06:54:36Z</time>
      </trkpt>
      <trkpt lat="44.42316" lon="4.16254">
        <ele>254</ele>
        <time>2014-07-14T06:54:43Z</time>
      </trkpt>
      <trkpt lat="44.42309" lon="4.163">
        <ele>254</ele>
        <time>2014-07-14T06:54:51Z</time>
      </trkpt>
      <trkpt lat="44.42295" lon="4.16312">
        <ele>253</ele>
        <time>2014-07-14T06:54:56Z</time>
      </trkpt>
      <trkpt lat="44.42291" lon="4.1632">
        <ele>253</ele>
        <time>2014-07-14T06:54:58Z</time>
      </trkpt>
      <trkpt lat="44.4229" lon="4.16332">
        <ele>253</ele>
        <time>2014-07-14T06:55:00Z</time>
      </trkpt>
      <trkpt lat="44.4229" lon="4.1638">
        <ele>256</ele>
        <time>2014-07-14T06:55:09Z</time>
      </trkpt>
      <trkpt lat="44.4232" lon="4.16407">
        <ele>258</ele>
        <time>2014-07-14T06:55:21Z</time>
      </trkpt>
      <trkpt lat="44.42357" lon="4.165">
        <ele>261</ele>
        <time>2014-07-14T06:55:47Z</time>
      </trkpt>
      <trkpt lat="44.42309" lon="4.16615">
        <ele>254</ele>
        <time>2014-07-14T06:56:15Z</time>
      </trkpt>
      <trkpt lat="44.42298" lon="4.16654">
        <ele>253</ele>
        <time>2014-07-14T06:56:49Z</time>
      </trkpt>
      <trkpt lat="44.42281" lon="4.16733">
        <ele>253</ele>
        <time>2014-07-14T06:57:46Z</time>
      </trkpt>
      <trkpt lat="44.42264" lon="4.16765">
        <ele>253</ele>
        <time>2014-07-14T06:57:55Z</time>
      </trkpt>
      <trkpt lat="44.42264" lon="4.1677">
        <ele>254</ele>
        <time>2014-07-14T06:57:56Z</time>
      </trkpt>
      <trkpt lat="44.42271" lon="4.16833">
        <ele>259</ele>
        <time>2014-07-14T06:58:09Z</time>
      </trkpt>
      <trkpt lat="44.42255" lon="4.16885">
        <ele>261</ele>
        <time>2014-07-14T06:58:24Z</time>
      </trkpt>
      <trkpt lat="44.42217" lon="4.16866">
        <ele>246</ele>
        <time>2014-07-14T06:58:35Z</time>
      </trkpt>
      <trkpt lat="44.42207" lon="4.1686">
        <ele>245</ele>
        <time>2014-07-14T06:58:43Z</time>
      </trkpt>
      <trkpt lat="44.42158" lon="4.16874">
        <ele>235</ele>
        <time>2014-07-14T06:58:57Z</time>
      </trkpt>
      <trkpt lat="44.42135" lon="4.16898">
        <ele>233</ele>
        <time>2014-07-14T06:59:03Z</time>
      </trkpt>
      <trkpt lat="44.42118" lon="4.16925">
        <ele>232</ele>
        <time>2014-07-14T06:59:08Z</time>
      </trkpt>
      <trkpt lat="44.42116" lon="4.16933">
        <ele>232</ele>
        <time>2014-07-14T06:59:09Z</time>
      </trkpt>
      <trkpt lat="44.42095" lon="4.17029">
        <ele>232</ele>
        <time>2014-07-14T06:59:21Z</time>
      </trkpt>
      <trkpt lat="44.42099" lon="4.17178">
        <ele>231</ele>
        <time>2014-07-14T06:59:44Z</time>
      </trkpt>
      <trkpt lat="44.42094" lon="4.17245">
        <ele>228</ele>
        <time>2014-07-14T06:59:53Z</time>
      </trkpt>
      <trkpt lat="44.42093" lon="4.17259">
        <ele>226</ele>
        <time>2014-07-14T06:59:55Z</time>
      </trkpt>
      <trkpt lat="44.42095" lon="4.17306">
        <ele>225</ele>
        <time>2014-07-14T07:00:01Z</time>
      </trkpt>
      <trkpt lat="44.42095" lon="4.17313">
        <ele>224</ele>
        <time>2014-07-14T07:00:02Z</time>
      </trkpt>
      <trkpt lat="44.42076" lon="4.17358">
        <ele>210</ele>
        <time>2014-07-14T07:00:15Z</time>
      </trkpt>
      <trkpt lat="44.42081" lon="4.17367">
        <ele>209</ele>
        <time>2014-07-14T07:00:17Z</time>
      </trkpt>
      <trkpt lat="44.42088" lon="4.17379">
        <ele>218</ele>
        <time>2014-07-14T07:00:21Z</time>
      </trkpt>
      <trkpt lat="44.42079" lon="4.17386">
        <ele>208</ele>
        <time>2014-07-14T07:00:26Z</time>
      </trkpt>
      <trkpt lat="44.42059" lon="4.1738">
        <ele>207</ele>
        <time>2014-07-14T07:00:30Z</time>
      </trkpt>
      <trkpt lat="44.42048" lon="4.17379">
        <ele>206</ele>
        <time>2014-07-14T07:00:32Z</time>
      </trkpt>
      <trkpt lat="44.42025" lon="4.1738">
        <ele>204</ele>
        <time>2014-07-14T07:00:36Z</time>
      </trkpt>
      <trkpt lat="44.41995" lon="4.17386">
        <ele>193</ele>
        <time>2014-07-14T07:00:41Z</time>
      </trkpt>
      <trkpt lat="44.41989" lon="4.17387">
        <ele>193</ele>
        <time>2014-07-14T07:00:42Z</time>
      </trkpt>
      <trkpt lat="44.41972" lon="4.17386">
        <ele>192</ele>
        <time>2014-07-14T07:00:45Z</time>
      </trkpt>
      <trkpt lat="44.41946" lon="4.17375">
        <ele>190</ele>
        <time>2014-07-14T07:00:50Z</time>
      </trkpt>
      <trkpt lat="44.41905" lon="4.17374">
        <ele>180</ele>
        <time>2014-07-14T07:00:58Z</time>
      </trkpt>
      <trkpt lat="44.41884" lon="4.1737">
        <ele>179</ele>
        <time>2014-07-14T07:01:02Z</time>
      </trkpt>
      <trkpt lat="44.41873" lon="4.1737">
        <ele>179</ele>
        <time>2014-07-14T07:01:04Z</time>
      </trkpt>
      <trkpt lat="44.41856" lon="4.17362">
        <ele>178</ele>
        <time>2014-07-14T07:01:07Z</time>
      </trkpt>
      <trkpt lat="44.41846" lon="4.17362">
        <ele>177</ele>
        <time>2014-07-14T07:01:09Z</time>
      </trkpt>
      <trkpt lat="44.41808" lon="4.17372">
        <ele>170</ele>
        <time>2014-07-14T07:01:16Z</time>
      </trkpt>
      <trkpt lat="44.41776" lon="4.17383">
        <ele>169</ele>
        <time>2014-07-14T07:01:23Z</time>
      </trkpt>
      <trkpt lat="44.41705" lon="4.1738">
        <ele>161</ele>
        <time>2014-07-14T07:01:35Z</time>
      </trkpt>
      <trkpt lat="44.41669" lon="4.17386">
        <ele>159</ele>
        <time>2014-07-14T07:01:40Z</time>
      </trkpt>
      <trkpt lat="44.41635" lon="4.17396">
        <ele>154</ele>
        <time>2014-07-14T07:01:46Z</time>
      </trkpt>
      <trkpt lat="44.41625" lon="4.174">
        <ele>154</ele>
        <time>2014-07-14T07:01:48Z</time>
      </trkpt>
      <trkpt lat="44.41587" lon="4.17374">
        <ele>153</ele>
        <time>2014-07-14T07:01:55Z</time>
      </trkpt>
      <trkpt lat="44.4158" lon="4.17349">
        <ele>151</ele>
        <time>2014-07-14T07:01:58Z</time>
      </trkpt>
      <trkpt lat="44.41559" lon="4.17259">
        <ele>147</ele>
        <time>2014-07-14T07:02:10Z</time>
      </trkpt>
      <trkpt lat="44.4154" lon="4.17172">
        <ele>146</ele>
        <time>2014-07-14T07:02:21Z</time>
      </trkpt>
      <trkpt lat="44.4154" lon="4.17164">
        <ele>145</ele>
        <time>2014-07-14T07:02:22Z</time>
      </trkpt>
      <trkpt lat="44.41578" lon="4.17032">
        <ele>143</ele>
        <time>2014-07-14T07:02:38Z</time>
      </trkpt>
      <trkpt lat="44.41585" lon="4.16772">
        <ele>137</ele>
        <time>2014-07-14T07:03:05Z</time>
      </trkpt>
      <trkpt lat="44.41557" lon="4.16437">
        <ele>139</ele>
        <time>2014-07-14T07:03:45Z</time>
      </trkpt>
      <trkpt lat="44.41532" lon="4.16181">
        <ele>141</ele>
        <time>2014-07-14T07:04:19Z</time>
      </trkpt>
      <trkpt lat="44.41518" lon="4.16001">
        <ele>139</ele>
        <time>2014-07-14T07:04:42Z</time>
      </trkpt>
      <trkpt lat="44.41557" lon="4.15845">
        <ele>142</ele>
        <time>2014-07-14T07:05:06Z</time>
      </trkpt>
      <trkpt lat="44.41567" lon="4.15823">
        <ele>141</ele>
        <time>2014-07-14T07:05:10Z</time>
      </trkpt>
      <trkpt lat="44.41647" lon="4.15661">
        <ele>140</ele>
        <time>2014-07-14T07:05:39Z</time>
      </trkpt>
      <trkpt lat="44.4165" lon="4.15603">
        <ele>138</ele>
        <time>2014-07-14T07:05:49Z</time>
      </trkpt>
      <trkpt lat="44.41647" lon="4.15598">
        <ele>138</ele>
        <time>2014-07-14T07:05:50Z</time>
      </trkpt>
      <trkpt lat="44.41562" lon="4.1549">
        <ele>137</ele>
        <time>2014-07-14T07:06:14Z</time>
      </trkpt>
      <trkpt lat="44.41494" lon="4.15408">
        <ele>138</ele>
        <time>2014-07-14T07:06:29Z</time>
      </trkpt>
      <trkpt lat="44.41454" lon="4.15377">
        <ele>139</ele>
        <time>2014-07-14T07:06:40Z</time>
      </trkpt>
      <trkpt lat="44.41462" lon="4.15404">
        <ele>139</ele>
        <time>2014-07-14T07:06:45Z</time>
      </trkpt>
      <trkpt lat="44.41469" lon="4.15414">
        <ele>139</ele>
        <time>2014-07-14T07:06:47Z</time>
      </trkpt>
      <trkpt lat="44.41476" lon="4.15561">
        <ele>137</ele>
        <time>2014-07-14T07:07:08Z</time>
      </trkpt>
      <trkpt lat="44.41476" lon="4.15568">
        <ele>137</ele>
        <time>2014-07-14T07:07:09Z</time>
      </trkpt>
      <trkpt lat="44.41462" lon="4.15598">
        <ele>137</ele>
        <time>2014-07-14T07:07:14Z</time>
      </trkpt>
      <trkpt lat="44.41318" lon="4.15787">
        <ele>160</ele>
        <time>2014-07-14T07:07:58Z</time>
      </trkpt>
      <trkpt lat="44.41317" lon="4.15896">
        <ele>164</ele>
        <time>2014-07-14T07:08:28Z</time>
      </trkpt>
      <trkpt lat="44.41311" lon="4.16029">
        <ele>166</ele>
        <time>2014-07-14T07:09:00Z</time>
      </trkpt>
      <trkpt lat="44.41309" lon="4.16173">
        <ele>162</ele>
        <time>2014-07-14T07:09:29Z</time>
      </trkpt>
      <trkpt lat="44.41319" lon="4.16251">
        <ele>158</ele>
        <time>2014-07-14T07:09:46Z</time>
      </trkpt>
      <trkpt lat="44.413" lon="4.16381">
        <ele>163</ele>
        <time>2014-07-14T07:10:20Z</time>
      </trkpt>
      <trkpt lat="44.41279" lon="4.16484">
        <ele>167</ele>
        <time>2014-07-14T07:10:48Z</time>
      </trkpt>
      <trkpt lat="44.4128" lon="4.16607">
        <ele>164</ele>
        <time>2014-07-14T07:11:16Z</time>
      </trkpt>
      <trkpt lat="44.41247" lon="4.16679">
        <ele>167</ele>
        <time>2014-07-14T07:11:30Z</time>
      </trkpt>
      <trkpt lat="44.41235" lon="4.16683">
        <ele>167</ele>
        <time>2014-07-14T07:11:33Z</time>
      </trkpt>
      <trkpt lat="44.41147" lon="4.16653">
        <ele>177</ele>
        <time>2014-07-14T07:12:02Z</time>
      </trkpt>
      <trkpt lat="44.41098" lon="4.1663">
        <ele>179</ele>
        <time>2014-07-14T07:12:20Z</time>
      </trkpt>
      <trkpt lat="44.41056" lon="4.1664">
        <ele>180</ele>
        <time>2014-07-14T07:12:35Z</time>
      </trkpt>
      <trkpt lat="44.41001" lon="4.16651">
        <ele>180</ele>
        <time>2014-07-14T07:12:52Z</time>
      </trkpt>
      <trkpt lat="44.40923" lon="4.16612">
        <ele>185</ele>
        <time>2014-07-14T07:13:21Z</time>
      </trkpt>
      <trkpt lat="44.40855" lon="4.1656">
        <ele>195</ele>
        <time>2014-07-14T07:13:49Z</time>
      </trkpt>
      <trkpt lat="44.40773" lon="4.16528">
        <ele>200</ele>
        <time>2014-07-14T07:14:22Z</time>
      </trkpt>
      <trkpt lat="44.40708" lon="4.1651">
        <ele>200</ele>
        <time>2014-07-14T07:14:51Z</time>
      </trkpt>
      <trkpt lat="44.40644" lon="4.16458">
        <ele>222</ele>
        <time>2014-07-14T07:15:22Z</time>
      </trkpt>
      <trkpt lat="44.40609" lon="4.16476">
        <ele>220</ele>
        <time>2014-07-14T07:15:36Z</time>
      </trkpt>
      <trkpt lat="44.40555" lon="4.16526">
        <ele>210</ele>
        <time>2014-07-14T07:16:00Z</time>
      </trkpt>
      <trkpt lat="44.40484" lon="4.16554">
        <ele>209</ele>
        <time>2014-07-14T07:16:27Z</time>
      </trkpt>
      <trkpt lat="44.40467" lon="4.16535">
        <ele>210</ele>
        <time>2014-07-14T07:16:33Z</time>
      </trkpt>
      <trkpt lat="44.40453" lon="4.16468">
        <ele>227</ele>
        <time>2014-07-14T07:16:47Z</time>
      </trkpt>
      <trkpt lat="44.40436" lon="4.16423">
        <ele>231</ele>
        <time>2014-07-14T07:16:59Z</time>
      </trkpt>
      <trkpt lat="44.40339" lon="4.16438">
        <ele>230</ele>
        <time>2014-07-14T07:17:26Z</time>
      </trkpt>
      <trkpt lat="44.40326" lon="4.16418">
        <ele>235</ele>
        <time>2014-07-14T07:17:33Z</time>
      </trkpt>
      <trkpt lat="44.40358" lon="4.16372">
        <ele>240</ele>
        <time>2014-07-14T07:17:51Z</time>
      </trkpt>
      <trkpt lat="44.40357" lon="4.16373">
        <ele>240</ele>
        <time>2014-07-14T07:18:15Z</time>
      </trkpt>
      <trkpt lat="44.4036" lon="4.16369">
        <ele>240</ele>
        <time>2014-07-14T07:18:39Z</time>
      </trkpt>
      <trkpt lat="44.40351" lon="4.16362">
        <ele>240</ele>
        <time>2014-07-14T07:18:43Z</time>
      </trkpt>
      <trkpt lat="44.403" lon="4.16357">
        <ele>241</ele>
        <time>2014-07-14T07:18:53Z</time>
      </trkpt>
      <trkpt lat="44.40196" lon="4.16393">
        <ele>242</ele>
        <time>2014-07-14T07:19:13Z</time>
      </trkpt>
      <trkpt lat="44.40124" lon="4.16416">
        <ele>243</ele>
        <time>2014-07-14T07:19:33Z</time>
      </trkpt>
      <trkpt lat="44.4012" lon="4.1646">
        <ele>243</ele>
        <time>2014-07-14T07:19:52Z</time>
      </trkpt>
      <trkpt lat="44.4012" lon="4.16468">
        <ele>243</ele>
        <time>2014-07-14T07:20:10Z</time>
      </trkpt>
      <trkpt lat="44.40121" lon="4.16527">
        <ele>244</ele>
        <time>2014-07-14T07:20:26Z</time>
      </trkpt>
      <trkpt lat="44.4014" lon="4.16572">
        <ele>244</ele>
        <time>2014-07-14T07:20:37Z</time>
      </trkpt>
      <trkpt lat="44.40172" lon="4.16647">
        <ele>239</ele>
        <time>2014-07-14T07:20:53Z</time>
      </trkpt>
      <trkpt lat="44.40181" lon="4.16714">
        <ele>236</ele>
        <time>2014-07-14T07:21:06Z</time>
      </trkpt>
      <trkpt lat="44.40185" lon="4.16746">
        <ele>238</ele>
        <time>2014-07-14T07:21:11Z</time>
      </trkpt>
      <trkpt lat="44.40191" lon="4.1678">
        <ele>237</ele>
        <time>2014-07-14T07:21:16Z</time>
      </trkpt>
      <trkpt lat="44.40192" lon="4.16799">
        <ele>237</ele>
        <time>2014-07-14T07:21:19Z</time>
      </trkpt>
      <trkpt lat="44.40201" lon="4.16867">
        <ele>238</ele>
        <time>2014-07-14T07:21:32Z</time>
      </trkpt>
      <trkpt lat="44.40194" lon="4.16922">
        <ele>233</ele>
        <time>2014-07-14T07:21:40Z</time>
      </trkpt>
      <trkpt lat="44.40185" lon="4.16993">
        <ele>230</ele>
        <time>2014-07-14T07:21:48Z</time>
      </trkpt>
      <trkpt lat="44.40177" lon="4.17031">
        <ele>219</ele>
        <time>2014-07-14T07:21:53Z</time>
      </trkpt>
      <trkpt lat="44.40163" lon="4.17064">
        <ele>226</ele>
        <time>2014-07-14T07:21:58Z</time>
      </trkpt>
      <trkpt lat="44.40109" lon="4.17139">
        <ele>221</ele>
        <time>2014-07-14T07:22:11Z</time>
      </trkpt>
      <trkpt lat="44.40119" lon="4.17175">
        <ele>218</ele>
        <time>2014-07-14T07:22:23Z</time>
      </trkpt>
      <trkpt lat="44.40129" lon="4.17236">
        <ele>218</ele>
        <time>2014-07-14T07:22:36Z</time>
      </trkpt>
      <trkpt lat="44.40142" lon="4.17308">
        <ele>225</ele>
        <time>2014-07-14T07:22:51Z</time>
      </trkpt>
      <trkpt lat="44.40132" lon="4.17345">
        <ele>232</ele>
        <time>2014-07-14T07:23:22Z</time>
      </trkpt>
      <trkpt lat="44.40125" lon="4.17393">
        <ele>233</ele>
        <time>2014-07-14T07:23:55Z</time>
      </trkpt>
      <trkpt lat="44.40119" lon="4.17416">
        <ele>233</ele>
        <time>2014-07-14T07:24:07Z</time>
      </trkpt>
      <trkpt lat="44.40085" lon="4.17435">
        <ele>234</ele>
        <time>2014-07-14T07:24:33Z</time>
      </trkpt>
      <trkpt lat="44.40077" lon="4.17439">
        <ele>235</ele>
        <time>2014-07-14T07:24:41Z</time>
      </trkpt>
      <trkpt lat="44.4005" lon="4.17458">
        <ele>234</ele>
        <time>2014-07-14T07:24:57Z</time>
      </trkpt>
      <trkpt lat="44.39983" lon="4.17477">
        <ele>234</ele>
        <time>2014-07-14T07:25:22Z</time>
      </trkpt>
      <trkpt lat="44.39945" lon="4.17495">
        <ele>235</ele>
        <time>2014-07-14T07:25:39Z</time>
      </trkpt>
      <trkpt lat="44.39911" lon="4.17502">
        <ele>236</ele>
        <time>2014-07-14T07:25:51Z</time>
      </trkpt>
      <trkpt lat="44.39884" lon="4.175">
        <ele>234</ele>
        <time>2014-07-14T07:26:03Z</time>
      </trkpt>
      <trkpt lat="44.39845" lon="4.17548">
        <ele>233</ele>
        <time>2014-07-14T07:26:26Z</time>
      </trkpt>
      <trkpt lat="44.3984" lon="4.17561">
        <ele>232</ele>
        <time>2014-07-14T07:26:39Z</time>
      </trkpt>
      <trkpt lat="44.3982" lon="4.17654">
        <ele>228</ele>
        <time>2014-07-14T07:27:13Z</time>
      </trkpt>
      <trkpt lat="44.39818" lon="4.17663">
        <ele>228</ele>
        <time>2014-07-14T07:27:17Z</time>
      </trkpt>
      <trkpt lat="44.39797" lon="4.17694">
        <ele>226</ele>
        <time>2014-07-14T07:27:31Z</time>
      </trkpt>
      <trkpt lat="44.39768" lon="4.17736">
        <ele>225</ele>
        <time>2014-07-14T07:28:07Z</time>
      </trkpt>
      <trkpt lat="44.3976" lon="4.1775">
        <ele>224</ele>
        <time>2014-07-14T07:28:18Z</time>
      </trkpt>
      <trkpt lat="44.39715" lon="4.17811">
        <ele>221</ele>
        <time>2014-07-14T07:28:45Z</time>
      </trkpt>
      <trkpt lat="44.3969" lon="4.17841">
        <ele>218</ele>
        <time>2014-07-14T07:28:58Z</time>
      </trkpt>
      <trkpt lat="44.39679" lon="4.17862">
        <ele>218</ele>
        <time>2014-07-14T07:29:09Z</time>
      </trkpt>
      <trkpt lat="44.39656" lon="4.17884">
        <ele>213</ele>
        <time>2014-07-14T07:29:37Z</time>
      </trkpt>
      <trkpt lat="44.39653" lon="4.17902">
        <ele>212</ele>
        <time>2014-07-14T07:29:56Z</time>
      </trkpt>
      <trkpt lat="44.3966" lon="4.17925">
        <ele>211</ele>
        <time>2014-07-14T07:30:09Z</time>
      </trkpt>
      <trkpt lat="44.39674" lon="4.17967">
        <ele>215</ele>
        <time>2014-07-14T07:30:30Z</time>
      </trkpt>
      <trkpt lat="44.39676" lon="4.17973">
        <ele>215</ele>
        <time>2014-07-14T07:30:33Z</time>
      </trkpt>
      <trkpt lat="44.39681" lon="4.18006">
        <ele>215</ele>
        <time>2014-07-14T07:30:48Z</time>
      </trkpt>
      <trkpt lat="44.39686" lon="4.18013">
        <ele>216</ele>
        <time>2014-07-14T07:31:42Z</time>
      </trkpt>
      <trkpt lat="44.3969" lon="4.18023">
        <ele>216</ele>
        <time>2014-07-14T07:31:55Z</time>
      </trkpt>
      <trkpt lat="44.3969" lon="4.18089">
        <ele>219</ele>
        <time>2014-07-14T07:32:22Z</time>
      </trkpt>
      <trkpt lat="44.39685" lon="4.1812">
        <ele>219</ele>
        <time>2014-07-14T07:32:34Z</time>
      </trkpt>
      <trkpt lat="44.39679" lon="4.18153">
        <ele>221</ele>
        <time>2014-07-14T07:32:46Z</time>
      </trkpt>
      <trkpt lat="44.39653" lon="4.18214">
        <ele>219</ele>
        <time>2014-07-14T07:33:10Z</time>
      </trkpt>
      <trkpt lat="44.39637" lon="4.18275">
        <ele>217</ele>
        <time>2014-07-14T07:33:30Z</time>
      </trkpt>
      <trkpt lat="44.39626" lon="4.18354">
        <ele>216</ele>
        <time>2014-07-14T07:33:49Z</time>
      </trkpt>
      <trkpt lat="44.39606" lon="4.18453">
        <ele>216</ele>
        <time>2014-07-14T07:34:13Z</time>
      </trkpt>
      <trkpt lat="44.39601" lon="4.18487">
        <ele>215</ele>
        <time>2014-07-14T07:34:24Z</time>
      </trkpt>
      <trkpt lat="44.39587" lon="4.18579">
        <ele>211</ele>
        <time>2014-07-14T07:34:56Z</time>
      </trkpt>
      <trkpt lat="44.39577" lon="4.18638">
        <ele>210</ele>
        <time>2014-07-14T07:35:13Z</time>
      </trkpt>
      <trkpt lat="44.39576" lon="4.18713">
        <ele>211</ele>
        <time>2014-07-14T07:35:36Z</time>
      </trkpt>
      <trkpt lat="44.39576" lon="4.18716">
        <ele>211</ele>
        <time>2014-07-14T07:35:37Z</time>
      </trkpt>
      <trkpt lat="44.39576" lon="4.1872">
        <ele>211</ele>
        <time>2014-07-14T07:35:38Z</time>
      </trkpt>
      <trkpt lat="44.3956" lon="4.18759">
        <ele>211</ele>
        <time>2014-07-14T07:35:56Z</time>
      </trkpt>
      <trkpt lat="44.3954" lon="4.18824">
        <ele>211</ele>
        <time>2014-07-14T07:36:32Z</time>
      </trkpt>
      <trkpt lat="44.39538" lon="4.18834">
        <ele>211</ele>
        <time>2014-07-14T07:37:04Z</time>
      </trkpt>
      <trkpt lat="44.39534" lon="4.18837">
        <ele>211</ele>
        <time>2014-07-14T07:38:31Z</time>
      </trkpt>
      <trkpt lat="44.39538" lon="4.18866">
        <ele>211</ele>
        <time>2014-07-14T07:38:43Z</time>
      </trkpt>
      <trkpt lat="44.39561" lon="4.18958">
        <ele>209</ele>
        <time>2014-07-14T07:39:02Z</time>
      </trkpt>
      <trkpt lat="44.39592" lon="4.19076">
        <ele>203</ele>
        <time>2014-07-14T07:39:32Z</time>
      </trkpt>
      <trkpt lat="44.39591" lon="4.191">
        <ele>198</ele>
        <time>2014-07-14T07:39:39Z</time>
      </trkpt>
      <trkpt lat="44.39572" lon="4.19129">
        <ele>197</ele>
        <time>2014-07-14T07:39:57Z</time>
      </trkpt>
      <trkpt lat="44.39572" lon="4.19128">
        <ele>197</ele>
        <time>2014-07-14T07:40:20Z</time>
      </trkpt>
      <trkpt lat="44.39547" lon="4.19148">
        <ele>196</ele>
        <time>2014-07-14T07:40:36Z</time>
      </trkpt>
      <trkpt lat="44.39495" lon="4.19182">
        <ele>191</ele>
        <time>2014-07-14T07:40:46Z</time>
      </trkpt>
      <trkpt lat="44.39466" lon="4.19201">
        <ele>189</ele>
        <time>2014-07-14T07:40:52Z</time>
      </trkpt>
      <trkpt lat="44.39448" lon="4.19216">
        <ele>188</ele>
        <time>2014-07-14T07:40:56Z</time>
      </trkpt>
      <trkpt lat="44.39396" lon="4.19232">
        <ele>190</ele>
        <time>2014-07-14T07:41:16Z</time>
      </trkpt>
      <trkpt lat="44.39382" lon="4.19234">
        <ele>191</ele>
        <time>2014-07-14T07:41:21Z</time>
      </trkpt>
      <trkpt lat="44.39358" lon="4.19203">
        <ele>191</ele>
        <time>2014-07-14T07:41:36Z</time>
      </trkpt>
      <trkpt lat="44.39339" lon="4.19216">
        <ele>192</ele>
        <time>2014-07-14T07:41:51Z</time>
      </trkpt>
      <trkpt lat="44.39338" lon="4.19218">
        <ele>192</ele>
        <time>2014-07-14T07:41:52Z</time>
      </trkpt>
      <trkpt lat="44.39312" lon="4.19244">
        <ele>194</ele>
        <time>2014-07-14T07:42:12Z</time>
      </trkpt>
      <trkpt lat="44.39285" lon="4.19272">
        <ele>195</ele>
        <time>2014-07-14T07:42:31Z</time>
      </trkpt>
      <trkpt lat="44.39231" lon="4.19333">
        <ele>194</ele>
        <time>2014-07-14T07:42:53Z</time>
      </trkpt>
      <trkpt lat="44.39214" lon="4.19361">
        <ele>188</ele>
        <time>2014-07-14T07:42:59Z</time>
      </trkpt>
      <trkpt lat="44.39182" lon="4.19409">
        <ele>183</ele>
        <time>2014-07-14T07:43:06Z</time>
      </trkpt>
      <trkpt lat="44.39167" lon="4.19432">
        <ele>178</ele>
        <time>2014-07-14T07:43:10Z</time>
      </trkpt>
      <trkpt lat="44.39167" lon="4.19432">
        <ele>180</ele>
        <time>2014-07-14T07:43:48Z</time>
      </trkpt>
      <trkpt lat="44.3914" lon="4.19469">
        <ele>177</ele>
        <time>2014-07-14T07:44:12Z</time>
      </trkpt>
      <trkpt lat="44.39103" lon="4.19574">
        <ele>177</ele>
        <time>2014-07-14T07:44:39Z</time>
      </trkpt>
      <trkpt lat="44.39095" lon="4.19588">
        <ele>179</ele>
        <time>2014-07-14T07:44:42Z</time>
      </trkpt>
      <trkpt lat="44.39064" lon="4.19681">
        <ele>182</ele>
        <time>2014-07-14T07:45:07Z</time>
      </trkpt>
      <trkpt lat="44.39058" lon="4.19738">
        <ele>182</ele>
        <time>2014-07-14T07:45:20Z</time>
      </trkpt>
      <trkpt lat="44.39022" lon="4.19794">
        <ele>181</ele>
        <time>2014-07-14T07:45:31Z</time>
      </trkpt>
      <trkpt lat="44.38963" lon="4.1988">
        <ele>175</ele>
        <time>2014-07-14T07:45:52Z</time>
      </trkpt>
      <trkpt lat="44.389" lon="4.19956">
        <ele>170</ele>
        <time>2014-07-14T07:46:13Z</time>
      </trkpt>
      <trkpt lat="44.38865" lon="4.19993">
        <ele>168</ele>
        <time>2014-07-14T07:46:24Z</time>
      </trkpt>
      <trkpt lat="44.38851" lon="4.20007">
        <ele>167</ele>
        <time>2014-07-14T07:46:27Z</time>
      </trkpt>
      <trkpt lat="44.38839" lon="4.20023">
        <ele>167</ele>
        <time>2014-07-14T07:46:30Z</time>
      </trkpt>
      <trkpt lat="44.38812" lon="4.20055">
        <ele>164</ele>
        <time>2014-07-14T07:46:36Z</time>
      </trkpt>
      <trkpt lat="44.38773" lon="4.2007">
        <ele>162</ele>
        <time>2014-07-14T07:46:43Z</time>
      </trkpt>
      <trkpt lat="44.38732" lon="4.20081">
        <ele>160</ele>
        <time>2014-07-14T07:46:55Z</time>
      </trkpt>
      <trkpt lat="44.38697" lon="4.20087">
        <ele>159</ele>
        <time>2014-07-14T07:47:06Z</time>
      </trkpt>
      <trkpt lat="44.38685" lon="4.20084">
        <ele>159</ele>
        <time>2014-07-14T07:47:14Z</time>
      </trkpt>
      <trkpt lat="44.38623" lon="4.20082">
        <ele>157</ele>
        <time>2014-07-14T07:47:47Z</time>
      </trkpt>
      <trkpt lat="44.38578" lon="4.20065">
        <ele>154</ele>
        <time>2014-07-14T07:48:01Z</time>
      </trkpt>
      <trkpt lat="44.38526" lon="4.2006">
        <ele>153</ele>
        <time>2014-07-14T07:48:13Z</time>
      </trkpt>
      <trkpt lat="44.38507" lon="4.20058">
        <ele>153</ele>
        <time>2014-07-14T07:48:18Z</time>
      </trkpt>
      <trkpt lat="44.38426" lon="4.20049">
        <ele>150</ele>
        <time>2014-07-14T07:48:38Z</time>
      </trkpt>
      <trkpt lat="44.38408" lon="4.20047">
        <ele>148</ele>
        <time>2014-07-14T07:48:42Z</time>
      </trkpt>
      <trkpt lat="44.38391" lon="4.2005">
        <ele>148</ele>
        <time>2014-07-14T07:48:46Z</time>
      </trkpt>
      <trkpt lat="44.38322" lon="4.20047">
        <ele>147</ele>
        <time>2014-07-14T07:49:01Z</time>
      </trkpt>
      <trkpt lat="44.38288" lon="4.20047">
        <ele>147</ele>
        <time>2014-07-14T07:49:08Z</time>
      </trkpt>
      <trkpt lat="44.38228" lon="4.20035">
        <ele>147</ele>
        <time>2014-07-14T07:49:26Z</time>
      </trkpt>
      <trkpt lat="44.38184" lon="4.19983">
        <ele>148</ele>
        <time>2014-07-14T07:49:44Z</time>
      </trkpt>
      <trkpt lat="44.38133" lon="4.19944">
        <ele>146</ele>
        <time>2014-07-14T07:49:59Z</time>
      </trkpt>
      <trkpt lat="44.38132" lon="4.1994">
        <ele>146</ele>
        <time>2014-07-14T07:50:02Z</time>
      </trkpt>
      <trkpt lat="44.38128" lon="4.19933">
        <ele>146</ele>
        <time>2014-07-14T07:50:17Z</time>
      </trkpt>
      <trkpt lat="44.38067" lon="4.19931">
        <ele>142</ele>
        <time>2014-07-14T07:50:37Z</time>
      </trkpt>
      <trkpt lat="44.38039" lon="4.19957">
        <ele>142</ele>
        <time>2014-07-14T07:50:49Z</time>
      </trkpt>
      <trkpt lat="44.38033" lon="4.19962">
        <ele>142</ele>
        <time>2014-07-14T07:50:51Z</time>
      </trkpt>
      <trkpt lat="44.38006" lon="4.19964">
        <ele>141</ele>
        <time>2014-07-14T07:51:02Z</time>
      </trkpt>
      <trkpt lat="44.37964" lon="4.19969">
        <ele>137</ele>
        <time>2014-07-14T07:51:12Z</time>
      </trkpt>
      <trkpt lat="44.3794" lon="4.1997">
        <ele>136</ele>
        <time>2014-07-14T07:51:17Z</time>
      </trkpt>
      <trkpt lat="44.3789" lon="4.19988">
        <ele>135</ele>
        <time>2014-07-14T07:51:30Z</time>
      </trkpt>
      <trkpt lat="44.37813" lon="4.19987">
        <ele>134</ele>
        <time>2014-07-14T07:51:46Z</time>
      </trkpt>
      <trkpt lat="44.37765" lon="4.19988">
        <ele>134</ele>
        <time>2014-07-14T07:51:55Z</time>
      </trkpt>
      <trkpt lat="44.37662" lon="4.19979">
        <ele>132</ele>
        <time>2014-07-14T07:52:27Z</time>
      </trkpt>
      <trkpt lat="44.3764" lon="4.19993">
        <ele>132</ele>
        <time>2014-07-14T07:52:56Z</time>
      </trkpt>
      <trkpt lat="44.37638" lon="4.19993">
        <ele>132</ele>
        <time>2014-07-14T07:52:57Z</time>
      </trkpt>
      <trkpt lat="44.37544" lon="4.20025">
        <ele>132</ele>
        <time>2014-07-14T07:53:30Z</time>
      </trkpt>
      <trkpt lat="44.37512" lon="4.20029">
        <ele>133</ele>
        <time>2014-07-14T07:53:40Z</time>
      </trkpt>
      <trkpt lat="44.37508" lon="4.20076">
        <ele>132</ele>
        <time>2014-07-14T07:53:49Z</time>
      </trkpt>
      <trkpt lat="44.37507" lon="4.20105">
        <ele>131</ele>
        <time>2014-07-14T07:53:53Z</time>
      </trkpt>
      <trkpt lat="44.37506" lon="4.2011">
        <ele>131</ele>
        <time>2014-07-14T07:53:54Z</time>
      </trkpt>
      <trkpt lat="44.37478" lon="4.2012">
        <ele>130</ele>
        <time>2014-07-14T07:54:04Z</time>
      </trkpt>
      <trkpt lat="44.37474" lon="4.20129">
        <ele>130</ele>
        <time>2014-07-14T07:54:07Z</time>
      </trkpt>
      <trkpt lat="44.37473" lon="4.20132">
        <ele>130</ele>
        <time>2014-07-14T07:54:08Z</time>
      </trkpt>
      <trkpt lat="44.37464" lon="4.20281">
        <ele>127</ele>
        <time>2014-07-14T07:54:36Z</time>
      </trkpt>
      <trkpt lat="44.37473" lon="4.20354">
        <ele>126</ele>
        <time>2014-07-14T07:54:49Z</time>
      </trkpt>
      <trkpt lat="44.37473" lon="4.2036">
        <ele>126</ele>
        <time>2014-07-14T07:54:50Z</time>
      </trkpt>
      <trkpt lat="44.37481" lon="4.20579">
        <ele>126</ele>
        <time>2014-07-14T07:55:25Z</time>
      </trkpt>
      <trkpt lat="44.37471" lon="4.20762">
        <ele>124</ele>
        <time>2014-07-14T07:55:58Z</time>
      </trkpt>
      <trkpt lat="44.37476" lon="4.20872">
        <ele>124</ele>
        <time>2014-07-14T07:56:20Z</time>
      </trkpt>
      <trkpt lat="44.3748" lon="4.20906">
        <ele>124</ele>
        <time>2014-07-14T07:56:25Z</time>
      </trkpt>
      <trkpt lat="44.37523" lon="4.20983">
        <ele>122</ele>
        <time>2014-07-14T07:56:40Z</time>
      </trkpt>
      <trkpt lat="44.37543" lon="4.21016">
        <ele>122</ele>
        <time>2014-07-14T07:56:51Z</time>
      </trkpt>
      <trkpt lat="44.37549" lon="4.21029">
        <ele>122</ele>
        <time>2014-07-14T07:57:08Z</time>
      </trkpt>
      <trkpt lat="44.37594" lon="4.21093">
        <ele>123</ele>
        <time>2014-07-14T07:57:39Z</time>
      </trkpt>
      <trkpt lat="44.37648" lon="4.21126">
        <ele>122</ele>
        <time>2014-07-14T07:57:55Z</time>
      </trkpt>
      <trkpt lat="44.37722" lon="4.21254">
        <ele>123</ele>
        <time>2014-07-14T07:58:24Z</time>
      </trkpt>
      <trkpt lat="44.37749" lon="4.2134">
        <ele>124</ele>
        <time>2014-07-14T07:58:40Z</time>
      </trkpt>
      <trkpt lat="44.37758" lon="4.21373">
        <ele>123</ele>
        <time>2014-07-14T07:58:46Z</time>
      </trkpt>
      <trkpt lat="44.3779" lon="4.21429">
        <ele>122</ele>
        <time>2014-07-14T07:59:00Z</time>
      </trkpt>
      <trkpt lat="44.37788" lon="4.21486">
        <ele>122</ele>
        <time>2014-07-14T07:59:12Z</time>
      </trkpt>
      <trkpt lat="44.37787" lon="4.21501">
        <ele>122</ele>
        <time>2014-07-14T07:59:16Z</time>
      </trkpt>
      <trkpt lat="44.37803" lon="4.21495">
        <ele>122</ele>
        <time>2014-07-14T07:59:28Z</time>
      </trkpt>
      <trkpt lat="44.37815" lon="4.21487">
        <ele>123</ele>
        <time>2014-07-14T07:59:36Z</time>
      </trkpt>
      <trkpt lat="44.37788" lon="4.21507">
        <ele>122</ele>
        <time>2014-07-14T07:59:51Z</time>
      </trkpt>
      <trkpt lat="44.37782" lon="4.2155">
        <ele>121</ele>
        <time>2014-07-14T08:00:07Z</time>
      </trkpt>
      <trkpt lat="44.37807" lon="4.21574">
        <ele>121</ele>
        <time>2014-07-14T08:00:21Z</time>
      </trkpt>
      <trkpt lat="44.37893" lon="4.21581">
        <ele>120</ele>
        <time>2014-07-14T08:00:51Z</time>
      </trkpt>
      <trkpt lat="44.37913" lon="4.2158">
        <ele>119</ele>
        <time>2014-07-14T08:00:56Z</time>
      </trkpt>
      <trkpt lat="44.37935" lon="4.21606">
        <ele>119</ele>
        <time>2014-07-14T08:01:04Z</time>
      </trkpt>
      <trkpt lat="44.38002" lon="4.2177">
        <ele>118</ele>
        <time>2014-07-14T08:01:38Z</time>
      </trkpt>
      <trkpt lat="44.38094" lon="4.21884">
        <ele>119</ele>
        <time>2014-07-14T08:02:06Z</time>
      </trkpt>
      <trkpt lat="44.3813" lon="4.2199">
        <ele>120</ele>
        <time>2014-07-14T08:02:26Z</time>
      </trkpt>
      <trkpt lat="44.38133" lon="4.21994">
        <ele>120</ele>
        <time>2014-07-14T08:02:27Z</time>
      </trkpt>
      <trkpt lat="44.38211" lon="4.22091">
        <ele>123</ele>
        <time>2014-07-14T08:02:49Z</time>
      </trkpt>
      <trkpt lat="44.3824" lon="4.22143">
        <ele>124</ele>
        <time>2014-07-14T08:03:02Z</time>
      </trkpt>
      <trkpt lat="44.38295" lon="4.22216">
        <ele>121</ele>
        <time>2014-07-14T08:03:20Z</time>
      </trkpt>
      <trkpt lat="44.38298" lon="4.22222">
        <ele>120</ele>
        <time>2014-07-14T08:03:21Z</time>
      </trkpt>
      <trkpt lat="44.38369" lon="4.22299">
        <ele>119</ele>
        <time>2014-07-14T08:03:39Z</time>
      </trkpt>
      <trkpt lat="44.38438" lon="4.22343">
        <ele>120</ele>
        <time>2014-07-14T08:03:54Z</time>
      </trkpt>
      <trkpt lat="44.3852" lon="4.22417">
        <ele>115</ele>
        <time>2014-07-14T08:04:14Z</time>
      </trkpt>
      <trkpt lat="44.38525" lon="4.22416">
        <ele>115</ele>
        <time>2014-07-14T08:04:15Z</time>
      </trkpt>
      <trkpt lat="44.38548" lon="4.22438">
        <ele>115</ele>
        <time>2014-07-14T08:04:21Z</time>
      </trkpt>
      <trkpt lat="44.38565" lon="4.22502">
        <ele>115</ele>
        <time>2014-07-14T08:04:31Z</time>
      </trkpt>
      <trkpt lat="44.38566" lon="4.22678">
        <ele>115</ele>
        <time>2014-07-14T08:04:56Z</time>
      </trkpt>
      <trkpt lat="44.38593" lon="4.22836">
        <ele>113</ele>
        <time>2014-07-14T08:05:19Z</time>
      </trkpt>
      <trkpt lat="44.38599" lon="4.23102">
        <ele>113</ele>
        <time>2014-07-14T08:05:56Z</time>
      </trkpt>
      <trkpt lat="44.38639" lon="4.23192">
        <ele>113</ele>
        <time>2014-07-14T08:06:12Z</time>
      </trkpt>
      <trkpt lat="44.3874" lon="4.23322">
        <ele>114</ele>
        <time>2014-07-14T08:06:42Z</time>
      </trkpt>
      <trkpt lat="44.38855" lon="4.23348">
        <ele>115</ele>
        <time>2014-07-14T08:07:08Z</time>
      </trkpt>
      <trkpt lat="44.38949" lon="4.23359">
        <ele>116</ele>
        <time>2014-07-14T08:07:31Z</time>
      </trkpt>
      <trkpt lat="44.38958" lon="4.23372">
        <ele>116</ele>
        <time>2014-07-14T08:07:39Z</time>
      </trkpt>
      <trkpt lat="44.38962" lon="4.23375">
        <ele>116</ele>
        <time>2014-07-14T08:07:42Z</time>
      </trkpt>
      <trkpt lat="44.38979" lon="4.23385">
        <ele>116</ele>
        <time>2014-07-14T08:07:49Z</time>
      </trkpt>
      <trkpt lat="44.38989" lon="4.23387">
        <ele>117</ele>
        <time>2014-07-14T08:07:53Z</time>
      </trkpt>
      <trkpt lat="44.38992" lon="4.2345">
        <ele>117</ele>
        <time>2014-07-14T08:08:17Z</time>
      </trkpt>
      <trkpt lat="44.38994" lon="4.23449">
        <ele>117</ele>
        <time>2014-07-14T08:08:23Z</time>
      </trkpt>
      <trkpt lat="44.38995" lon="4.23442">
        <ele>117</ele>
        <time>2014-07-14T08:08:29Z</time>
      </trkpt>
      <trkpt lat="44.38996" lon="4.23434">
        <ele>117</ele>
        <time>2014-07-14T08:08:45Z</time>
      </trkpt>
      <trkpt lat="44.38998" lon="4.23434">
        <ele>117</ele>
        <time>2014-07-14T08:09:21Z</time>
      </trkpt>
      <trkpt lat="44.38995" lon="4.23439">
        <ele>117</ele>
        <time>2014-07-14T08:09:27Z</time>
      </trkpt>
      <trkpt lat="44.38993" lon="4.23453">
        <ele>117</ele>
        <time>2014-07-14T08:09:35Z</time>
      </trkpt>
      <trkpt lat="44.38993" lon="4.23457">
        <ele>117</ele>
        <time>2014-07-14T08:09:37Z</time>
      </trkpt>
      <trkpt lat="44.38985" lon="4.23518">
        <ele>118</ele>
        <time>2014-07-14T08:10:03Z</time>
      </trkpt>
      <trkpt lat="44.38984" lon="4.23519">
        <ele>118</ele>
        <time>2014-07-14T08:10:50Z</time>
      </trkpt>
      <trkpt lat="44.38986" lon="4.23514">
        <ele>118</ele>
        <time>2014-07-14T08:12:45Z</time>
      </trkpt>
      <trkpt lat="44.38985" lon="4.23515">
        <ele>118</ele>
        <time>2014-07-14T08:16:03Z</time>
      </trkpt>
      <trkpt lat="44.38988" lon="4.2352">
        <ele>118</ele>
        <time>2014-07-14T08:18:00Z</time>
      </trkpt>
      <trkpt lat="44.3899" lon="4.23524">
        <ele>118</ele>
        <time>2014-07-14T08:19:47Z</time>
      </trkpt>
      <trkpt lat="44.39023" lon="4.23525">
        <ele>118</ele>
        <time>2014-07-14T08:20:01Z</time>
      </trkpt>
      <trkpt lat="44.39041" lon="4.23524">
        <ele>118</ele>
        <time>2014-07-14T08:20:08Z</time>
      </trkpt>
      <trkpt lat="44.39025" lon="4.2359">
        <ele>119</ele>
        <time>2014-07-14T08:20:25Z</time>
      </trkpt>
      <trkpt lat="44.38942" lon="4.23664">
        <ele>119</ele>
        <time>2014-07-14T08:20:51Z</time>
      </trkpt>
      <trkpt lat="44.38847" lon="4.23767">
        <ele>115</ele>
        <time>2014-07-14T08:21:19Z</time>
      </trkpt>
      <trkpt lat="44.38769" lon="4.23879">
        <ele>114</ele>
        <time>2014-07-14T08:21:48Z</time>
      </trkpt>
      <trkpt lat="44.38754" lon="4.23943">
        <ele>113</ele>
        <time>2014-07-14T08:22:05Z</time>
      </trkpt>
      <trkpt lat="44.38756" lon="4.23947">
        <ele>113</ele>
        <time>2014-07-14T08:22:07Z</time>
      </trkpt>
      <trkpt lat="44.38765" lon="4.23955">
        <ele>113</ele>
        <time>2014-07-14T08:22:12Z</time>
      </trkpt>
      <trkpt lat="44.38775" lon="4.23973">
        <ele>113</ele>
        <time>2014-07-14T08:22:18Z</time>
      </trkpt>
      <trkpt lat="44.38785" lon="4.24114">
        <ele>112</ele>
        <time>2014-07-14T08:22:46Z</time>
      </trkpt>
      <trkpt lat="44.38826" lon="4.24255">
        <ele>111</ele>
        <time>2014-07-14T08:23:14Z</time>
      </trkpt>
      <trkpt lat="44.38818" lon="4.24268">
        <ele>111</ele>
        <time>2014-07-14T08:23:19Z</time>
      </trkpt>
      <trkpt lat="44.38785" lon="4.24309">
        <ele>111</ele>
        <time>2014-07-14T08:23:33Z</time>
      </trkpt>
      <trkpt lat="44.38814" lon="4.24393">
        <ele>112</ele>
        <time>2014-07-14T08:23:53Z</time>
      </trkpt>
      <trkpt lat="44.38859" lon="4.24566">
        <ele>112</ele>
        <time>2014-07-14T08:24:25Z</time>
      </trkpt>
      <trkpt lat="44.38887" lon="4.24723">
        <ele>113</ele>
        <time>2014-07-14T08:24:50Z</time>
      </trkpt>
      <trkpt lat="44.38885" lon="4.24749">
        <ele>113</ele>
        <time>2014-07-14T08:24:54Z</time>
      </trkpt>
      <trkpt lat="44.38898" lon="4.24883">
        <ele>112</ele>
        <time>2014-07-14T08:25:15Z</time>
      </trkpt>
      <trkpt lat="44.38961" lon="4.25357">
        <ele>112</ele>
        <time>2014-07-14T08:26:26Z</time>
      </trkpt>
      <trkpt lat="44.38961" lon="4.25565">
        <ele>114</ele>
        <time>2014-07-14T08:27:02Z</time>
      </trkpt>
      <trkpt lat="44.38939" lon="4.25609">
        <ele>115</ele>
        <time>2014-07-14T08:27:14Z</time>
      </trkpt>
      <trkpt lat="44.38938" lon="4.25642">
        <ele>115</ele>
        <time>2014-07-14T08:27:20Z</time>
      </trkpt>
      <trkpt lat="44.3894" lon="4.25647">
        <ele>115</ele>
        <time>2014-07-14T08:27:21Z</time>
      </trkpt>
      <trkpt lat="44.38958" lon="4.25686">
        <ele>115</ele>
        <time>2014-07-14T08:27:29Z</time>
      </trkpt>
      <trkpt lat="44.38975" lon="4.25852">
        <ele>116</ele>
        <time>2014-07-14T08:27:58Z</time>
      </trkpt>
      <trkpt lat="44.38965" lon="4.26029">
        <ele>123</ele>
        <time>2014-07-14T08:28:31Z</time>
      </trkpt>
      <trkpt lat="44.38963" lon="4.26103">
        <ele>129</ele>
        <time>2014-07-14T08:28:45Z</time>
      </trkpt>
      <trkpt lat="44.3894" lon="4.26202">
        <ele>135</ele>
        <time>2014-07-14T08:29:10Z</time>
      </trkpt>
      <trkpt lat="44.38939" lon="4.26206">
        <ele>135</ele>
        <time>2014-07-14T08:29:13Z</time>
      </trkpt>
      <trkpt lat="44.38935" lon="4.26213">
        <ele>135</ele>
        <time>2014-07-14T08:29:22Z</time>
      </trkpt>
      <trkpt lat="44.38937" lon="4.26211">
        <ele>135</ele>
        <time>2014-07-14T08:29:25Z</time>
      </trkpt>
      <trkpt lat="44.38961" lon="4.26206">
        <ele>136</ele>
        <time>2014-07-14T08:29:34Z</time>
      </trkpt>
      <trkpt lat="44.38962" lon="4.26207">
        <ele>136</ele>
        <time>2014-07-14T08:29:35Z</time>
      </trkpt>
      <trkpt lat="44.38977" lon="4.26245">
        <ele>138</ele>
        <time>2014-07-14T08:29:49Z</time>
      </trkpt>
      <trkpt lat="44.38978" lon="4.26246">
        <ele>138</ele>
        <time>2014-07-14T08:29:50Z</time>
      </trkpt>
      <trkpt lat="44.38979" lon="4.26252">
        <ele>140</ele>
        <time>2014-07-14T08:29:53Z</time>
      </trkpt>
      <trkpt lat="44.38985" lon="4.26273">
        <ele>140</ele>
        <time>2014-07-14T08:30:06Z</time>
      </trkpt>
      <trkpt lat="44.38998" lon="4.26282">
        <ele>140</ele>
        <time>2014-07-14T08:30:12Z</time>
      </trkpt>
      <trkpt lat="44.39017" lon="4.26398">
        <ele>140</ele>
        <time>2014-07-14T08:30:38Z</time>
      </trkpt>
      <trkpt lat="44.39016" lon="4.26404">
        <ele>140</ele>
        <time>2014-07-14T08:30:39Z</time>
      </trkpt>
      <trkpt lat="44.38922" lon="4.26685">
        <ele>137</ele>
        <time>2014-07-14T08:31:32Z</time>
      </trkpt>
      <trkpt lat="44.389" lon="4.2671">
        <ele>136</ele>
        <time>2014-07-14T08:31:39Z</time>
      </trkpt>
      <trkpt lat="44.38893" lon="4.26725">
        <ele>136</ele>
        <time>2014-07-14T08:31:42Z</time>
      </trkpt>
      <trkpt lat="44.38852" lon="4.26899">
        <ele>138</ele>
        <time>2014-07-14T08:32:13Z</time>
      </trkpt>
      <trkpt lat="44.38826" lon="4.27012">
        <ele>142</ele>
        <time>2014-07-14T08:32:33Z</time>
      </trkpt>
      <trkpt lat="44.38805" lon="4.27044">
        <ele>143</ele>
        <time>2014-07-14T08:32:40Z</time>
      </trkpt>
      <trkpt lat="44.38766" lon="4.27073">
        <ele>144</ele>
        <time>2014-07-14T08:32:50Z</time>
      </trkpt>
      <trkpt lat="44.38736" lon="4.27116">
        <ele>147</ele>
        <time>2014-07-14T08:33:02Z</time>
      </trkpt>
      <trkpt lat="44.38703" lon="4.27262">
        <ele>150</ele>
        <time>2014-07-14T08:33:38Z</time>
      </trkpt>
      <trkpt lat="44.38628" lon="4.27425">
        <ele>153</ele>
        <time>2014-07-14T08:34:17Z</time>
      </trkpt>
      <trkpt lat="44.38592" lon="4.27516">
        <ele>157</ele>
        <time>2014-07-14T08:34:45Z</time>
      </trkpt>
      <trkpt lat="44.38584" lon="4.27568">
        <ele>159</ele>
        <time>2014-07-14T08:34:58Z</time>
      </trkpt>
      <trkpt lat="44.38543" lon="4.27638">
        <ele>161</ele>
        <time>2014-07-14T08:35:25Z</time>
      </trkpt>
      <trkpt lat="44.38492" lon="4.27699">
        <ele>164</ele>
        <time>2014-07-14T08:35:51Z</time>
      </trkpt>
      <trkpt lat="44.38427" lon="4.2782">
        <ele>169</ele>
        <time>2014-07-14T08:36:38Z</time>
      </trkpt>
      <trkpt lat="44.38392" lon="4.27901">
        <ele>174</ele>
        <time>2014-07-14T08:37:06Z</time>
      </trkpt>
      <trkpt lat="44.3838" lon="4.27947">
        <ele>177</ele>
        <time>2014-07-14T08:37:25Z</time>
      </trkpt>
      <trkpt lat="44.3841" lon="4.27981">
        <ele>177</ele>
        <time>2014-07-14T08:37:43Z</time>
      </trkpt>
      <trkpt lat="44.38525" lon="4.2805">
        <ele>171</ele>
        <time>2014-07-14T08:38:20Z</time>
      </trkpt>
      <trkpt lat="44.3853" lon="4.28054">
        <ele>171</ele>
        <time>2014-07-14T08:38:21Z</time>
      </trkpt>
      <trkpt lat="44.38568" lon="4.28084">
        <ele>165</ele>
        <time>2014-07-14T08:38:27Z</time>
      </trkpt>
      <trkpt lat="44.38601" lon="4.28099">
        <ele>161</ele>
        <time>2014-07-14T08:38:32Z</time>
      </trkpt>
      <trkpt lat="44.38616" lon="4.28105">
        <ele>159</ele>
        <time>2014-07-14T08:38:34Z</time>
      </trkpt>
      <trkpt lat="44.38636" lon="4.28107">
        <ele>158</ele>
        <time>2014-07-14T08:38:37Z</time>
      </trkpt>
      <trkpt lat="44.38657" lon="4.28117">
        <ele>157</ele>
        <time>2014-07-14T08:38:41Z</time>
      </trkpt>
      <trkpt lat="44.38661" lon="4.28121">
        <ele>157</ele>
        <time>2014-07-14T08:38:42Z</time>
      </trkpt>
      <trkpt lat="44.38684" lon="4.28123">
        <ele>150</ele>
        <time>2014-07-14T08:38:46Z</time>
      </trkpt>
      <trkpt lat="44.38707" lon="4.28102">
        <ele>149</ele>
        <time>2014-07-14T08:38:51Z</time>
      </trkpt>
      <trkpt lat="44.38724" lon="4.28076">
        <ele>149</ele>
        <time>2014-07-14T08:38:56Z</time>
      </trkpt>
      <trkpt lat="44.38746" lon="4.2806">
        <ele>148</ele>
        <time>2014-07-14T08:39:01Z</time>
      </trkpt>
      <trkpt lat="44.3876" lon="4.28066">
        <ele>144</ele>
        <time>2014-07-14T08:39:04Z</time>
      </trkpt>
      <trkpt lat="44.38773" lon="4.28071">
        <ele>144</ele>
        <time>2014-07-14T08:39:07Z</time>
      </trkpt>
      <trkpt lat="44.38792" lon="4.2812">
        <ele>145</ele>
        <time>2014-07-14T08:39:22Z</time>
      </trkpt>
      <trkpt lat="44.38857" lon="4.28147">
        <ele>147</ele>
        <time>2014-07-14T08:39:49Z</time>
      </trkpt>
      <trkpt lat="44.38901" lon="4.28167">
        <ele>150</ele>
        <time>2014-07-14T08:40:13Z</time>
      </trkpt>
      <trkpt lat="44.38902" lon="4.28169">
        <ele>150</ele>
        <time>2014-07-14T08:40:14Z</time>
      </trkpt>
      <trkpt lat="44.38889" lon="4.28173">
        <ele>150</ele>
        <time>2014-07-14T08:40:26Z</time>
      </trkpt>
      <trkpt lat="44.38882" lon="4.28186">
        <ele>150</ele>
        <time>2014-07-14T08:40:31Z</time>
      </trkpt>
      <trkpt lat="44.38872" lon="4.28219">
        <ele>150</ele>
        <time>2014-07-14T08:40:39Z</time>
      </trkpt>
      <trkpt lat="44.38845" lon="4.28275">
        <ele>149</ele>
        <time>2014-07-14T08:40:49Z</time>
      </trkpt>
      <trkpt lat="44.38843" lon="4.28294">
        <ele>150</ele>
        <time>2014-07-14T08:40:52Z</time>
      </trkpt>
      <trkpt lat="44.38842" lon="4.28307">
        <ele>150</ele>
        <time>2014-07-14T08:40:54Z</time>
      </trkpt>
      <trkpt lat="44.38802" lon="4.28379">
        <ele>153</ele>
        <time>2014-07-14T08:41:14Z</time>
      </trkpt>
      <trkpt lat="44.38742" lon="4.28434">
        <ele>158</ele>
        <time>2014-07-14T08:41:42Z</time>
      </trkpt>
      <trkpt lat="44.38644" lon="4.28547">
        <ele>159</ele>
        <time>2014-07-14T08:42:28Z</time>
      </trkpt>
      <trkpt lat="44.38627" lon="4.28622">
        <ele>164</ele>
        <time>2014-07-14T08:42:49Z</time>
      </trkpt>
      <trkpt lat="44.38582" lon="4.28709">
        <ele>167</ele>
        <time>2014-07-14T08:43:16Z</time>
      </trkpt>
      <trkpt lat="44.38551" lon="4.28724">
        <ele>167</ele>
        <time>2014-07-14T08:43:25Z</time>
      </trkpt>
      <trkpt lat="44.38545" lon="4.28725">
        <ele>167</ele>
        <time>2014-07-14T08:43:26Z</time>
      </trkpt>
      <trkpt lat="44.38527" lon="4.2873">
        <ele>167</ele>
        <time>2014-07-14T08:43:29Z</time>
      </trkpt>
      <trkpt lat="44.38502" lon="4.28742">
        <ele>167</ele>
        <time>2014-07-14T08:43:34Z</time>
      </trkpt>
      <trkpt lat="44.38476" lon="4.28754">
        <ele>174</ele>
        <time>2014-07-14T08:43:59Z</time>
      </trkpt>
      <trkpt lat="44.38465" lon="4.28753">
        <ele>175</ele>
        <time>2014-07-14T08:44:13Z</time>
      </trkpt>
      <trkpt lat="44.38439" lon="4.28764">
        <ele>175</ele>
        <time>2014-07-14T08:44:52Z</time>
      </trkpt>
      <trkpt lat="44.38418" lon="4.28759">
        <ele>171</ele>
        <time>2014-07-14T08:45:20Z</time>
      </trkpt>
      <trkpt lat="44.38385" lon="4.28733">
        <ele>175</ele>
        <time>2014-07-14T08:45:44Z</time>
      </trkpt>
      <trkpt lat="44.38384" lon="4.28731">
        <ele>176</ele>
        <time>2014-07-14T08:45:45Z</time>
      </trkpt>
      <trkpt lat="44.38355" lon="4.28709">
        <ele>178</ele>
        <time>2014-07-14T08:46:24Z</time>
      </trkpt>
      <trkpt lat="44.38348" lon="4.28716">
        <ele>178</ele>
        <time>2014-07-14T08:46:55Z</time>
      </trkpt>
      <trkpt lat="44.38344" lon="4.28721">
        <ele>178</ele>
        <time>2014-07-14T08:47:19Z</time>
      </trkpt>
      <trkpt lat="44.38347" lon="4.2872">
        <ele>178</ele>
        <time>2014-07-14T08:47:36Z</time>
      </trkpt>
      <trkpt lat="44.38358" lon="4.28738">
        <ele>177</ele>
        <time>2014-07-14T08:47:54Z</time>
      </trkpt>
      <trkpt lat="44.3834" lon="4.28758">
        <ele>178</ele>
        <time>2014-07-14T08:48:20Z</time>
      </trkpt>
      <trkpt lat="44.38319" lon="4.28764">
        <ele>188</ele>
        <time>2014-07-14T08:48:48Z</time>
      </trkpt>
      <trkpt lat="44.38327" lon="4.28772">
        <ele>188</ele>
        <time>2014-07-14T08:49:17Z</time>
      </trkpt>
      <trkpt lat="44.3833" lon="4.28772">
        <ele>188</ele>
        <time>2014-07-14T08:49:19Z</time>
      </trkpt>
      <trkpt lat="44.38351" lon="4.28786">
        <ele>183</ele>
        <time>2014-07-14T08:49:35Z</time>
      </trkpt>
      <trkpt lat="44.38375" lon="4.28816">
        <ele>185</ele>
        <time>2014-07-14T08:49:58Z</time>
      </trkpt>
      <trkpt lat="44.384" lon="4.28845">
        <ele>201</ele>
        <time>2014-07-14T08:50:19Z</time>
      </trkpt>
      <trkpt lat="44.38401" lon="4.28846">
        <ele>201</ele>
        <time>2014-07-14T08:50:20Z</time>
      </trkpt>
      <trkpt lat="44.38428" lon="4.28861">
        <ele>205</ele>
        <time>2014-07-14T08:50:41Z</time>
      </trkpt>
      <trkpt lat="44.38464" lon="4.28856">
        <ele>206</ele>
        <time>2014-07-14T08:51:05Z</time>
      </trkpt>
      <trkpt lat="44.38507" lon="4.28859">
        <ele>210</ele>
        <time>2014-07-14T08:51:32Z</time>
      </trkpt>
      <trkpt lat="44.38521" lon="4.28864">
        <ele>213</ele>
        <time>2014-07-14T08:51:42Z</time>
      </trkpt>
      <trkpt lat="44.3854" lon="4.28871">
        <ele>216</ele>
        <time>2014-07-14T08:52:00Z</time>
      </trkpt>
      <trkpt lat="44.38561" lon="4.28874">
        <ele>217</ele>
        <time>2014-07-14T08:52:37Z</time>
      </trkpt>
      <trkpt lat="44.38561" lon="4.28876">
        <ele>218</ele>
        <time>2014-07-14T08:53:10Z</time>
      </trkpt>
      <trkpt lat="44.38581" lon="4.28872">
        <ele>217</ele>
        <time>2014-07-14T08:53:58Z</time>
      </trkpt>
      <trkpt lat="44.38592" lon="4.28879">
        <ele>224</ele>
        <time>2014-07-14T08:54:41Z</time>
      </trkpt>
      <trkpt lat="44.38592" lon="4.28876">
        <ele>223</ele>
        <time>2014-07-14T08:54:48Z</time>
      </trkpt>
      <trkpt lat="44.38637" lon="4.28857">
        <ele>221</ele>
        <time>2014-07-14T08:55:05Z</time>
      </trkpt>
      <trkpt lat="44.3864" lon="4.28855">
        <ele>221</ele>
        <time>2014-07-14T08:55:06Z</time>
      </trkpt>
      <trkpt lat="44.38647" lon="4.28864">
        <ele>222</ele>
        <time>2014-07-14T08:55:19Z</time>
      </trkpt>
      <trkpt lat="44.38643" lon="4.2887">
        <ele>224</ele>
        <time>2014-07-14T08:55:48Z</time>
      </trkpt>
      <trkpt lat="44.38644" lon="4.2887">
        <ele>224</ele>
        <time>2014-07-14T08:55:49Z</time>
      </trkpt>
      <trkpt lat="44.38653" lon="4.28863">
        <ele>222</ele>
        <time>2014-07-14T08:55:59Z</time>
      </trkpt>
      <trkpt lat="44.38678" lon="4.28865">
        <ele>220</ele>
        <time>2014-07-14T08:56:31Z</time>
      </trkpt>
      <trkpt lat="44.38701" lon="4.28884">
        <ele>222</ele>
        <time>2014-07-14T08:57:03Z</time>
      </trkpt>
      <trkpt lat="44.38715" lon="4.28912">
        <ele>223</ele>
        <time>2014-07-14T08:57:34Z</time>
      </trkpt>
      <trkpt lat="44.38709" lon="4.28945">
        <ele>232</ele>
        <time>2014-07-14T08:58:05Z</time>
      </trkpt>
      <trkpt lat="44.38698" lon="4.28971">
        <ele>235</ele>
        <time>2014-07-14T08:58:37Z</time>
      </trkpt>
      <trkpt lat="44.38686" lon="4.29004">
        <ele>240</ele>
        <time>2014-07-14T08:59:12Z</time>
      </trkpt>
      <trkpt lat="44.38673" lon="4.29019">
        <ele>241</ele>
        <time>2014-07-14T08:59:41Z</time>
      </trkpt>
      <trkpt lat="44.38653" lon="4.29037">
        <ele>253</ele>
        <time>2014-07-14T09:00:09Z</time>
      </trkpt>
      <trkpt lat="44.38636" lon="4.29057">
        <ele>254</ele>
        <time>2014-07-14T09:00:37Z</time>
      </trkpt>
      <trkpt lat="44.3863" lon="4.29061">
        <ele>255</ele>
        <time>2014-07-14T09:00:43Z</time>
      </trkpt>
      <trkpt lat="44.38592" lon="4.29089">
        <ele>262</ele>
        <time>2014-07-14T09:01:10Z</time>
      </trkpt>
      <trkpt lat="44.38571" lon="4.29093">
        <ele>270</ele>
        <time>2014-07-14T09:01:27Z</time>
      </trkpt>
      <trkpt lat="44.38551" lon="4.29104">
        <ele>272</ele>
        <time>2014-07-14T09:01:40Z</time>
      </trkpt>
      <trkpt lat="44.38534" lon="4.29114">
        <ele>274</ele>
        <time>2014-07-14T09:01:58Z</time>
      </trkpt>
      <trkpt lat="44.38532" lon="4.29116">
        <ele>274</ele>
        <time>2014-07-14T09:02:15Z</time>
      </trkpt>
      <trkpt lat="44.38527" lon="4.29138">
        <ele>276</ele>
        <time>2014-07-14T09:02:37Z</time>
      </trkpt>
      <trkpt lat="44.38527" lon="4.29174">
        <ele>279</ele>
        <time>2014-07-14T09:02:52Z</time>
      </trkpt>
      <trkpt lat="44.38524" lon="4.29201">
        <ele>278</ele>
        <time>2014-07-14T09:03:05Z</time>
      </trkpt>
      <trkpt lat="44.38519" lon="4.29246">
        <ele>283</ele>
        <time>2014-07-14T09:03:28Z</time>
      </trkpt>
      <trkpt lat="44.38493" lon="4.29304">
        <ele>298</ele>
        <time>2014-07-14T09:04:03Z</time>
      </trkpt>
      <trkpt lat="44.38491" lon="4.29306">
        <ele>297</ele>
        <time>2014-07-14T09:04:05Z</time>
      </trkpt>
      <trkpt lat="44.38479" lon="4.29338">
        <ele>299</ele>
        <time>2014-07-14T09:04:23Z</time>
      </trkpt>
      <trkpt lat="44.38461" lon="4.29384">
        <ele>303</ele>
        <time>2014-07-14T09:04:47Z</time>
      </trkpt>
      <trkpt lat="44.38441" lon="4.29418">
        <ele>304</ele>
        <time>2014-07-14T09:05:11Z</time>
      </trkpt>
      <trkpt lat="44.38367" lon="4.29491">
        <ele>312</ele>
        <time>2014-07-14T09:06:09Z</time>
      </trkpt>
      <trkpt lat="44.38289" lon="4.29545">
        <ele>313</ele>
        <time>2014-07-14T09:06:47Z</time>
      </trkpt>
      <trkpt lat="44.38262" lon="4.29597">
        <ele>313</ele>
        <time>2014-07-14T09:07:07Z</time>
      </trkpt>
      <trkpt lat="44.38251" lon="4.29638">
        <ele>313</ele>
        <time>2014-07-14T09:07:33Z</time>
      </trkpt>
      <trkpt lat="44.38239" lon="4.29677">
        <ele>319</ele>
        <time>2014-07-14T09:07:55Z</time>
      </trkpt>
      <trkpt lat="44.38233" lon="4.29724">
        <ele>321</ele>
        <time>2014-07-14T09:08:08Z</time>
      </trkpt>
      <trkpt lat="44.38273" lon="4.298">
        <ele>323</ele>
        <time>2014-07-14T09:08:35Z</time>
      </trkpt>
      <trkpt lat="44.38336" lon="4.29865">
        <ele>323</ele>
        <time>2014-07-14T09:09:06Z</time>
      </trkpt>
      <trkpt lat="44.38389" lon="4.29978">
        <ele>326</ele>
        <time>2014-07-14T09:09:34Z</time>
      </trkpt>
      <trkpt lat="44.38437" lon="4.30079">
        <ele>327</ele>
        <time>2014-07-14T09:10:01Z</time>
      </trkpt>
      <trkpt lat="44.38517" lon="4.3026">
        <ele>332</ele>
        <time>2014-07-14T09:10:45Z</time>
      </trkpt>
      <trkpt lat="44.38543" lon="4.30349">
        <ele>335</ele>
        <time>2014-07-14T09:11:10Z</time>
      </trkpt>
      <trkpt lat="44.3855" lon="4.30532">
        <ele>341</ele>
        <time>2014-07-14T09:11:50Z</time>
      </trkpt>
      <trkpt lat="44.38555" lon="4.30562">
        <ele>341</ele>
        <time>2014-07-14T09:11:56Z</time>
      </trkpt>
      <trkpt lat="44.38568" lon="4.3062">
        <ele>346</ele>
        <time>2014-07-14T09:12:10Z</time>
      </trkpt>
      <trkpt lat="44.38573" lon="4.30712">
        <ele>351</ele>
        <time>2014-07-14T09:12:39Z</time>
      </trkpt>
      <trkpt lat="44.38584" lon="4.30791">
        <ele>347</ele>
        <time>2014-07-14T09:13:03Z</time>
      </trkpt>
      <trkpt lat="44.38607" lon="4.30862">
        <ele>353</ele>
        <time>2014-07-14T09:13:29Z</time>
      </trkpt>
      <trkpt lat="44.38602" lon="4.30893">
        <ele>355</ele>
        <time>2014-07-14T09:13:41Z</time>
      </trkpt>
      <trkpt lat="44.38595" lon="4.30924">
        <ele>361</ele>
        <time>2014-07-14T09:13:53Z</time>
      </trkpt>
      <trkpt lat="44.3865" lon="4.30963">
        <ele>361</ele>
        <time>2014-07-14T09:14:18Z</time>
      </trkpt>
      <trkpt lat="44.38669" lon="4.3103">
        <ele>360</ele>
        <time>2014-07-14T09:14:40Z</time>
      </trkpt>
      <trkpt lat="44.38713" lon="4.31104">
        <ele>365</ele>
        <time>2014-07-14T09:15:02Z</time>
      </trkpt>
      <trkpt lat="44.38772" lon="4.31198">
        <ele>364</ele>
        <time>2014-07-14T09:15:33Z</time>
      </trkpt>
      <trkpt lat="44.38828" lon="4.31269">
        <ele>369</ele>
        <time>2014-07-14T09:15:52Z</time>
      </trkpt>
      <trkpt lat="44.38849" lon="4.31249">
        <ele>360</ele>
        <time>2014-07-14T09:16:01Z</time>
      </trkpt>
      <trkpt lat="44.38896" lon="4.31208">
        <ele>358</ele>
        <time>2014-07-14T09:16:15Z</time>
      </trkpt>
      <trkpt lat="44.38955" lon="4.3123">
        <ele>358</ele>
        <time>2014-07-14T09:16:29Z</time>
      </trkpt>
      <trkpt lat="44.39053" lon="4.31275">
        <ele>359</ele>
        <time>2014-07-14T09:16:49Z</time>
      </trkpt>
      <trkpt lat="44.39119" lon="4.313">
        <ele>358</ele>
        <time>2014-07-14T09:17:02Z</time>
      </trkpt>
      <trkpt lat="44.39124" lon="4.31301">
        <ele>358</ele>
        <time>2014-07-14T09:17:03Z</time>
      </trkpt>
      <trkpt lat="44.39134" lon="4.31298">
        <ele>357</ele>
        <time>2014-07-14T09:17:07Z</time>
      </trkpt>
      <trkpt lat="44.3918" lon="4.31296">
        <ele>357</ele>
        <time>2014-07-14T09:17:38Z</time>
      </trkpt>
      <trkpt lat="44.3924" lon="4.31298">
        <ele>357</ele>
        <time>2014-07-14T09:17:53Z</time>
      </trkpt>
      <trkpt lat="44.39346" lon="4.31294">
        <ele>352</ele>
        <time>2014-07-14T09:18:18Z</time>
      </trkpt>
      <trkpt lat="44.39419" lon="4.31323">
        <ele>348</ele>
        <time>2014-07-14T09:18:31Z</time>
      </trkpt>
      <trkpt lat="44.39439" lon="4.31329">
        <ele>347</ele>
        <time>2014-07-14T09:18:34Z</time>
      </trkpt>
      <trkpt lat="44.39475" lon="4.31341">
        <ele>346</ele>
        <time>2014-07-14T09:18:40Z</time>
      </trkpt>
      <trkpt lat="44.39537" lon="4.31352">
        <ele>344</ele>
        <time>2014-07-14T09:18:51Z</time>
      </trkpt>
      <trkpt lat="44.39608" lon="4.31346">
        <ele>341</ele>
        <time>2014-07-14T09:19:02Z</time>
      </trkpt>
      <trkpt lat="44.39656" lon="4.3135">
        <ele>340</ele>
        <time>2014-07-14T09:19:19Z</time>
      </trkpt>
      <trkpt lat="44.39656" lon="4.3135">
        <ele>340</ele>
        <time>2014-07-14T09:19:20Z</time>
      </trkpt>
      <trkpt lat="44.39653" lon="4.31396">
        <ele>340</ele>
        <time>2014-07-14T09:19:37Z</time>
      </trkpt>
      <trkpt lat="44.39664" lon="4.31445">
        <ele>338</ele>
        <time>2014-07-14T09:19:46Z</time>
      </trkpt>
      <trkpt lat="44.39689" lon="4.31546">
        <ele>335</ele>
        <time>2014-07-14T09:19:58Z</time>
      </trkpt>
      <trkpt lat="44.39751" lon="4.31641">
        <ele>330</ele>
        <time>2014-07-14T09:20:16Z</time>
      </trkpt>
      <trkpt lat="44.39801" lon="4.31671">
        <ele>327</ele>
        <time>2014-07-14T09:20:32Z</time>
      </trkpt>
      <trkpt lat="44.39809" lon="4.31671">
        <ele>327</ele>
        <time>2014-07-14T09:20:34Z</time>
      </trkpt>
      <trkpt lat="44.39877" lon="4.31756">
        <ele>325</ele>
        <time>2014-07-14T09:20:52Z</time>
      </trkpt>
      <trkpt lat="44.39908" lon="4.31886">
        <ele>323</ele>
        <time>2014-07-14T09:21:12Z</time>
      </trkpt>
      <trkpt lat="44.39911" lon="4.31946">
        <ele>322</ele>
        <time>2014-07-14T09:21:20Z</time>
      </trkpt>
      <trkpt lat="44.39946" lon="4.31989">
        <ele>321</ele>
        <time>2014-07-14T09:21:28Z</time>
      </trkpt>
      <trkpt lat="44.39947" lon="4.32083">
        <ele>319</ele>
        <time>2014-07-14T09:21:40Z</time>
      </trkpt>
      <trkpt lat="44.39972" lon="4.32154">
        <ele>317</ele>
        <time>2014-07-14T09:21:53Z</time>
      </trkpt>
      <trkpt lat="44.40035" lon="4.32232">
        <ele>314</ele>
        <time>2014-07-14T09:22:07Z</time>
      </trkpt>
      <trkpt lat="44.40094" lon="4.32275">
        <ele>309</ele>
        <time>2014-07-14T09:22:19Z</time>
      </trkpt>
      <trkpt lat="44.40115" lon="4.32339">
        <ele>313</ele>
        <time>2014-07-14T09:22:36Z</time>
      </trkpt>
      <trkpt lat="44.40105" lon="4.32448">
        <ele>319</ele>
        <time>2014-07-14T09:23:04Z</time>
      </trkpt>
      <trkpt lat="44.40118" lon="4.32512">
        <ele>324</ele>
        <time>2014-07-14T09:23:26Z</time>
      </trkpt>
      <trkpt lat="44.40123" lon="4.32544">
        <ele>324</ele>
        <time>2014-07-14T09:23:38Z</time>
      </trkpt>
      <trkpt lat="44.40109" lon="4.32598">
        <ele>327</ele>
        <time>2014-07-14T09:23:57Z</time>
      </trkpt>
      <trkpt lat="44.40096" lon="4.32643">
        <ele>329</ele>
        <time>2014-07-14T09:24:12Z</time>
      </trkpt>
      <trkpt lat="44.40109" lon="4.32682">
        <ele>332</ele>
        <time>2014-07-14T09:24:26Z</time>
      </trkpt>
      <trkpt lat="44.40147" lon="4.32653">
        <ele>328</ele>
        <time>2014-07-14T09:24:54Z</time>
      </trkpt>
      <trkpt lat="44.40188" lon="4.32641">
        <ele>326</ele>
        <time>2014-07-14T09:25:05Z</time>
      </trkpt>
      <trkpt lat="44.40188" lon="4.32656">
        <ele>326</ele>
        <time>2014-07-14T09:25:09Z</time>
      </trkpt>
      <trkpt lat="44.40157" lon="4.32742">
        <ele>333</ele>
        <time>2014-07-14T09:25:34Z</time>
      </trkpt>
      <trkpt lat="44.40142" lon="4.32781">
        <ele>336</ele>
        <time>2014-07-14T09:25:46Z</time>
      </trkpt>
      <trkpt lat="44.40091" lon="4.32872">
        <ele>340</ele>
        <time>2014-07-14T09:26:16Z</time>
      </trkpt>
      <trkpt lat="44.40062" lon="4.32933">
        <ele>346</ele>
        <time>2014-07-14T09:26:32Z</time>
      </trkpt>
      <trkpt lat="44.40024" lon="4.33005">
        <ele>347</ele>
        <time>2014-07-14T09:26:57Z</time>
      </trkpt>
      <trkpt lat="44.40013" lon="4.33017">
        <ele>348</ele>
        <time>2014-07-14T09:27:17Z</time>
      </trkpt>
      <trkpt lat="44.4001" lon="4.33013">
        <ele>349</ele>
        <time>2014-07-14T09:29:14Z</time>
      </trkpt>
      <trkpt lat="44.40015" lon="4.3302">
        <ele>347</ele>
        <time>2014-07-14T09:29:57Z</time>
      </trkpt>
      <trkpt lat="44.40015" lon="4.33021">
        <ele>347</ele>
        <time>2014-07-14T09:31:08Z</time>
      </trkpt>
      <trkpt lat="44.40016" lon="4.33027">
        <ele>346</ele>
        <time>2014-07-14T09:31:12Z</time>
      </trkpt>
      <trkpt lat="44.39976" lon="4.33086">
        <ele>343</ele>
        <time>2014-07-14T09:31:38Z</time>
      </trkpt>
      <trkpt lat="44.39888" lon="4.33101">
        <ele>346</ele>
        <time>2014-07-14T09:32:00Z</time>
      </trkpt>
      <trkpt lat="44.39737" lon="4.33087">
        <ele>353</ele>
        <time>2014-07-14T09:32:40Z</time>
      </trkpt>
      <trkpt lat="44.39645" lon="4.33147">
        <ele>353</ele>
        <time>2014-07-14T09:33:05Z</time>
      </trkpt>
      <trkpt lat="44.39602" lon="4.3315">
        <ele>353</ele>
        <time>2014-07-14T09:33:12Z</time>
      </trkpt>
      <trkpt lat="44.39586" lon="4.33163">
        <ele>350</ele>
        <time>2014-07-14T09:33:18Z</time>
      </trkpt>
      <trkpt lat="44.3959" lon="4.33169">
        <ele>350</ele>
        <time>2014-07-14T09:33:20Z</time>
      </trkpt>
      <trkpt lat="44.39639" lon="4.33202">
        <ele>353</ele>
        <time>2014-07-14T09:33:36Z</time>
      </trkpt>
      <trkpt lat="44.39733" lon="4.33182">
        <ele>345</ele>
        <time>2014-07-14T09:34:00Z</time>
      </trkpt>
      <trkpt lat="44.39821" lon="4.33234">
        <ele>338</ele>
        <time>2014-07-14T09:34:22Z</time>
      </trkpt>
      <trkpt lat="44.39831" lon="4.33241">
        <ele>338</ele>
        <time>2014-07-14T09:35:04Z</time>
      </trkpt>
      <trkpt lat="44.3983" lon="4.33236">
        <ele>338</ele>
        <time>2014-07-14T09:36:47Z</time>
      </trkpt>
      <trkpt lat="44.39774" lon="4.33195">
        <ele>340</ele>
        <time>2014-07-14T09:37:06Z</time>
      </trkpt>
      <trkpt lat="44.39729" lon="4.33181">
        <ele>345</ele>
        <time>2014-07-14T09:37:20Z</time>
      </trkpt>
      <trkpt lat="44.39689" lon="4.33191">
        <ele>348</ele>
        <time>2014-07-14T09:37:34Z</time>
      </trkpt>
      <trkpt lat="44.39639" lon="4.332">
        <ele>353</ele>
        <time>2014-07-14T09:37:48Z</time>
      </trkpt>
      <trkpt lat="44.39583" lon="4.3316">
        <ele>352</ele>
        <time>2014-07-14T09:38:07Z</time>
      </trkpt>
      <trkpt lat="44.39593" lon="4.3315">
        <ele>353</ele>
        <time>2014-07-14T09:38:13Z</time>
      </trkpt>
      <trkpt lat="44.39652" lon="4.33142">
        <ele>353</ele>
        <time>2014-07-14T09:38:39Z</time>
      </trkpt>
      <trkpt lat="44.3965" lon="4.33134">
        <ele>354</ele>
        <time>2014-07-14T09:38:47Z</time>
      </trkpt>
      <trkpt lat="44.39629" lon="4.33134">
        <ele>355</ele>
        <time>2014-07-14T09:38:58Z</time>
      </trkpt>
      <trkpt lat="44.39628" lon="4.33133">
        <ele>355</ele>
        <time>2014-07-14T09:38:59Z</time>
      </trkpt>
      <trkpt lat="44.39603" lon="4.33091">
        <ele>359</ele>
        <time>2014-07-14T09:39:19Z</time>
      </trkpt>
      <trkpt lat="44.39576" lon="4.3306">
        <ele>370</ele>
        <time>2014-07-14T09:39:38Z</time>
      </trkpt>
      <trkpt lat="44.39516" lon="4.33026">
        <ele>374</ele>
        <time>2014-07-14T09:40:08Z</time>
      </trkpt>
      <trkpt lat="44.39476" lon="4.33011">
        <ele>377</ele>
        <time>2014-07-14T09:40:27Z</time>
      </trkpt>
      <trkpt lat="44.39436" lon="4.33001">
        <ele>380</ele>
        <time>2014-07-14T09:40:47Z</time>
      </trkpt>
      <trkpt lat="44.39388" lon="4.32999">
        <ele>394</ele>
        <time>2014-07-14T09:41:13Z</time>
      </trkpt>
      <trkpt lat="44.39384" lon="4.33016">
        <ele>388</ele>
        <time>2014-07-14T09:41:23Z</time>
      </trkpt>
      <trkpt lat="44.39398" lon="4.33054">
        <ele>386</ele>
        <time>2014-07-14T09:41:41Z</time>
      </trkpt>
      <trkpt lat="44.39403" lon="4.33074">
        <ele>383</ele>
        <time>2014-07-14T09:41:51Z</time>
      </trkpt>
      <trkpt lat="44.3938" lon="4.3307">
        <ele>387</ele>
        <time>2014-07-14T09:42:09Z</time>
      </trkpt>
      <trkpt lat="44.39357" lon="4.33064">
        <ele>389</ele>
        <time>2014-07-14T09:42:24Z</time>
      </trkpt>
      <trkpt lat="44.39326" lon="4.33054">
        <ele>401</ele>
        <time>2014-07-14T09:42:45Z</time>
      </trkpt>
      <trkpt lat="44.39322" lon="4.33053">
        <ele>401</ele>
        <time>2014-07-14T09:42:48Z</time>
      </trkpt>
      <trkpt lat="44.39307" lon="4.33067">
        <ele>402</ele>
        <time>2014-07-14T09:43:03Z</time>
      </trkpt>
      <trkpt lat="44.39284" lon="4.33072">
        <ele>406</ele>
        <time>2014-07-14T09:43:47Z</time>
      </trkpt>
      <trkpt lat="44.39266" lon="4.33081">
        <ele>410</ele>
        <time>2014-07-14T09:44:11Z</time>
      </trkpt>
      <trkpt lat="44.3924" lon="4.33127">
        <ele>417</ele>
        <time>2014-07-14T09:45:01Z</time>
      </trkpt>
      <trkpt lat="44.39209" lon="4.33188">
        <ele>413</ele>
        <time>2014-07-14T09:45:26Z</time>
      </trkpt>
      <trkpt lat="44.39199" lon="4.33222">
        <ele>412</ele>
        <time>2014-07-14T09:45:42Z</time>
      </trkpt>
      <trkpt lat="44.39186" lon="4.33227">
        <ele>412</ele>
        <time>2014-07-14T09:46:02Z</time>
      </trkpt>
      <trkpt lat="44.39175" lon="4.33207">
        <ele>413</ele>
        <time>2014-07-14T09:46:23Z</time>
      </trkpt>
      <trkpt lat="44.39176" lon="4.33207">
        <ele>413</ele>
        <time>2014-07-14T09:46:30Z</time>
      </trkpt>
      <trkpt lat="44.39177" lon="4.33167">
        <ele>420</ele>
        <time>2014-07-14T09:46:48Z</time>
      </trkpt>
      <trkpt lat="44.39179" lon="4.33109">
        <ele>424</ele>
        <time>2014-07-14T09:47:12Z</time>
      </trkpt>
      <trkpt lat="44.39181" lon="4.33062">
        <ele>429</ele>
        <time>2014-07-14T09:47:34Z</time>
      </trkpt>
      <trkpt lat="44.39182" lon="4.33059">
        <ele>429</ele>
        <time>2014-07-14T09:47:36Z</time>
      </trkpt>
      <trkpt lat="44.39167" lon="4.33003">
        <ele>436</ele>
        <time>2014-07-14T09:48:04Z</time>
      </trkpt>
      <trkpt lat="44.39159" lon="4.32958">
        <ele>428</ele>
        <time>2014-07-14T09:48:33Z</time>
      </trkpt>
      <trkpt lat="44.39183" lon="4.32913">
        <ele>436</ele>
        <time>2014-07-14T09:48:58Z</time>
      </trkpt>
      <trkpt lat="44.39193" lon="4.32889">
        <ele>437</ele>
        <time>2014-07-14T09:49:09Z</time>
      </trkpt>
      <trkpt lat="44.39196" lon="4.32872">
        <ele>438</ele>
        <time>2014-07-14T09:49:21Z</time>
      </trkpt>
      <trkpt lat="44.392" lon="4.32848">
        <ele>439</ele>
        <time>2014-07-14T09:49:48Z</time>
      </trkpt>
      <trkpt lat="44.39207" lon="4.32815">
        <ele>446</ele>
        <time>2014-07-14T09:50:24Z</time>
      </trkpt>
      <trkpt lat="44.39205" lon="4.32787">
        <ele>447</ele>
        <time>2014-07-14T09:51:02Z</time>
      </trkpt>
      <trkpt lat="44.39203" lon="4.32778">
        <ele>447</ele>
        <time>2014-07-14T09:51:16Z</time>
      </trkpt>
      <trkpt lat="44.3921" lon="4.32774">
        <ele>448</ele>
        <time>2014-07-14T09:51:47Z</time>
      </trkpt>
      <trkpt lat="44.3921" lon="4.32774">
        <ele>448</ele>
        <time>2014-07-14T09:52:46Z</time>
      </trkpt>
      <trkpt lat="44.39194" lon="4.32753">
        <ele>448</ele>
        <time>2014-07-14T09:52:55Z</time>
      </trkpt>
      <trkpt lat="44.39159" lon="4.32706">
        <ele>440</ele>
        <time>2014-07-14T09:53:12Z</time>
      </trkpt>
      <trkpt lat="44.3915" lon="4.32681">
        <ele>441</ele>
        <time>2014-07-14T09:53:19Z</time>
      </trkpt>
      <trkpt lat="44.39143" lon="4.32665">
        <ele>447</ele>
        <time>2014-07-14T09:53:35Z</time>
      </trkpt>
      <trkpt lat="44.39143" lon="4.32664">
        <ele>447</ele>
        <time>2014-07-14T09:55:09Z</time>
      </trkpt>
      <trkpt lat="44.3914" lon="4.32664">
        <ele>447</ele>
        <time>2014-07-14T09:57:23Z</time>
      </trkpt>
      <trkpt lat="44.39124" lon="4.32659">
        <ele>446</ele>
        <time>2014-07-14T09:57:31Z</time>
      </trkpt>
      <trkpt lat="44.39077" lon="4.32619">
        <ele>447</ele>
        <time>2014-07-14T09:57:52Z</time>
      </trkpt>
      <trkpt lat="44.39034" lon="4.32602">
        <ele>446</ele>
        <time>2014-07-14T09:58:12Z</time>
      </trkpt>
      <trkpt lat="44.39015" lon="4.32591">
        <ele>448</ele>
        <time>2014-07-14T09:58:22Z</time>
      </trkpt>
      <trkpt lat="44.38994" lon="4.3258">
        <ele>454</ele>
        <time>2014-07-14T09:58:35Z</time>
      </trkpt>
      <trkpt lat="44.38977" lon="4.32564">
        <ele>457</ele>
        <time>2014-07-14T09:58:47Z</time>
      </trkpt>
      <trkpt lat="44.3893" lon="4.3252">
        <ele>462</ele>
        <time>2014-07-14T09:59:11Z</time>
      </trkpt>
      <trkpt lat="44.38867" lon="4.32507">
        <ele>447</ele>
        <time>2014-07-14T09:59:33Z</time>
      </trkpt>
      <trkpt lat="44.38859" lon="4.32507">
        <ele>446</ele>
        <time>2014-07-14T09:59:37Z</time>
      </trkpt>
      <trkpt lat="44.38837" lon="4.32483">
        <ele>460</ele>
        <time>2014-07-14T09:59:49Z</time>
      </trkpt>
      <trkpt lat="44.38821" lon="4.32458">
        <ele>456</ele>
        <time>2014-07-14T09:59:55Z</time>
      </trkpt>
      <trkpt lat="44.38777" lon="4.32449">
        <ele>454</ele>
        <time>2014-07-14T10:00:16Z</time>
      </trkpt>
      <trkpt lat="44.38717" lon="4.32444">
        <ele>444</ele>
        <time>2014-07-14T10:00:37Z</time>
      </trkpt>
      <trkpt lat="44.38712" lon="4.32442">
        <ele>444</ele>
        <time>2014-07-14T10:00:39Z</time>
      </trkpt>
      <trkpt lat="44.38693" lon="4.32449">
        <ele>442</ele>
        <time>2014-07-14T10:00:47Z</time>
      </trkpt>
      <trkpt lat="44.38682" lon="4.32448">
        <ele>442</ele>
        <time>2014-07-14T10:00:50Z</time>
      </trkpt>
      <trkpt lat="44.38658" lon="4.32446">
        <ele>433</ele>
        <time>2014-07-14T10:00:57Z</time>
      </trkpt>
      <trkpt lat="44.38644" lon="4.32448">
        <ele>431</ele>
        <time>2014-07-14T10:01:01Z</time>
      </trkpt>
      <trkpt lat="44.38605" lon="4.32453">
        <ele>425</ele>
        <time>2014-07-14T10:01:12Z</time>
      </trkpt>
      <trkpt lat="44.38602" lon="4.32452">
        <ele>425</ele>
        <time>2014-07-14T10:01:13Z</time>
      </trkpt>
      <trkpt lat="44.38598" lon="4.32443">
        <ele>426</ele>
        <time>2014-07-14T10:01:16Z</time>
      </trkpt>
      <trkpt lat="44.38591" lon="4.32407">
        <ele>435</ele>
        <time>2014-07-14T10:01:26Z</time>
      </trkpt>
      <trkpt lat="44.38586" lon="4.32387">
        <ele>442</ele>
        <time>2014-07-14T10:01:32Z</time>
      </trkpt>
      <trkpt lat="44.3857" lon="4.32355">
        <ele>429</ele>
        <time>2014-07-14T10:01:46Z</time>
      </trkpt>
      <trkpt lat="44.38558" lon="4.32349">
        <ele>426</ele>
        <time>2014-07-14T10:01:50Z</time>
      </trkpt>
      <trkpt lat="44.38544" lon="4.32338">
        <ele>423</ele>
        <time>2014-07-14T10:02:14Z</time>
      </trkpt>
      <trkpt lat="44.3854" lon="4.32335">
        <ele>421</ele>
        <time>2014-07-14T10:02:20Z</time>
      </trkpt>
      <trkpt lat="44.3853" lon="4.32324">
        <ele>430</ele>
        <time>2014-07-14T10:02:27Z</time>
      </trkpt>
      <trkpt lat="44.3851" lon="4.32277">
        <ele>432</ele>
        <time>2014-07-14T10:02:40Z</time>
      </trkpt>
      <trkpt lat="44.38496" lon="4.32247">
        <ele>426</ele>
        <time>2014-07-14T10:02:45Z</time>
      </trkpt>
      <trkpt lat="44.38474" lon="4.32193">
        <ele>429</ele>
        <time>2014-07-14T10:02:57Z</time>
      </trkpt>
      <trkpt lat="44.38471" lon="4.3219">
        <ele>428</ele>
        <time>2014-07-14T10:02:58Z</time>
      </trkpt>
      <trkpt lat="44.38452" lon="4.32189">
        <ele>425</ele>
        <time>2014-07-14T10:03:02Z</time>
      </trkpt>
      <trkpt lat="44.38411" lon="4.32186">
        <ele>413</ele>
        <time>2014-07-14T10:03:12Z</time>
      </trkpt>
      <trkpt lat="44.38388" lon="4.32192">
        <ele>408</ele>
        <time>2014-07-14T10:03:16Z</time>
      </trkpt>
      <trkpt lat="44.38383" lon="4.32192">
        <ele>407</ele>
        <time>2014-07-14T10:03:17Z</time>
      </trkpt>
      <trkpt lat="44.38358" lon="4.32196">
        <ele>404</ele>
        <time>2014-07-14T10:03:23Z</time>
      </trkpt>
      <trkpt lat="44.38339" lon="4.322">
        <ele>403</ele>
        <time>2014-07-14T10:03:27Z</time>
      </trkpt>
      <trkpt lat="44.38324" lon="4.32201">
        <ele>392</ele>
        <time>2014-07-14T10:03:30Z</time>
      </trkpt>
      <trkpt lat="44.38316" lon="4.32198">
        <ele>392</ele>
        <time>2014-07-14T10:03:50Z</time>
      </trkpt>
      <trkpt lat="44.38314" lon="4.32198">
        <ele>391</ele>
        <time>2014-07-14T10:05:34Z</time>
      </trkpt>
      <trkpt lat="44.38296" lon="4.32207">
        <ele>388</ele>
        <time>2014-07-14T10:05:40Z</time>
      </trkpt>
      <trkpt lat="44.38293" lon="4.3221">
        <ele>388</ele>
        <time>2014-07-14T10:05:41Z</time>
      </trkpt>
      <trkpt lat="44.38276" lon="4.32223">
        <ele>385</ele>
        <time>2014-07-14T10:05:46Z</time>
      </trkpt>
      <trkpt lat="44.38272" lon="4.32225">
        <ele>385</ele>
        <time>2014-07-14T10:05:47Z</time>
      </trkpt>
      <trkpt lat="44.38255" lon="4.32241">
        <ele>380</ele>
        <time>2014-07-14T10:05:51Z</time>
      </trkpt>
      <trkpt lat="44.38234" lon="4.32258">
        <ele>371</ele>
        <time>2014-07-14T10:05:55Z</time>
      </trkpt>
      <trkpt lat="44.38221" lon="4.32271">
        <ele>368</ele>
        <time>2014-07-14T10:05:58Z</time>
      </trkpt>
      <trkpt lat="44.38214" lon="4.32279">
        <ele>367</ele>
        <time>2014-07-14T10:06:00Z</time>
      </trkpt>
      <trkpt lat="44.38201" lon="4.32293">
        <ele>366</ele>
        <time>2014-07-14T10:06:04Z</time>
      </trkpt>
      <trkpt lat="44.38192" lon="4.32301">
        <ele>365</ele>
        <time>2014-07-14T10:06:07Z</time>
      </trkpt>
      <trkpt lat="44.38174" lon="4.32322">
        <ele>363</ele>
        <time>2014-07-14T10:06:12Z</time>
      </trkpt>
      <trkpt lat="44.38167" lon="4.32329">
        <ele>363</ele>
        <time>2014-07-14T10:06:14Z</time>
      </trkpt>
      <trkpt lat="44.3815" lon="4.32352">
        <ele>354</ele>
        <time>2014-07-14T10:06:20Z</time>
      </trkpt>
      <trkpt lat="44.38133" lon="4.32377">
        <ele>351</ele>
        <time>2014-07-14T10:06:26Z</time>
      </trkpt>
      <trkpt lat="44.38121" lon="4.32404">
        <ele>350</ele>
        <time>2014-07-14T10:06:35Z</time>
      </trkpt>
      <trkpt lat="44.38167" lon="4.32394">
        <ele>351</ele>
        <time>2014-07-14T10:06:49Z</time>
      </trkpt>
      <trkpt lat="44.38194" lon="4.32387">
        <ele>351</ele>
        <time>2014-07-14T10:06:54Z</time>
      </trkpt>
      <trkpt lat="44.38219" lon="4.32386">
        <ele>350</ele>
        <time>2014-07-14T10:06:58Z</time>
      </trkpt>
      <trkpt lat="44.3826" lon="4.32386">
        <ele>350</ele>
        <time>2014-07-14T10:07:04Z</time>
      </trkpt>
      <trkpt lat="44.38281" lon="4.32388">
        <ele>352</ele>
        <time>2014-07-14T10:07:07Z</time>
      </trkpt>
      <trkpt lat="44.3829" lon="4.32404">
        <ele>351</ele>
        <time>2014-07-14T10:07:12Z</time>
      </trkpt>
      <trkpt lat="44.38268" lon="4.32411">
        <ele>346</ele>
        <time>2014-07-14T10:07:18Z</time>
      </trkpt>
      <trkpt lat="44.38217" lon="4.32431">
        <ele>334</ele>
        <time>2014-07-14T10:07:27Z</time>
      </trkpt>
      <trkpt lat="44.38179" lon="4.32473">
        <ele>330</ele>
        <time>2014-07-14T10:07:36Z</time>
      </trkpt>
      <trkpt lat="44.38166" lon="4.3249">
        <ele>326</ele>
        <time>2014-07-14T10:07:39Z</time>
      </trkpt>
      <trkpt lat="44.38149" lon="4.32515">
        <ele>317</ele>
        <time>2014-07-14T10:07:43Z</time>
      </trkpt>
      <trkpt lat="44.38133" lon="4.32541">
        <ele>314</ele>
        <time>2014-07-14T10:07:47Z</time>
      </trkpt>
      <trkpt lat="44.38125" lon="4.32553">
        <ele>313</ele>
        <time>2014-07-14T10:08:04Z</time>
      </trkpt>
      <trkpt lat="44.38114" lon="4.32566">
        <ele>311</ele>
        <time>2014-07-14T10:08:42Z</time>
      </trkpt>
      <trkpt lat="44.38095" lon="4.32585">
        <ele>300</ele>
        <time>2014-07-14T10:08:46Z</time>
      </trkpt>
      <trkpt lat="44.3809" lon="4.32588">
        <ele>301</ele>
        <time>2014-07-14T10:08:47Z</time>
      </trkpt>
      <trkpt lat="44.38044" lon="4.3261">
        <ele>294</ele>
        <time>2014-07-14T10:08:55Z</time>
      </trkpt>
      <trkpt lat="44.38023" lon="4.32615">
        <ele>294</ele>
        <time>2014-07-14T10:08:58Z</time>
      </trkpt>
      <trkpt lat="44.37933" lon="4.32546">
        <ele>294</ele>
        <time>2014-07-14T10:09:19Z</time>
      </trkpt>
      <trkpt lat="44.37925" lon="4.32497">
        <ele>294</ele>
        <time>2014-07-14T10:09:30Z</time>
      </trkpt>
      <trkpt lat="44.37929" lon="4.3247">
        <ele>302</ele>
        <time>2014-07-14T10:09:34Z</time>
      </trkpt>
      <trkpt lat="44.37935" lon="4.32434">
        <ele>305</ele>
        <time>2014-07-14T10:09:39Z</time>
      </trkpt>
      <trkpt lat="44.37939" lon="4.32397">
        <ele>311</ele>
        <time>2014-07-14T10:09:53Z</time>
      </trkpt>
      <trkpt lat="44.37891" lon="4.32458">
        <ele>297</ele>
        <time>2014-07-14T10:10:16Z</time>
      </trkpt>
      <trkpt lat="44.37871" lon="4.32483">
        <ele>295</ele>
        <time>2014-07-14T10:10:26Z</time>
      </trkpt>
      <trkpt lat="44.37803" lon="4.32541">
        <ele>286</ele>
        <time>2014-07-14T10:10:55Z</time>
      </trkpt>
      <trkpt lat="44.37767" lon="4.32631">
        <ele>277</ele>
        <time>2014-07-14T10:11:14Z</time>
      </trkpt>
      <trkpt lat="44.37749" lon="4.32697">
        <ele>280</ele>
        <time>2014-07-14T10:11:26Z</time>
      </trkpt>
      <trkpt lat="44.37726" lon="4.32767">
        <ele>280</ele>
        <time>2014-07-14T10:11:37Z</time>
      </trkpt>
      <trkpt lat="44.37727" lon="4.32774">
        <ele>279</ele>
        <time>2014-07-14T10:11:39Z</time>
      </trkpt>
      <trkpt lat="44.37732" lon="4.32799">
        <ele>279</ele>
        <time>2014-07-14T10:12:18Z</time>
      </trkpt>
      <trkpt lat="44.37737" lon="4.32814">
        <ele>279</ele>
        <time>2014-07-14T10:12:29Z</time>
      </trkpt>
      <trkpt lat="44.37735" lon="4.3284">
        <ele>278</ele>
        <time>2014-07-14T10:12:36Z</time>
      </trkpt>
      <trkpt lat="44.3773" lon="4.32905">
        <ele>278</ele>
        <time>2014-07-14T10:12:59Z</time>
      </trkpt>
      <trkpt lat="44.37761" lon="4.32913">
        <ele>273</ele>
        <time>2014-07-14T10:13:15Z</time>
      </trkpt>
      <trkpt lat="44.37784" lon="4.32938">
        <ele>271</ele>
        <time>2014-07-14T10:13:25Z</time>
      </trkpt>
      <trkpt lat="44.37797" lon="4.32953">
        <ele>271</ele>
        <time>2014-07-14T10:13:33Z</time>
      </trkpt>
      <trkpt lat="44.37804" lon="4.33013">
        <ele>273</ele>
        <time>2014-07-14T10:13:54Z</time>
      </trkpt>
      <trkpt lat="44.37825" lon="4.33076">
        <ele>275</ele>
        <time>2014-07-14T10:14:18Z</time>
      </trkpt>
      <trkpt lat="44.37829" lon="4.33196">
        <ele>276</ele>
        <time>2014-07-14T10:14:45Z</time>
      </trkpt>
      <trkpt lat="44.37836" lon="4.33236">
        <ele>275</ele>
        <time>2014-07-14T10:14:57Z</time>
      </trkpt>
      <trkpt lat="44.37842" lon="4.33338">
        <ele>278</ele>
        <time>2014-07-14T10:15:25Z</time>
      </trkpt>
      <trkpt lat="44.37821" lon="4.33432">
        <ele>277</ele>
        <time>2014-07-14T10:15:51Z</time>
      </trkpt>
      <trkpt lat="44.37845" lon="4.33465">
        <ele>272</ele>
        <time>2014-07-14T10:16:13Z</time>
      </trkpt>
      <trkpt lat="44.37844" lon="4.33465">
        <ele>272</ele>
        <time>2014-07-14T10:16:16Z</time>
      </trkpt>
      <trkpt lat="44.37817" lon="4.33455">
        <ele>276</ele>
        <time>2014-07-14T10:16:32Z</time>
      </trkpt>
      <trkpt lat="44.37816" lon="4.33458">
        <ele>276</ele>
        <time>2014-07-14T10:16:33Z</time>
      </trkpt>
      <trkpt lat="44.37799" lon="4.33494">
        <ele>276</ele>
        <time>2014-07-14T10:16:40Z</time>
      </trkpt>
      <trkpt lat="44.37778" lon="4.33578">
        <ele>273</ele>
        <time>2014-07-14T10:16:54Z</time>
      </trkpt>
      <trkpt lat="44.37752" lon="4.33619">
        <ele>271</ele>
        <time>2014-07-14T10:17:01Z</time>
      </trkpt>
      <trkpt lat="44.3775" lon="4.33625">
        <ele>271</ele>
        <time>2014-07-14T10:17:02Z</time>
      </trkpt>
      <trkpt lat="44.37753" lon="4.33639">
        <ele>270</ele>
        <time>2014-07-14T10:17:06Z</time>
      </trkpt>
      <trkpt lat="44.37783" lon="4.33662">
        <ele>270</ele>
        <time>2014-07-14T10:17:14Z</time>
      </trkpt>
      <trkpt lat="44.37854" lon="4.33718">
        <ele>258</ele>
        <time>2014-07-14T10:17:30Z</time>
      </trkpt>
      <trkpt lat="44.37905" lon="4.3372">
        <ele>257</ele>
        <time>2014-07-14T10:17:42Z</time>
      </trkpt>
      <trkpt lat="44.37947" lon="4.3374">
        <ele>250</ele>
        <time>2014-07-14T10:17:51Z</time>
      </trkpt>
      <trkpt lat="44.37977" lon="4.33765">
        <ele>246</ele>
        <time>2014-07-14T10:17:57Z</time>
      </trkpt>
      <trkpt lat="44.38003" lon="4.33783">
        <ele>237</ele>
        <time>2014-07-14T10:18:02Z</time>
      </trkpt>
      <trkpt lat="44.38024" lon="4.33804">
        <ele>234</ele>
        <time>2014-07-14T10:18:06Z</time>
      </trkpt>
      <trkpt lat="44.38041" lon="4.33826">
        <ele>232</ele>
        <time>2014-07-14T10:18:10Z</time>
      </trkpt>
      <trkpt lat="44.38051" lon="4.33837">
        <ele>229</ele>
        <time>2014-07-14T10:18:12Z</time>
      </trkpt>
      <trkpt lat="44.3807" lon="4.33866">
        <ele>229</ele>
        <time>2014-07-14T10:18:17Z</time>
      </trkpt>
      <trkpt lat="44.38079" lon="4.33886">
        <ele>229</ele>
        <time>2014-07-14T10:18:20Z</time>
      </trkpt>
      <trkpt lat="44.38089" lon="4.33909">
        <ele>228</ele>
        <time>2014-07-14T10:18:24Z</time>
      </trkpt>
      <trkpt lat="44.38104" lon="4.3397">
        <ele>225</ele>
        <time>2014-07-14T10:18:45Z</time>
      </trkpt>
      <trkpt lat="44.38103" lon="4.33981">
        <ele>226</ele>
        <time>2014-07-14T10:19:05Z</time>
      </trkpt>
      <trkpt lat="44.38116" lon="4.33994">
        <ele>225</ele>
        <time>2014-07-14T10:19:13Z</time>
      </trkpt>
      <trkpt lat="44.38115" lon="4.34016">
        <ele>220</ele>
        <time>2014-07-14T10:19:18Z</time>
      </trkpt>
      <trkpt lat="44.38109" lon="4.34046">
        <ele>218</ele>
        <time>2014-07-14T10:19:25Z</time>
      </trkpt>
      <trkpt lat="44.38113" lon="4.34062">
        <ele>216</ele>
        <time>2014-07-14T10:19:28Z</time>
      </trkpt>
      <trkpt lat="44.38122" lon="4.34084">
        <ele>206</ele>
        <time>2014-07-14T10:19:34Z</time>
      </trkpt>
      <trkpt lat="44.38118" lon="4.34106">
        <ele>205</ele>
        <time>2014-07-14T10:19:38Z</time>
      </trkpt>
      <trkpt lat="44.38136" lon="4.34145">
        <ele>202</ele>
        <time>2014-07-14T10:19:46Z</time>
      </trkpt>
      <trkpt lat="44.38141" lon="4.34169">
        <ele>195</ele>
        <time>2014-07-14T10:19:51Z</time>
      </trkpt>
      <trkpt lat="44.38157" lon="4.34207">
        <ele>193</ele>
        <time>2014-07-14T10:20:02Z</time>
      </trkpt>
      <trkpt lat="44.38158" lon="4.34212">
        <ele>193</ele>
        <time>2014-07-14T10:20:03Z</time>
      </trkpt>
      <trkpt lat="44.3816" lon="4.34217">
        <ele>192</ele>
        <time>2014-07-14T10:20:04Z</time>
      </trkpt>
      <trkpt lat="44.38177" lon="4.34266">
        <ele>183</ele>
        <time>2014-07-14T10:20:12Z</time>
      </trkpt>
      <trkpt lat="44.3819" lon="4.3431">
        <ele>179</ele>
        <time>2014-07-14T10:20:20Z</time>
      </trkpt>
      <trkpt lat="44.38197" lon="4.34357">
        <ele>175</ele>
        <time>2014-07-14T10:20:29Z</time>
      </trkpt>
      <trkpt lat="44.38198" lon="4.34372">
        <ele>174</ele>
        <time>2014-07-14T10:20:34Z</time>
      </trkpt>
      <trkpt lat="44.382" lon="4.34398">
        <ele>173</ele>
        <time>2014-07-14T10:20:40Z</time>
      </trkpt>
      <trkpt lat="44.38204" lon="4.34411">
        <ele>173</ele>
        <time>2014-07-14T10:20:51Z</time>
      </trkpt>
      <trkpt lat="44.38205" lon="4.34411">
        <ele>173</ele>
        <time>2014-07-14T10:21:35Z</time>
      </trkpt>
      <trkpt lat="44.38206" lon="4.34412">
        <ele>173</ele>
        <time>2014-07-14T10:22:11Z</time>
      </trkpt>
      <trkpt lat="44.38229" lon="4.34438">
        <ele>168</ele>
        <time>2014-07-14T10:22:21Z</time>
      </trkpt>
      <trkpt lat="44.38247" lon="4.34459">
        <ele>167</ele>
        <time>2014-07-14T10:22:27Z</time>
      </trkpt>
      <trkpt lat="44.38251" lon="4.34461">
        <ele>166</ele>
        <time>2014-07-14T10:22:28Z</time>
      </trkpt>
      <trkpt lat="44.38263" lon="4.34491">
        <ele>164</ele>
        <time>2014-07-14T10:22:35Z</time>
      </trkpt>
      <trkpt lat="44.38271" lon="4.34496">
        <ele>164</ele>
        <time>2014-07-14T10:22:38Z</time>
      </trkpt>
      <trkpt lat="44.38273" lon="4.34498">
        <ele>164</ele>
        <time>2014-07-14T10:22:39Z</time>
      </trkpt>
      <trkpt lat="44.38284" lon="4.345">
        <ele>165</ele>
        <time>2014-07-14T10:22:44Z</time>
      </trkpt>
      <trkpt lat="44.38292" lon="4.34514">
        <ele>163</ele>
        <time>2014-07-14T10:22:49Z</time>
      </trkpt>
      <trkpt lat="44.38303" lon="4.34529">
        <ele>163</ele>
        <time>2014-07-14T10:22:55Z</time>
      </trkpt>
      <trkpt lat="44.38302" lon="4.34529">
        <ele>163</ele>
        <time>2014-07-14T10:23:13Z</time>
      </trkpt>
      <trkpt lat="44.38303" lon="4.34536">
        <ele>162</ele>
        <time>2014-07-14T10:23:23Z</time>
      </trkpt>
      <trkpt lat="44.38299" lon="4.34555">
        <ele>162</ele>
        <time>2014-07-14T10:23:33Z</time>
      </trkpt>
      <trkpt lat="44.38311" lon="4.34596">
        <ele>163</ele>
        <time>2014-07-14T10:23:52Z</time>
      </trkpt>
      <trkpt lat="44.38313" lon="4.34606">
        <ele>163</ele>
        <time>2014-07-14T10:23:58Z</time>
      </trkpt>
      <trkpt lat="44.38327" lon="4.34624">
        <ele>163</ele>
        <time>2014-07-14T10:24:14Z</time>
      </trkpt>
      <trkpt lat="44.38342" lon="4.34631">
        <ele>161</ele>
        <time>2014-07-14T10:24:25Z</time>
      </trkpt>
      <trkpt lat="44.38362" lon="4.34629">
        <ele>161</ele>
        <time>2014-07-14T10:24:54Z</time>
      </trkpt>
      <trkpt lat="44.38366" lon="4.34635">
        <ele>161</ele>
        <time>2014-07-14T10:27:26Z</time>
      </trkpt>
      <trkpt lat="44.38368" lon="4.34637">
        <ele>161</ele>
        <time>2014-07-14T10:29:12Z</time>
      </trkpt>
      <trkpt lat="44.38377" lon="4.34626">
        <ele>162</ele>
        <time>2014-07-14T10:30:43Z</time>
      </trkpt>
      <trkpt lat="44.38419" lon="4.34627">
        <ele>166</ele>
        <time>2014-07-14T10:31:01Z</time>
      </trkpt>
      <trkpt lat="44.38446" lon="4.34641">
        <ele>166</ele>
        <time>2014-07-14T10:31:15Z</time>
      </trkpt>
      <trkpt lat="44.38464" lon="4.34643">
        <ele>166</ele>
        <time>2014-07-14T10:31:23Z</time>
      </trkpt>
      <trkpt lat="44.38472" lon="4.34656">
        <ele>166</ele>
        <time>2014-07-14T10:31:29Z</time>
      </trkpt>
      <trkpt lat="44.38522" lon="4.34708">
        <ele>166</ele>
        <time>2014-07-14T10:31:55Z</time>
      </trkpt>
      <trkpt lat="44.38558" lon="4.34743">
        <ele>167</ele>
        <time>2014-07-14T10:32:07Z</time>
      </trkpt>
      <trkpt lat="44.38564" lon="4.3475">
        <ele>161</ele>
        <time>2014-07-14T10:32:09Z</time>
      </trkpt>
      <trkpt lat="44.38652" lon="4.3484">
        <ele>157</ele>
        <time>2014-07-14T10:32:36Z</time>
      </trkpt>
      <trkpt lat="44.38657" lon="4.34846">
        <ele>157</ele>
        <time>2014-07-14T10:32:37Z</time>
      </trkpt>
      <trkpt lat="44.38681" lon="4.34878">
        <ele>154</ele>
        <time>2014-07-14T10:32:42Z</time>
      </trkpt>
      <trkpt lat="44.38696" lon="4.34899">
        <ele>153</ele>
        <time>2014-07-14T10:32:45Z</time>
      </trkpt>
      <trkpt lat="44.38718" lon="4.34915">
        <ele>153</ele>
        <time>2014-07-14T10:32:50Z</time>
      </trkpt>
      <trkpt lat="44.38731" lon="4.34911">
        <ele>154</ele>
        <time>2014-07-14T10:32:53Z</time>
      </trkpt>
      <trkpt lat="44.38763" lon="4.34977">
        <ele>157</ele>
        <time>2014-07-14T10:33:09Z</time>
      </trkpt>
      <trkpt lat="44.38787" lon="4.35026">
        <ele>154</ele>
        <time>2014-07-14T10:33:20Z</time>
      </trkpt>
      <trkpt lat="44.38796" lon="4.35044">
        <ele>153</ele>
        <time>2014-07-14T10:33:23Z</time>
      </trkpt>
      <trkpt lat="44.38857" lon="4.3513">
        <ele>149</ele>
        <time>2014-07-14T10:33:39Z</time>
      </trkpt>
      <trkpt lat="44.38879" lon="4.35162">
        <ele>148</ele>
        <time>2014-07-14T10:33:43Z</time>
      </trkpt>
      <trkpt lat="44.38886" lon="4.35168">
        <ele>142</ele>
        <time>2014-07-14T10:33:44Z</time>
      </trkpt>
      <trkpt lat="44.389" lon="4.35179">
        <ele>143</ele>
        <time>2014-07-14T10:33:46Z</time>
      </trkpt>
      <trkpt lat="44.38905" lon="4.35186">
        <ele>143</ele>
        <time>2014-07-14T10:33:47Z</time>
      </trkpt>
      <trkpt lat="44.38964" lon="4.35262">
        <ele>138</ele>
        <time>2014-07-14T10:34:00Z</time>
      </trkpt>
      <trkpt lat="44.39012" lon="4.35337">
        <ele>132</ele>
        <time>2014-07-14T10:34:12Z</time>
      </trkpt>
      <trkpt lat="44.39052" lon="4.35353">
        <ele>131</ele>
        <time>2014-07-14T10:34:18Z</time>
      </trkpt>
      <trkpt lat="44.39088" lon="4.35406">
        <ele>132</ele>
        <time>2014-07-14T10:34:26Z</time>
      </trkpt>
      <trkpt lat="44.39109" lon="4.35465">
        <ele>134</ele>
        <time>2014-07-14T10:34:39Z</time>
      </trkpt>
      <trkpt lat="44.39132" lon="4.35534">
        <ele>133</ele>
        <time>2014-07-14T10:34:58Z</time>
      </trkpt>
      <trkpt lat="44.39211" lon="4.35718">
        <ele>133</ele>
        <time>2014-07-14T10:35:36Z</time>
      </trkpt>
      <trkpt lat="44.39315" lon="4.35873">
        <ele>127</ele>
        <time>2014-07-14T10:36:08Z</time>
      </trkpt>
      <trkpt lat="44.39366" lon="4.35925">
        <ele>125</ele>
        <time>2014-07-14T10:36:21Z</time>
      </trkpt>
      <trkpt lat="44.3937" lon="4.35929">
        <ele>125</ele>
        <time>2014-07-14T10:36:22Z</time>
      </trkpt>
      <trkpt lat="44.39457" lon="4.36026">
        <ele>127</ele>
        <time>2014-07-14T10:36:44Z</time>
      </trkpt>
      <trkpt lat="44.3946" lon="4.36032">
        <ele>127</ele>
        <time>2014-07-14T10:36:45Z</time>
      </trkpt>
      <trkpt lat="44.39464" lon="4.36053">
        <ele>126</ele>
        <time>2014-07-14T10:36:48Z</time>
      </trkpt>
      <trkpt lat="44.39463" lon="4.36088">
        <ele>120</ele>
        <time>2014-07-14T10:36:53Z</time>
      </trkpt>
      <trkpt lat="44.39491" lon="4.36157">
        <ele>119</ele>
        <time>2014-07-14T10:37:04Z</time>
      </trkpt>
      <trkpt lat="44.39543" lon="4.36232">
        <ele>118</ele>
        <time>2014-07-14T10:37:18Z</time>
      </trkpt>
      <trkpt lat="44.39579" lon="4.3628">
        <ele>115</ele>
        <time>2014-07-14T10:37:26Z</time>
      </trkpt>
      <trkpt lat="44.39613" lon="4.36322">
        <ele>113</ele>
        <time>2014-07-14T10:37:33Z</time>
      </trkpt>
      <trkpt lat="44.39616" lon="4.36329">
        <ele>113</ele>
        <time>2014-07-14T10:37:34Z</time>
      </trkpt>
      <trkpt lat="44.39642" lon="4.36392">
        <ele>111</ele>
        <time>2014-07-14T10:37:42Z</time>
      </trkpt>
      <trkpt lat="44.39647" lon="4.36399">
        <ele>111</ele>
        <time>2014-07-14T10:37:43Z</time>
      </trkpt>
      <trkpt lat="44.39715" lon="4.36467">
        <ele>110</ele>
        <time>2014-07-14T10:37:58Z</time>
      </trkpt>
      <trkpt lat="44.39724" lon="4.36476">
        <ele>110</ele>
        <time>2014-07-14T10:38:00Z</time>
      </trkpt>
      <trkpt lat="44.39801" lon="4.36617">
        <ele>110</ele>
        <time>2014-07-14T10:38:27Z</time>
      </trkpt>
      <trkpt lat="44.39835" lon="4.36718">
        <ele>114</ele>
        <time>2014-07-14T10:38:48Z</time>
      </trkpt>
      <trkpt lat="44.39838" lon="4.36736">
        <ele>112</ele>
        <time>2014-07-14T10:38:51Z</time>
      </trkpt>
      <trkpt lat="44.39837" lon="4.36749">
        <ele>108</ele>
        <time>2014-07-14T10:38:53Z</time>
      </trkpt>
      <trkpt lat="44.39835" lon="4.36786">
        <ele>113</ele>
        <time>2014-07-14T10:38:59Z</time>
      </trkpt>
      <trkpt lat="44.39842" lon="4.3683">
        <ele>109</ele>
        <time>2014-07-14T10:39:05Z</time>
      </trkpt>
      <trkpt lat="44.39853" lon="4.36882">
        <ele>110</ele>
        <time>2014-07-14T10:39:11Z</time>
      </trkpt>
      <trkpt lat="44.39853" lon="4.36889">
        <ele>109</ele>
        <time>2014-07-14T10:39:12Z</time>
      </trkpt>
      <trkpt lat="44.39844" lon="4.3691">
        <ele>104</ele>
        <time>2014-07-14T10:39:15Z</time>
      </trkpt>
      <trkpt lat="44.39829" lon="4.36933">
        <ele>100</ele>
        <time>2014-07-14T10:39:18Z</time>
      </trkpt>
      <trkpt lat="44.39823" lon="4.36941">
        <ele>101</ele>
        <time>2014-07-14T10:39:19Z</time>
      </trkpt>
      <trkpt lat="44.39776" lon="4.36973">
        <ele>106</ele>
        <time>2014-07-14T10:39:26Z</time>
      </trkpt>
      <trkpt lat="44.39781" lon="4.3701">
        <ele>115</ele>
        <time>2014-07-14T10:39:32Z</time>
      </trkpt>
      <trkpt lat="44.39818" lon="4.37061">
        <ele>112</ele>
        <time>2014-07-14T10:39:47Z</time>
      </trkpt>
      <trkpt lat="44.39835" lon="4.37174">
        <ele>112</ele>
        <time>2014-07-14T10:40:15Z</time>
      </trkpt>
      <trkpt lat="44.39835" lon="4.3721">
        <ele>111</ele>
        <time>2014-07-14T10:40:21Z</time>
      </trkpt>
      <trkpt lat="44.39837" lon="4.37244">
        <ele>116</ele>
        <time>2014-07-14T10:40:26Z</time>
      </trkpt>
      <trkpt lat="44.39835" lon="4.37311">
        <ele>112</ele>
        <time>2014-07-14T10:40:43Z</time>
      </trkpt>
      <trkpt lat="44.3983" lon="4.37373">
        <ele>122</ele>
        <time>2014-07-14T10:40:53Z</time>
      </trkpt>
      <trkpt lat="44.39829" lon="4.3738">
        <ele>122</ele>
        <time>2014-07-14T10:40:54Z</time>
      </trkpt>
      <trkpt lat="44.39804" lon="4.37486">
        <ele>113</ele>
        <time>2014-07-14T10:41:10Z</time>
      </trkpt>
      <trkpt lat="44.39811" lon="4.37527">
        <ele>105</ele>
        <time>2014-07-14T10:41:15Z</time>
      </trkpt>
      <trkpt lat="44.39814" lon="4.37535">
        <ele>104</ele>
        <time>2014-07-14T10:41:16Z</time>
      </trkpt>
      <trkpt lat="44.3982" lon="4.37559">
        <ele>102</ele>
        <time>2014-07-14T10:41:20Z</time>
      </trkpt>
      <trkpt lat="44.39795" lon="4.37575">
        <ele>103</ele>
        <time>2014-07-14T10:41:28Z</time>
      </trkpt>
      <trkpt lat="44.39691" lon="4.37579">
        <ele>107</ele>
        <time>2014-07-14T10:41:55Z</time>
      </trkpt>
      <trkpt lat="44.39629" lon="4.37601">
        <ele>104</ele>
        <time>2014-07-14T10:42:12Z</time>
      </trkpt>
      <trkpt lat="44.39603" lon="4.37598">
        <ele>106</ele>
        <time>2014-07-14T10:42:23Z</time>
      </trkpt>
      <trkpt lat="44.39602" lon="4.37594">
        <ele>106</ele>
        <time>2014-07-14T10:42:24Z</time>
      </trkpt>
      <trkpt lat="44.39603" lon="4.37566">
        <ele>111</ele>
        <time>2014-07-14T10:42:32Z</time>
      </trkpt>
      <trkpt lat="44.39604" lon="4.37562">
        <ele>111</ele>
        <time>2014-07-14T10:42:33Z</time>
      </trkpt>
      <trkpt lat="44.39595" lon="4.37553">
        <ele>112</ele>
        <time>2014-07-14T10:42:40Z</time>
      </trkpt>
      <trkpt lat="44.39583" lon="4.37564">
        <ele>111</ele>
        <time>2014-07-14T10:42:46Z</time>
      </trkpt>
      <trkpt lat="44.39582" lon="4.37564">
        <ele>113</ele>
        <time>2014-07-14T10:42:47Z</time>
      </trkpt>
      <trkpt lat="44.39577" lon="4.37556">
        <ele>114</ele>
        <time>2014-07-14T10:43:17Z</time>
      </trkpt>
      <trkpt lat="44.39577" lon="4.37556">
        <ele>114</ele>
        <time>2014-07-14T10:43:18Z</time>
      </trkpt>
    </trkseg>
  </trk>
</gpx>